GFSWCAN_sfc_wetblb_000.txt.gz
Wetbulb
45.58 45.63 45.50 45.46 45.39 45.43 45.49 45.37 45.30 44.70 45.15 45.40 45.93 47.05 48.05 48.75 49.29 48.94 48.74 50.45 48.32 44.02 44.19 44.98 44.28 41.38 41.91 41.45 38.39 41.74 41.42 41.93 41.65 38.61 37.42 37.57 35.54 34.59 33.80 33.52 33.74 34.07 34.60 33.85 34.21 29.46 26.69 39.11 37.86 33.72 37.48 38.04 38.13 37.97
45.31 45.54 45.53 45.49 45.43 45.29 45.04 45.01 45.14 44.48 44.93 45.26 45.59 46.87 47.75 48.24 49.29 49.93 47.33 50.50 50.96 46.20 44.81 47.60 47.28 46.45 45.50 45.95 43.74 43.13 42.03 42.34 43.54 40.86 39.41 40.66 34.10 35.40 37.99 30.26 35.93 34.84 38.12 37.18 35.39 34.32 39.16 38.56 38.85 40.15 39.68 38.64 37.60 36.98
45.33 45.50 45.45 45.26 45.22 45.19 44.88 44.82 44.88 44.92 44.82 45.05 45.33 46.68 47.13 47.85 49.14 49.28 47.58 49.10 48.43 44.89 44.76 44.41 43.76 47.18 48.97 48.71 49.63 42.28 43.83 45.54 44.62 45.08 40.50 37.71 34.31 36.11 33.73 35.12 33.74 36.58 39.88 38.95 37.03 37.46 36.99 37.99 39.42 40.42 39.91 38.94 38.54 38.71
45.18 45.29 45.34 45.05 44.83 44.84 44.63 44.62 44.80 44.87 44.89 45.04 45.53 46.39 46.74 47.33 48.25 48.97 47.02 49.06 48.48 45.75 40.83 42.82 46.96 44.69 48.18 47.99 48.10 48.04 46.66 47.26 46.38 46.88 42.73 37.17 36.16 37.03 34.75 34.97 35.47 37.99 39.48 36.37 35.82 35.47 35.46 37.30 37.77 38.58 37.98 38.65 38.22 38.07
45.23 44.98 45.12 45.10 44.96 44.42 44.64 44.54 44.71 44.69 44.82 44.59 45.15 45.80 46.41 47.12 47.47 48.02 48.12 49.52 50.53 46.31 41.78 42.91 44.89 46.03 47.40 47.60 47.22 47.49 46.64 45.87 44.98 44.34 42.92 40.63 39.40 38.84 36.99 36.64 34.64 36.09 37.63 37.27 35.80 38.76 38.83 37.77 39.02 38.52 38.38 37.57 38.16 37.54
45.13 45.34 45.30 44.98 44.87 44.58 44.63 44.65 44.55 44.49 44.65 44.10 44.87 45.41 46.27 46.40 46.45 45.74 44.99 49.37 50.21 49.64 43.63 39.81 46.06 44.97 46.50 47.29 46.90 45.89 46.14 45.44 45.21 44.47 43.32 44.28 42.96 41.37 34.57 33.68 39.43 39.02 39.24 41.01 39.87 38.94 37.61 37.83 37.69 37.66 37.42 37.76 38.18 37.46
45.13 45.28 45.21 44.81 44.60 44.34 44.25 44.30 44.36 44.44 43.67 44.35 45.03 46.04 46.37 46.12 44.17 42.17 43.30 46.84 50.64 49.92 43.15 38.02 39.49 44.85 45.65 46.25 46.27 46.39 47.02 45.85 45.21 44.19 43.04 41.82 41.71 41.95 37.13 34.51 40.50 39.74 40.36 38.43 38.98 39.35 36.78 37.05 36.30 37.09 37.50 37.20 37.13 35.42
45.26 44.68 44.50 44.14 43.88 44.22 44.11 44.01 43.68 43.23 44.17 44.62 45.30 46.29 45.69 45.73 45.80 44.44 48.07 49.72 50.11 46.79 45.11 35.36 36.75 40.73 45.80 43.79 42.53 46.64 44.27 45.09 43.88 42.87 40.84 39.83 39.72 38.53 35.60 39.55 37.30 36.54 37.00 37.31 36.91 37.73 38.20 36.67 36.09 34.56 35.29 35.32 33.38 32.13
44.52 44.16 43.97 43.91 43.84 43.63 43.55 43.06 42.86 43.47 43.75 44.96 45.16 45.38 43.87 44.09 43.44 47.27 50.49 49.87 49.04 46.19 39.31 37.88 34.55 34.38 43.78 42.40 42.63 42.25 44.08 40.90 42.97 39.58 38.92 38.62 36.72 33.33 37.76 38.66 36.79 36.80 37.64 35.52 34.70 35.60 36.42 35.44 33.64 33.44 33.16 32.49 31.32 30.60
44.13 43.88 43.79 43.42 43.14 42.99 42.75 42.80 42.70 42.40 43.55 43.65 43.28 41.31 38.66 44.60 49.90 50.09 47.40 44.14 41.04 42.98 41.90 39.22 38.66 37.67 41.83 40.67 38.25 39.68 38.90 37.94 33.51 38.69 39.17 36.79 35.19 40.22 40.90 40.43 39.11 37.74 36.20 35.80 33.40 29.16 30.76 30.44 31.04 30.51 31.28 32.16 32.08 31.27
43.91 43.76 43.36 43.15 42.90 42.69 42.51 42.23 41.95 42.51 42.44 39.09 34.87 34.65 36.20 41.31 45.93 44.67 39.11 38.17 39.20 35.69 39.57 39.77 40.07 37.70 40.57 37.33 37.29 37.73 34.30 34.09 32.50 32.49 36.46 33.32 34.78 37.74 39.36 40.36 38.23 37.23 37.12 37.02 37.15 36.11 35.29 34.29 31.66 30.51 30.16 31.06 32.09 32.26
43.71 43.37 43.12 42.95 42.85 42.84 42.10 41.79 42.59 38.69 37.36 38.86 38.56 39.50 36.01 36.52 37.02 33.20 32.36 35.13 36.32 34.51 38.15 38.91 38.17 38.77 37.95 40.21 36.72 35.85 30.53 30.97 31.46 35.45 33.35 31.61 35.02 33.74 35.09 35.72 35.57 36.39 35.94 35.51 36.14 34.23 33.29 32.53 32.24 31.30 30.63 30.07 29.95 30.07
43.24 43.17 43.07 43.00 43.04 42.05 41.62 42.16 42.59 42.55 42.75 39.78 35.49 30.83 31.90 33.43 30.70 30.42 30.11 32.71 32.98 35.94 36.51 35.85 34.44 36.72 36.74 36.99 32.79 30.67 32.06 32.17 30.12 29.22 29.07 31.54 30.34 32.03 32.51 33.36 33.36 34.26 34.18 32.60 31.51 31.66 31.61 30.39 31.36 31.36 29.86 30.25 30.11 29.29
43.30 43.04 43.08 43.00 42.16 41.15 42.30 42.35 42.19 41.47 38.48 31.45 29.26 26.85 29.05 29.56 29.72 30.80 32.50 33.17 35.07 35.84 35.95 36.48 33.49 35.12 35.66 31.46 31.47 24.84 31.36 28.83 25.32 24.30 24.59 28.99 28.11 33.51 32.98 32.82 33.86 31.07 31.11 30.53 30.31 30.72 30.00 29.83 28.74 29.38 29.79 29.42 29.30 28.20
43.05 43.30 43.92 41.37 40.98 41.94 41.95 41.55 41.73 40.37 35.05 29.09 30.82 26.09 30.51 33.29 31.48 32.44 30.09 32.75 34.34 38.98 37.34 34.84 33.88 34.34 32.40 31.50 29.00 29.46 26.83 24.45 24.44 25.35 28.12 26.56 22.61 28.85 30.21 30.17 30.04 29.79 30.15 29.74 30.59 30.79 30.19 30.09 28.79 25.88 25.29 25.78 26.85 26.02
42.77 42.13 36.18 40.76 41.74 41.71 41.06 40.49 38.63 37.48 32.23 29.66 30.30 28.96 33.62 32.07 31.07 32.23 32.39 32.90 36.22 38.90 34.71 34.51 30.98 29.90 30.36 29.52 23.58 19.64 21.66 21.71 27.22 27.14 26.63 25.62 29.07 28.35 27.95 29.23 29.83 31.23 32.16 32.07 31.63 30.96 30.03 28.83 27.25 24.75 23.84 23.52 23.19 23.22
42.00 33.57 39.33 41.65 41.48 40.81 40.15 36.23 33.97 31.37 30.54 31.02 31.27 33.47 32.22 32.13 31.21 32.64 34.94 36.41 40.21 37.22 33.35 28.68 25.22 24.39 22.90 19.84 19.05 21.17 22.81 27.10 24.08 26.68 21.54 23.09 26.30 27.33 28.73 29.32 29.97 31.33 31.52 30.71 29.97 29.05 26.31 25.15 24.74 23.54 20.61 19.03 20.68 20.01
34.00 35.69 40.90 41.38 39.59 36.83 33.96 34.08 30.98 30.15 27.59 29.05 27.98 29.86 33.35 34.66 33.15 34.25 36.34 38.23 37.31 33.63 30.84 29.04 28.23 23.96 22.18 19.25 18.66 24.46 22.90 27.51 21.32 22.24 24.26 26.78 26.88 27.90 29.54 28.78 29.50 30.06 29.68 29.02 27.26 25.85 24.54 23.75 21.83 19.67 18.59 18.22 17.69 17.69
37.30 39.09 40.45 40.20 38.19 33.72 30.88 31.07 31.97 20.23 22.71 30.18 29.25 30.86 32.69 33.45 35.48 35.79 37.15 39.01 36.38 35.78 33.28 30.19 25.71 21.36 23.46 23.01 21.94 24.61 14.91 21.65 26.14 26.76 26.15 26.89 27.78 27.67 27.79 28.61 28.95 29.12 28.06 27.00 26.53 25.35 23.54 22.83 21.26 20.62 19.92 20.17 18.24 18.04
40.71 39.07 39.49 38.71 37.80 31.12 27.80 23.58 29.04 26.22 16.86 21.93 30.54 27.60 30.47 31.37 32.42 33.12 34.70 34.22 33.88 33.11 32.35 25.53 26.07 27.47 27.89 27.92 25.49 23.62 22.79 26.10 28.59 25.35 24.02 24.70 25.54 26.45 27.27 28.11 27.73 27.19 25.90 25.12 24.60 24.60 21.33 20.27 20.68 20.50 19.60 19.70 19.11 18.41
35.49 34.27 36.33 32.30 26.72 31.49 28.21 24.15 18.02 26.03 27.46 24.28 20.33 26.33 29.14 32.12 31.75 31.89 32.01 32.75 32.77 32.76 32.20 30.97 27.92 26.34 27.66 28.39 30.05 29.33 28.85 30.82 29.93 28.54 26.87 22.75 24.46 25.78 25.29 26.05 28.30 27.92 26.25 24.81 22.73 23.99 22.36 20.10 19.93 21.99 21.11 19.65 19.25 18.38
30.87 36.54 29.89 26.66 19.69 15.48 19.50 25.51 16.84 20.69 24.55 17.87 19.08 23.53 22.91 24.74 27.73 28.84 31.09 28.79 27.63 26.09 26.94 28.95 27.69 26.93 27.30 27.03 28.14 28.91 29.51 29.68 29.06 29.52 29.72 28.42 24.51 24.54 24.93 25.73 26.87 25.60 25.16 23.39 22.05 20.15 19.04 19.61 19.87 20.01 20.15 19.91 19.86 18.21
33.24 27.64 18.34 16.40 14.72 12.61 15.12 17.80 13.96 11.85 14.10 14.14 17.17 19.75 22.84 23.16 26.50 29.88 24.30 23.46 24.17 26.69 26.60 26.45 24.47 25.41 26.28 27.36 28.73 29.34 29.77 29.09 27.61 27.38 27.24 26.61 26.50 26.52 26.24 25.76 25.46 22.97 20.05 18.61 20.35 19.76 19.11 23.16 22.01 18.90 19.59 18.73 18.91 18.08
29.67 16.28 15.41 13.08 10.38 8.59 16.46 7.22 16.09 12.96 11.74 14.16 13.56 15.96 20.69 23.10 25.91 23.28 19.59 18.27 24.29 26.94 26.02 25.79 26.13 25.69 26.34 25.98 24.87 26.09 28.02 28.65 27.02 27.00 27.11 25.79 23.24 22.16 23.00 21.92 21.79 21.60 21.40 21.27 21.54 21.01 19.63 19.72 21.83 18.58 16.91 15.11 13.54 13.97
15.26 9.89 8.54 2.44 3.01 7.14 2.11 6.45 3.54 8.93 6.94 9.83 11.92 14.59 20.22 23.53 21.78 19.45 17.89 16.38 18.40 18.80 18.56 24.83 26.16 25.88 23.27 22.82 23.02 23.66 26.72 27.25 25.15 22.59 23.82 23.56 21.04 19.95 19.03 19.27 19.12 19.72 21.16 19.81 18.66 17.54 15.84 15.96 15.36 13.26 12.05 11.53 9.10 6.47
5.82 5.08 6.69 3.42 2.26 7.99 6.73 7.63 2.73 4.25 9.18 9.99 14.62 18.19 21.60 21.67 17.61 14.45 12.94 11.34 13.39 15.84 14.79 16.40 17.63 23.39 23.00 23.63 22.38 22.64 23.78 26.05 25.16 21.75 22.86 25.47 24.21 21.56 18.79 17.72 16.82 16.20 18.98 20.15 18.19 16.02 14.60 13.41 12.15 11.47 12.38 14.81 17.34 5.84
5.40 5.10 16.48 23.42 18.03 17.55 12.06 13.89 13.69 8.26 3.42 6.88 12.94 13.82 16.48 15.21 14.48 12.57 12.72 12.71 12.14 14.35 15.24 17.55 21.61 20.63 19.25 19.20 20.58 21.16 21.37 22.17 22.17 20.19 21.60 21.91 22.02 22.81 23.01 20.58 18.37 16.97 19.30 18.98 17.98 16.13 13.78 13.12 12.80 11.93 9.35 7.31 4.91 4.23
15.62 14.39 7.56 5.99 9.54 7.41 4.62 4.00 2.03 2.19 6.37 13.68 14.67 10.32 10.44 10.94 11.11 8.91 10.94 13.65 13.65 14.36 17.36 18.88 19.21 19.22 18.63 18.95 19.90 19.64 19.05 19.51 19.58 19.65 19.33 19.22 20.40 20.03 19.81 19.40 19.73 21.87 18.19 17.27 16.63 16.04 15.03 13.53 11.39 9.40 7.62 6.01 4.48 3.94
18.58 16.43 12.43 1.80 2.12 2.32 2.91 4.78 4.85 9.95 14.60 6.26 5.09 9.55 8.70 9.05 7.03 7.14 10.50 11.57 12.65 17.61 16.78 16.40 16.93 18.64 18.37 18.16 18.76 19.79 21.89 23.01 22.06 18.26 15.96 14.60 14.68 14.58 18.68 19.07 18.63 18.74 18.85 18.47 20.71 15.62 12.61 12.25 11.20 9.54 8.18 7.32 4.67 0.43
16.64 18.83 8.15 -1.49 1.49 3.63 3.58 5.96 1.61 13.73 12.08 12.12 13.95 10.08 9.73 8.93 9.58 10.68 10.70 11.40 13.15 14.35 16.84 17.84 18.95 19.15 18.25 18.39 17.20 16.50 16.74 18.94 21.68 20.61 17.07 15.04 13.54 15.45 16.62 16.62 16.62 16.75 17.12 16.92 17.11 18.14 21.06 14.44 12.45 6.95 5.31 4.34 3.38 0.07
12.63 10.02 3.41 1.89 1.13 -1.22 1.54 6.47 7.17 17.10 4.09 -0.17 5.92 4.70 8.78 6.50 10.98 11.64 9.92 9.86 12.28 16.99 17.82 17.33 17.61 18.46 18.15 17.97 18.07 17.18 14.81 15.53 16.36 16.39 16.06 15.46 15.79 15.66 15.59 15.54 15.74 15.90 15.52 14.37 12.63 11.35 8.94 4.49 2.80 1.23 -0.40 -3.48 -2.58 -2.69
11.34 4.07 4.25 1.74 -0.19 2.97 3.29 -0.16 -4.34 -4.02 -4.84 -2.39 -0.62 2.60 8.77 11.86 11.02 10.02 9.23 10.27 15.39 15.27 18.98 18.08 16.96 15.06 16.97 17.17 17.87 18.44 19.14 16.30 16.44 16.27 15.82 15.07 14.71 14.64 14.21 13.28 12.78 12.15 10.80 9.31 7.92 6.29 3.92 1.40 0.25 -0.80 -1.96 -6.88 -7.55 -7.14
7.54 10.14 -1.97 -4.66 -2.38 -0.68 2.05 0.09 -2.22 -3.96 -5.56 -7.00 -2.92 0.94 7.89 10.31 11.49 8.70 11.40 11.54 10.91 12.37 13.43 14.41 15.30 15.78 15.75 16.02 15.93 16.09 16.39 15.49 18.06 20.96 20.80 19.91 19.07 16.36 12.43 11.28 11.05 10.31 9.03 7.52 5.84 4.27 2.04 -0.40 -1.27 -2.49 -5.01 -8.04 -9.77 -8.52

GFSWCAN_sfc_wetblb_003.txt.gz
Wetbulb
45.93 46.21 46.25 46.07 46.03 45.97 45.76 45.68 45.49 45.46 45.41 44.98 45.62 45.87 47.02 48.08 48.64 48.01 45.90 48.32 48.10 43.91 44.05 44.31 44.82 41.70 41.18 40.73 38.01 41.53 40.78 41.71 40.97 37.32 37.16 35.93 33.71 33.63 30.89 31.29 31.45 33.01 33.64 29.96 30.27 27.53 24.71 38.37 37.29 34.45 36.88 36.14 37.65 37.75
45.98 46.11 45.81 46.15 45.93 45.40 45.49 45.43 45.13 45.19 45.35 45.08 45.54 45.59 46.64 47.28 48.22 48.63 45.04 49.92 51.23 46.15 43.75 46.88 45.84 45.62 46.64 46.21 43.18 43.22 41.89 42.16 43.31 40.00 39.20 39.44 35.08 34.19 34.12 29.52 33.98 32.81 35.98 33.29 33.79 32.73 38.24 37.97 37.56 38.43 38.59 37.58 35.98 36.33
45.93 45.56 45.49 45.69 45.96 45.72 45.09 45.24 45.12 45.02 45.22 45.11 45.49 45.49 46.25 47.02 48.07 47.64 45.93 48.67 48.76 45.33 44.55 44.03 43.96 47.03 49.05 48.95 49.37 42.20 43.56 45.38 44.31 44.68 42.35 39.46 33.61 36.63 33.43 32.91 31.93 35.41 38.62 36.56 37.26 36.18 36.20 36.98 38.15 38.47 38.24 36.59 37.03 37.99
45.90 45.73 45.74 45.85 45.70 45.56 45.31 45.10 45.14 45.09 45.14 45.17 45.42 45.28 45.56 46.64 47.63 47.26 44.08 46.71 47.14 45.93 40.64 41.18 46.57 43.31 46.91 48.11 48.12 48.14 46.71 47.41 46.65 46.30 42.83 36.98 35.08 36.48 33.77 34.72 35.02 37.59 38.01 36.13 35.40 34.48 35.21 37.45 36.88 36.99 36.57 37.31 37.25 37.30
45.76 45.32 45.81 45.79 45.40 45.09 44.89 44.70 44.85 44.90 44.89 45.16 44.30 44.65 45.30 46.12 47.00 45.62 45.07 46.44 48.50 46.47 41.49 42.68 44.49 44.61 46.98 47.08 46.91 47.39 46.53 45.30 45.17 44.10 43.15 40.16 38.28 37.30 35.19 35.13 33.45 36.28 37.80 36.40 35.55 38.93 38.98 37.92 38.16 37.33 36.94 36.17 36.65 35.89
45.21 45.56 44.98 44.88 44.59 44.31 44.55 44.67 44.75 44.60 44.31 43.34 44.01 44.65 45.16 45.69 46.26 43.31 42.22 49.13 50.42 50.24 43.46 39.80 46.02 44.89 46.10 47.28 46.85 46.51 46.29 45.44 45.56 44.31 43.50 44.54 43.94 41.76 32.86 32.25 38.81 38.01 38.67 40.84 40.18 37.38 36.24 36.40 36.84 37.06 36.41 36.35 36.58 35.70
45.00 45.30 44.51 44.22 44.20 44.39 44.10 44.02 43.75 43.13 43.22 43.69 44.00 44.37 45.20 45.34 43.69 38.86 40.95 45.12 46.92 48.54 43.44 37.90 39.54 44.98 46.22 46.19 46.47 46.11 47.08 46.18 45.56 44.55 43.45 43.03 42.70 43.23 38.30 32.74 39.18 39.14 38.32 37.02 37.11 37.80 36.25 35.74 35.22 36.02 36.51 36.41 36.63 34.77
44.85 44.72 44.20 44.04 43.91 43.55 43.45 43.18 43.03 43.21 42.66 42.75 43.20 44.03 44.57 44.95 44.53 41.40 44.75 46.89 47.47 46.74 44.90 35.90 36.67 40.88 45.37 43.90 42.49 46.78 44.00 45.05 44.38 43.23 42.39 41.10 39.54 40.07 36.77 38.52 37.33 36.11 36.10 36.13 35.49 36.47 37.59 35.43 35.10 33.94 34.91 35.22 33.51 32.17
44.39 44.39 44.10 43.92 43.55 43.28 43.16 43.01 42.76 42.41 42.69 43.68 43.75 44.50 44.20 41.41 40.49 44.75 50.25 49.71 49.50 46.28 39.13 38.08 34.74 34.00 44.22 42.85 42.55 42.95 44.00 41.09 43.27 40.87 40.40 39.75 37.16 34.73 38.17 38.65 37.50 36.20 37.06 34.96 33.67 34.48 34.91 34.21 32.91 33.32 33.58 33.04 31.55 30.40
44.37 44.09 44.00 43.70 43.46 43.26 43.16 42.94 42.31 42.12 43.24 42.81 40.46 37.62 37.72 39.50 41.88 47.48 47.01 43.95 41.76 42.43 42.17 39.24 39.47 37.44 41.60 41.07 38.38 40.06 39.51 38.27 33.87 38.92 39.13 37.30 36.71 40.26 40.87 40.18 39.86 37.38 35.28 34.71 32.49 27.77 29.10 28.61 30.80 30.84 32.03 33.00 33.31 31.01
43.60 43.87 43.50 43.45 43.33 43.31 43.35 42.23 42.15 42.68 41.20 36.26 35.82 33.08 37.79 40.98 39.20 43.72 36.88 37.84 39.30 35.57 40.67 37.85 38.10 37.83 40.36 37.78 38.11 37.75 34.60 34.03 30.02 32.41 36.42 33.29 34.59 36.97 38.27 39.82 37.89 36.24 36.09 35.77 35.71 34.75 34.83 34.46 32.02 30.16 29.38 29.76 29.88 30.04
43.08 43.31 43.40 43.30 43.48 43.45 42.63 41.74 42.50 39.54 37.85 37.73 37.49 39.78 36.37 33.86 35.07 33.10 32.28 34.51 36.29 35.02 37.78 38.90 36.87 37.32 37.64 40.25 37.37 36.18 32.88 33.67 30.92 34.04 33.52 31.51 34.74 32.16 34.76 36.14 35.31 35.47 35.20 35.03 34.93 33.88 32.70 32.25 31.84 30.91 30.18 29.74 29.34 29.42
42.88 43.23 43.40 43.30 43.43 43.40 41.44 42.35 42.36 41.85 41.29 39.01 35.58 31.15 30.61 31.17 28.96 30.09 28.52 32.35 32.43 35.74 36.19 36.28 33.40 36.45 35.59 37.50 32.85 32.35 32.40 32.13 29.89 29.44 29.05 31.48 28.58 31.27 32.30 32.82 33.12 34.22 33.95 32.28 31.29 31.71 31.15 29.69 30.49 30.76 28.98 29.34 29.04 27.68
42.79 43.05 43.11 43.23 42.09 41.50 42.20 42.08 41.46 40.65 38.59 31.21 28.08 24.25 26.04 28.62 30.61 31.09 31.25 26.38 29.69 34.95 36.53 36.01 33.83 35.15 35.04 32.08 31.10 25.26 32.21 30.11 25.97 24.71 25.01 26.15 26.65 31.15 31.62 31.91 33.00 31.00 30.77 30.13 29.86 30.32 29.77 29.48 28.24 28.93 29.33 29.41 28.73 27.22
42.88 43.03 43.01 40.39 41.51 41.99 41.84 40.98 41.41 39.96 35.49 29.22 29.87 24.40 29.06 32.47 32.26 32.26 32.30 32.53 34.53 37.35 36.31 35.05 33.03 35.27 32.37 31.17 28.24 29.77 27.60 25.47 26.05 26.57 25.82 25.69 21.82 27.48 29.99 30.62 29.71 28.98 29.56 29.49 30.00 29.72 28.50 28.74 27.96 26.39 27.03 27.88 27.77 26.50
42.99 41.89 35.38 40.80 41.91 41.73 40.87 38.75 38.39 37.62 32.75 29.56 29.45 27.70 32.98 31.49 31.85 32.25 32.29 32.55 36.17 37.62 34.65 35.57 32.21 29.90 31.12 30.97 23.48 20.90 22.63 23.01 28.92 26.47 23.22 23.04 27.53 28.06 28.03 28.60 28.91 29.84 30.26 30.44 30.54 30.28 29.92 29.24 27.66 25.37 25.50 25.27 24.75 24.12
42.14 33.39 39.58 41.57 41.63 40.40 39.65 36.06 34.38 31.44 30.11 28.84 30.43 33.44 31.73 31.44 31.52 32.24 34.62 35.08 40.10 35.66 34.66 32.35 30.74 28.05 24.92 21.63 20.20 22.39 24.37 29.45 27.42 22.44 23.30 21.12 23.52 26.37 27.36 28.16 28.83 30.19 30.21 30.05 29.24 28.78 26.99 26.37 25.73 24.85 21.74 20.06 20.86 20.11
34.32 35.26 40.69 41.30 39.04 35.04 31.50 33.71 31.30 28.43 26.02 27.74 25.65 24.48 30.77 32.26 32.85 34.47 36.01 37.64 36.81 34.19 32.30 31.98 27.92 22.91 21.36 19.82 20.40 25.73 26.30 27.65 24.01 20.43 22.92 25.60 26.20 26.94 28.31 27.78 28.21 28.92 29.03 28.76 27.50 26.55 25.96 24.07 21.93 19.34 18.42 18.35 18.06 18.08
36.82 38.07 40.15 39.73 36.65 28.33 22.17 30.34 32.06 24.36 18.49 29.22 29.34 25.55 31.16 31.56 33.97 35.71 35.70 37.04 37.56 36.68 33.24 31.09 24.52 21.93 24.02 23.88 24.14 20.56 20.74 22.71 25.81 25.80 24.37 25.77 26.92 27.10 27.14 27.44 27.45 26.46 26.18 26.64 26.93 25.49 23.12 23.15 21.21 20.43 19.92 20.33 17.96 17.77
41.14 38.85 38.92 37.90 36.33 24.42 23.13 24.56 26.55 26.37 23.27 19.04 27.23 28.13 26.00 28.38 32.09 33.26 33.32 33.83 33.56 33.13 32.10 30.80 27.45 27.06 27.25 27.76 26.61 27.51 25.03 25.82 26.38 24.36 23.70 23.83 24.81 24.89 26.82 27.30 26.51 25.99 24.19 24.16 23.62 24.04 20.76 19.55 20.10 20.29 19.81 19.80 18.81 18.15
34.68 33.90 35.68 31.03 25.64 30.74 28.04 25.09 19.97 24.75 26.94 25.13 20.41 20.36 25.21 26.12 31.37 31.59 32.02 31.86 31.91 31.87 31.79 31.15 28.76 26.98 28.63 28.89 30.00 30.19 29.02 29.91 28.60 27.97 24.32 20.45 23.79 24.94 24.96 25.59 26.44 26.28 25.38 24.31 21.51 23.01 21.89 19.41 19.12 22.17 21.38 19.51 18.58 17.79
30.67 35.67 28.83 25.15 18.26 13.06 21.42 26.90 17.43 19.06 23.35 23.20 18.71 15.26 23.24 20.77 21.92 24.86 28.80 29.19 27.51 25.43 26.67 27.66 28.70 27.66 27.95 28.19 28.28 29.01 29.62 29.30 28.54 28.84 29.53 28.31 24.23 24.20 25.29 26.23 26.38 24.93 25.75 25.14 22.81 20.42 18.99 19.80 20.27 19.94 19.43 19.76 20.14 18.27
32.18 27.35 17.89 15.68 14.39 12.07 12.96 15.30 12.23 10.34 17.49 12.12 12.77 10.66 11.28 14.31 22.72 27.87 24.37 23.20 24.31 27.11 27.35 26.42 26.37 26.59 26.90 27.73 28.75 28.98 29.32 28.20 26.24 26.13 27.01 25.69 26.04 26.37 25.88 25.82 26.11 24.04 21.17 19.99 21.03 20.18 19.39 23.68 22.43 19.11 19.68 18.40 18.56 18.76
29.05 15.78 15.94 13.29 9.80 7.60 15.10 5.39 13.99 9.88 7.20 10.10 5.42 8.16 9.24 12.60 17.96 22.11 21.34 20.79 21.81 22.86 21.31 22.43 26.77 26.40 26.53 25.91 25.09 26.75 27.63 28.00 26.75 25.86 26.16 25.68 23.87 23.04 24.35 23.96 24.13 23.88 22.31 21.67 21.81 21.58 20.56 20.09 22.50 18.82 18.15 16.96 16.30 14.47
16.38 10.68 8.85 3.81 2.08 5.73 1.58 3.95 -0.20 6.86 4.93 3.46 5.66 6.00 12.32 18.97 15.46 12.94 17.23 15.75 16.00 17.75 17.00 18.28 21.56 25.55 24.45 23.21 23.93 24.93 27.83 28.24 26.52 24.68 23.79 24.51 21.24 20.85 19.97 21.05 21.48 22.44 23.78 21.40 19.84 19.79 18.72 16.79 16.17 15.59 14.88 13.61 10.34 7.95
8.01 5.97 6.48 4.05 1.17 6.52 6.67 3.62 1.25 3.32 3.64 2.02 5.94 11.03 13.66 17.83 13.41 6.56 10.19 11.32 13.32 14.79 14.10 14.18 14.82 16.67 22.79 23.91 23.20 23.67 24.36 26.54 25.57 22.57 22.86 24.78 24.36 22.40 19.74 18.95 18.52 18.33 21.17 21.97 19.31 16.85 16.19 15.81 14.87 13.79 12.37 14.94 17.81 8.13
7.08 6.62 15.63 22.35 17.44 16.41 11.24 12.56 12.47 6.80 0.71 1.56 3.75 5.12 8.57 10.37 10.10 10.37 12.59 12.73 11.98 14.03 14.58 14.60 16.40 18.41 20.46 20.12 21.08 21.43 22.64 24.06 23.27 21.77 23.61 24.64 24.98 25.32 24.35 21.83 19.61 18.65 21.47 21.27 20.20 18.63 16.16 14.77 13.80 13.23 11.05 9.32 7.86 8.28
16.54 15.07 8.84 8.04 9.41 6.40 4.21 3.50 1.17 2.06 4.43 11.96 11.22 2.51 4.72 12.82 13.83 8.08 7.19 8.94 11.60 13.04 12.94 17.51 18.97 19.66 19.51 19.60 20.08 19.87 19.67 20.49 20.86 21.26 21.15 20.65 21.12 20.94 21.12 20.83 21.40 23.60 20.59 19.56 18.30 17.49 16.44 14.75 13.18 11.41 9.37 7.73 5.70 5.00
19.07 17.28 11.95 0.69 1.06 4.25 4.19 6.61 5.22 8.97 13.67 5.58 4.50 4.79 5.10 7.53 3.44 3.14 5.81 8.99 11.10 12.24 15.80 16.41 17.03 18.79 18.55 18.75 19.49 20.81 21.54 22.78 22.40 19.14 16.52 15.35 15.39 16.28 20.25 20.10 20.11 20.59 20.57 19.78 21.67 17.28 14.27 13.58 12.47 10.79 9.65 7.23 2.64 0.19
13.49 17.14 7.64 -0.88 3.09 5.16 4.22 5.40 2.14 12.86 11.03 10.91 12.93 7.76 7.66 4.62 3.93 6.23 7.70 9.42 10.18 12.19 16.45 17.58 18.61 19.03 18.41 18.44 17.36 16.90 17.50 20.19 22.83 22.14 19.00 15.25 13.89 17.27 18.51 18.52 18.33 18.61 19.04 18.65 18.46 19.29 21.84 15.73 14.24 9.01 6.77 4.92 3.58 1.59
12.07 10.10 2.09 1.75 1.40 -2.02 -1.18 4.29 5.46 16.31 2.26 -1.78 1.77 2.78 2.70 1.21 5.09 9.02 9.27 9.88 11.40 15.81 17.62 17.15 17.23 18.32 18.85 18.84 18.82 18.24 15.42 16.63 18.59 18.76 17.86 17.49 17.46 17.47 17.55 17.71 18.35 18.73 17.86 15.87 14.09 12.78 10.16 7.30 6.08 4.53 3.03 1.49 1.87 -1.40
7.71 3.06 3.81 1.33 -0.58 0.92 2.11 -2.85 -5.80 -3.97 -5.24 -1.06 -0.26 -3.05 0.41 5.55 6.23 8.79 10.64 10.92 15.39 14.88 19.05 17.85 16.18 14.74 16.49 17.41 18.86 19.50 19.90 17.55 17.54 17.68 17.03 16.06 15.32 15.45 15.62 15.68 15.61 14.95 13.43 11.47 9.73 8.37 6.47 5.10 3.98 2.67 0.97 -2.20 -5.08 -6.09
4.62 0.92 -3.70 -5.33 -3.14 -1.45 1.23 -0.90 -2.17 -5.40 -5.18 -7.25 -3.11 -2.34 4.06 7.79 7.17 9.83 12.31 12.54 11.90 13.05 13.70 14.31 14.89 15.40 15.54 15.95 16.54 17.07 17.46 16.92 19.52 21.89 21.44 20.42 19.36 17.23 14.46 13.56 13.01 11.92 10.45 8.68 7.10 5.98 4.41 2.75 0.74 -1.19 -3.54 -6.61 -9.59 -8.79

GFSWCAN_sfc_wetblb_006.txt.gz
Wetbulb
45.62 46.52 46.80 46.29 46.44 46.48 46.25 45.81 45.86 45.60 45.63 45.74 45.53 45.86 45.84 47.09 48.29 47.09 45.03 48.80 47.22 43.08 43.61 44.98 44.43 41.17 40.13 40.04 37.10 41.04 40.46 41.32 40.20 37.06 36.48 36.49 35.36 32.84 29.35 30.54 31.04 31.69 30.40 29.98 29.66 27.40 24.15 37.60 36.84 33.54 37.02 36.74 36.41 37.27
45.61 46.43 46.65 46.26 46.47 46.32 46.25 45.92 45.83 45.62 45.44 45.64 45.42 45.77 45.42 46.03 47.56 47.99 42.98 47.61 49.18 44.70 42.46 45.81 45.87 45.59 45.52 45.28 43.00 42.63 41.44 41.96 42.49 40.18 37.91 39.37 36.21 32.52 31.64 28.04 32.36 31.36 34.74 32.36 32.85 31.88 37.21 37.12 37.36 38.90 37.97 37.20 35.18 36.14
45.76 46.56 46.10 46.33 46.20 45.75 45.63 45.52 45.37 45.38 45.40 45.37 45.50 45.64 44.98 45.67 46.77 46.88 43.53 45.64 47.05 45.30 44.07 42.83 42.66 45.97 48.23 48.25 48.59 42.13 43.25 44.93 44.17 45.66 41.76 38.12 36.02 35.55 31.33 31.74 29.98 33.78 37.33 35.69 35.79 35.12 35.99 36.31 37.05 36.61 36.59 35.70 36.28 37.23
45.88 46.05 45.74 45.85 45.41 45.00 44.74 45.07 45.16 45.31 45.24 45.29 45.43 44.39 44.76 45.37 46.20 46.52 42.82 44.44 43.67 45.28 40.11 39.03 45.90 43.35 45.86 47.23 47.45 48.00 46.66 47.34 46.64 45.86 43.33 39.47 36.26 36.65 33.60 34.60 34.37 36.97 36.33 35.79 35.30 36.60 35.92 36.79 36.30 35.54 35.62 36.32 36.64 36.88
45.87 45.46 45.87 45.23 44.95 44.71 44.74 44.52 44.35 44.30 43.97 43.68 43.73 44.05 44.55 45.04 45.68 44.72 43.69 44.42 45.57 44.52 41.04 42.32 43.13 43.28 45.72 46.16 45.73 47.25 46.41 45.16 44.09 43.02 42.13 40.33 38.17 36.82 34.58 34.42 32.97 37.21 37.85 36.70 35.61 38.97 38.17 37.05 36.69 36.46 35.85 35.14 36.20 35.70
45.63 45.14 45.57 44.83 44.56 44.47 44.12 43.81 43.66 43.42 43.31 43.56 43.14 43.06 43.54 44.24 44.72 40.94 39.34 47.83 49.24 49.15 43.70 39.23 45.70 44.33 46.05 46.97 46.39 46.21 46.24 45.32 44.81 43.78 43.50 44.39 43.72 39.84 32.77 32.23 38.52 37.59 38.19 40.28 39.75 36.25 35.43 35.61 36.16 35.93 35.10 35.06 35.48 34.95
45.40 44.67 44.80 44.70 44.48 44.19 43.87 43.60 43.42 43.30 43.14 42.91 43.37 43.23 43.45 43.66 40.61 37.85 38.46 44.17 45.82 45.45 43.81 37.54 37.21 44.72 45.93 45.35 46.16 46.15 46.66 45.43 44.83 43.36 43.40 43.06 42.64 42.30 39.34 35.53 39.37 38.77 38.45 36.49 36.34 36.95 35.85 35.83 35.73 35.84 35.89 35.20 35.39 33.71
44.92 44.04 44.42 44.35 44.45 44.03 43.80 43.58 43.44 43.21 42.65 43.18 43.42 43.50 43.82 44.34 43.60 39.84 43.48 45.73 45.66 43.19 44.90 36.09 36.53 40.38 45.62 42.81 42.19 46.33 44.07 44.88 44.37 43.08 42.94 41.18 40.92 40.62 36.78 38.78 36.88 35.46 35.91 35.54 34.77 35.60 37.17 35.27 34.65 33.90 34.37 34.35 32.82 32.22
44.39 43.30 44.23 43.98 44.05 43.90 43.80 43.77 43.53 42.58 43.01 44.48 43.25 43.77 43.92 41.69 38.30 41.84 43.83 44.81 46.41 45.73 38.93 38.11 34.38 32.27 43.71 42.80 42.03 43.43 44.06 40.34 43.48 40.84 40.89 40.29 38.34 35.34 38.95 38.93 37.86 36.14 36.90 34.44 33.43 34.29 34.87 34.24 32.81 33.17 33.55 33.02 32.27 31.59
44.49 43.11 43.99 43.65 43.58 43.79 43.82 43.74 42.70 42.49 43.40 42.57 40.21 36.27 36.59 37.34 42.76 42.58 44.58 43.41 41.76 43.25 42.73 39.08 38.44 36.92 40.75 41.21 39.16 39.96 39.96 38.19 33.64 39.02 39.76 37.50 37.28 41.13 41.11 40.52 40.36 37.82 35.16 34.38 32.52 29.24 30.23 30.63 32.58 32.42 32.73 33.30 33.00 32.13
44.28 43.00 42.81 43.05 43.64 43.69 43.74 43.23 42.19 42.77 41.24 35.92 32.09 33.66 38.47 41.48 39.14 41.68 37.12 37.65 39.12 35.76 40.75 39.26 36.55 37.89 39.72 36.96 37.76 37.69 34.91 34.05 32.38 32.07 36.36 33.07 34.41 37.09 37.28 39.79 39.43 37.25 36.03 36.08 36.25 35.13 35.55 35.47 32.97 31.43 30.78 30.57 30.18 29.79
44.03 43.25 43.05 43.30 43.60 43.59 42.75 42.26 42.57 37.34 35.23 37.14 36.90 39.29 37.71 34.30 32.88 32.14 32.51 34.55 35.68 32.21 37.55 38.52 36.94 36.75 37.09 39.16 37.62 36.24 31.14 33.57 30.49 32.69 33.42 31.34 33.00 32.43 33.95 35.50 35.34 35.31 35.28 35.61 34.67 34.43 33.90 33.80 33.32 31.94 30.24 29.23 28.51 27.91
43.65 43.62 43.15 43.49 43.45 42.44 42.52 42.51 42.04 41.27 41.02 38.47 34.89 31.10 30.57 30.45 28.18 29.99 28.40 31.52 32.76 35.47 36.23 36.07 33.28 35.06 35.26 35.31 34.10 32.54 31.82 31.59 29.28 30.24 30.01 30.66 28.61 31.34 32.11 33.35 33.30 33.97 34.74 32.90 31.83 31.97 31.76 30.38 31.24 30.99 28.81 28.61 27.86 26.81
43.47 43.40 43.28 43.35 42.35 42.18 42.49 41.98 40.99 40.35 38.35 29.61 26.18 20.40 25.73 26.56 30.13 30.94 30.39 31.45 32.31 33.03 35.51 35.73 29.68 31.23 35.59 30.46 31.48 31.49 32.65 30.95 27.82 25.96 24.20 26.03 26.14 29.83 31.58 31.86 32.36 31.40 31.34 30.21 29.43 29.99 29.87 29.60 28.44 29.14 28.87 28.66 27.74 26.00
43.32 43.45 43.25 40.62 41.70 42.29 41.76 40.65 40.95 39.86 34.89 28.64 27.95 20.43 25.29 32.31 32.33 32.36 32.64 32.28 34.33 36.98 35.38 35.09 33.41 34.01 31.12 26.76 27.91 30.61 28.28 26.48 26.33 25.73 25.40 24.75 21.71 26.96 29.62 29.92 29.45 28.56 28.37 27.99 28.51 28.81 28.15 28.80 28.43 27.53 28.00 28.16 27.27 26.19
43.06 42.08 35.06 40.68 42.15 41.78 40.25 37.93 38.19 37.86 32.80 29.88 26.27 21.55 31.05 27.19 26.00 32.41 32.44 32.32 35.48 37.82 35.16 34.96 32.60 31.76 31.62 27.24 24.79 25.34 22.58 23.24 27.82 25.35 23.94 20.85 26.79 27.78 27.79 28.50 28.07 28.64 29.10 29.47 29.25 29.34 28.88 28.66 28.08 27.12 27.16 26.43 25.68 24.57
42.33 33.52 39.47 41.85 41.87 40.16 39.16 35.55 34.30 31.58 29.24 27.97 28.85 32.09 29.86 28.44 30.77 31.50 34.06 35.01 38.91 35.74 33.57 32.69 30.68 31.11 26.23 22.28 21.39 23.60 25.33 29.23 29.29 22.09 28.17 21.20 22.12 25.50 26.84 27.76 28.24 28.97 28.88 28.82 28.42 28.10 27.52 27.97 27.87 26.56 22.99 21.33 21.77 21.25
36.49 35.50 40.76 41.87 38.95 34.25 30.04 33.34 30.89 28.14 25.26 28.35 27.00 18.83 27.97 28.41 30.13 31.77 35.18 37.47 35.84 34.24 32.64 32.55 29.30 20.75 20.19 20.45 21.26 26.16 27.33 24.84 26.02 21.40 22.26 24.58 25.47 26.06 27.87 26.94 27.61 28.11 27.61 26.94 27.62 27.60 27.91 27.78 25.22 21.62 20.21 19.73 19.08 18.89
38.94 37.48 41.03 39.72 36.24 26.71 20.51 22.38 30.75 23.97 24.51 27.26 28.89 28.84 26.69 28.34 30.06 31.59 33.65 36.12 36.70 37.46 33.93 31.64 28.92 22.58 24.08 23.41 23.06 20.03 18.89 22.54 25.62 25.39 23.36 24.33 25.89 26.31 26.28 25.99 25.70 25.62 25.57 25.88 27.39 27.12 25.41 25.29 23.03 22.00 21.24 21.41 18.55 18.37
40.93 38.93 38.66 37.55 35.68 21.16 15.20 22.63 26.22 25.59 23.21 18.41 26.78 25.92 26.54 26.69 26.69 29.29 32.28 33.16 33.13 32.12 31.45 30.57 30.70 28.38 26.57 25.64 23.58 24.47 23.66 25.88 25.61 24.14 23.64 23.23 23.53 23.36 24.22 25.00 25.16 24.92 23.10 22.46 23.49 24.29 21.20 19.89 20.66 20.85 20.04 19.92 19.45 18.84
34.25 33.54 34.88 30.62 25.62 25.20 22.96 24.81 23.15 23.70 25.00 23.99 25.78 22.73 22.60 16.35 26.90 31.02 31.94 31.69 30.92 31.71 31.62 30.47 30.12 29.47 29.59 28.33 28.57 28.56 27.67 27.38 27.29 27.81 25.85 19.48 23.09 24.43 23.73 23.70 24.31 24.61 23.88 23.70 22.22 23.29 22.39 20.06 19.58 22.48 21.15 19.46 18.93 18.41
30.92 34.90 28.12 24.95 18.04 12.25 20.93 27.25 21.51 18.03 21.50 21.75 18.90 14.39 21.34 21.58 14.74 22.57 26.68 27.10 26.43 24.92 25.78 26.05 26.78 27.06 27.38 28.42 28.63 28.49 28.76 28.66 27.91 27.92 28.76 28.21 23.92 23.27 23.63 24.49 24.60 22.79 22.54 23.02 22.82 20.69 19.48 20.62 20.46 19.87 19.47 19.68 20.31 19.15
31.59 27.13 17.98 15.62 14.57 11.60 11.46 14.09 11.41 15.35 17.40 13.38 8.75 7.78 5.82 5.60 11.88 17.14 20.76 21.82 23.56 23.73 23.14 24.45 23.24 27.18 26.82 28.31 29.38 29.18 28.67 27.78 25.98 25.66 26.32 24.92 25.22 25.43 25.32 24.80 25.32 22.87 20.64 19.83 21.92 21.14 20.42 23.69 22.76 19.72 20.20 19.13 19.25 19.14
28.57 15.83 15.99 13.70 9.52 7.11 14.30 4.44 12.64 7.63 5.72 6.99 4.78 6.10 5.15 5.40 13.20 9.97 11.25 13.41 19.10 22.07 19.73 18.20 20.01 22.00 27.05 27.77 26.47 27.20 26.90 26.37 25.06 25.02 25.65 25.48 24.32 23.23 24.98 24.78 24.87 25.24 23.40 22.05 22.40 22.79 21.83 21.10 22.99 19.69 19.36 17.98 16.32 15.17
17.76 11.47 9.37 4.59 1.37 5.96 2.38 1.61 -1.14 5.59 4.54 0.82 12.63 6.63 6.30 11.51 9.04 5.26 7.92 6.23 7.81 17.14 16.83 16.62 17.04 17.90 17.80 23.89 25.18 25.93 28.26 26.62 24.88 23.42 22.48 24.84 22.53 22.25 21.68 22.31 22.81 23.08 24.55 22.24 20.98 21.21 20.79 19.19 18.58 17.55 16.39 15.34 13.45 12.04
8.62 6.71 7.37 6.15 1.68 6.10 6.74 2.74 0.18 2.75 1.98 1.82 4.31 5.85 3.57 10.43 7.77 7.03 7.21 8.00 11.21 9.09 13.03 13.19 12.94 13.59 15.62 19.12 21.74 24.13 24.70 26.83 24.89 22.48 21.12 24.21 24.27 23.02 20.86 20.12 19.74 19.78 22.22 24.38 22.06 18.65 17.88 17.74 16.74 15.97 15.84 17.40 18.69 8.56
6.79 7.22 14.35 21.05 16.65 14.61 10.89 11.34 12.00 6.11 2.75 8.13 1.76 2.70 3.01 1.89 0.87 9.05 12.90 11.63 9.00 8.99 11.63 13.44 13.65 13.22 14.73 16.73 21.94 22.38 23.31 22.68 21.88 21.67 24.62 25.61 25.92 25.55 24.67 22.40 20.33 20.18 22.79 22.48 21.53 20.11 17.81 16.78 16.61 15.87 14.19 11.68 9.08 9.11
16.73 14.86 8.57 8.61 9.48 6.25 4.21 3.39 1.17 3.26 5.20 10.78 10.32 0.78 0.85 5.22 8.41 5.34 4.21 4.22 5.49 9.88 10.14 12.18 15.27 17.77 17.82 19.36 20.61 20.94 20.48 21.06 20.93 21.53 21.81 21.56 22.28 22.94 23.25 22.92 23.43 25.45 22.81 21.66 20.55 19.81 18.96 17.51 15.76 14.02 10.99 8.14 6.43 5.03
17.81 15.79 12.49 6.08 1.51 7.39 4.74 6.82 5.71 8.70 13.37 7.83 6.78 5.46 5.91 7.52 1.68 -0.19 3.88 3.01 3.58 7.89 9.12 13.34 16.18 18.08 18.52 18.98 19.81 20.78 20.93 21.36 20.02 18.33 15.28 14.80 16.19 18.03 22.56 22.68 22.17 22.12 21.73 21.45 23.46 19.66 16.92 15.67 13.91 10.57 8.38 6.71 4.48 3.36
12.51 13.85 8.25 1.03 4.06 5.97 4.87 4.89 0.37 5.33 9.88 10.35 12.12 7.29 7.09 4.82 2.69 0.27 1.04 -0.63 0.66 7.11 9.30 14.21 17.26 17.80 17.70 17.69 16.88 16.97 17.96 20.75 24.38 20.88 17.42 15.62 15.21 19.04 20.33 20.40 20.12 20.43 20.81 20.39 20.02 20.53 22.50 16.13 14.57 9.59 7.43 6.28 5.03 2.62
14.87 9.05 2.82 2.80 3.40 -2.08 -2.27 2.52 3.42 15.34 1.51 -3.20 -0.52 1.65 2.60 1.52 4.18 1.87 0.22 1.13 7.69 8.98 13.23 15.58 16.37 17.09 18.23 18.41 18.35 17.70 15.58 17.96 19.42 19.56 19.06 18.74 18.94 19.10 19.38 19.91 20.55 20.76 19.56 17.24 15.23 14.03 12.07 9.84 8.43 6.68 5.10 2.97 4.20 0.02
9.92 5.94 5.43 1.80 -0.41 0.30 0.19 -3.93 -6.44 -4.02 -5.62 -3.32 -2.52 -4.94 -1.56 1.28 1.85 1.91 2.16 6.87 12.57 14.08 17.49 15.86 14.63 13.88 16.13 17.33 19.15 20.52 21.06 18.95 18.99 18.89 18.53 18.09 17.89 18.10 18.26 18.24 17.97 16.70 14.88 13.04 11.82 10.92 9.73 8.44 7.06 5.93 3.43 0.69 -0.10 -1.19
3.57 -1.72 -6.69 -5.68 -4.36 -3.29 -0.11 -2.22 -2.62 -5.77 -5.64 -7.02 -4.32 -2.04 -3.79 2.79 4.28 3.93 4.80 10.46 11.54 13.16 13.38 13.77 14.61 15.39 15.92 16.46 17.19 18.42 19.45 19.30 21.43 23.41 23.19 22.40 21.38 19.05 16.08 15.29 14.64 13.66 12.38 10.94 9.90 9.00 7.50 5.92 4.55 2.86 0.77 -1.12 -1.87 -2.62

GFSWCAN_sfc_wetblb_009.txt.gz
Wetbulb
45.23 45.81 46.50 46.51 46.42 46.35 46.01 45.88 45.93 45.91 45.90 46.04 46.04 45.84 46.23 45.63 46.64 45.84 44.01 47.80 43.10 43.48 42.62 43.85 43.51 40.38 39.66 38.92 37.73 39.66 39.79 40.49 40.06 35.70 36.03 35.47 32.22 32.49 29.34 30.30 31.22 31.01 30.48 29.43 32.34 29.74 24.57 37.43 38.87 35.44 37.68 37.30 37.65 39.71
44.99 45.93 46.32 46.12 46.15 45.60 45.40 45.34 45.54 45.57 45.77 45.84 45.79 45.94 45.29 45.17 46.03 46.86 41.73 45.63 45.49 44.33 43.47 46.46 46.33 45.73 45.70 45.07 42.78 42.62 40.84 41.45 41.98 38.69 38.48 39.20 35.94 33.41 30.74 28.29 32.18 31.32 33.80 32.22 32.98 32.09 37.30 38.21 37.79 39.28 38.26 37.03 36.96 37.94
45.01 46.12 46.28 45.68 45.92 45.29 45.04 45.06 44.98 44.55 44.56 44.70 44.67 44.55 44.45 44.86 45.76 45.40 42.66 43.82 43.55 44.65 42.22 42.11 41.86 46.34 47.38 47.04 48.84 42.09 42.06 44.72 43.84 45.96 42.50 39.42 36.36 36.03 30.12 30.74 30.24 34.17 36.77 35.97 35.82 35.98 37.10 38.26 38.33 37.11 36.23 36.35 37.10 37.23
44.88 46.15 46.11 45.65 45.65 44.96 44.79 44.73 44.31 44.11 43.97 43.94 44.11 44.26 44.13 44.13 44.55 45.05 41.49 43.18 42.04 40.61 39.67 38.03 45.22 41.59 45.58 47.32 47.07 47.62 46.77 47.24 46.63 45.63 41.84 40.28 35.11 36.70 33.30 33.87 33.80 36.33 37.02 36.37 35.26 37.41 36.95 37.46 36.96 36.05 35.68 36.04 35.97 36.09
44.96 45.93 45.78 45.15 45.19 44.87 44.64 44.43 44.18 43.91 43.76 43.74 43.70 43.45 43.77 43.79 43.96 43.04 41.93 43.07 44.07 40.47 39.87 41.05 42.42 42.49 45.35 45.85 46.12 46.78 46.19 44.75 44.06 41.92 40.74 39.66 40.05 35.75 33.52 33.43 32.81 36.72 37.84 36.07 35.71 39.34 38.19 37.14 36.48 36.42 35.75 34.87 35.27 35.00
44.71 45.80 45.09 44.32 44.55 44.71 44.59 44.38 44.21 43.92 43.72 43.65 43.16 42.93 43.56 43.65 43.68 40.42 36.99 45.24 45.71 46.11 42.28 38.18 45.24 42.48 46.04 46.44 45.26 45.10 45.08 45.38 44.46 42.79 41.64 44.13 43.64 39.80 33.09 31.92 38.65 38.11 38.21 39.58 39.43 36.52 36.10 35.83 36.31 36.03 34.68 34.72 35.29 34.58
44.69 45.63 44.10 43.77 44.60 44.46 44.37 44.26 44.23 44.06 44.10 43.47 43.17 43.69 43.68 43.85 41.09 36.90 36.60 42.51 44.34 43.30 42.35 37.38 36.88 44.82 45.97 45.62 45.41 45.62 46.67 45.45 44.35 42.67 41.37 43.20 43.11 42.97 39.52 34.61 40.71 40.06 39.70 38.33 37.48 36.89 35.70 35.58 35.87 35.80 35.58 35.03 35.04 33.43
44.42 45.45 44.55 43.48 44.38 44.07 43.76 43.73 43.98 43.93 43.82 43.13 43.47 43.59 43.71 44.07 42.98 39.04 42.76 45.12 45.28 41.26 44.02 36.09 36.08 39.55 45.62 42.33 41.60 45.80 44.09 44.80 44.33 43.01 43.05 41.60 41.42 40.96 37.60 40.67 39.06 36.28 36.46 36.22 35.60 35.49 36.48 35.26 34.80 33.82 34.38 34.31 32.66 31.62
44.13 45.30 44.30 43.20 43.67 43.57 43.77 43.87 44.02 43.75 42.77 43.61 43.26 43.49 43.82 41.42 37.81 40.12 43.79 44.21 45.12 42.97 38.94 38.01 33.76 29.55 44.10 42.73 41.82 43.62 44.31 39.91 43.60 40.70 41.11 40.49 38.90 36.14 39.40 39.28 38.59 36.22 36.84 36.98 33.85 34.52 34.78 34.36 33.41 33.44 33.62 33.05 31.97 31.34
44.10 44.99 44.37 43.27 42.98 43.15 43.96 43.86 43.62 42.69 42.88 42.34 38.98 36.11 35.46 37.43 42.86 42.71 44.03 40.95 40.19 42.88 42.97 38.78 37.27 36.34 40.81 39.71 39.51 40.08 40.27 38.33 33.85 39.09 39.84 37.16 38.06 41.52 41.76 41.14 40.44 38.47 35.99 34.18 32.72 29.39 30.40 31.17 32.50 32.27 32.69 33.55 33.06 32.50
43.83 44.85 44.05 43.54 43.48 43.21 43.66 42.82 42.91 42.73 39.90 34.94 32.33 32.34 37.76 41.88 40.27 38.68 35.60 37.66 38.98 36.39 40.83 38.14 35.50 36.71 39.74 36.90 38.39 36.60 35.14 34.11 32.81 31.80 35.92 34.27 33.07 36.39 36.41 37.35 40.54 38.49 36.34 36.42 36.30 36.17 36.49 36.62 34.25 32.63 32.06 32.30 32.01 31.36
43.63 44.75 43.83 43.73 43.49 43.73 43.26 42.63 42.82 36.46 36.06 36.94 36.86 39.03 38.38 34.54 32.47 30.90 32.14 34.80 35.43 32.79 38.16 38.35 37.03 36.19 36.60 37.90 37.44 36.15 30.17 33.48 30.86 31.39 33.05 31.19 32.75 32.83 33.21 35.51 36.52 36.28 35.76 36.03 35.21 35.55 35.47 35.19 34.35 33.16 31.17 30.18 29.48 28.32
43.57 44.53 43.68 43.63 43.75 43.38 42.61 42.75 42.17 40.91 40.74 37.89 34.59 28.37 27.80 30.75 28.25 28.83 28.35 31.67 32.79 35.10 35.78 35.77 34.49 36.94 35.38 34.55 33.32 29.69 31.59 31.51 29.31 30.19 29.81 28.94 31.04 31.59 32.41 33.79 33.91 34.58 35.36 33.53 32.33 32.57 32.61 31.46 31.89 31.39 29.06 28.70 28.05 26.38
43.77 44.39 43.54 43.59 43.01 42.29 42.68 41.70 41.01 40.57 37.47 26.38 27.01 17.47 27.03 28.01 28.54 30.57 29.88 31.02 33.42 33.26 35.26 36.30 34.15 34.22 34.40 28.89 30.23 32.77 31.22 31.51 28.25 26.19 21.73 25.45 26.59 29.50 30.85 31.42 32.74 32.11 31.94 30.69 30.04 30.64 30.35 30.00 28.59 28.91 28.45 28.36 27.82 26.28
44.01 43.96 43.37 41.32 41.65 42.39 41.53 40.56 41.06 39.75 34.22 28.33 26.57 15.92 25.78 31.67 32.06 32.33 32.52 32.26 34.40 36.06 35.84 34.96 33.75 32.61 26.30 29.66 28.93 30.86 29.04 27.05 28.50 25.30 24.79 23.46 22.36 25.95 29.96 30.27 30.03 28.74 28.34 27.96 28.81 28.74 28.28 28.50 27.75 26.11 26.39 27.20 27.25 25.79
44.08 42.38 35.13 40.46 42.30 41.93 39.99 37.40 37.93 37.68 32.55 29.77 27.80 19.93 29.96 20.44 19.98 30.68 31.33 31.23 35.72 37.72 34.83 34.67 33.22 31.80 30.89 30.10 26.28 27.56 25.63 24.52 27.85 27.46 23.62 21.82 26.50 28.53 29.21 29.48 28.65 28.50 28.58 28.66 28.72 29.07 28.76 28.24 27.59 26.17 26.65 26.48 26.01 25.10
42.59 33.52 39.38 41.64 42.38 39.85 38.47 33.74 33.36 30.92 28.98 26.87 27.85 31.78 30.12 27.04 25.99 29.35 31.07 33.24 38.07 35.22 33.43 32.86 30.99 31.80 26.54 23.01 23.78 25.00 24.90 29.44 30.93 24.80 24.26 26.20 21.61 25.48 27.56 28.32 28.51 28.60 28.39 28.39 28.29 28.58 27.53 27.53 27.14 25.98 23.28 22.77 22.46 22.23
35.34 35.16 40.56 41.99 38.33 33.68 29.54 25.90 30.52 27.82 25.25 28.15 26.76 26.58 29.02 27.39 23.70 26.86 30.12 35.09 33.70 32.30 32.57 31.69 29.53 24.40 19.88 20.57 22.28 27.04 27.18 22.40 27.27 27.38 22.59 24.71 25.49 26.15 28.06 27.43 27.72 27.53 27.18 27.07 27.48 27.52 27.18 27.57 26.96 23.27 21.95 20.50 19.60 19.14
38.05 37.77 40.66 39.42 35.68 26.32 19.30 21.42 28.41 22.04 22.85 26.43 27.80 28.53 27.64 28.07 27.73 28.32 29.24 32.92 35.16 36.23 32.97 31.73 28.97 23.23 22.13 21.31 21.03 23.68 22.10 22.15 26.22 25.83 24.17 24.62 25.90 26.25 26.28 25.80 25.07 24.86 25.33 25.71 27.39 28.49 28.06 26.80 24.28 23.71 22.25 22.37 19.52 18.95
41.11 39.72 38.37 37.30 35.33 21.28 13.74 17.31 28.43 24.99 18.80 23.03 26.11 25.07 25.46 24.99 25.46 24.24 26.43 31.36 32.11 31.11 30.45 29.89 29.96 29.30 26.39 24.75 22.88 25.68 27.89 26.15 25.42 24.33 24.58 23.51 23.14 20.32 23.39 24.60 24.75 24.11 22.85 22.60 23.90 25.43 23.21 22.38 22.57 22.28 21.39 20.94 19.67 18.86
34.57 34.07 34.52 30.51 25.03 23.06 20.37 22.40 22.71 23.55 24.26 22.57 23.33 23.05 21.43 24.04 22.46 24.10 28.12 30.51 29.68 30.22 30.63 27.68 26.94 26.70 28.30 29.39 29.78 27.87 28.94 27.97 26.81 26.42 26.48 19.82 22.81 22.00 21.85 22.60 23.39 23.91 23.50 23.27 21.98 23.85 24.14 21.39 20.47 23.51 22.18 19.81 18.81 18.18
31.59 34.79 27.43 25.29 19.82 14.29 20.54 26.43 21.79 19.62 18.02 13.94 19.72 18.45 19.50 20.58 21.14 15.30 24.03 24.35 22.72 21.25 23.42 22.66 23.11 22.06 22.80 25.14 27.42 28.54 28.95 29.00 28.96 28.18 28.50 27.94 22.97 21.89 22.39 23.38 23.86 22.82 23.12 23.10 23.87 22.09 20.96 21.71 21.16 20.51 19.85 20.14 20.76 19.66
32.13 27.16 18.21 17.62 17.20 12.23 10.34 13.82 11.68 15.51 15.65 8.94 9.89 9.45 7.93 9.05 10.80 12.68 22.71 16.42 16.39 18.13 21.38 21.28 20.93 22.14 22.27 25.46 28.66 29.52 29.99 28.47 27.40 26.44 26.73 24.73 24.65 23.81 24.10 23.91 24.40 23.14 21.73 21.20 22.46 22.23 21.08 23.73 22.98 20.28 20.81 19.51 19.36 19.45
28.97 16.80 16.99 15.43 13.17 7.89 13.51 3.95 11.66 6.58 4.89 7.44 14.55 4.35 3.43 2.62 12.23 8.43 16.99 9.21 15.48 19.59 17.13 12.99 16.45 18.05 21.15 23.23 24.46 26.12 27.59 28.11 26.67 25.38 25.36 24.58 23.14 22.59 24.62 23.90 24.20 23.95 23.71 23.08 22.86 22.49 22.20 21.33 23.32 20.18 20.17 18.91 17.06 15.72
19.58 14.58 12.40 7.78 3.57 5.53 3.16 1.93 -1.55 5.59 4.00 -0.78 13.33 8.66 3.58 14.87 12.12 2.94 9.46 8.00 4.62 14.15 12.24 12.29 13.68 15.21 15.22 17.47 20.51 22.67 26.36 27.42 26.27 25.35 24.54 25.48 23.05 22.02 21.09 22.06 22.22 22.74 24.49 23.15 21.64 21.05 21.56 20.50 20.38 19.22 17.74 16.54 15.03 14.03
13.44 10.75 10.07 10.42 1.36 6.14 5.99 1.90 -0.21 2.04 1.26 5.17 7.84 3.17 0.18 7.81 8.69 9.78 7.76 5.35 10.60 8.96 7.77 8.47 10.56 11.22 13.11 16.70 17.02 18.24 21.55 24.46 25.84 24.54 23.28 24.46 24.61 23.20 20.87 20.01 19.98 20.91 25.00 24.78 23.02 20.33 19.55 19.26 18.23 17.32 16.76 18.25 20.19 12.71
11.53 11.74 14.18 19.75 15.89 13.40 10.25 10.66 11.36 5.87 3.26 3.21 0.59 2.03 0.71 0.95 0.31 9.18 9.89 8.55 6.36 3.66 4.63 5.55 8.58 9.66 10.69 13.36 17.18 19.52 22.70 23.31 23.15 24.34 25.23 25.82 25.78 25.52 24.43 22.27 21.45 22.34 25.34 24.71 23.05 21.51 19.39 18.39 18.16 17.92 17.19 15.59 13.90 13.34
18.53 16.03 9.73 8.77 8.62 5.67 4.09 3.69 2.13 3.54 4.86 9.75 9.69 1.80 2.48 5.59 9.07 8.26 7.00 2.53 0.95 -1.90 1.27 6.74 8.98 10.09 11.27 13.98 17.98 19.67 20.66 21.31 21.51 22.26 22.75 22.57 23.30 22.62 23.54 23.50 24.67 26.92 24.47 23.75 22.80 21.94 21.12 19.96 17.90 15.84 13.99 12.13 10.46 10.79
17.23 14.02 12.64 7.38 0.54 6.63 4.83 6.93 6.44 8.57 13.45 9.46 7.59 5.52 6.75 8.74 3.51 0.79 3.68 1.48 -4.24 -3.79 -0.82 3.56 8.00 8.22 13.73 16.43 18.91 20.36 20.63 20.30 19.50 18.07 17.11 15.23 15.91 18.85 23.92 25.13 24.97 23.97 24.40 23.53 25.38 22.29 19.55 18.17 16.67 14.20 12.70 10.48 8.10 6.37
13.60 11.37 6.88 2.56 5.71 6.95 6.32 5.66 1.02 0.62 9.38 10.19 11.27 7.88 7.40 5.64 2.93 -1.55 -0.32 -2.02 -1.87 0.80 -0.41 2.32 7.79 11.70 13.66 14.21 15.57 17.43 18.71 19.55 20.63 21.08 17.71 16.68 16.52 20.12 21.54 21.83 21.93 22.19 22.38 21.75 21.36 21.80 23.89 17.82 16.13 11.29 9.11 7.78 6.55 4.97
12.43 6.40 2.79 3.32 3.69 -1.71 -2.56 0.59 1.59 14.37 0.27 -4.21 -2.29 1.40 2.81 2.37 4.66 -0.03 -2.04 -2.67 -1.16 1.26 0.25 5.04 8.20 9.99 12.81 13.98 16.86 16.67 16.34 18.25 21.36 21.74 20.29 20.07 20.65 20.75 21.13 21.68 22.39 22.91 22.10 19.40 16.78 15.47 14.11 11.86 10.31 8.87 7.49 6.55 8.04 5.21
9.44 4.37 4.53 3.17 -0.00 -0.53 -2.30 -5.67 -7.31 -4.46 -6.67 -5.31 -3.62 -6.09 -3.03 -0.75 0.94 1.51 0.39 -1.96 1.57 5.78 11.18 11.49 10.76 11.51 15.21 16.75 18.21 20.35 21.66 19.42 20.08 20.70 20.33 20.11 20.26 20.33 20.15 19.98 19.82 19.12 17.69 16.02 14.50 13.29 12.26 10.95 9.64 8.63 7.23 5.29 4.06 3.13
0.16 -3.03 -5.78 -3.33 -3.14 -2.96 -0.80 -2.92 -3.61 -5.53 -5.86 -7.47 -4.39 -2.85 -4.30 0.79 3.82 4.14 2.43 2.81 6.03 8.30 10.39 13.53 14.91 16.12 16.98 17.60 18.14 18.89 19.45 19.39 21.74 23.96 24.00 23.26 22.63 21.04 18.53 17.70 17.12 16.18 14.76 13.57 12.69 11.72 10.27 8.95 7.56 6.18 4.96 3.72 2.31 1.32

GFSWCAN_sfc_wetblb_012.txt.gz
Wetbulb
44.86 45.27 45.82 47.01 46.17 46.41 45.86 45.61 45.49 45.18 44.88 45.15 45.45 45.34 45.04 45.11 45.50 44.73 43.11 46.49 41.60 39.42 43.94 46.14 46.17 43.90 43.23 44.16 40.24 42.31 41.45 41.96 41.03 36.10 35.92 35.81 35.28 37.71 36.25 37.70 37.06 36.22 34.63 33.08 34.68 30.90 31.27 42.35 42.65 38.84 42.31 43.52 41.79 42.76
44.89 44.96 46.02 46.82 45.75 46.30 45.61 45.41 45.24 44.69 44.45 44.24 44.29 44.33 44.51 44.75 44.93 45.16 41.00 44.88 45.10 39.92 44.21 48.08 48.35 48.49 47.95 48.00 45.09 43.86 42.93 42.16 42.56 38.62 38.92 38.82 35.99 38.26 37.25 34.92 39.07 35.33 39.70 38.75 38.57 39.59 43.45 44.23 44.46 45.42 43.13 41.79 42.19 42.55
44.26 44.83 46.10 46.66 46.01 46.08 45.45 45.31 45.09 44.66 44.32 44.13 44.10 44.19 44.24 43.98 44.41 43.88 41.69 43.25 41.03 40.11 45.55 45.44 45.73 48.51 49.74 49.05 51.32 44.22 43.47 46.10 44.69 46.16 42.72 40.07 36.63 38.98 36.48 37.45 38.30 40.67 42.21 40.42 40.06 43.66 43.35 44.60 45.09 43.45 41.46 41.01 41.42 42.92
43.70 44.45 45.68 46.50 45.56 45.16 45.26 45.27 45.09 44.69 44.48 44.36 44.26 44.11 43.83 43.96 44.27 43.95 41.40 42.91 41.28 38.37 38.70 41.93 47.73 46.77 49.02 49.43 49.41 49.61 48.20 48.26 47.18 46.22 41.94 39.24 37.30 42.57 40.31 39.43 39.53 42.84 41.67 41.54 41.43 44.17 45.16 44.09 43.23 41.62 40.18 40.34 40.07 40.82
43.76 44.39 45.36 46.16 44.92 44.66 44.95 44.90 44.74 44.52 44.45 44.39 44.36 44.09 43.49 43.57 44.11 43.89 42.67 42.67 42.65 38.40 37.84 43.07 46.06 46.72 48.16 48.56 48.06 48.62 48.19 46.79 45.23 42.49 40.86 38.65 43.26 38.27 40.94 39.66 39.39 43.00 43.57 41.86 41.76 44.31 44.46 43.47 41.52 40.93 40.25 39.07 38.97 37.59
43.42 44.26 45.16 45.98 44.21 44.10 44.56 44.59 44.00 44.02 44.04 44.27 44.25 43.82 43.53 43.80 43.61 41.38 37.59 43.92 43.31 41.83 37.91 39.51 46.17 44.79 46.23 47.32 46.95 46.33 46.58 46.00 46.12 43.06 41.50 43.28 46.06 41.11 39.53 38.88 44.41 45.13 45.06 46.25 45.81 43.34 41.62 41.22 41.11 40.85 39.58 38.78 38.90 38.10
43.16 43.84 44.97 45.82 44.73 43.92 44.33 44.02 44.06 44.00 43.88 44.13 43.91 43.39 43.60 43.55 42.90 36.83 36.48 41.55 43.47 43.09 38.01 38.39 38.83 45.47 46.69 46.37 45.98 45.32 46.99 46.40 45.08 43.16 41.45 41.94 43.45 42.43 40.13 37.90 44.63 45.85 45.72 44.58 43.87 41.95 40.50 40.17 41.36 40.05 39.33 38.48 38.06 37.03
42.91 43.54 44.59 45.60 44.73 43.70 43.41 43.35 44.02 43.94 43.98 43.51 43.43 43.12 43.32 44.10 42.72 39.26 42.94 44.71 44.94 41.05 41.53 37.05 37.65 40.68 46.16 43.10 42.15 46.91 44.26 44.95 44.32 42.84 43.30 41.98 42.31 42.04 38.50 43.88 46.09 45.13 42.86 42.24 42.36 40.97 40.64 40.66 39.06 37.86 37.63 37.13 35.57 34.29
42.66 43.29 44.44 45.42 44.95 43.99 43.53 43.53 43.52 43.22 43.34 43.06 42.46 42.97 44.02 41.80 38.12 40.20 43.61 44.62 44.63 41.11 39.01 39.11 35.44 35.19 45.01 43.47 43.96 44.50 45.70 40.66 44.25 41.25 41.36 41.27 40.33 36.64 41.99 44.48 45.08 45.52 43.20 43.22 38.94 38.99 38.84 38.76 37.25 36.38 36.90 36.68 35.42 34.36
42.79 43.26 44.15 45.18 44.22 43.57 43.62 43.99 43.67 43.12 42.79 41.48 39.59 37.25 35.37 37.81 42.45 42.88 41.53 39.07 39.45 40.71 42.01 39.40 40.48 38.11 42.59 42.43 41.56 41.31 41.57 39.43 35.02 39.64 40.37 37.51 37.99 44.20 45.55 45.43 46.21 44.84 42.98 38.73 36.72 34.41 35.02 34.60 34.74 35.81 36.35 37.91 37.32 35.18
42.66 42.96 43.83 45.02 43.95 43.80 43.91 43.81 42.96 42.92 40.35 37.83 33.05 33.26 38.03 41.84 40.38 38.49 33.30 35.30 38.48 36.69 41.24 41.16 40.12 38.73 43.24 38.82 40.06 40.52 38.26 35.98 33.94 36.32 36.50 36.60 37.10 40.64 41.10 39.83 41.38 44.37 42.51 40.87 41.12 40.90 40.17 39.64 37.43 36.60 36.09 35.62 34.91 34.42
42.74 42.75 43.66 44.82 43.86 43.90 43.64 42.87 42.91 38.85 37.67 37.25 37.47 39.65 38.77 35.16 33.56 32.41 32.25 35.06 35.62 35.18 39.65 39.50 39.91 40.13 40.83 41.77 40.45 38.62 35.49 35.64 32.54 35.36 34.10 33.03 38.59 38.82 37.05 37.53 38.64 41.52 40.65 39.61 39.70 39.46 39.87 39.04 38.20 36.78 35.23 34.69 34.10 32.38
42.64 42.59 43.78 44.70 43.75 43.56 42.62 42.75 41.57 41.35 41.27 38.95 35.34 30.58 31.71 32.92 30.53 29.42 27.06 31.70 33.34 34.88 35.58 36.97 36.57 39.54 38.96 39.59 36.92 36.00 33.37 33.47 34.98 32.71 31.44 35.68 38.38 36.43 34.76 36.14 37.35 37.98 39.08 37.81 36.29 37.40 37.71 36.35 35.97 35.49 33.73 32.90 32.09 30.70
42.34 42.90 44.11 44.20 43.51 41.96 42.61 41.40 41.30 41.82 37.31 31.48 28.71 23.96 29.14 28.58 30.15 30.40 30.52 31.68 34.65 34.08 35.58 37.49 35.69 36.44 36.93 35.95 35.21 33.23 35.05 33.86 30.25 28.81 30.64 36.51 35.64 33.27 33.70 35.11 35.96 36.09 36.50 35.47 34.41 34.49 34.02 33.73 32.78 33.19 32.69 32.09 30.89 28.80
42.38 43.16 44.44 42.88 41.44 42.23 41.59 40.31 40.76 40.75 35.55 29.78 28.86 24.17 27.63 30.54 32.87 33.05 32.85 32.96 34.58 36.45 36.03 36.22 35.45 36.12 34.24 33.36 33.16 33.32 30.87 29.29 30.61 31.57 35.53 35.67 32.37 31.15 33.84 34.49 34.59 34.20 33.56 32.97 33.12 32.80 32.05 31.71 31.45 30.21 31.18 31.91 30.60 28.86
42.66 43.37 37.84 40.96 41.85 42.01 39.76 38.31 38.82 38.41 33.67 31.10 28.80 27.13 30.43 28.24 27.90 30.73 32.44 31.97 35.78 36.67 35.82 35.66 33.97 33.41 33.98 33.83 30.45 30.41 29.16 28.85 33.82 35.33 36.92 31.95 32.25 32.85 33.45 33.31 33.19 32.80 32.94 32.56 32.63 32.36 31.75 30.89 30.24 29.03 29.87 29.71 29.05 27.95
42.70 37.73 40.08 41.06 41.96 38.57 38.15 34.56 35.14 31.84 29.77 28.40 29.28 32.16 31.22 28.65 27.06 29.90 31.31 32.23 36.58 34.74 32.83 32.97 31.74 32.97 30.79 29.95 28.21 31.28 30.83 34.54 32.47 33.90 30.92 30.66 30.66 32.12 32.16 31.85 31.59 31.78 31.83 31.89 31.48 31.80 30.69 29.81 29.65 28.69 26.53 27.02 26.82 26.82
38.92 37.74 40.57 41.44 37.92 34.64 32.06 31.26 31.84 29.01 25.69 29.99 27.05 29.26 30.72 30.14 28.49 29.46 32.11 33.87 31.91 31.86 32.40 31.85 31.50 30.35 29.17 28.32 29.84 29.19 30.38 30.07 31.67 30.57 29.79 30.08 30.62 30.80 30.83 31.46 30.81 30.98 30.79 30.77 30.54 29.66 29.29 29.06 28.86 27.26 25.32 25.01 24.08 23.94
40.02 38.59 40.82 39.61 36.10 30.58 26.51 27.00 30.17 21.03 24.53 28.13 28.80 29.21 28.70 28.35 29.97 30.09 30.23 32.24 34.16 35.21 32.49 32.32 30.82 30.41 30.02 29.59 28.43 28.54 28.95 29.07 28.30 29.07 29.85 29.31 28.92 29.81 30.19 29.78 29.30 29.02 29.01 29.31 29.62 29.41 29.71 29.51 26.93 26.14 25.44 26.29 24.03 23.84
43.14 40.95 38.86 38.25 35.43 27.50 21.80 21.92 29.39 24.72 20.86 24.90 27.04 25.04 25.85 25.43 26.71 26.70 27.36 29.33 32.56 31.83 30.33 30.56 30.33 29.45 27.81 28.03 29.14 28.57 28.88 29.85 29.32 28.71 30.29 30.79 28.38 26.84 28.08 28.80 28.81 28.37 27.97 27.81 28.31 28.04 25.91 25.12 25.95 26.38 26.03 24.83 23.65 22.94
36.41 35.71 35.29 32.45 28.56 26.90 25.00 23.62 23.09 24.54 25.00 23.02 24.90 23.39 21.86 24.66 22.89 24.26 26.03 29.58 30.04 29.75 29.39 26.96 25.37 25.64 25.96 26.52 27.92 29.56 29.30 29.69 29.10 29.33 29.41 29.16 29.51 27.04 26.93 27.16 27.55 28.03 27.72 27.61 26.52 26.83 26.84 24.53 24.26 26.12 26.41 24.33 23.38 22.56
33.07 35.66 28.98 27.89 23.53 20.80 23.51 26.40 23.67 22.73 20.30 19.31 21.65 20.73 19.24 20.74 21.60 23.05 23.46 24.46 26.05 26.14 24.37 24.36 24.77 23.59 22.97 23.49 25.00 26.24 28.72 29.93 30.49 30.49 31.89 31.31 28.46 26.21 25.83 26.58 26.64 26.77 27.21 27.15 27.49 25.55 23.77 24.86 25.24 23.53 22.71 22.32 22.98 22.62
33.02 29.34 23.77 23.00 18.98 16.32 14.78 18.38 16.01 18.35 16.26 14.87 15.13 15.16 16.60 17.97 19.99 18.12 21.87 25.24 23.75 23.06 23.45 22.34 20.87 19.97 19.64 21.86 24.13 27.61 29.48 28.56 28.06 28.80 29.26 29.64 29.35 27.96 27.28 26.49 27.88 26.62 25.30 25.78 26.68 25.35 24.24 25.57 25.10 22.74 23.00 21.77 21.36 21.31
29.70 24.20 22.60 18.64 17.24 13.52 16.45 10.90 14.88 13.41 13.51 15.28 16.21 13.56 11.67 14.11 17.89 18.13 20.27 19.86 20.76 22.13 20.88 17.50 17.21 17.58 19.71 20.63 20.84 21.78 24.86 25.31 26.68 27.99 28.64 27.28 26.72 26.63 26.81 26.90 26.60 27.35 27.21 25.09 24.72 24.25 24.58 23.10 24.78 22.08 22.03 21.49 20.02 18.23
23.43 20.06 16.88 9.93 10.52 14.49 10.41 9.12 7.99 11.61 8.21 7.57 14.57 10.36 12.14 16.40 17.71 15.25 16.32 17.90 15.16 18.26 18.53 16.83 16.20 16.09 15.36 16.77 17.79 19.94 22.82 23.23 23.08 21.94 25.71 27.75 26.48 25.02 24.34 24.80 25.19 25.26 26.02 24.61 23.89 23.30 23.24 23.26 22.44 22.00 20.62 19.37 17.98 16.97
19.28 14.93 12.94 15.76 12.66 14.09 11.32 9.07 7.45 8.84 7.72 9.63 10.14 9.63 8.56 13.30 10.86 12.27 14.51 17.20 17.43 17.20 16.48 15.99 14.76 13.45 14.20 15.74 15.52 16.50 18.43 21.53 21.22 20.67 23.67 27.01 26.50 25.69 23.96 22.41 21.45 22.06 26.46 26.85 24.39 23.06 21.73 21.95 20.91 19.94 19.33 20.20 21.78 16.75
16.62 13.36 16.69 20.78 17.85 14.56 13.10 13.25 13.08 10.53 7.46 6.30 8.97 9.17 9.41 5.34 7.57 13.92 16.80 15.02 16.22 14.61 13.92 14.11 12.76 11.36 11.46 12.82 15.02 16.72 18.54 20.29 20.78 21.82 23.66 25.25 27.31 28.36 26.80 24.10 22.95 24.50 26.41 26.17 25.30 23.27 21.39 20.49 19.91 20.22 19.88 20.13 17.91 17.56
20.92 19.45 15.52 16.38 12.58 10.62 9.43 8.25 8.25 8.57 10.24 12.04 12.98 6.16 7.47 9.68 13.05 17.05 15.88 13.71 12.55 9.36 9.14 9.30 10.01 10.53 10.80 11.80 13.72 14.86 16.71 19.28 21.50 22.63 23.29 24.02 24.92 27.08 28.09 27.67 27.35 27.78 26.94 25.86 24.99 23.95 22.79 21.96 20.94 19.62 17.52 16.01 15.64 16.42
19.02 16.96 16.68 7.34 5.56 7.82 9.29 10.80 10.80 12.55 15.73 13.37 12.26 10.87 11.02 13.40 13.06 12.20 11.69 9.15 4.87 6.30 7.42 9.24 11.81 9.95 10.35 12.74 14.37 15.97 17.36 18.76 18.04 16.97 17.96 19.46 19.37 21.58 25.27 25.92 27.04 26.70 26.21 26.29 27.23 25.33 23.66 21.94 19.98 17.94 16.42 14.79 13.99 14.12
16.89 16.39 11.57 7.07 9.43 10.41 10.58 9.35 7.75 6.60 11.84 13.23 13.22 12.02 11.70 11.35 10.47 6.05 6.99 5.86 6.93 8.69 8.67 6.95 7.47 7.15 8.25 11.23 13.09 15.56 17.43 19.49 20.39 19.51 19.55 19.58 20.29 22.63 25.15 24.82 24.23 25.11 25.46 24.86 23.82 24.19 26.28 20.33 18.36 13.99 12.39 11.82 11.15 9.80
13.18 11.15 8.10 7.56 8.03 3.16 1.92 2.77 4.04 13.72 4.43 3.48 2.22 7.45 8.86 7.45 9.40 6.46 5.07 5.53 5.83 3.74 4.11 7.11 8.87 9.23 9.96 11.12 11.42 13.40 15.16 18.90 19.89 21.10 23.28 22.21 22.23 22.51 23.15 23.67 24.11 24.06 23.75 22.77 20.19 17.72 16.72 14.65 13.10 11.94 11.18 9.81 10.26 8.34
12.62 7.94 7.77 6.00 3.03 0.91 0.60 -0.81 -1.47 0.63 -0.99 0.29 2.46 -1.42 2.53 5.45 6.53 9.44 6.23 4.28 5.25 7.13 10.83 12.16 9.64 10.76 11.93 14.04 15.56 17.30 20.80 20.70 20.57 22.18 22.96 21.82 22.00 22.84 23.38 23.76 23.75 22.51 20.51 19.17 17.36 16.33 15.47 14.11 12.45 11.86 11.04 9.62 8.82 9.03
4.50 1.86 -1.98 -1.45 -2.34 -1.69 0.15 0.14 -0.55 -2.09 -1.79 -3.54 0.41 0.43 0.32 4.53 7.20 9.15 6.18 5.56 7.61 8.17 9.17 10.93 13.49 15.12 15.89 16.66 17.42 18.77 19.83 20.36 22.51 24.17 24.80 24.40 23.86 22.47 20.73 20.26 19.86 18.98 18.18 17.42 16.32 15.17 13.85 12.51 11.22 10.13 9.15 8.23 7.94 7.95

GFSWCAN_sfc_wetblb_015.txt.gz
Wetbulb
45.49 45.36 45.41 45.86 47.21 46.54 46.45 45.97 45.73 45.50 45.05 44.81 44.66 44.57 44.62 44.80 44.79 44.01 43.09 45.44 40.65 37.11 39.86 46.26 47.02 44.78 45.19 45.16 41.06 43.95 42.58 42.80 41.98 37.71 37.11 36.47 35.74 37.83 36.74 39.61 38.22 36.25 34.02 33.03 33.17 30.89 30.23 45.09 44.74 39.76 43.79 45.82 44.91 44.43
45.21 45.06 45.02 45.93 47.05 46.70 46.09 46.14 45.51 45.34 44.96 44.73 44.69 44.65 44.52 44.36 44.32 44.53 40.06 44.80 44.92 38.16 39.37 47.36 50.43 50.65 50.06 49.64 46.95 45.83 44.00 43.31 43.69 39.28 38.95 39.02 36.94 38.18 38.02 33.55 42.21 36.66 40.90 38.81 39.32 40.05 46.82 47.77 45.84 47.72 46.51 44.37 44.65 44.24
44.89 44.75 44.39 45.64 46.62 46.41 45.73 45.37 45.86 45.26 44.97 44.74 44.79 45.01 44.82 44.23 44.20 43.76 41.87 42.99 41.05 38.20 42.14 45.29 46.31 50.33 51.55 51.09 52.62 44.90 45.98 46.89 45.44 47.74 42.39 40.49 36.91 39.94 35.55 37.69 40.41 43.05 45.28 41.04 41.65 45.51 46.39 47.77 48.01 46.31 44.36 43.48 44.13 44.80
44.50 44.39 44.50 45.25 46.22 45.87 44.70 44.70 45.44 45.24 45.24 44.90 44.82 44.47 44.67 44.50 43.92 43.80 41.77 43.57 40.53 36.65 35.48 43.01 49.55 48.19 50.72 50.61 50.20 50.51 49.18 48.72 47.95 47.16 41.85 39.51 36.71 42.50 39.28 40.57 40.68 43.78 43.57 42.68 43.01 46.02 47.81 46.37 45.53 44.21 42.65 42.84 43.32 43.99
44.41 44.25 44.21 45.06 45.85 46.08 44.91 44.39 44.98 44.99 44.55 44.79 44.25 44.39 44.59 44.27 43.98 44.15 43.74 43.79 43.16 36.81 35.99 41.62 47.15 47.44 49.48 50.20 48.88 49.49 49.21 47.80 45.80 42.82 40.75 39.04 41.64 41.32 42.51 41.67 40.07 45.09 43.35 42.08 41.67 46.79 46.40 45.42 44.07 43.74 42.54 41.40 41.50 40.21
44.36 44.21 44.04 44.54 45.52 46.34 45.00 44.42 44.05 44.48 44.63 44.67 44.32 44.42 44.46 43.73 43.74 41.14 36.34 42.36 43.73 42.26 36.37 39.26 46.94 45.79 47.17 48.86 48.39 47.48 47.76 46.78 45.75 43.12 42.03 43.01 45.04 42.02 37.98 37.99 44.70 47.33 48.32 48.54 46.66 46.50 45.00 43.90 43.22 43.31 41.84 41.06 40.61 39.77
44.43 44.26 43.92 44.38 45.27 46.02 45.10 44.15 43.87 43.97 44.57 44.12 43.60 43.76 43.78 43.45 41.86 36.73 35.56 41.13 43.70 42.72 36.68 38.49 40.48 45.81 47.10 46.72 46.44 46.19 47.18 46.22 45.25 43.53 41.49 42.33 42.75 43.18 39.70 36.53 44.82 47.29 48.39 48.11 48.22 45.46 43.63 42.71 43.06 42.13 41.31 40.31 39.84 38.89
44.44 44.13 43.94 44.06 45.09 45.91 45.04 44.22 44.05 44.06 44.34 43.63 43.75 42.86 43.06 43.86 42.89 38.97 42.59 44.69 44.45 40.09 39.69 36.98 38.92 41.88 46.57 43.07 42.31 46.50 43.82 44.95 44.47 43.24 43.36 41.25 42.66 42.22 37.81 43.08 45.34 46.97 47.99 47.70 46.54 45.56 43.50 43.64 41.79 40.37 39.60 38.70 37.02 36.50
44.25 43.95 43.66 44.12 44.79 45.65 44.35 44.09 44.31 43.97 43.39 43.34 42.39 42.75 43.82 41.65 38.04 40.11 43.51 44.27 44.85 39.99 36.37 39.71 37.24 36.21 45.84 43.75 44.94 44.23 46.07 40.42 45.30 41.39 41.68 41.86 39.90 37.25 41.61 44.31 46.08 47.57 45.53 46.30 44.08 42.60 41.64 40.84 39.74 38.88 38.74 38.24 36.51 35.79
43.98 44.05 43.68 43.63 44.39 45.30 44.27 44.13 43.96 43.34 43.16 41.88 41.32 39.02 35.36 39.22 42.64 43.26 40.16 38.23 38.54 39.80 39.76 39.52 43.07 39.17 43.65 42.89 42.16 42.59 43.11 40.04 36.31 41.12 42.05 38.32 38.06 44.06 45.77 46.88 47.52 47.02 46.35 42.63 39.02 36.71 37.18 36.60 37.12 38.08 38.39 39.45 38.33 36.65
44.15 44.07 43.36 43.32 44.10 44.94 44.10 43.81 43.31 42.91 40.90 38.99 35.00 33.60 39.53 42.67 40.31 38.40 33.90 33.31 36.87 36.05 41.21 42.48 42.43 40.35 44.70 39.79 40.63 42.25 39.12 37.40 34.79 37.71 36.99 37.57 37.71 42.65 42.41 41.50 42.44 43.04 44.86 44.56 45.06 44.65 41.91 41.58 39.57 38.91 39.12 39.49 37.92 36.38
44.25 43.91 43.34 42.96 43.95 44.68 43.54 43.11 42.97 40.42 38.58 37.71 37.36 39.92 39.03 34.89 34.19 33.03 32.72 33.85 35.69 35.42 40.84 40.42 41.20 42.42 42.98 44.09 41.62 40.31 36.98 37.23 33.01 37.69 34.98 32.85 40.07 40.70 39.48 38.29 39.24 40.95 43.64 44.06 43.03 41.94 42.44 42.17 41.46 40.15 38.78 37.07 36.26 35.35
44.37 43.91 43.36 43.22 44.23 44.17 42.99 42.92 41.68 41.89 42.12 40.40 36.62 32.71 33.12 35.41 30.97 31.23 28.57 31.26 32.87 34.77 35.10 37.13 37.66 41.01 41.25 41.97 39.85 38.09 33.63 33.92 37.16 33.72 32.74 37.06 41.37 39.37 36.68 36.84 38.22 39.51 40.96 40.96 39.42 40.75 41.12 40.35 39.93 38.15 36.58 36.36 34.43 32.97
44.19 43.93 43.04 43.32 44.35 42.58 42.50 41.98 41.10 42.15 39.29 32.44 29.41 28.05 29.67 30.53 30.22 30.46 30.43 32.04 35.01 34.59 35.48 37.09 37.20 38.38 38.63 38.43 38.49 33.87 36.38 35.26 31.10 29.32 32.35 40.60 37.82 35.37 36.05 37.49 37.62 37.71 37.84 37.81 37.52 37.69 36.89 36.65 36.58 36.66 35.39 34.42 33.22 31.70
43.86 43.53 43.05 43.30 43.58 41.83 42.24 40.38 40.65 41.97 36.34 31.20 30.68 26.81 28.54 31.55 33.59 33.56 34.13 34.06 35.03 37.09 36.27 36.64 36.38 37.10 35.76 34.89 35.94 34.71 31.63 29.80 31.86 33.14 38.30 36.93 34.76 34.79 35.56 36.06 36.60 36.69 35.92 35.19 35.54 35.21 34.86 34.34 33.96 32.77 33.28 33.54 32.36 30.72
43.55 42.58 41.62 43.21 41.40 42.06 40.07 39.62 40.48 39.87 35.28 32.24 30.49 28.37 30.98 30.51 31.88 32.95 33.05 32.34 36.41 35.62 36.11 35.40 33.90 34.26 33.86 36.18 31.48 31.01 30.14 30.45 35.36 34.24 35.67 35.11 33.85 34.41 34.80 35.11 35.19 35.39 35.63 35.10 35.42 34.91 34.41 33.96 32.80 32.22 32.69 31.76 31.33 30.87
42.17 39.81 40.78 41.18 41.21 38.51 38.30 37.47 37.19 33.14 31.53 28.97 29.42 33.82 32.38 30.23 30.81 32.47 33.08 33.98 36.52 34.48 32.74 32.91 31.81 32.90 33.75 32.46 30.83 35.47 33.26 33.78 32.48 33.17 33.95 33.85 32.14 32.35 32.88 33.33 33.63 33.65 34.37 34.53 33.95 33.93 33.27 33.01 32.33 31.10 28.98 29.25 28.32 28.68
39.22 41.03 41.59 41.36 39.42 35.98 35.42 35.53 33.28 29.93 26.53 30.29 28.14 31.05 31.88 31.86 30.55 31.77 34.07 34.89 33.45 32.35 32.89 31.61 32.02 31.29 31.22 29.69 32.66 33.25 32.58 32.59 33.16 33.20 32.69 33.23 32.91 32.50 32.57 32.53 32.65 32.61 32.97 33.13 33.27 31.68 30.88 30.55 30.32 29.21 27.33 27.11 26.25 26.00
41.08 41.52 41.08 41.18 37.49 33.87 30.48 30.94 31.54 25.15 26.95 29.73 30.38 31.03 30.29 30.29 31.74 31.90 31.95 33.55 34.64 34.70 32.90 32.50 30.91 30.95 32.60 31.59 29.73 30.03 30.00 29.51 28.99 30.20 32.33 34.27 32.42 31.04 30.47 31.12 30.81 30.93 31.29 31.24 31.11 30.99 31.15 31.93 30.13 28.08 27.00 27.36 25.48 25.69
42.41 42.54 41.46 39.62 36.55 31.27 26.73 27.30 30.54 26.77 24.44 27.54 28.55 26.62 27.68 28.11 28.58 28.37 28.00 29.41 32.99 33.08 30.12 28.48 30.98 28.37 27.92 27.82 28.79 28.72 29.68 30.44 29.56 28.87 31.33 35.19 34.65 31.26 31.08 29.92 30.91 30.61 30.85 31.27 31.64 30.64 27.81 27.29 27.76 27.89 28.30 27.02 25.47 24.78
37.73 37.59 37.59 35.13 31.25 30.85 28.18 26.07 24.76 26.28 26.63 25.57 27.25 25.75 24.48 26.41 25.19 25.18 26.97 29.87 30.27 29.33 28.80 32.76 30.76 29.27 28.58 28.18 27.97 28.10 28.36 29.65 28.97 29.05 28.89 29.48 32.79 33.05 30.87 30.53 29.71 30.17 29.92 29.89 28.91 28.47 29.02 27.08 26.92 28.21 28.07 26.96 26.39 25.24
34.61 35.61 30.53 30.76 27.94 25.62 26.50 27.58 26.14 25.39 23.56 23.90 23.85 23.21 21.72 23.17 24.17 24.36 24.92 24.98 26.38 30.41 30.37 29.27 28.37 26.68 25.57 25.33 25.55 25.74 26.38 27.30 28.57 29.11 31.40 32.06 30.67 32.06 31.83 30.53 29.09 29.16 30.05 30.79 29.75 28.46 27.64 26.48 27.58 27.45 25.68 24.80 24.80 24.37
33.76 31.73 28.00 26.87 23.76 22.48 20.51 23.96 22.06 21.56 20.29 20.17 19.68 18.88 20.42 21.35 23.48 23.05 21.47 26.15 28.65 29.24 28.00 26.63 24.33 22.36 21.65 23.23 24.02 25.14 26.99 26.81 26.48 27.21 28.00 28.84 29.99 31.34 31.31 30.43 29.86 29.57 28.78 28.75 30.43 27.96 26.22 27.90 26.86 24.79 24.79 24.19 23.46 23.16
31.59 28.02 25.33 23.84 23.05 19.45 20.04 18.90 19.87 19.41 19.12 18.69 18.80 17.82 18.74 20.31 21.45 21.65 21.03 25.51 27.02 26.26 24.73 22.01 21.60 21.76 23.67 22.87 22.79 24.21 24.13 25.15 24.17 25.04 27.50 26.82 26.72 28.42 30.19 29.98 30.01 29.84 29.94 28.74 27.80 27.03 26.07 24.95 26.44 24.46 23.44 23.13 22.84 20.78
25.30 22.79 22.18 17.54 16.67 16.52 16.83 15.77 15.79 16.91 17.20 16.19 16.75 17.12 17.26 19.78 19.20 19.04 18.73 23.75 23.38 24.03 24.70 22.30 21.04 20.75 19.81 21.06 22.16 22.96 23.88 22.61 21.30 21.50 23.37 24.74 25.21 27.35 27.17 27.76 28.77 29.11 28.83 27.04 25.19 25.25 25.01 25.09 23.58 23.37 23.27 22.10 20.20 19.37
21.87 20.34 18.30 19.82 17.09 17.37 17.78 14.47 13.67 15.97 16.72 14.11 15.65 15.54 16.05 18.91 15.34 15.23 19.98 24.74 24.48 24.67 24.18 22.47 21.93 20.96 20.61 21.26 19.69 19.82 21.13 22.41 20.78 18.72 20.60 23.64 24.82 25.06 25.81 25.48 24.25 24.86 27.96 28.23 26.63 24.95 24.19 23.40 23.22 22.79 21.64 22.22 23.55 18.92
21.03 18.99 18.85 22.64 21.10 18.03 16.65 16.79 17.56 16.72 14.30 12.87 15.20 14.00 16.13 12.06 13.82 19.89 23.99 23.19 23.71 23.70 23.81 23.12 20.96 19.14 18.78 18.83 19.46 19.83 20.18 20.08 18.70 19.33 21.41 21.92 23.10 24.18 24.52 25.18 25.48 27.32 27.57 28.24 27.39 25.74 23.69 23.23 22.27 21.95 21.52 22.06 20.71 19.78
23.45 21.76 15.64 17.83 17.11 16.77 14.70 15.35 15.30 14.23 16.33 17.52 18.05 11.96 12.46 14.73 17.28 24.92 24.71 22.13 22.25 19.01 18.24 17.62 17.05 16.49 15.94 16.53 17.34 16.98 17.16 18.23 18.47 19.46 20.75 22.14 23.72 24.55 26.47 28.63 29.73 29.67 28.14 28.22 27.37 25.95 24.71 23.45 22.78 22.22 21.15 18.96 19.19 19.96
21.61 20.52 20.36 14.48 14.47 14.63 15.95 17.02 17.10 18.49 19.95 18.69 17.77 17.67 17.78 20.77 22.21 21.27 19.32 17.02 15.16 14.28 13.99 15.06 16.75 17.06 15.23 15.52 15.59 15.62 15.99 16.37 15.60 14.00 14.03 15.80 19.52 23.39 25.85 27.48 28.16 28.48 27.93 27.61 28.73 26.55 25.10 24.83 23.73 21.32 19.98 18.83 18.23 18.24
20.21 23.14 18.09 13.44 12.42 14.31 17.55 15.61 16.03 14.03 16.43 18.32 17.16 17.62 17.31 18.19 18.96 15.64 14.69 13.10 11.95 13.43 15.66 14.90 13.50 11.80 12.05 12.44 13.33 14.85 18.40 19.21 18.62 17.56 15.91 16.28 20.44 24.73 25.15 25.91 26.96 26.48 26.79 26.49 25.86 26.42 29.36 25.47 23.31 18.26 16.22 15.83 15.55 14.53
19.05 18.54 15.84 16.50 16.04 12.27 8.59 7.83 10.38 15.85 12.90 12.82 10.73 13.26 15.87 14.35 15.83 15.10 12.27 12.91 13.19 12.10 11.27 12.94 14.31 14.94 13.52 13.20 13.35 13.15 13.18 18.51 19.11 19.69 20.91 21.79 23.20 23.94 24.98 25.82 26.44 26.60 26.15 25.52 24.97 22.18 19.38 16.82 16.20 15.01 14.13 13.26 14.11 11.89
17.68 16.80 15.16 13.44 12.68 6.98 7.84 9.32 10.36 12.30 10.71 10.30 12.74 6.89 10.64 11.87 12.86 18.57 12.47 10.84 12.14 13.53 15.44 15.07 12.98 13.73 15.94 16.46 16.25 16.59 19.12 18.13 18.48 19.71 21.01 21.77 23.36 24.25 24.81 25.12 25.48 25.23 23.22 20.30 19.28 17.58 17.38 16.11 15.27 14.45 14.01 12.39 11.02 11.28
10.30 9.54 8.42 9.23 8.28 8.09 7.59 9.18 9.04 9.39 8.05 9.25 10.03 7.90 8.72 10.17 11.37 16.14 11.68 11.15 13.23 13.57 13.14 14.00 15.31 16.14 17.46 18.55 19.57 19.75 21.00 20.33 19.63 23.92 25.07 25.63 25.52 25.19 24.14 23.74 22.81 21.63 20.19 18.75 18.56 17.73 16.95 15.79 14.55 13.23 12.05 11.64 11.78 11.39

GFSWCAN_sfc_wetblb_018.txt.gz
Wetbulb
45.85 45.96 46.17 45.62 45.84 46.84 47.92 46.77 46.56 46.41 45.87 45.70 45.42 45.20 44.95 44.72 44.56 42.99 41.73 44.71 39.15 36.08 37.66 42.66 44.66 43.22 42.72 41.83 39.02 42.23 40.96 41.38 40.50 36.74 35.32 35.68 34.84 36.20 33.54 36.74 35.23 33.35 32.43 31.84 32.63 30.19 25.58 41.49 40.97 36.35 40.00 41.72 42.00 41.03
46.15 45.56 45.94 45.72 45.47 46.36 47.72 46.54 45.53 46.18 46.30 45.53 45.59 45.40 45.18 44.82 44.27 43.86 38.76 44.41 43.95 37.38 37.45 42.79 43.31 44.67 48.47 47.78 45.55 44.31 42.45 41.68 42.10 38.25 37.29 38.33 34.82 36.35 35.22 30.88 39.29 33.25 37.19 36.47 34.87 34.95 42.03 43.46 42.66 42.94 42.61 40.60 40.65 40.57
45.97 45.29 45.41 45.46 45.43 45.94 47.05 45.65 45.13 45.06 45.84 45.54 45.30 45.54 45.00 44.68 44.57 42.62 39.68 42.48 41.47 36.86 38.39 40.92 44.19 49.15 50.80 50.49 50.96 43.31 43.71 45.51 43.92 45.52 40.86 39.81 35.52 39.51 34.71 34.27 35.76 39.80 41.40 36.97 38.22 41.11 41.55 43.02 43.59 42.53 40.69 39.35 40.73 42.14
45.53 45.23 45.11 45.25 45.13 45.74 46.32 46.65 45.30 44.99 45.62 45.31 45.08 45.23 44.41 44.47 44.72 43.21 39.89 41.44 40.38 35.37 31.88 41.04 48.80 46.45 49.63 49.46 49.02 49.20 47.20 47.80 46.85 45.98 41.64 39.02 36.91 40.26 38.04 38.55 37.69 40.14 41.37 38.73 38.63 41.76 42.02 41.25 40.44 40.25 40.11 40.77 40.90 40.53
45.78 45.52 45.04 45.18 44.74 45.19 46.06 46.85 45.36 44.96 44.51 44.75 45.10 45.18 44.93 44.73 44.57 42.49 41.81 41.64 42.70 35.64 33.20 37.42 44.56 47.44 48.64 48.83 47.86 48.41 48.27 46.92 45.17 42.43 41.12 38.52 41.02 39.95 40.02 39.53 36.70 39.69 39.21 37.57 37.17 42.42 41.82 38.86 39.61 41.07 39.66 38.92 38.72 37.39
45.80 45.79 45.09 45.19 44.64 44.93 45.62 46.40 45.76 44.83 44.57 44.47 44.80 44.54 43.96 43.84 43.58 40.22 35.10 42.41 44.38 40.91 33.90 34.45 46.25 45.40 46.87 48.57 47.39 46.47 46.57 45.44 45.09 43.02 41.50 42.61 44.15 41.10 36.83 35.37 40.84 42.24 44.16 44.77 42.56 41.69 41.59 40.61 40.37 40.29 39.01 38.54 38.32 36.85
45.67 45.26 45.45 45.12 44.72 44.53 45.37 46.43 45.17 44.27 44.41 44.79 44.30 44.27 43.82 43.32 41.07 35.97 33.56 39.42 42.80 42.10 34.59 34.09 39.94 45.58 46.71 46.80 46.12 46.33 46.30 45.41 44.64 43.04 41.25 41.55 41.90 42.64 39.50 35.66 40.93 44.35 43.76 43.74 44.11 41.95 39.86 39.87 38.89 39.39 38.71 38.26 38.35 36.24
45.45 45.21 45.14 44.80 44.59 44.43 45.11 46.11 44.78 44.54 44.65 44.19 44.14 43.44 43.88 43.81 42.53 38.42 40.56 42.80 42.36 37.10 38.11 33.66 37.73 41.59 46.25 42.90 42.04 45.92 43.78 44.45 43.97 42.63 42.93 40.83 41.91 41.49 37.06 39.57 41.42 42.83 44.17 44.11 43.71 42.41 40.71 40.01 39.10 37.88 37.50 36.86 34.89 33.49
45.24 44.85 44.92 44.59 44.60 44.11 44.60 45.73 44.64 44.08 43.86 43.76 42.89 43.63 42.88 40.43 36.61 38.87 43.94 43.59 42.72 38.46 33.51 37.85 34.95 34.05 44.90 43.24 43.95 42.44 44.63 39.89 44.28 40.77 40.79 41.30 39.41 36.35 39.54 41.35 42.70 45.04 43.34 41.59 40.11 39.61 38.99 38.25 37.52 36.79 36.73 36.02 34.13 33.59
44.87 44.58 44.49 44.73 44.65 43.93 44.63 45.16 44.29 43.90 43.44 42.54 40.86 38.16 34.57 37.82 43.20 43.14 38.87 36.00 35.14 37.57 38.15 37.49 41.65 38.22 42.76 42.30 40.23 41.51 42.22 38.88 34.46 39.43 41.20 37.89 37.36 42.20 43.85 44.06 41.24 41.68 43.71 39.99 36.73 32.96 32.95 31.72 34.09 35.96 36.11 36.71 36.06 34.52
44.78 44.46 44.48 44.78 44.37 43.66 44.48 44.66 43.85 43.26 41.54 38.42 34.48 33.16 39.01 42.50 40.53 37.56 32.90 32.50 34.91 34.24 39.76 40.72 40.11 39.03 42.35 38.66 39.45 40.45 36.57 35.67 33.56 35.34 35.69 34.67 36.06 39.77 39.93 38.79 39.09 39.36 39.90 40.91 41.50 41.69 39.30 38.41 37.10 36.34 36.48 36.34 35.67 34.74
44.65 44.23 44.39 44.83 44.42 43.80 44.87 44.00 43.51 39.56 37.74 37.75 36.75 39.57 39.19 35.58 33.30 31.65 32.16 33.40 33.90 33.89 38.79 39.36 38.76 39.38 40.89 41.52 38.99 39.15 34.49 34.87 31.49 35.99 33.62 31.98 36.56 37.06 35.51 35.62 36.85 38.50 38.80 40.63 41.90 39.60 40.14 40.01 39.06 38.09 37.12 35.90 35.08 33.36
44.41 44.21 44.51 44.69 43.96 43.80 44.63 43.12 42.95 41.56 42.53 40.32 35.84 31.12 32.11 33.72 29.39 29.35 27.01 31.91 32.33 34.00 34.52 35.92 35.81 38.59 38.92 38.79 37.81 36.14 32.71 32.81 33.69 32.16 31.07 30.18 33.79 34.22 33.89 35.81 36.29 38.17 38.74 38.54 38.16 39.16 39.75 39.57 39.27 38.36 35.67 35.05 32.79 31.19
44.46 44.16 44.52 44.37 43.27 43.78 42.71 42.77 41.79 41.13 39.05 31.89 28.61 24.11 28.93 28.70 29.55 29.95 30.71 31.59 33.77 34.19 35.10 36.69 35.81 34.20 36.58 34.69 35.08 32.82 35.45 32.93 29.52 28.52 26.73 32.84 31.76 33.15 34.41 35.21 35.17 35.78 35.81 35.84 35.78 36.21 36.46 36.94 35.91 35.42 34.98 33.16 31.79 29.83
44.62 44.49 44.28 43.60 42.73 43.38 42.20 41.86 40.51 40.28 34.62 29.88 28.78 25.83 28.34 31.72 32.66 32.51 32.78 33.30 34.56 36.58 35.95 35.95 35.01 36.69 34.02 33.71 33.94 33.11 30.50 28.30 30.12 26.64 32.23 31.37 31.04 32.01 32.19 32.64 33.19 33.49 34.17 34.11 34.21 33.92 34.03 33.98 33.56 32.22 32.09 31.68 31.36 29.88
44.26 43.82 41.83 43.05 43.32 41.94 40.45 39.62 39.57 38.53 33.83 30.87 29.57 27.75 30.81 29.87 29.35 30.53 32.00 31.95 35.20 35.14 35.41 34.59 33.56 33.02 33.03 33.47 30.72 29.96 29.26 27.89 29.90 26.74 28.60 31.17 30.92 31.17 31.28 31.70 32.23 32.68 33.22 33.86 34.21 33.83 33.45 32.42 31.68 30.86 30.52 30.27 29.91 29.57
43.76 38.83 41.96 42.36 41.85 39.58 38.60 37.01 35.77 31.90 30.11 28.34 27.89 31.81 31.87 30.29 27.64 27.21 30.25 32.42 35.26 33.76 32.02 32.26 31.67 32.37 32.51 30.91 29.36 31.03 30.77 29.64 28.73 28.05 28.03 29.47 29.65 30.27 30.34 30.59 31.50 31.53 31.96 32.37 32.27 32.71 31.55 31.69 31.52 29.83 28.07 28.14 26.88 27.08
39.46 41.23 42.85 41.79 40.17 36.42 35.07 34.39 31.73 29.36 25.97 28.79 26.96 30.28 31.19 31.83 29.40 28.66 31.07 31.84 30.90 31.05 31.99 30.60 30.78 30.13 30.41 29.55 29.71 28.77 29.56 30.05 30.70 27.34 27.03 29.61 30.31 29.59 29.59 28.79 29.49 29.46 29.67 30.52 29.62 27.57 27.64 27.17 26.84 26.03 25.45 25.26 25.04 25.26
40.36 41.01 41.80 41.93 38.00 34.32 30.66 30.80 30.83 24.18 25.55 29.05 29.78 29.81 30.04 30.07 29.07 29.09 29.13 31.03 32.12 31.85 30.61 31.47 29.46 29.50 29.88 29.04 28.64 27.74 24.77 28.61 28.16 28.76 28.31 29.98 29.77 28.50 28.26 28.10 28.37 27.17 26.43 25.63 27.85 27.73 28.07 28.65 26.64 25.64 25.24 25.83 24.13 24.24
42.53 42.12 42.27 41.46 37.25 31.42 26.75 27.22 30.25 26.40 22.37 24.91 28.36 26.47 25.64 24.16 25.35 24.79 24.71 27.97 28.04 25.40 22.35 25.48 29.12 29.42 28.80 28.68 29.06 28.48 27.01 26.97 27.98 26.75 26.48 27.82 29.32 26.75 26.57 25.01 25.87 26.18 26.10 25.64 25.78 28.62 24.32 24.09 24.89 26.17 26.03 25.89 24.44 23.88
39.23 39.40 38.75 35.50 32.22 31.75 28.84 26.52 25.54 25.95 26.04 23.89 27.39 24.88 18.75 20.72 17.92 21.26 25.65 29.26 27.07 18.93 18.54 24.49 24.93 23.73 27.30 25.68 25.32 25.00 25.02 24.99 23.34 25.70 25.45 25.77 29.20 30.28 31.08 24.54 23.12 27.06 26.13 27.03 25.73 25.31 26.64 23.10 23.72 25.72 27.83 26.49 25.42 24.31
35.02 36.34 31.87 32.22 28.97 26.74 26.45 27.89 25.78 25.74 23.28 22.95 21.23 20.69 13.92 13.34 14.00 17.70 22.39 23.54 24.63 21.28 23.77 23.15 22.11 22.55 22.57 20.77 20.44 21.05 22.35 22.92 24.04 25.70 28.40 27.99 26.76 27.72 28.42 30.15 23.22 21.15 22.36 23.87 25.46 25.12 24.59 24.13 24.85 25.36 25.31 25.15 25.18 24.71
35.07 33.01 29.45 28.56 24.86 23.21 21.51 24.91 22.17 22.76 20.15 18.72 16.87 12.92 12.70 13.23 20.62 22.78 19.39 18.36 20.88 23.36 24.07 21.96 18.24 17.58 18.11 19.70 20.36 20.75 21.64 21.43 21.57 22.57 23.70 22.98 24.05 26.97 27.87 28.80 25.74 21.88 22.22 23.43 24.26 23.16 21.72 26.98 27.68 24.01 24.85 24.19 24.04 24.03
33.40 29.53 25.83 24.09 24.25 20.15 20.23 19.63 21.10 20.28 18.90 17.14 15.05 9.05 10.02 11.71 18.59 19.05 13.80 18.40 21.47 23.08 20.71 15.24 16.77 17.54 18.57 18.81 16.79 18.12 18.61 18.51 17.54 19.46 20.67 20.10 18.93 22.40 24.33 26.37 27.27 25.78 27.47 26.08 22.34 22.60 23.83 25.09 26.53 24.63 23.75 23.02 22.89 21.42
25.99 22.75 23.44 18.56 18.50 16.32 15.75 15.78 16.85 17.15 14.63 14.48 9.10 9.69 9.82 11.37 9.31 8.35 12.26 16.98 17.64 18.97 18.70 16.96 16.49 17.00 15.50 15.33 16.09 17.29 19.82 17.88 14.82 16.72 15.84 18.09 18.26 20.03 20.43 24.41 25.61 25.78 26.07 26.67 25.59 22.36 20.72 25.10 24.49 23.45 22.92 22.51 20.76 19.84
21.95 20.75 18.09 19.06 15.92 16.15 17.00 14.61 13.30 13.03 14.02 8.38 10.64 10.19 7.72 9.74 6.07 7.34 13.15 14.90 18.16 19.24 21.62 20.52 19.38 17.25 17.52 18.68 15.71 14.70 15.71 16.67 15.39 14.13 15.64 17.00 18.20 19.18 20.89 21.25 21.67 23.72 24.09 28.39 27.05 25.16 24.36 24.61 23.46 22.74 22.66 23.12 24.58 19.50
20.77 17.99 19.56 22.96 21.04 19.23 17.06 17.07 17.98 14.58 9.74 8.42 9.83 8.45 7.06 3.03 4.34 12.70 16.44 16.70 17.66 16.16 16.22 16.62 17.71 17.12 14.43 13.15 15.83 16.15 15.29 11.95 13.37 14.35 16.20 17.17 18.23 18.99 17.67 17.35 17.63 20.37 23.69 26.89 27.99 27.01 24.83 24.00 23.13 23.16 22.43 22.99 22.27 19.60
22.96 20.28 15.08 17.13 16.96 16.87 13.81 12.88 11.45 9.75 11.33 15.73 14.76 6.29 5.97 9.17 11.86 14.31 14.91 13.26 12.14 10.21 9.13 9.46 10.32 9.46 8.81 9.02 9.50 12.25 10.31 12.24 11.37 11.52 15.45 16.87 17.92 18.29 18.77 20.32 21.98 25.69 26.97 27.02 27.84 27.86 26.61 24.95 24.26 23.31 22.64 21.25 19.85 20.22
18.95 21.12 19.91 15.61 14.75 14.28 14.48 13.74 13.00 14.38 17.10 14.08 11.65 10.88 13.16 16.66 13.71 12.08 11.57 9.06 6.33 6.26 5.57 5.65 6.93 5.52 5.31 6.64 8.17 11.13 11.46 9.61 9.33 8.72 7.96 9.95 10.75 11.80 16.96 20.93 23.41 25.75 27.88 27.30 30.63 28.95 26.39 25.56 24.84 23.98 22.39 21.00 20.53 20.03
19.66 22.76 17.12 13.47 13.08 13.42 13.05 11.07 8.88 8.11 13.83 14.44 14.83 13.61 13.75 12.99 11.67 8.85 7.88 4.31 3.50 3.51 3.33 3.79 2.81 1.65 2.60 3.38 8.54 8.55 10.44 14.08 14.56 13.68 11.82 11.34 11.28 12.07 16.02 19.17 22.91 24.68 26.15 27.00 27.50 27.35 30.09 27.73 27.12 22.24 19.46 18.51 18.39 17.76
21.22 20.11 16.04 15.50 12.46 6.87 3.44 5.59 7.65 16.26 10.48 6.02 6.53 7.72 9.25 7.95 10.21 7.76 4.86 4.08 3.19 0.97 0.34 -0.01 1.23 3.48 5.93 6.48 6.49 9.85 10.60 9.20 11.11 13.09 16.11 18.09 18.94 18.64 19.09 19.63 23.43 24.72 26.37 26.00 25.35 25.35 25.21 20.05 18.12 17.29 17.02 16.30 16.25 14.57
18.50 15.41 14.07 10.50 5.50 1.81 3.09 5.96 7.24 7.92 5.90 2.71 3.91 0.60 2.75 4.39 5.27 9.24 3.32 1.40 0.17 1.41 8.34 6.32 3.68 6.05 6.66 9.26 13.42 15.04 19.66 17.31 16.32 15.20 12.52 15.50 16.73 18.84 21.35 22.62 24.81 25.92 25.61 24.61 21.74 18.85 17.95 17.39 17.08 16.22 15.40 13.67 13.09 13.45
9.40 8.55 10.61 7.83 4.22 5.59 6.12 5.21 5.01 1.76 0.07 -0.25 1.75 1.48 0.58 4.11 6.88 7.91 4.22 2.57 3.39 3.77 4.31 4.40 5.66 8.65 10.62 13.61 16.22 18.14 21.97 19.72 19.36 24.13 24.98 25.44 25.79 24.20 21.93 23.47 23.48 22.10 20.76 19.20 18.68 18.22 17.49 16.68 15.74 14.91 14.25 13.85 13.86 13.43

GFSWCAN_sfc_wetblb_021.txt.gz
Wetbulb
45.86 46.23 46.21 46.42 46.23 45.67 46.22 47.25 46.93 45.78 45.84 46.59 45.79 45.76 45.66 45.39 44.76 39.36 36.93 41.08 38.45 35.57 35.78 39.87 41.81 39.88 42.95 41.48 38.39 40.64 38.41 39.45 38.28 34.34 33.83 32.76 31.79 33.42 32.02 34.29 34.26 33.00 32.31 31.59 33.09 29.95 25.31 39.38 39.40 36.21 39.21 39.90 39.24 39.53
46.08 46.36 45.77 45.81 46.16 46.07 46.03 46.71 46.72 45.66 45.35 45.45 46.12 45.62 45.62 45.29 44.91 42.86 33.76 40.00 41.73 36.41 34.45 40.53 40.49 41.76 42.55 44.45 42.44 43.32 39.93 39.48 39.79 35.80 34.64 36.16 32.97 34.57 32.55 29.18 37.09 33.61 34.95 33.66 33.55 32.34 38.21 40.87 41.87 40.82 40.64 39.16 38.37 39.14
46.02 45.97 45.58 45.27 45.48 46.01 45.86 46.44 47.07 46.18 45.15 45.42 45.89 45.26 45.24 45.17 44.76 43.12 35.24 36.82 39.10 32.82 34.60 37.10 38.65 45.46 45.81 45.29 49.83 42.96 43.42 43.56 42.36 42.64 38.06 38.19 35.62 37.14 31.79 32.53 34.19 38.19 40.66 38.07 37.74 38.98 39.85 41.01 39.58 39.21 38.50 37.51 39.35 40.68
45.76 45.29 45.70 45.45 45.39 45.91 45.55 45.78 46.44 46.93 45.73 45.21 44.88 45.10 45.37 45.40 44.93 44.21 35.77 37.35 36.73 33.38 29.07 33.95 45.82 45.85 48.00 49.59 49.36 49.44 47.05 46.05 44.72 43.28 39.84 39.17 36.34 39.04 35.93 36.31 35.74 38.32 40.24 38.43 36.61 40.37 39.50 38.74 38.27 38.66 38.20 38.92 37.86 38.95
45.74 45.91 45.85 45.90 45.91 45.81 45.25 45.51 46.08 46.85 45.98 44.90 45.00 44.84 45.08 45.13 44.53 41.38 37.92 38.16 39.10 31.94 30.76 32.94 38.14 46.12 47.20 47.28 47.81 47.97 45.97 44.03 43.57 40.78 39.88 37.78 40.21 39.48 39.43 38.36 36.02 37.97 36.54 36.35 35.48 42.49 40.36 38.92 38.58 39.25 37.80 36.98 37.03 36.59
45.87 45.37 45.29 45.63 46.23 45.81 45.19 45.00 45.69 46.51 45.38 44.81 44.89 45.09 44.45 44.67 44.36 40.12 30.90 41.86 41.80 40.44 31.86 29.77 43.32 44.70 46.74 46.32 45.78 45.69 46.34 45.98 44.71 42.32 41.50 42.31 43.78 40.77 36.33 35.21 39.32 40.35 40.12 42.03 40.60 42.01 40.63 39.20 38.93 38.50 37.16 36.94 36.88 35.74
45.27 45.15 45.10 45.63 45.75 45.55 45.28 45.09 45.45 46.38 45.23 44.57 44.65 44.29 44.26 44.15 41.72 35.52 30.95 38.91 42.27 40.63 33.05 30.37 36.80 44.91 46.55 46.15 46.04 45.60 46.09 44.59 43.94 42.61 41.49 41.34 41.56 42.41 39.15 34.85 38.76 41.08 43.05 44.33 42.58 41.44 39.14 38.68 37.97 37.41 37.38 37.01 37.35 34.78
45.71 45.24 45.22 45.32 45.44 45.31 45.15 44.69 45.13 45.67 44.57 44.46 44.25 43.70 43.80 44.31 41.89 37.93 37.95 42.91 41.40 35.01 34.18 30.29 36.52 41.35 46.25 42.79 41.63 45.94 43.41 44.23 43.67 42.20 42.65 40.69 41.08 41.05 36.74 38.89 41.74 43.45 43.35 42.61 41.98 41.54 40.87 38.65 36.84 35.73 35.62 35.06 33.83 32.83
45.38 45.18 45.38 44.89 44.99 45.48 44.98 44.48 45.21 44.74 44.22 43.72 43.35 43.72 40.18 37.28 35.66 38.62 43.39 42.62 40.76 35.96 30.92 33.81 33.81 34.09 44.62 42.75 43.45 42.26 43.57 38.79 42.88 39.90 40.29 40.97 38.60 35.64 39.50 41.22 41.55 40.33 40.62 41.75 38.48 38.18 37.11 36.58 35.42 34.66 34.36 34.02 32.98 32.14
45.57 45.04 44.89 44.69 44.89 45.26 44.43 44.44 45.44 44.17 43.10 42.91 38.78 36.70 34.38 37.80 43.17 42.96 38.83 34.96 34.29 35.06 35.12 33.35 41.13 36.64 41.06 41.40 39.23 41.02 41.26 38.50 34.61 39.64 41.09 37.90 37.61 41.04 37.66 37.29 36.60 36.48 37.45 38.35 37.53 33.64 30.64 29.83 32.89 33.90 34.02 34.70 34.85 33.18
45.53 45.24 44.74 44.40 44.86 45.06 44.29 44.51 44.65 43.05 40.83 36.86 34.04 32.54 37.17 42.22 39.54 37.14 32.49 31.41 34.47 32.62 37.86 39.55 39.68 37.71 42.22 38.03 37.93 39.62 35.56 34.94 33.11 35.16 34.86 32.61 35.97 34.88 35.29 34.57 36.53 37.07 37.42 37.89 38.80 39.67 40.03 38.47 35.96 35.04 34.47 34.64 34.47 33.81
45.72 45.07 44.65 44.31 44.82 44.72 43.94 44.70 43.62 37.50 34.46 36.50 36.94 38.84 38.54 35.41 33.11 31.24 30.45 33.51 33.14 32.94 37.86 38.33 37.63 39.53 38.69 40.33 38.63 38.25 33.79 33.98 30.55 35.77 33.15 30.48 34.96 33.09 33.61 33.87 35.17 36.47 37.38 37.51 38.49 39.53 39.40 38.97 37.57 36.95 35.47 34.33 33.69 32.70
45.76 45.00 44.58 44.50 44.73 44.16 43.75 44.26 43.25 41.68 40.69 39.92 36.02 31.00 31.47 32.87 28.28 27.24 27.00 31.50 31.89 33.24 34.45 35.22 34.47 36.30 37.26 38.74 36.45 35.46 32.64 32.37 33.23 32.04 30.51 31.99 31.77 32.57 32.38 33.48 33.50 35.35 36.46 36.75 36.77 37.84 39.32 38.44 38.30 38.19 35.57 33.54 31.69 30.79
45.13 44.69 44.80 44.48 44.21 42.74 43.32 43.32 42.20 39.83 36.78 31.00 27.64 24.54 27.03 27.30 28.93 29.39 29.95 31.02 33.64 33.78 34.56 36.34 34.71 32.79 35.81 33.88 35.89 32.54 34.58 32.91 29.00 27.83 27.83 30.05 30.20 31.47 32.06 32.38 32.26 32.54 33.85 34.81 34.91 35.44 36.58 36.96 35.84 35.67 34.09 32.86 31.68 30.30
44.86 44.75 44.79 44.29 43.56 42.31 43.10 42.38 40.25 38.79 33.34 28.47 28.26 22.83 26.72 30.96 31.46 31.83 32.22 33.11 34.27 36.11 35.44 35.53 34.60 36.64 32.85 32.61 34.26 32.62 30.17 27.85 29.46 27.81 28.63 26.10 29.84 30.43 30.51 30.90 31.07 31.83 32.55 32.95 34.00 33.14 34.10 34.93 34.21 33.11 33.03 32.96 32.19 29.95
44.87 44.56 42.57 43.49 42.84 42.87 41.37 39.38 38.47 37.35 32.25 29.06 28.61 26.07 30.08 28.49 28.98 30.04 30.42 31.33 34.40 34.79 34.99 34.13 33.11 32.55 32.65 32.76 30.73 29.33 28.46 27.16 29.46 25.50 24.90 27.81 29.46 29.90 29.80 29.99 30.53 31.42 31.73 32.45 32.95 33.58 33.22 32.54 31.93 30.54 30.23 30.11 29.92 29.23
44.90 39.38 42.52 42.83 42.72 40.82 39.27 35.65 34.06 29.37 28.47 26.83 26.19 31.02 30.55 29.46 29.29 21.03 30.72 32.34 34.66 33.68 32.17 32.15 31.22 31.10 32.38 30.53 28.73 31.67 29.57 28.35 29.34 30.21 24.41 26.73 27.39 29.22 29.18 29.00 29.56 29.79 30.34 31.16 31.22 31.67 31.39 31.39 29.94 29.04 27.62 27.57 26.88 26.77
39.88 41.04 43.06 42.18 39.90 36.91 34.31 33.17 30.57 26.35 24.47 27.10 26.34 27.61 31.38 31.56 29.86 26.31 28.07 29.37 31.02 31.50 31.86 31.30 30.84 29.48 29.55 29.69 29.12 28.31 29.30 29.76 26.39 23.93 24.80 26.91 27.71 28.80 28.88 28.50 29.19 28.78 28.58 29.35 28.72 27.43 26.82 26.72 26.42 25.09 25.03 24.81 24.64 24.91
40.82 41.32 42.94 42.69 38.39 32.71 28.84 29.27 29.29 22.88 23.78 26.30 28.82 29.14 29.69 29.81 29.62 27.22 27.35 28.35 29.09 29.25 30.65 30.37 28.81 27.97 28.03 29.30 29.01 28.86 28.56 28.00 25.44 25.26 25.88 26.89 27.24 27.30 27.35 28.93 27.15 26.07 26.38 26.35 27.94 27.91 27.75 27.95 26.34 24.91 24.63 25.31 23.95 24.08
43.18 43.10 42.95 42.40 37.21 29.27 24.10 23.69 28.57 24.31 16.51 24.16 27.55 26.34 26.94 26.69 24.69 22.28 22.86 25.11 24.11 25.68 23.07 23.77 27.52 28.28 26.03 25.54 29.13 29.28 27.78 25.80 23.85 22.00 23.17 24.95 25.90 23.20 28.57 29.89 29.19 25.05 24.34 23.31 23.61 28.95 24.89 24.16 24.11 24.12 24.11 24.02 23.55 23.35
40.41 40.01 38.80 35.94 31.37 29.27 26.17 21.67 19.18 20.64 20.56 21.49 24.67 25.31 20.64 19.06 13.86 20.41 16.82 27.80 25.06 13.03 14.03 21.43 23.06 22.28 25.68 24.33 24.46 24.46 24.12 24.14 21.54 21.90 20.99 17.76 23.34 22.52 22.96 25.88 29.35 28.98 24.77 25.58 25.05 25.47 27.44 23.47 23.49 24.31 25.50 24.48 24.07 24.33
35.67 37.29 32.65 33.41 27.66 25.25 24.33 25.44 21.88 22.88 21.57 21.36 21.35 20.70 16.45 14.83 14.61 18.75 20.05 22.50 22.77 18.53 20.00 20.51 19.88 22.17 23.02 20.34 19.82 20.08 21.82 21.96 21.99 22.60 26.29 25.45 20.50 18.86 20.12 21.00 27.00 26.86 27.36 22.60 23.62 24.83 24.84 24.57 23.95 24.13 23.77 23.74 25.08 23.96
36.14 33.37 29.82 28.01 24.35 23.66 18.28 21.65 18.36 19.02 19.34 16.35 17.21 15.69 14.76 15.03 17.15 23.21 16.89 17.47 17.81 19.87 21.75 19.86 16.48 16.52 19.36 19.01 19.75 19.84 19.74 19.46 19.79 20.17 21.16 20.75 20.92 20.86 20.50 20.32 21.90 25.71 26.15 26.51 23.28 24.70 21.55 26.91 26.61 23.04 24.22 24.11 23.61 24.66
34.90 29.85 26.13 24.15 24.37 17.94 19.30 15.08 21.27 20.36 18.89 18.10 17.13 16.13 13.26 12.93 20.44 18.32 15.64 16.99 19.95 20.40 19.25 14.06 15.61 16.71 17.86 18.13 16.34 17.39 17.72 18.51 16.57 16.96 19.10 17.78 16.15 18.99 20.54 20.64 20.96 20.66 22.67 25.21 26.16 23.58 25.10 24.61 27.10 23.85 23.62 23.82 24.15 23.57
26.45 23.73 24.04 16.82 13.93 11.50 11.25 13.79 15.66 17.11 15.36 16.87 15.59 14.10 12.05 13.97 8.86 10.76 13.31 15.43 11.59 15.90 14.68 14.76 14.67 15.66 16.03 14.37 14.51 15.81 18.16 17.22 13.89 14.72 12.45 17.55 17.03 15.65 13.99 16.39 19.44 21.39 24.83 24.49 26.10 23.60 23.26 24.37 24.87 23.44 22.16 23.54 23.18 21.17
22.43 20.45 17.89 14.28 9.71 13.82 14.80 13.70 14.53 15.71 17.17 15.75 14.66 12.40 12.76 9.56 8.14 10.31 13.02 11.78 13.61 14.31 16.31 18.60 18.96 16.48 16.80 17.82 15.97 13.33 15.07 14.97 13.58 12.61 13.36 15.06 15.97 13.15 7.16 14.23 16.61 17.79 18.24 19.10 23.49 23.98 23.08 24.64 24.06 23.30 22.96 24.32 25.76 20.99
18.81 14.42 20.13 23.45 20.14 19.54 17.03 17.89 18.83 17.47 14.26 12.40 12.75 11.74 8.37 7.08 7.42 11.70 14.45 13.10 14.85 12.91 14.04 15.82 17.89 18.14 17.67 11.67 14.61 14.55 13.15 7.71 11.70 12.53 12.69 13.34 15.01 16.04 12.92 14.07 13.95 16.59 18.27 18.32 21.21 25.32 23.78 23.71 24.54 23.69 23.56 24.24 24.17 21.41
20.33 17.14 12.94 15.13 16.13 16.72 15.38 14.64 14.71 13.95 14.58 16.22 15.28 11.18 8.99 9.51 11.53 12.50 14.12 9.64 7.20 4.34 4.04 6.04 8.59 9.08 7.85 7.42 6.88 10.02 6.26 5.00 5.10 5.78 9.75 13.92 15.42 15.93 15.96 16.90 17.78 21.77 20.64 20.99 20.86 23.74 25.99 25.33 24.76 24.24 23.94 23.24 22.82 21.91
14.99 17.82 18.47 13.41 15.41 15.96 15.63 15.15 15.27 16.43 18.81 16.50 12.93 10.29 9.98 13.46 10.16 8.93 10.29 6.44 1.02 4.24 7.36 6.01 5.77 -1.56 0.44 1.01 1.13 1.98 4.66 3.70 5.19 5.72 6.30 8.91 10.77 9.40 9.97 14.42 16.18 17.12 20.04 22.03 26.17 28.20 26.93 26.22 25.30 25.27 24.65 23.37 21.55 21.03
13.30 19.30 14.46 14.70 15.84 15.47 16.50 15.47 15.17 12.89 14.51 14.75 14.65 11.42 11.61 10.71 9.59 4.78 4.90 1.38 3.82 4.69 1.87 -0.38 -2.00 0.11 0.77 -0.91 1.63 3.00 3.75 7.94 9.82 10.71 9.38 9.55 9.73 6.32 4.80 10.18 14.71 17.27 19.30 22.63 23.98 24.87 30.18 30.52 28.96 25.90 21.83 20.33 19.90 19.34
20.16 18.41 15.37 14.93 14.10 12.04 9.61 9.09 9.47 16.00 5.99 1.85 2.01 4.93 7.31 7.63 9.35 5.28 2.97 0.48 -1.33 -4.93 -1.35 -1.23 -3.05 -7.23 -1.70 0.10 -1.23 1.98 8.64 6.59 7.25 9.96 12.54 14.78 15.73 16.09 16.05 15.92 16.44 17.92 20.25 22.39 24.16 25.40 27.10 24.98 21.03 19.39 18.70 18.45 19.14 17.56
19.02 17.33 15.77 12.55 9.97 8.09 8.48 8.96 7.02 2.29 0.28 -0.09 1.58 -2.67 0.10 3.13 4.88 9.19 0.94 -0.85 -3.37 -1.28 7.56 1.38 -0.92 3.73 3.23 4.48 6.04 9.88 18.30 16.73 16.43 16.49 15.48 15.47 15.23 14.81 15.14 16.10 18.48 20.29 21.67 23.53 24.70 23.41 19.56 18.67 18.49 18.30 17.56 17.17 15.18 14.98
7.72 9.15 11.53 9.95 7.60 4.95 6.74 3.45 0.74 1.07 0.14 -1.90 -1.17 -1.48 -3.19 2.57 7.14 7.38 1.59 -1.65 1.72 2.38 2.72 2.63 2.68 1.44 3.66 6.76 11.17 13.76 17.85 16.19 17.79 24.63 26.20 25.81 25.27 20.95 16.82 18.32 20.74 21.15 21.09 20.38 20.16 19.59 18.59 18.00 17.10 16.69 15.48 15.15 15.39 15.62

GFSWCAN_sfc_wetblb_024.txt.gz
Wetbulb
47.57 46.78 46.69 46.02 46.00 46.73 46.82 46.59 46.97 47.31 46.14 45.46 45.34 46.20 45.45 45.46 44.68 39.29 35.53 39.07 34.02 30.05 32.72 37.14 40.03 39.04 40.67 39.23 36.19 38.07 37.49 38.02 36.58 33.15 32.03 32.02 30.29 32.01 30.28 32.95 33.75 33.28 32.35 32.36 33.29 30.07 25.52 39.02 38.66 35.75 38.74 39.23 39.93 38.77
47.66 46.72 46.67 45.69 45.38 45.75 46.57 46.27 46.63 47.01 47.13 45.55 45.36 46.05 45.33 45.23 45.28 42.26 35.90 38.13 39.89 34.41 30.29 37.36 37.99 38.11 38.43 43.03 42.01 42.18 37.70 37.68 38.09 34.15 32.95 33.81 31.16 33.00 30.47 27.11 34.33 33.28 35.00 32.48 33.01 32.31 38.56 39.53 40.16 40.84 39.80 38.72 38.25 37.80
47.37 46.34 46.03 45.28 44.96 45.21 45.78 46.28 46.25 46.45 47.20 46.26 45.76 45.09 44.89 45.24 45.72 43.70 36.46 36.70 35.39 32.72 30.90 31.33 33.15 39.23 41.94 40.79 43.51 41.10 43.38 43.92 40.79 40.36 36.47 36.21 33.24 35.86 30.60 31.51 31.52 37.43 39.16 37.36 36.07 37.98 38.38 39.65 39.83 38.86 38.04 37.55 38.82 39.67
46.78 46.39 45.75 45.78 44.93 45.14 46.38 45.88 45.81 46.08 46.69 46.88 45.82 44.89 45.06 44.99 45.24 44.90 38.42 39.26 37.34 31.86 27.28 27.93 41.17 37.68 42.80 45.34 44.48 46.72 46.90 45.19 43.24 41.09 37.19 36.02 34.60 38.04 35.29 34.74 35.40 36.95 38.00 38.24 36.81 38.67 40.29 38.80 40.39 38.63 38.04 38.24 37.25 38.14
46.81 46.94 45.71 46.11 45.89 46.26 46.62 46.41 45.53 45.56 46.27 46.43 45.41 44.78 45.17 45.17 44.86 43.01 38.17 37.19 38.08 30.70 26.14 28.10 34.06 37.50 40.43 45.11 46.34 48.19 46.69 44.60 41.78 40.52 37.77 36.39 38.15 37.27 37.17 37.92 35.93 36.65 35.59 34.10 33.27 40.03 41.70 40.95 39.25 39.25 37.59 36.88 36.17 35.98
46.62 46.53 46.27 45.61 46.03 46.12 46.26 46.02 45.62 45.49 45.78 45.98 44.94 45.10 44.41 44.44 44.46 39.13 34.08 40.56 40.90 37.30 27.97 24.64 37.38 37.17 45.72 46.56 46.55 46.10 46.56 45.52 44.13 41.63 40.79 41.87 43.34 40.27 36.48 35.00 38.83 38.68 39.43 41.72 38.56 40.29 41.01 40.39 38.92 38.06 36.62 36.21 36.17 35.46
46.71 46.55 46.01 45.78 45.58 46.38 46.17 45.83 45.61 45.22 45.88 45.57 44.64 44.47 44.09 43.88 41.95 36.14 30.23 37.86 42.47 39.96 32.30 28.09 30.69 40.04 46.10 45.91 45.68 44.94 45.79 43.75 43.75 42.42 41.01 40.77 41.22 42.20 38.82 35.05 39.01 42.11 43.99 44.21 42.52 42.27 38.90 38.56 38.91 38.10 36.64 36.32 37.11 33.72
46.45 46.05 45.99 45.35 45.73 45.78 45.72 46.08 45.18 45.30 46.01 44.94 44.26 43.59 43.29 43.91 41.33 37.47 37.77 41.96 40.78 35.47 32.99 27.72 29.81 41.07 46.27 42.49 41.60 45.51 42.95 43.62 43.21 42.01 42.25 40.17 40.76 40.79 36.52 37.80 41.27 40.92 39.06 41.77 40.03 41.49 41.07 37.49 36.22 35.28 34.72 33.43 32.20 31.36
45.99 45.94 45.98 45.63 45.33 45.25 45.58 45.62 44.71 45.45 44.88 43.56 43.71 43.56 39.90 36.29 33.69 37.41 43.40 43.04 40.46 35.65 29.80 31.56 30.96 33.06 44.87 42.76 43.12 42.37 43.79 38.89 42.01 39.46 39.76 40.54 38.17 35.99 35.33 34.38 35.19 34.88 34.56 35.76 37.42 39.49 38.08 36.29 35.23 34.07 33.12 32.32 31.24 30.61
46.21 46.33 45.89 45.40 45.14 44.93 45.57 45.23 44.81 45.05 43.19 42.59 38.44 35.38 32.03 35.51 42.96 42.90 38.94 35.07 33.50 33.83 32.92 29.91 37.48 37.24 41.99 41.23 39.85 39.97 40.10 38.84 34.33 39.63 41.26 38.40 37.32 37.49 35.49 35.23 34.91 34.88 35.61 35.33 33.61 32.72 34.28 29.58 31.69 33.37 32.65 32.92 32.44 32.18
46.74 46.56 45.73 45.21 44.73 44.75 45.25 44.47 44.90 43.28 40.10 35.30 32.52 31.70 35.72 41.55 38.42 36.69 31.65 30.41 33.08 31.40 33.86 34.79 38.71 38.51 42.40 38.14 38.69 40.79 35.46 35.08 32.94 35.35 36.31 33.51 35.66 33.49 34.53 33.14 34.14 34.08 34.71 35.64 36.05 37.01 37.45 38.06 37.18 34.58 33.02 33.08 32.62 32.41
46.90 46.42 45.71 45.28 44.69 44.88 44.88 44.06 44.13 37.11 33.58 34.69 36.61 39.09 38.17 35.23 32.68 30.54 30.38 32.93 32.52 32.77 37.21 37.64 37.77 39.38 39.47 41.16 37.95 37.23 32.33 33.63 31.05 36.28 33.38 30.63 33.66 32.71 32.23 31.88 32.55 32.98 33.89 35.01 36.05 36.13 37.22 38.52 38.19 36.13 34.65 33.79 33.11 33.26
47.00 46.45 45.89 45.38 44.78 44.83 43.99 43.72 43.72 42.21 40.28 39.10 35.91 31.00 30.72 31.99 25.63 26.45 25.94 30.96 31.93 32.97 34.17 34.74 34.63 36.49 38.58 39.35 36.01 35.27 32.32 32.20 33.78 31.75 30.31 31.72 30.75 31.17 31.35 31.65 31.55 33.02 33.97 34.98 35.91 36.34 37.07 37.82 37.14 37.13 35.64 34.73 33.10 30.36
47.04 46.58 45.84 45.21 44.85 44.06 42.83 43.63 42.81 39.48 35.54 31.11 27.82 24.55 26.53 24.98 28.53 28.99 29.47 30.87 33.75 33.62 34.30 36.00 34.73 34.73 35.89 34.12 35.63 31.96 34.06 32.99 28.92 27.33 28.70 30.53 27.21 29.54 30.53 31.18 30.48 30.76 32.85 33.12 34.68 34.52 35.15 36.52 35.17 34.93 33.82 32.76 31.63 30.07
47.16 46.24 45.23 44.94 44.82 43.75 42.71 42.97 40.49 37.82 31.68 25.84 28.25 21.69 25.09 28.99 30.87 31.44 32.11 32.69 34.41 35.75 35.12 35.43 34.64 36.35 32.45 32.78 34.00 32.36 30.32 27.68 29.01 28.04 29.84 23.94 25.05 28.85 29.20 29.53 29.48 30.06 30.71 31.26 32.80 33.66 33.25 35.02 34.62 33.45 33.41 33.30 32.58 31.29
46.95 45.28 43.43 44.87 44.25 43.30 42.72 39.38 37.50 36.49 29.96 26.97 27.63 23.96 29.26 27.96 28.66 29.76 29.98 29.76 34.90 34.10 34.83 34.08 32.99 32.60 32.49 32.11 30.90 29.32 27.81 26.72 26.89 28.76 22.67 25.26 27.39 28.63 28.91 28.97 29.46 29.81 30.16 30.69 31.50 32.13 32.93 32.97 33.42 33.51 33.30 33.12 32.01 30.60
45.65 40.19 44.34 44.03 43.37 41.82 40.27 35.10 33.72 28.07 25.94 25.38 24.90 29.42 27.55 29.18 28.95 28.16 30.89 32.14 34.31 33.06 31.91 32.19 31.43 27.92 32.23 30.87 28.74 31.26 29.65 29.57 29.39 30.00 22.67 24.56 25.44 27.18 28.29 28.62 29.55 29.30 29.31 29.55 29.51 29.77 29.45 31.03 30.09 28.98 27.59 28.31 28.97 29.12
40.12 41.73 43.60 43.30 38.82 36.58 32.95 32.09 27.93 23.68 23.76 25.53 24.78 25.61 31.00 31.86 29.99 29.51 27.48 29.71 31.76 31.07 31.63 31.28 30.83 29.74 29.51 29.60 27.19 29.12 29.46 30.14 28.11 23.04 23.57 24.83 25.76 26.37 27.85 26.89 28.83 28.14 27.70 27.88 27.79 27.11 25.73 25.18 25.78 26.25 25.60 25.02 24.82 24.91
41.10 42.16 43.61 42.35 38.59 30.72 26.87 25.70 26.82 20.77 23.20 25.36 27.90 28.29 28.57 29.02 30.21 28.90 27.25 27.44 27.87 30.00 29.27 30.14 28.60 27.72 28.44 27.65 26.95 18.97 26.91 29.47 27.20 24.93 24.33 25.13 25.79 25.54 25.55 26.63 29.38 24.86 24.71 25.13 26.13 27.08 27.34 27.12 26.70 25.73 24.95 24.66 23.88 23.88
43.69 43.92 43.65 42.37 37.00 27.09 21.67 22.61 25.93 23.85 19.93 24.14 26.35 24.85 26.57 26.99 26.27 25.65 24.91 25.47 23.94 17.81 21.37 24.82 27.98 29.89 26.45 24.04 22.75 23.58 23.49 26.82 24.38 21.61 21.67 23.03 23.56 19.76 21.75 22.22 24.07 25.25 22.87 21.97 24.05 29.63 25.37 24.95 24.67 24.65 24.28 24.21 23.16 22.87
40.59 41.10 41.26 36.70 32.31 27.99 23.87 17.52 16.10 19.37 20.00 21.86 23.46 23.99 20.21 22.79 18.49 16.53 18.16 23.69 18.69 19.86 14.87 20.32 21.87 22.76 25.54 24.75 25.32 25.20 25.02 24.21 21.50 20.40 19.25 15.59 21.15 19.59 19.05 18.63 18.25 24.08 26.37 26.77 26.03 25.21 26.04 24.68 24.50 24.56 24.46 24.76 23.87 23.87
36.04 38.30 32.76 33.65 27.85 23.88 19.51 22.53 17.56 20.83 17.80 16.91 19.25 19.07 14.06 14.54 14.44 14.40 17.14 19.43 20.84 20.09 20.14 20.42 19.22 22.06 22.82 20.53 20.28 21.06 22.56 22.88 21.74 21.40 24.99 24.33 19.21 16.90 17.60 17.96 17.74 14.70 16.52 23.98 26.30 24.05 23.76 25.18 25.30 24.02 23.59 23.77 25.44 23.23
36.13 33.96 30.42 29.50 25.54 21.31 17.38 19.66 15.04 15.35 15.53 12.73 12.58 12.74 12.94 13.32 17.52 23.28 15.47 18.97 21.10 21.59 21.83 21.00 16.83 15.46 20.13 17.43 18.27 18.32 19.24 19.51 19.33 20.00 20.37 19.95 20.23 19.20 16.99 17.03 17.44 12.03 17.66 19.48 19.08 20.12 22.94 27.69 27.13 25.35 22.75 23.83 22.58 23.66
35.58 30.53 27.07 25.49 25.00 17.35 18.16 10.10 19.62 17.02 15.77 15.40 13.04 11.43 11.73 12.55 19.42 17.22 12.91 18.41 20.26 19.99 19.80 18.78 17.49 17.37 17.21 17.19 15.03 16.48 17.24 17.31 15.27 15.57 17.49 15.72 13.81 16.56 17.98 17.89 18.35 17.26 18.54 20.75 19.71 24.47 25.91 26.41 27.91 24.70 23.14 23.21 23.49 22.32
27.15 25.21 25.48 19.61 15.40 9.78 4.36 8.65 11.44 14.27 12.37 16.48 17.45 16.31 13.40 15.17 10.44 9.05 14.01 19.48 12.97 15.67 18.29 16.76 15.91 17.12 17.41 15.36 13.82 15.84 17.63 17.57 15.61 15.55 11.71 16.04 15.35 14.14 13.15 14.53 16.41 17.27 18.21 15.79 19.76 24.12 24.61 25.00 22.36 21.16 19.84 23.28 23.38 23.86
23.70 22.82 20.24 14.07 6.63 10.29 10.28 9.15 12.34 14.31 17.02 16.87 17.55 13.11 12.00 14.18 9.08 10.62 16.20 17.20 15.47 16.74 18.39 20.34 20.80 17.70 16.51 17.81 15.17 12.53 14.92 16.44 14.08 12.22 10.12 15.36 15.70 12.24 6.36 10.12 13.60 14.39 17.06 16.17 13.44 14.38 21.38 23.37 21.06 20.23 20.74 22.82 27.00 23.77
21.22 17.86 19.97 22.89 18.64 17.76 15.69 17.12 18.45 17.60 16.33 16.62 14.18 12.25 14.34 10.24 9.93 15.73 17.54 16.82 16.33 14.41 14.22 17.24 18.87 18.37 16.70 11.63 14.06 13.95 11.81 11.41 13.22 11.70 10.57 11.12 13.24 15.25 13.34 13.06 13.15 15.41 16.24 14.85 14.93 15.52 17.09 20.74 22.49 22.10 22.12 22.62 24.69 24.41
23.62 17.42 14.06 13.90 13.19 14.57 12.86 13.69 14.24 15.08 16.95 18.35 16.16 11.57 11.71 11.59 15.58 16.13 14.99 11.64 7.31 3.40 1.77 2.84 6.04 8.07 8.02 7.89 8.18 12.00 6.33 1.97 0.68 2.29 5.94 10.44 12.23 13.39 13.73 15.59 16.56 20.69 19.05 17.22 16.87 17.49 17.53 17.93 20.81 22.47 22.25 22.46 23.57 24.09
13.99 15.55 16.32 9.76 13.60 14.75 14.14 15.36 16.45 17.64 20.01 17.67 15.55 14.64 13.50 16.22 14.34 11.89 12.71 7.54 -1.12 3.52 6.84 6.99 6.15 -1.94 1.47 1.89 0.87 -0.04 0.81 2.23 4.41 3.88 6.75 10.48 6.00 7.50 7.20 7.63 7.94 9.18 13.71 15.49 21.70 24.65 24.60 23.38 22.29 23.30 23.04 23.95 24.08 22.88
11.84 15.13 14.60 15.58 16.01 15.50 17.49 16.40 17.43 15.96 16.93 16.91 16.27 14.27 13.74 13.44 12.77 7.02 6.81 2.46 5.55 7.52 3.28 0.78 -1.84 1.82 2.16 1.09 -0.27 0.91 0.54 3.16 6.46 8.58 6.75 9.19 8.29 4.89 1.23 4.46 8.91 10.93 12.22 15.81 17.42 17.49 24.07 25.79 27.25 29.14 25.43 21.32 20.60 20.22
17.95 15.11 15.98 16.79 16.29 10.89 9.02 10.87 12.58 16.48 9.67 6.85 6.92 9.46 10.49 8.25 10.58 5.95 4.03 0.99 -1.04 -5.72 -1.09 -0.82 -3.68 -9.85 -2.38 -3.16 -3.59 -2.47 3.54 3.81 2.37 6.39 8.73 11.19 12.44 13.12 13.44 13.88 13.78 12.40 11.67 13.28 15.91 18.11 20.16 22.33 24.35 19.07 18.07 18.25 18.88 19.80
15.46 17.29 16.13 13.13 10.26 9.16 10.20 8.35 7.87 6.94 6.10 4.46 4.78 0.59 2.25 3.94 5.20 10.15 0.07 -2.56 -3.38 -0.28 7.71 0.92 -1.86 3.09 1.30 1.96 0.02 2.29 16.51 14.80 13.68 14.15 13.89 15.55 15.19 15.34 16.03 15.21 11.19 10.99 13.01 15.11 17.39 19.39 21.47 19.56 18.79 19.49 18.72 18.72 18.62 16.91
11.71 12.16 11.73 9.62 8.95 8.50 6.53 10.21 6.91 4.89 3.21 0.85 2.13 -0.30 -2.25 2.73 8.24 9.01 0.85 -3.01 1.06 1.44 2.13 2.20 1.55 -0.18 0.85 1.51 4.16 7.37 14.65 9.28 11.20 20.81 23.19 24.81 26.59 25.87 17.75 14.63 14.91 15.60 16.59 17.71 18.48 19.29 19.37 19.62 18.80 18.28 17.76 16.10 16.11 16.09

GFSWCAN_sfc_wetblb_027.txt.gz
Wetbulb
48.96 48.56 47.91 47.04 46.63 46.25 45.67 46.56 46.48 46.34 47.42 47.54 46.09 45.49 46.33 45.48 45.24 40.40 36.00 37.82 33.01 28.07 29.96 33.81 37.53 35.06 37.70 38.15 33.92 36.71 36.73 36.90 35.31 31.68 30.99 30.65 29.72 31.67 29.29 32.44 31.41 33.16 31.57 31.93 31.81 30.36 24.64 38.88 39.85 35.02 37.88 38.43 39.00 38.32
49.09 48.79 47.87 47.17 46.22 45.23 44.84 45.81 45.85 46.25 46.78 47.13 46.94 46.03 45.41 45.12 45.19 41.91 34.34 38.97 40.17 32.95 29.72 34.42 35.34 35.90 36.14 38.72 36.89 39.92 36.95 36.21 37.18 32.91 32.01 32.45 31.14 32.57 30.29 27.19 32.96 32.91 34.36 31.66 31.85 32.19 37.92 39.58 38.48 40.19 39.29 38.17 37.50 37.09
48.75 48.87 47.85 46.42 45.64 45.21 45.57 45.87 46.41 45.70 46.34 46.68 47.47 46.64 45.36 45.17 45.23 44.42 37.97 38.96 37.76 34.07 30.17 30.23 29.64 34.84 38.82 38.30 39.86 35.23 40.78 43.01 38.95 38.94 35.18 34.15 31.55 33.65 29.10 29.94 30.21 34.31 38.20 36.66 35.05 37.47 37.79 39.75 40.37 39.46 38.59 37.44 37.89 38.67
48.47 48.10 47.16 46.60 46.43 45.94 45.94 46.60 46.99 46.12 45.29 46.37 47.28 46.71 45.45 44.82 44.97 44.96 39.36 39.43 38.52 34.76 26.21 25.92 35.61 34.17 40.03 39.71 40.27 39.32 39.77 45.25 43.42 41.41 35.94 34.30 32.28 35.80 33.07 33.34 34.34 35.81 37.24 35.14 35.08 37.35 39.09 39.04 40.02 40.18 38.89 38.15 37.57 37.52
47.85 47.30 47.46 46.76 46.48 46.48 46.44 46.73 46.52 46.39 45.92 45.98 46.45 46.15 45.22 45.37 44.79 42.12 39.60 39.92 40.49 34.47 24.99 26.45 31.98 33.95 34.88 34.50 39.77 41.87 40.02 41.99 41.67 40.65 37.34 36.08 38.30 35.63 35.00 34.90 32.74 35.60 34.40 33.29 32.60 36.86 37.80 39.29 41.49 39.73 38.35 37.37 37.10 36.49
48.46 47.86 47.18 47.03 46.44 46.19 46.29 46.43 46.64 46.41 45.65 45.65 46.37 45.83 44.90 44.60 44.27 39.87 34.29 39.03 39.12 39.05 31.83 22.65 31.39 33.07 37.51 37.83 43.31 42.67 43.06 44.96 42.82 41.26 38.37 39.73 42.34 38.14 34.61 34.55 38.15 37.64 39.64 41.32 38.56 40.25 41.24 41.46 39.93 38.97 37.70 36.81 36.23 35.97
48.71 47.81 46.92 46.64 46.22 46.24 45.75 46.07 46.31 46.55 45.43 45.83 46.04 45.14 44.24 43.91 41.34 34.86 29.87 34.45 42.24 40.06 31.75 25.79 28.28 36.42 37.69 43.92 44.99 45.35 46.00 44.00 42.66 42.56 39.41 39.61 40.82 41.18 38.37 34.17 37.18 41.60 41.98 40.71 41.77 39.95 38.36 38.69 38.75 38.15 36.90 36.02 37.46 34.35
47.87 47.56 47.17 46.45 46.21 45.39 45.96 46.04 46.21 45.58 45.51 46.05 45.00 43.84 43.66 43.71 40.93 37.31 39.37 41.86 40.93 36.42 33.32 25.89 27.81 33.44 44.32 41.20 41.35 45.17 41.83 42.28 43.04 41.57 40.18 39.67 40.60 40.69 35.91 35.22 34.89 36.85 36.48 37.32 37.90 38.20 38.27 39.12 37.02 35.37 34.80 33.77 32.70 32.12
47.32 46.81 46.19 46.07 46.03 45.79 45.49 45.43 46.03 45.22 45.95 44.64 43.38 43.90 39.22 35.20 31.47 35.07 43.54 42.98 40.83 35.76 28.89 29.89 27.50 32.90 44.84 42.26 42.84 41.64 43.04 38.51 42.72 39.62 38.61 39.61 38.19 35.62 33.12 32.18 34.15 34.31 32.56 33.39 35.13 35.17 36.67 37.52 37.76 34.65 33.21 32.34 31.81 31.03
47.22 46.70 46.03 46.19 45.82 45.13 45.11 45.56 45.47 45.12 44.20 42.08 38.30 34.25 31.29 34.29 42.59 42.94 38.41 34.75 33.58 33.83 32.57 27.92 33.76 35.20 42.25 41.33 39.50 40.16 40.81 37.81 32.56 37.86 40.35 36.81 37.14 35.22 34.38 34.56 34.78 34.37 32.96 32.81 31.05 30.39 29.98 29.16 30.06 33.73 32.71 32.95 32.70 31.61
47.31 46.84 46.52 46.63 45.91 45.47 45.06 45.39 44.78 43.74 39.61 34.95 31.16 30.85 34.04 40.95 36.21 35.63 32.18 30.01 31.95 29.96 33.10 32.70 35.56 38.58 42.41 37.65 38.55 40.37 35.37 35.26 32.24 35.12 36.86 33.86 34.56 33.69 33.94 33.25 33.30 31.41 31.54 32.30 33.03 34.59 35.22 34.99 35.21 35.79 34.58 33.08 32.40 31.48
47.65 47.36 46.99 46.58 45.72 45.37 45.02 44.90 44.34 37.88 35.12 34.65 34.57 39.05 38.02 35.25 32.12 29.26 29.73 32.27 31.85 31.65 36.48 35.70 37.57 38.87 40.43 41.37 37.42 37.79 33.17 33.62 30.19 36.69 33.23 30.82 32.11 31.36 30.83 30.21 30.71 30.61 31.21 32.57 34.81 35.61 35.23 35.55 36.45 36.67 35.92 33.40 32.05 31.70
47.85 47.22 46.93 46.44 45.89 45.32 44.92 43.91 44.13 42.76 40.12 37.76 35.76 31.24 30.53 30.82 25.11 25.26 23.46 29.53 31.45 32.94 34.01 34.26 34.80 37.43 39.54 39.06 34.74 33.75 32.08 31.14 33.28 31.77 30.47 31.69 30.14 28.91 28.69 29.64 29.88 30.77 32.80 33.62 34.70 36.03 35.64 36.55 36.36 37.51 36.35 34.87 33.79 32.40
47.43 47.13 47.04 46.60 45.86 45.06 44.09 43.40 42.83 39.32 35.10 29.62 27.60 23.50 25.62 23.74 25.82 23.38 27.17 25.60 33.46 33.48 34.04 34.88 34.74 35.17 35.56 34.57 35.32 32.02 33.56 32.74 29.17 27.03 28.31 28.29 29.47 27.58 29.04 29.79 29.44 29.38 30.93 31.43 32.62 34.17 34.23 35.77 35.33 34.31 33.71 33.21 31.89 29.94
47.79 47.51 46.97 46.09 45.44 45.05 43.53 43.01 40.96 37.56 30.36 23.83 28.01 19.51 19.54 27.71 30.12 30.95 31.52 31.57 34.37 35.37 34.57 34.48 34.76 35.92 32.80 32.95 33.80 32.15 30.30 27.81 28.96 27.40 25.99 29.06 24.76 27.81 28.63 29.26 29.21 29.11 29.70 30.02 31.08 31.64 32.28 33.60 34.76 34.17 33.61 33.12 31.83 30.07
48.14 47.15 44.49 45.37 45.42 44.53 43.03 39.96 37.37 35.81 28.20 23.09 23.52 22.27 26.48 24.37 22.79 28.92 29.55 29.85 34.27 34.28 34.40 33.61 32.58 32.55 32.95 31.88 30.97 29.72 27.42 26.40 25.13 23.13 28.90 24.85 27.16 27.95 28.31 28.34 29.01 29.35 29.32 29.59 30.03 30.28 30.32 31.06 30.68 32.78 33.94 33.63 32.66 31.85
46.92 40.77 45.18 45.59 44.61 42.94 40.78 31.81 31.26 25.10 21.67 17.36 21.24 28.48 25.80 26.26 25.30 25.95 30.55 31.87 32.94 33.06 31.81 31.92 30.74 30.56 31.74 29.38 28.56 31.30 29.63 28.89 24.20 29.40 26.27 24.32 25.03 25.94 26.77 27.74 28.41 28.91 28.52 28.44 28.26 29.25 28.85 28.82 29.56 29.55 29.64 29.98 30.94 31.20
40.54 41.44 45.75 44.40 39.21 37.06 32.39 30.69 23.94 19.26 23.62 23.07 22.06 25.50 29.80 30.70 28.07 29.11 29.64 29.77 30.36 30.80 31.42 31.09 30.49 29.60 29.87 28.84 26.40 24.99 25.85 30.19 30.22 26.25 23.42 24.94 25.07 25.55 26.95 26.04 27.85 27.80 27.12 26.91 26.91 26.75 26.31 26.76 26.90 26.68 25.79 25.38 25.38 26.59
40.11 43.26 44.57 41.96 38.82 30.85 25.77 24.61 22.84 15.87 18.52 22.24 26.64 27.69 28.84 29.72 29.73 28.30 28.96 28.77 28.92 29.64 29.18 28.78 27.88 27.68 29.17 24.09 26.38 18.87 18.01 28.22 29.33 28.11 25.03 24.32 25.17 24.84 24.39 23.38 24.15 23.12 24.05 23.48 25.24 25.96 26.92 26.23 25.56 25.73 25.66 25.15 24.58 24.29
44.24 44.41 43.55 41.43 37.12 28.03 21.46 21.44 25.33 22.59 14.53 20.79 25.06 24.73 26.12 26.47 26.30 25.13 25.22 27.48 26.12 18.10 20.95 24.58 27.72 29.47 27.56 25.67 24.79 23.93 23.93 25.96 24.52 22.05 21.30 22.00 22.32 17.78 20.15 19.57 20.44 20.62 21.08 20.78 25.95 28.64 26.49 25.67 25.84 25.16 24.54 24.19 23.27 23.10
40.42 42.09 41.12 37.21 33.36 30.31 24.38 15.59 12.64 13.91 13.25 17.64 21.54 24.45 23.65 23.66 23.07 20.62 17.77 25.02 25.40 20.30 19.86 21.77 22.93 23.88 25.94 23.93 24.85 26.70 26.27 24.89 22.18 20.41 18.87 14.46 19.80 17.94 17.04 15.83 13.38 20.51 21.06 22.54 22.08 23.49 24.77 22.57 24.12 25.76 24.58 24.65 24.36 23.61
36.67 38.56 33.60 34.10 29.78 27.25 21.55 21.07 15.08 16.47 13.67 13.44 17.65 20.77 18.07 17.29 17.91 18.14 18.26 14.58 17.79 22.39 22.24 21.59 19.24 21.05 22.48 20.35 20.37 20.00 23.55 23.17 21.50 21.50 24.41 23.75 18.76 15.60 15.98 15.71 14.14 9.47 9.78 11.63 18.05 20.33 20.86 21.88 23.45 25.74 24.09 23.81 25.80 23.03
36.50 34.73 31.29 30.30 26.53 24.02 17.88 18.99 13.66 10.06 11.61 8.68 11.79 14.45 15.17 14.32 16.50 23.20 18.07 16.65 19.86 24.55 21.54 20.00 18.26 18.04 21.22 17.58 18.80 17.92 18.99 19.31 18.80 19.09 19.83 19.56 19.65 17.51 14.74 15.31 14.17 7.79 12.67 14.00 16.79 17.16 17.29 24.35 26.26 26.45 24.41 23.73 22.53 22.54
36.20 30.70 27.77 26.55 26.84 18.13 18.16 8.57 16.49 12.67 11.20 13.61 10.66 11.35 13.13 13.29 17.15 15.61 11.72 15.07 21.26 22.04 19.66 16.47 18.23 19.23 18.23 18.08 17.17 18.11 18.34 18.00 15.41 15.02 16.66 15.58 11.74 15.32 16.56 16.11 16.74 15.36 16.51 18.08 15.01 15.72 19.36 24.56 26.35 25.24 24.76 17.69 18.89 22.14
27.03 26.09 25.71 20.25 15.62 13.14 5.88 4.56 3.88 11.58 7.43 12.11 14.11 13.31 13.25 12.27 8.24 6.50 8.48 17.81 16.35 16.23 17.04 18.97 19.27 17.45 18.39 16.47 15.73 16.97 17.96 18.20 16.62 16.75 12.89 16.37 13.45 11.72 11.43 12.83 14.74 15.60 16.12 8.83 12.92 14.85 16.08 19.25 21.52 22.84 23.93 21.99 18.71 20.61
21.94 24.23 19.87 16.15 8.08 11.89 9.58 5.09 5.87 9.69 12.91 12.67 16.09 13.14 9.92 9.36 4.46 7.19 13.57 18.50 17.50 17.19 19.26 21.31 22.04 18.55 17.20 17.77 16.41 14.68 17.42 17.64 16.10 14.40 11.14 14.40 15.20 11.23 5.44 7.72 12.88 14.23 15.13 14.81 12.05 11.30 12.31 14.05 15.07 18.61 21.32 22.02 26.20 24.32
16.18 19.03 21.57 23.23 18.51 16.15 13.07 14.18 15.85 13.87 12.42 14.79 16.23 13.31 13.43 6.83 6.17 14.80 18.69 17.77 17.33 16.15 17.41 21.48 22.75 22.25 20.36 15.02 14.92 15.84 13.18 14.26 13.15 11.51 10.57 11.13 12.70 14.85 13.04 12.50 12.44 14.70 14.56 12.75 13.03 13.20 13.64 13.60 14.18 15.64 20.23 19.28 20.14 22.34
21.56 18.54 14.18 13.26 11.89 10.60 8.61 9.60 9.24 11.93 16.24 19.89 15.89 9.62 11.71 12.45 15.23 19.33 17.69 15.95 11.65 7.28 7.08 8.72 10.94 11.22 10.46 8.92 8.81 12.32 5.24 1.00 2.19 3.33 4.97 7.68 9.08 7.69 10.52 14.09 15.23 19.99 18.21 14.61 14.24 14.83 14.84 14.88 15.40 15.24 15.38 17.98 19.45 20.75
16.26 15.63 16.02 10.25 7.92 8.54 9.78 10.85 13.34 17.27 21.52 18.93 16.75 15.87 16.55 18.09 19.02 14.80 15.54 12.55 8.87 10.35 11.34 11.14 7.56 -2.57 1.14 0.66 -0.85 -1.56 1.04 5.88 6.86 5.94 5.63 10.90 3.03 6.85 4.70 6.78 6.91 5.58 7.50 11.13 19.13 22.07 20.08 18.43 18.33 18.29 17.21 18.74 19.48 20.16
10.98 16.49 10.83 12.84 10.34 8.90 11.81 14.80 14.30 16.36 18.57 19.44 18.16 15.12 14.37 16.11 16.26 10.40 10.92 10.83 12.70 14.88 10.65 3.94 -0.08 6.61 5.27 4.09 1.68 1.34 -0.79 2.34 6.29 9.21 6.26 8.89 7.41 4.16 0.42 3.10 6.39 7.52 7.82 9.36 11.24 11.21 19.89 18.81 19.26 20.40 23.40 22.63 20.28 18.75
15.71 8.95 7.28 10.32 11.57 6.89 5.68 10.35 12.72 17.02 10.74 8.11 9.30 11.51 12.29 10.81 12.71 12.33 12.23 10.64 6.73 0.12 0.63 0.60 -2.09 -8.23 -0.38 -3.05 -1.82 -1.08 4.45 1.52 0.76 4.08 5.70 7.09 7.88 9.15 10.93 11.63 11.80 11.70 9.41 9.01 9.44 10.45 11.78 12.71 16.73 18.33 19.73 18.37 18.54 19.23
15.91 12.79 12.32 10.56 8.08 7.81 8.75 7.44 8.14 9.16 5.86 5.31 6.28 0.78 6.74 7.20 10.41 15.35 5.56 1.52 -0.13 2.17 9.60 4.89 0.83 4.66 2.13 0.28 -1.29 -0.43 15.66 5.88 6.66 7.53 7.32 11.40 12.61 13.30 14.16 15.93 16.15 14.97 13.32 11.92 12.03 12.83 13.92 14.35 16.85 16.74 16.31 17.10 18.57 17.06
13.67 12.01 11.15 9.76 8.54 7.83 8.89 13.47 10.58 6.38 0.78 0.91 4.20 3.70 3.94 7.25 11.20 12.71 3.05 -1.01 2.30 2.03 1.95 3.00 0.77 -1.65 0.23 2.06 2.48 2.47 12.64 4.65 7.84 19.78 22.69 23.84 24.88 23.70 23.11 23.76 17.35 14.83 13.49 13.54 14.28 14.88 15.02 16.17 16.62 16.93 18.25 17.42 16.29 17.03

GFSWCAN_sfc_wetblb_030.txt.gz
Wetbulb
49.49 48.99 49.21 48.61 47.98 47.41 46.92 45.86 46.33 46.31 46.35 46.35 47.07 47.19 45.84 45.46 45.32 40.25 36.21 37.90 33.14 28.26 29.34 31.84 34.41 32.16 33.02 38.67 33.87 35.24 35.70 36.06 33.97 31.55 31.07 29.78 28.22 29.97 28.28 30.71 31.90 31.04 29.89 29.80 30.71 27.48 24.49 38.12 38.68 35.53 38.23 37.47 37.99 37.00
49.71 49.33 49.27 49.02 48.17 46.99 45.88 46.11 46.45 46.47 46.45 46.17 46.96 47.32 47.24 45.69 45.14 42.89 37.37 40.22 39.94 34.18 30.76 34.45 35.30 35.59 34.30 34.63 33.16 37.08 36.19 34.67 36.18 31.77 30.56 30.97 30.41 29.89 28.62 26.00 30.67 29.41 31.94 30.39 30.61 30.13 36.52 38.75 39.34 40.88 39.89 38.94 36.76 35.66
49.52 49.09 48.85 48.57 47.22 46.68 46.48 46.64 46.59 46.85 46.23 45.19 45.77 46.42 47.69 45.60 45.41 43.99 38.96 38.97 36.95 34.65 32.53 31.44 31.02 35.09 36.90 35.77 38.34 31.66 40.24 42.81 37.53 37.69 34.69 33.83 30.50 32.08 28.07 28.41 27.77 32.60 37.02 34.87 33.67 35.68 36.86 38.89 39.29 39.53 38.86 37.40 37.55 37.49
49.34 48.82 48.50 47.89 47.47 47.14 46.81 46.89 47.10 47.20 46.75 45.93 45.42 45.64 46.41 45.98 45.35 44.91 40.71 39.97 38.80 35.62 27.61 26.74 33.82 30.72 36.18 37.34 36.22 37.11 36.32 38.95 41.06 41.37 36.10 34.38 31.34 34.34 30.92 31.60 31.56 34.07 36.43 35.13 34.55 36.14 37.46 38.36 40.44 40.14 39.64 38.29 37.90 37.36
49.29 48.60 48.27 48.05 47.86 47.26 47.12 46.87 46.87 46.81 46.86 46.32 44.71 46.09 46.74 45.72 45.08 41.74 38.71 38.93 40.43 35.28 26.86 27.72 32.20 34.32 34.83 34.98 35.68 37.10 35.10 34.44 37.23 40.54 37.27 34.26 35.26 34.61 32.94 33.41 30.74 34.56 33.86 33.08 32.00 35.78 36.55 37.78 39.96 40.35 38.86 38.36 38.02 36.57
49.29 48.73 48.65 48.15 47.87 47.28 46.61 46.46 46.41 46.35 46.86 46.16 45.68 46.46 45.81 44.92 44.38 39.57 33.88 35.80 37.93 40.06 31.64 24.30 29.92 29.73 33.46 33.36 31.52 31.58 36.00 36.41 39.61 41.13 38.30 37.67 39.43 36.06 32.49 33.30 36.42 36.47 37.78 39.35 37.98 37.78 38.86 39.90 40.37 38.68 38.11 38.22 37.37 36.05
49.40 49.07 49.04 48.32 47.38 46.78 46.60 46.22 46.01 46.53 46.50 45.56 46.22 45.73 44.02 43.92 39.87 36.09 30.51 33.43 41.58 39.73 31.04 21.23 24.57 35.10 35.26 34.62 32.49 35.23 40.74 41.75 41.64 41.43 39.10 37.87 38.35 38.39 36.10 33.20 36.51 36.86 35.23 36.02 38.16 39.26 38.80 38.75 37.02 37.95 37.39 37.04 37.10 34.26
48.61 48.33 48.28 47.82 47.04 46.62 45.90 45.71 46.13 46.29 45.15 45.37 45.18 43.70 44.17 43.85 41.42 36.99 37.12 42.04 41.51 36.24 33.11 24.45 25.92 31.53 38.33 36.20 35.26 42.10 38.61 42.12 42.75 40.48 40.89 36.38 38.39 37.44 34.99 36.61 34.72 34.37 34.91 37.20 35.96 36.30 36.02 36.98 37.54 36.57 35.06 34.00 32.93 32.74
48.53 47.82 47.37 47.10 46.32 46.25 45.92 45.46 45.62 46.04 45.05 45.27 42.92 43.85 40.08 35.45 30.80 33.08 43.19 43.15 40.50 35.54 28.15 28.28 24.27 27.72 41.14 35.94 41.06 42.54 43.22 36.88 41.40 39.02 39.55 38.57 35.08 34.17 35.07 33.06 31.29 32.51 32.49 32.17 32.84 32.98 33.24 33.20 34.53 37.25 35.06 32.28 32.10 32.17
48.34 47.90 46.95 46.44 46.16 45.99 45.60 45.48 45.65 45.25 44.31 41.77 37.96 35.42 32.69 34.37 41.47 42.44 38.93 34.37 33.22 33.83 32.62 26.71 33.11 29.17 40.92 40.64 39.06 39.48 39.53 36.41 33.58 37.59 40.59 37.39 35.25 33.12 32.34 32.27 32.50 32.41 32.12 31.35 29.58 29.89 28.18 30.39 30.84 32.93 35.10 34.34 32.85 32.68
47.96 47.69 47.10 46.57 46.55 46.39 45.73 45.29 45.20 44.02 40.16 34.49 29.84 31.13 34.50 40.04 35.17 35.63 31.43 29.95 30.93 29.08 32.19 31.65 33.08 35.30 42.35 37.64 37.92 39.95 34.73 35.05 31.55 34.60 36.54 33.67 33.52 32.44 31.10 31.15 31.51 30.13 30.16 30.78 31.45 32.03 32.55 32.87 33.21 33.64 34.72 35.27 33.98 32.20
47.74 47.57 47.35 47.01 46.73 45.99 45.36 45.07 44.38 39.90 37.44 35.50 33.90 37.79 38.00 35.13 32.26 28.99 28.09 32.05 30.96 30.34 35.93 34.60 36.26 38.52 40.43 41.48 36.76 37.64 33.17 33.83 30.35 37.40 33.91 29.09 30.66 28.77 29.02 29.01 29.78 29.48 29.72 31.93 34.37 35.22 35.92 35.35 35.53 35.66 36.41 37.03 35.80 32.39
48.41 47.98 47.78 47.24 46.50 46.00 44.96 44.00 44.09 42.74 40.12 37.52 35.54 31.83 30.12 30.52 25.35 24.71 20.27 27.78 31.05 32.83 33.62 33.44 32.68 37.60 39.73 39.65 35.72 34.81 31.98 31.73 34.32 32.21 30.74 27.49 27.95 27.93 28.41 29.11 28.96 29.82 32.34 32.70 33.09 34.07 35.05 35.13 36.96 35.07 34.92 35.93 34.40 32.29
48.45 48.16 47.48 47.12 46.71 45.67 44.75 43.47 42.80 39.64 33.96 27.49 26.75 21.55 25.14 24.33 27.15 24.45 26.60 23.34 32.00 33.35 33.63 34.13 33.77 35.25 36.22 34.44 35.18 31.38 32.90 32.54 29.52 27.15 24.30 22.37 26.37 27.78 28.49 29.10 28.92 28.62 29.83 30.11 31.29 32.28 32.96 34.03 35.16 35.76 33.42 33.02 32.88 31.62
48.09 47.80 47.52 46.86 46.66 45.45 44.23 43.14 41.01 36.60 29.73 22.06 25.65 18.78 21.98 26.97 24.94 26.14 28.13 30.62 29.42 35.23 34.13 33.66 34.33 35.99 33.19 32.28 33.59 31.18 30.12 27.86 29.11 26.31 22.94 22.69 28.70 27.33 27.87 28.35 28.81 29.04 29.03 29.07 29.94 30.06 30.23 31.15 31.76 33.74 33.91 33.19 31.09 29.89
47.89 47.66 45.40 46.08 45.97 45.32 43.51 40.13 37.70 33.40 25.55 21.06 24.69 22.99 25.97 24.26 22.84 24.19 23.89 27.63 33.91 33.55 34.10 33.10 32.08 32.00 32.15 30.65 30.53 29.48 27.49 25.67 25.81 23.60 24.21 28.40 27.02 27.40 27.74 27.98 28.40 28.95 28.83 28.95 28.91 29.16 29.49 29.26 28.77 29.25 33.51 33.62 32.51 31.50
47.18 41.67 46.02 46.04 45.67 43.69 40.65 33.35 27.33 18.80 18.29 19.30 20.04 26.13 24.49 22.65 24.66 24.60 28.75 30.18 32.92 32.04 30.65 31.66 29.84 29.93 31.84 29.53 27.88 30.66 29.05 27.56 26.74 28.40 28.91 27.08 25.59 26.27 25.94 27.00 27.80 28.31 27.43 27.35 27.50 27.93 27.58 28.19 28.91 28.42 26.82 28.32 31.09 31.96
38.33 40.97 45.98 45.32 39.69 37.76 32.99 28.60 19.35 20.32 20.45 15.10 16.24 20.94 28.29 29.09 27.88 29.50 28.87 29.81 30.11 29.00 29.34 29.59 29.56 28.98 29.35 26.22 26.41 27.32 20.17 21.11 29.84 30.05 28.70 25.35 24.92 25.50 26.77 25.82 26.49 26.09 25.45 25.27 25.32 25.07 25.09 25.49 25.97 25.89 25.78 25.34 25.51 26.58
39.29 43.09 45.24 42.18 39.06 33.20 27.07 25.20 21.45 14.67 16.03 13.75 19.46 23.52 27.73 28.91 30.41 29.40 28.40 28.60 29.18 30.42 28.58 28.05 26.51 27.21 28.65 23.95 22.84 18.75 17.96 22.09 25.81 26.43 24.80 25.27 24.93 24.81 24.00 22.92 22.91 21.24 21.23 20.60 24.44 26.69 25.91 25.38 24.87 24.83 24.75 24.99 24.31 24.67
44.48 45.58 43.05 41.13 38.12 28.50 21.50 20.59 27.91 21.82 14.29 16.15 16.58 16.96 22.99 25.54 26.87 26.57 26.43 27.38 26.84 22.90 22.76 22.28 23.74 28.88 27.27 26.12 24.05 24.04 23.37 26.15 24.79 22.97 21.73 22.23 21.97 16.48 19.52 19.02 19.39 17.94 17.41 17.22 19.42 25.98 23.80 22.28 23.37 23.82 24.98 25.46 24.37 23.68
41.85 41.83 40.20 37.64 33.78 29.29 24.16 15.15 14.11 14.32 11.20 15.10 11.33 15.44 17.93 20.27 20.51 22.04 23.21 26.55 21.78 22.78 20.51 24.63 24.37 25.52 27.61 26.11 25.91 27.49 26.45 25.42 23.66 23.28 20.72 14.84 19.36 18.02 16.37 14.54 12.03 18.85 19.36 20.22 19.15 19.75 21.06 19.47 20.62 22.46 24.47 24.92 23.78 23.68
37.10 39.33 34.36 35.16 31.37 27.34 25.62 22.67 14.66 16.23 12.97 8.58 10.62 14.06 9.13 9.41 12.28 17.53 20.58 20.05 18.22 24.27 25.09 22.12 20.17 22.69 23.18 21.48 21.12 20.97 24.70 23.73 21.35 21.96 24.05 24.59 18.30 14.92 15.02 14.79 13.06 8.46 7.40 9.10 14.81 16.73 17.33 18.81 20.31 23.12 25.72 25.92 25.81 23.51
37.60 35.53 32.36 31.10 26.76 23.93 17.24 22.46 15.39 9.52 10.60 6.55 4.79 6.12 6.21 6.29 11.28 20.30 17.15 17.70 20.66 25.13 26.55 22.06 18.55 17.28 21.52 19.10 19.24 17.96 20.01 20.39 19.41 19.07 20.33 19.56 18.88 16.28 14.11 13.63 12.73 6.33 7.39 12.81 14.83 14.84 12.98 21.48 23.15 25.04 25.54 25.53 22.82 21.95
36.52 31.49 27.40 21.98 24.37 19.12 19.57 13.13 17.18 14.58 10.60 10.02 3.74 4.97 4.84 5.60 12.71 14.74 12.85 17.35 20.80 22.37 20.12 14.77 16.86 18.93 18.97 18.47 17.79 18.65 18.96 19.51 16.16 15.78 16.95 16.60 12.10 16.50 16.84 15.84 15.91 13.93 14.68 16.16 13.00 13.71 14.78 19.19 24.53 22.91 22.69 20.40 22.69 18.50
27.63 22.95 26.10 17.37 14.45 12.44 8.34 6.85 6.17 13.27 4.85 3.08 3.83 6.50 7.01 7.03 5.56 4.59 11.17 18.07 17.90 16.86 15.99 17.35 19.35 18.68 19.63 18.14 16.63 17.23 18.39 18.46 17.26 17.45 14.24 17.28 14.80 12.42 11.78 14.09 15.35 15.68 14.89 7.01 10.21 12.11 11.07 12.92 13.87 14.61 16.06 18.83 17.42 21.12
21.14 16.48 21.50 15.72 8.49 12.93 13.03 4.38 5.46 6.09 5.63 3.71 7.02 6.47 3.38 4.13 2.39 8.83 13.66 15.06 17.07 14.38 14.17 19.34 20.44 18.28 17.56 18.41 18.15 15.49 17.78 18.22 17.39 15.88 13.38 16.87 17.23 14.13 8.41 9.59 11.51 13.29 12.85 12.23 9.42 9.11 11.00 12.33 12.30 11.31 12.81 15.03 21.36 22.46
19.54 14.33 22.15 23.05 18.50 15.57 11.73 12.48 13.60 8.60 3.37 6.17 6.27 6.11 6.13 3.01 3.49 12.48 16.58 13.76 13.63 12.09 11.64 15.98 20.47 21.25 18.67 17.58 16.90 16.73 15.47 17.40 15.97 14.57 11.34 11.76 13.24 14.91 12.38 10.05 10.95 13.41 13.09 11.20 11.16 11.76 12.76 12.70 12.04 11.99 12.40 12.60 14.78 15.23
22.05 17.08 14.83 14.23 13.40 9.99 7.77 8.33 8.43 8.74 9.97 14.81 13.78 5.97 10.54 10.17 14.30 18.92 19.12 15.81 13.08 9.98 8.54 9.07 10.86 13.32 14.76 13.83 13.94 15.97 11.25 8.95 5.17 5.32 6.59 9.20 6.89 5.16 5.65 8.12 9.46 19.72 16.66 11.86 11.73 12.52 14.14 14.45 13.92 12.67 11.89 12.60 13.27 14.13
22.25 16.72 15.33 5.14 4.65 6.72 10.32 11.16 10.28 13.75 19.32 16.06 12.49 11.38 13.29 17.11 19.92 16.85 16.32 14.08 11.39 11.80 13.61 13.61 12.20 6.20 5.98 7.19 7.95 7.26 7.08 11.89 11.49 9.38 7.06 8.91 3.73 8.53 0.66 4.20 5.38 4.38 5.97 6.70 17.01 20.72 18.69 16.62 14.83 14.45 13.82 14.66 15.10 15.70
16.56 14.92 9.72 4.16 8.76 9.71 13.34 13.98 9.64 10.31 14.08 16.38 15.84 13.91 14.35 15.31 18.66 14.20 13.02 10.90 12.65 15.72 15.99 14.15 11.80 11.79 13.27 13.91 9.54 6.67 3.35 2.49 6.66 10.89 8.47 8.98 7.42 3.18 -0.68 0.81 4.23 6.94 5.98 6.57 7.78 8.16 17.19 15.12 13.45 10.93 12.83 16.25 15.78 16.90
14.19 8.25 5.27 7.55 8.47 7.97 3.79 5.12 6.91 16.04 6.20 4.14 4.65 7.43 12.18 11.05 13.75 16.15 14.34 15.80 14.47 9.41 8.51 6.66 2.22 4.64 8.13 5.47 3.20 1.26 6.35 1.64 -0.25 2.59 2.87 2.15 3.30 4.61 7.08 8.82 10.32 9.56 9.37 9.88 10.56 8.65 6.80 5.59 5.54 7.38 9.36 12.07 15.34 20.71
14.94 16.32 13.69 9.30 6.77 0.07 0.82 1.68 0.90 2.75 0.08 1.25 2.72 -2.10 5.41 6.63 9.75 17.65 10.21 6.04 7.04 8.89 12.38 12.01 9.46 10.24 6.67 3.80 0.58 0.38 15.26 2.66 0.97 2.87 2.61 5.21 7.76 11.15 12.33 12.61 12.14 13.05 13.17 11.24 9.97 10.27 9.40 7.70 7.48 9.95 12.86 14.13 15.90 16.75
14.76 14.78 12.14 10.80 6.16 2.39 4.64 5.06 4.67 5.99 0.85 1.07 3.16 3.84 3.60 7.94 12.04 16.39 7.78 3.83 8.47 9.15 6.93 6.67 4.16 0.59 0.92 2.16 1.41 0.68 10.62 1.40 6.01 18.22 21.12 22.62 24.30 24.48 24.35 17.53 15.61 18.06 14.63 12.60 11.50 9.56 7.65 8.66 9.49 10.48 12.84 14.07 15.04 14.76

GFSWCAN_sfc_wetblb_033.txt.gz
Wetbulb
49.80 49.63 49.49 49.25 49.26 49.04 48.13 47.29 46.75 47.03 47.19 47.15 46.80 46.45 47.06 46.73 45.14 41.25 38.59 37.76 34.13 29.05 29.36 31.22 33.07 32.69 31.84 35.60 35.05 34.52 36.79 35.97 33.07 32.51 33.00 32.33 28.06 29.46 27.84 29.61 31.78 30.34 29.32 29.66 30.16 27.33 23.48 37.19 37.71 36.13 40.27 39.15 39.63 38.76
49.92 48.89 49.41 49.46 49.28 48.80 48.02 47.08 47.11 47.16 47.39 47.39 46.24 45.95 45.92 46.37 45.40 43.18 37.64 39.51 39.83 34.33 31.64 34.92 35.50 34.93 33.76 33.21 30.43 32.68 34.79 34.23 35.44 31.27 29.80 29.76 29.91 28.84 27.88 25.87 30.14 29.08 30.90 29.68 30.03 29.48 35.34 37.84 40.05 41.10 40.76 39.57 38.90 37.67
49.25 49.20 49.20 48.86 48.77 48.13 47.56 47.37 47.41 47.27 47.24 46.92 46.38 45.64 45.08 45.75 46.45 44.43 39.24 39.32 38.10 34.69 33.34 33.25 32.33 35.66 37.06 35.81 36.90 28.15 36.21 42.08 37.36 36.09 32.72 31.92 30.56 31.74 27.84 28.11 28.30 32.40 35.90 33.35 33.21 35.30 36.29 38.73 40.67 39.80 39.55 38.70 38.54 38.49
49.57 49.40 49.01 48.79 48.31 47.87 47.79 47.47 47.43 47.23 47.37 47.31 46.46 45.67 45.48 45.98 46.73 45.06 39.90 39.49 38.62 34.59 28.70 27.52 33.70 30.47 34.20 35.52 35.07 35.05 34.68 37.26 34.96 37.37 34.44 33.55 30.96 33.42 29.89 31.34 31.37 33.70 35.58 33.86 33.22 35.71 37.13 37.75 39.63 39.99 40.21 38.90 38.42 38.51
50.04 50.02 49.19 48.85 48.59 48.70 48.10 47.49 46.71 46.72 46.55 46.78 45.89 44.40 45.80 46.50 45.78 42.52 39.59 38.82 39.29 34.88 27.69 27.72 32.69 34.07 34.34 34.03 33.27 33.62 32.73 32.09 31.37 33.50 38.31 34.90 33.34 33.35 31.46 32.21 30.54 34.60 34.54 33.59 32.66 36.11 36.99 37.68 39.63 40.07 39.15 38.72 39.32 38.04
49.90 50.08 49.52 49.10 49.04 48.33 47.91 46.71 46.57 46.29 46.28 46.65 45.26 45.45 46.48 44.88 44.14 39.18 33.14 35.81 38.07 40.14 30.49 23.48 30.13 28.87 30.75 32.53 33.21 32.67 33.33 33.54 33.22 36.01 38.77 37.84 37.21 34.57 29.46 29.69 34.77 35.64 36.94 38.51 37.83 38.21 39.13 40.40 39.92 38.82 36.84 36.98 37.48 37.22
49.69 49.59 49.33 49.30 49.04 47.68 46.94 46.38 45.89 46.19 46.17 45.80 45.68 45.94 44.22 44.23 40.08 34.00 31.30 33.75 41.01 38.37 30.28 19.75 20.22 32.51 37.62 32.14 30.53 29.55 31.21 35.20 34.96 35.46 38.59 37.02 36.65 36.67 33.08 29.59 35.24 36.94 37.52 36.28 37.03 36.95 36.95 38.03 36.90 36.41 36.36 36.62 37.32 35.75
49.36 48.45 47.97 48.11 47.91 47.06 46.63 45.98 45.96 45.76 46.13 45.68 45.54 44.40 44.47 43.86 41.45 35.72 36.83 42.24 40.96 36.05 32.04 22.79 20.56 28.94 35.21 31.78 29.10 34.64 30.91 33.09 35.59 37.85 40.98 36.93 38.18 36.39 32.26 34.67 33.60 34.12 34.17 34.89 34.94 35.27 35.99 35.33 34.95 35.69 37.35 34.90 33.79 33.56
49.22 48.62 47.78 47.16 47.00 46.24 46.36 46.14 45.88 46.04 45.78 45.22 43.01 43.37 40.28 35.59 31.67 33.38 42.17 43.65 40.49 35.41 24.70 25.52 20.62 23.93 39.29 35.45 36.41 35.90 37.32 31.82 39.05 36.21 39.04 37.69 37.31 34.26 33.87 33.93 32.47 32.17 32.13 32.19 32.47 32.41 32.54 32.48 32.29 32.73 34.08 35.11 32.94 33.18
49.23 48.45 47.85 46.81 46.15 45.80 46.11 45.83 45.79 45.52 44.90 41.52 38.20 35.24 32.93 35.78 40.89 41.36 39.13 34.79 33.54 33.92 32.57 26.55 31.79 28.28 36.02 34.79 35.55 35.02 38.91 34.62 31.87 37.51 39.31 37.06 35.91 33.05 31.83 31.43 31.73 31.45 30.80 30.43 29.22 28.85 27.28 28.57 31.01 31.41 32.04 34.46 35.83 34.94
48.29 47.89 47.62 47.03 46.19 46.21 46.40 45.47 45.28 44.42 41.91 35.35 31.33 30.92 34.81 40.45 35.79 35.15 30.87 29.24 29.65 27.60 31.32 30.84 31.67 31.35 41.24 36.92 36.18 39.16 34.42 34.16 30.85 34.30 34.79 32.84 33.36 31.37 30.15 30.17 30.20 29.09 28.29 29.30 30.62 31.40 32.57 33.45 33.36 32.69 33.37 34.53 35.34 35.22
48.04 47.75 47.59 47.11 46.79 46.16 45.80 44.95 44.53 39.57 37.69 37.81 35.84 37.70 37.31 34.59 32.30 28.93 27.39 31.32 29.69 28.70 35.52 34.10 35.20 36.17 38.61 40.97 36.89 36.87 32.85 33.27 29.46 37.84 33.84 30.86 31.13 26.92 28.03 27.44 27.86 27.91 28.22 30.65 32.15 33.54 35.07 35.05 35.31 35.64 33.66 34.96 36.84 36.79
48.07 47.84 47.63 47.60 47.20 46.08 45.32 44.05 44.12 42.94 39.82 36.97 35.12 31.80 30.06 29.83 25.34 24.12 22.93 26.95 29.08 32.09 33.24 33.26 31.50 36.31 38.50 39.20 35.32 34.54 31.23 31.19 34.47 32.29 29.75 26.63 26.26 26.69 26.87 28.01 27.91 28.66 30.21 30.80 31.22 33.48 34.09 34.18 35.46 36.46 34.59 34.18 34.25 33.67
48.12 48.08 48.22 47.40 47.04 46.08 44.97 43.80 43.00 39.72 33.09 25.32 21.18 19.10 23.99 23.48 27.28 27.58 27.94 26.92 29.66 31.40 31.73 33.03 32.96 34.63 36.02 34.34 35.26 31.58 33.57 32.63 28.98 27.10 24.23 25.60 24.06 26.49 27.34 28.61 28.76 28.21 28.90 28.85 29.88 31.17 31.39 31.75 32.20 33.96 35.20 33.58 32.42 32.57
47.06 48.01 47.45 46.94 46.97 45.86 44.56 43.41 41.46 36.67 27.03 19.96 23.74 18.30 21.23 27.27 26.73 26.33 29.68 31.35 28.52 32.98 32.28 31.77 32.99 35.23 32.58 31.81 33.56 31.46 30.24 27.00 28.59 26.87 21.75 20.11 27.31 28.76 26.67 27.60 28.10 28.47 28.46 28.68 29.24 29.33 29.79 30.14 29.77 30.15 33.00 34.08 32.30 30.39
47.31 47.27 45.05 46.85 46.46 45.70 43.73 40.34 37.60 32.94 21.85 18.33 24.44 19.32 24.99 23.01 23.11 23.84 24.32 25.06 33.18 31.30 32.67 32.63 31.22 31.49 31.65 31.48 30.51 29.03 26.31 24.81 26.42 25.88 22.12 29.22 28.66 27.06 27.05 27.31 28.11 28.79 28.50 28.39 28.64 28.67 28.60 28.48 28.19 28.43 30.43 31.57 33.19 31.92
46.82 41.86 46.03 46.67 46.21 43.77 40.58 32.50 27.05 18.09 16.20 17.14 14.66 22.82 21.48 19.86 23.64 25.22 28.24 28.53 31.51 31.23 29.39 30.58 29.21 28.93 31.37 29.44 26.94 26.97 27.18 30.02 23.46 24.32 26.58 29.47 26.23 26.05 25.97 26.86 27.79 27.80 26.33 26.27 26.64 27.52 27.39 27.48 28.08 27.48 26.19 26.68 26.76 30.15
38.11 38.68 46.58 45.34 40.01 38.02 33.66 30.63 20.08 23.71 13.03 12.19 14.74 16.37 25.19 26.20 24.56 27.69 28.71 28.97 28.19 27.43 27.67 27.83 27.34 27.08 28.89 26.90 27.91 29.97 27.55 21.01 21.33 24.26 29.43 28.46 25.57 25.38 26.40 25.74 25.90 24.71 24.70 24.31 25.05 25.43 23.71 23.41 24.47 24.93 24.82 24.70 24.75 25.49
38.92 40.78 45.07 42.60 39.95 34.48 24.01 23.75 22.07 13.53 15.18 12.26 16.84 18.88 22.82 25.12 27.20 28.03 27.99 28.22 28.69 29.38 26.87 25.38 22.86 24.43 25.81 25.40 24.92 21.15 18.69 21.19 25.68 26.11 25.96 25.14 25.06 25.50 24.24 23.06 21.45 19.67 19.96 19.77 22.95 24.05 24.10 23.35 23.08 22.70 23.81 24.99 23.84 24.00
44.23 45.16 43.07 41.64 38.57 29.87 17.90 19.51 27.49 20.04 11.06 16.03 14.52 12.65 17.82 20.70 22.71 22.58 23.81 26.79 27.05 25.80 24.40 22.53 23.15 27.99 28.83 27.47 25.91 29.44 28.74 26.85 25.22 23.66 23.29 22.31 21.90 16.71 19.64 18.84 18.94 17.46 15.90 14.94 16.72 23.95 21.07 19.65 21.02 20.91 21.31 26.42 23.70 23.04
40.37 40.77 40.34 37.77 34.40 31.40 22.97 12.45 16.12 15.23 11.46 16.11 10.75 11.25 14.21 13.31 11.51 11.04 13.17 22.91 22.90 19.82 20.65 25.39 26.80 28.50 28.45 28.67 27.26 28.10 27.58 26.81 25.08 26.07 24.98 17.73 20.98 19.55 16.09 13.87 11.85 17.22 17.68 18.56 17.62 17.96 19.05 17.24 17.98 19.90 22.25 25.27 25.75 23.46
37.33 39.62 35.00 35.69 32.46 27.90 27.01 23.59 14.28 16.77 18.21 9.83 10.38 11.81 15.02 6.87 4.16 6.22 11.01 19.85 18.33 22.86 25.16 26.10 25.21 23.67 23.26 21.60 23.35 22.66 25.32 24.90 22.36 21.68 24.51 24.00 17.61 15.42 14.93 15.01 12.48 9.04 7.88 9.78 14.07 15.89 15.94 17.30 18.55 21.27 22.47 24.93 26.36 22.98
38.42 36.26 33.00 31.76 27.72 23.20 19.09 20.27 19.03 12.73 11.04 8.48 4.32 5.27 4.26 1.47 4.63 17.59 14.96 14.93 19.05 24.12 24.63 22.66 19.12 17.08 19.00 19.43 20.08 18.26 19.84 21.42 20.40 19.87 20.93 19.53 18.41 15.59 14.53 14.78 12.77 6.99 6.98 12.37 13.39 12.82 11.23 20.76 20.58 22.11 22.75 22.51 22.33 21.94
37.01 32.38 29.17 25.22 27.27 19.58 19.03 11.09 17.09 15.00 15.00 12.07 6.16 4.58 3.00 0.85 8.73 14.74 10.50 13.12 19.22 22.68 21.65 19.05 18.76 18.90 19.79 19.67 18.76 18.62 18.23 19.37 16.48 15.61 17.01 17.53 12.83 16.77 16.98 15.74 15.21 13.48 14.65 14.97 12.59 12.83 13.18 17.18 20.93 21.08 20.78 15.04 15.24 16.42
26.62 24.47 27.66 23.97 20.71 17.91 9.38 6.50 5.21 12.89 8.53 3.75 3.50 5.03 4.73 4.26 3.93 1.54 5.33 12.80 14.56 20.15 20.41 19.05 18.69 20.85 21.16 19.20 16.90 18.20 19.40 19.62 17.85 17.45 14.88 16.48 13.41 11.99 11.26 13.57 15.69 16.27 15.65 8.71 10.74 12.18 10.88 11.19 11.95 11.65 12.68 11.96 12.31 12.41
21.65 19.53 22.94 19.11 13.25 13.00 10.83 3.68 8.59 9.08 6.24 3.98 7.78 4.46 -0.53 1.77 0.90 6.85 9.95 12.81 17.67 18.41 19.14 20.09 20.51 19.60 19.79 20.21 19.29 18.14 19.12 19.09 18.15 17.13 13.88 17.64 18.02 15.76 14.88 12.60 13.30 15.54 14.99 14.60 11.42 10.25 10.45 11.07 10.12 9.14 10.65 12.51 18.95 16.08
16.69 15.10 21.90 24.52 20.00 15.78 11.54 11.64 12.39 7.28 1.92 7.21 7.43 4.57 2.14 2.49 4.21 11.51 14.31 13.49 16.68 18.44 18.27 16.52 19.48 21.44 20.16 18.27 19.19 17.63 15.25 17.39 17.36 16.86 13.40 13.36 16.29 18.43 17.24 15.57 15.39 15.05 13.36 12.06 11.14 11.23 10.77 11.16 11.16 10.52 10.67 9.19 9.92 11.91
20.83 16.17 14.94 14.97 17.82 13.20 8.53 6.89 5.85 5.85 8.85 12.74 12.43 5.50 6.03 9.22 14.15 16.11 15.95 14.58 15.32 14.69 14.58 13.58 12.87 14.71 15.10 14.00 12.86 15.00 9.89 9.20 8.84 10.61 11.28 12.34 9.27 6.93 8.90 9.90 9.62 19.37 11.84 11.02 10.74 9.94 10.93 11.26 11.16 10.75 10.08 10.95 11.71 11.91
21.08 19.25 16.02 12.79 5.68 7.57 10.34 11.38 10.35 13.16 17.66 14.44 12.04 10.46 11.81 14.94 13.34 12.26 13.25 13.13 12.29 15.86 18.19 15.13 15.17 11.58 9.44 6.38 5.51 6.91 9.09 13.92 15.95 16.17 16.15 16.14 8.42 11.43 1.71 3.56 3.01 2.40 2.68 4.17 16.81 18.66 12.27 13.05 14.43 14.31 12.56 13.41 14.65 14.64
18.38 19.17 11.95 4.66 9.65 9.79 13.75 14.09 9.81 7.42 12.55 16.24 15.43 12.38 12.01 11.80 13.01 8.94 8.71 9.64 13.27 18.44 22.00 19.94 17.80 15.53 16.52 13.56 12.59 10.76 10.54 11.26 14.31 18.20 16.74 14.38 10.32 4.10 -1.63 0.41 1.32 2.43 1.16 2.53 5.01 5.25 16.03 12.54 11.68 8.21 9.69 9.19 10.81 10.76
15.91 10.60 6.27 6.94 9.87 12.64 6.47 4.02 3.92 15.77 3.82 0.49 0.04 5.85 11.77 8.82 10.74 11.53 14.74 17.02 19.78 14.46 12.20 15.28 13.53 10.42 14.44 13.65 13.77 11.79 13.03 10.17 7.77 7.00 3.74 1.58 0.19 0.25 1.94 4.58 6.66 5.38 3.44 4.85 6.55 8.63 7.20 6.72 7.04 6.15 5.61 5.97 5.82 14.09
8.28 12.50 10.94 5.10 6.68 3.75 3.67 4.76 2.99 3.09 -2.55 -1.85 2.16 -6.56 0.13 2.66 6.81 14.89 12.37 7.78 7.78 9.80 15.14 15.72 12.97 14.57 12.01 9.88 6.00 5.46 15.70 6.05 1.51 1.48 1.15 2.46 2.16 5.73 8.70 9.84 8.18 7.37 6.71 8.50 11.16 10.59 9.71 8.15 7.69 6.82 7.18 5.86 8.21 11.01
4.10 1.96 1.77 5.78 6.71 7.95 6.53 9.13 2.72 3.15 -3.48 -3.69 2.26 2.39 1.43 6.47 11.15 16.47 9.30 7.27 6.67 8.51 9.37 9.16 8.36 6.76 5.46 6.15 6.34 4.98 10.41 0.67 6.46 16.78 20.09 21.18 23.02 20.70 20.71 17.68 16.00 12.95 12.06 12.58 12.05 10.53 8.87 8.08 7.87 9.14 9.58 10.68 11.65 12.69

GFSWCAN_sfc_wetblb_036.txt.gz
Wetbulb
50.68 49.99 49.49 49.65 49.44 49.42 49.29 48.90 47.82 47.51 47.64 47.67 47.25 46.93 46.49 46.53 46.01 43.83 42.03 41.40 38.44 33.49 33.54 33.71 34.23 33.51 33.88 33.13 33.86 36.09 39.21 39.50 38.65 36.56 35.15 34.46 33.81 34.72 33.39 35.71 33.89 33.04 31.61 31.22 32.31 28.78 25.69 41.26 41.04 37.58 42.55 43.39 43.08 42.62
50.71 50.29 49.25 49.17 49.36 49.13 48.75 48.27 47.44 47.59 47.50 47.13 47.15 46.65 45.97 45.95 45.75 44.73 39.68 41.89 41.42 35.98 34.42 37.15 37.25 37.66 36.52 36.16 32.27 32.09 33.20 35.80 40.85 38.69 38.57 38.82 35.12 35.21 35.55 30.95 37.62 32.41 36.49 33.86 35.00 34.59 40.97 42.98 43.43 45.18 44.51 43.30 43.28 42.97
50.30 49.47 49.11 49.23 49.17 48.81 48.06 47.79 47.64 47.63 47.49 47.74 47.54 46.88 46.48 45.75 46.07 45.71 41.09 41.59 39.86 35.55 34.56 34.52 33.95 38.41 39.85 38.32 39.68 30.65 33.43 37.78 37.07 36.60 38.64 38.91 36.07 38.64 33.78 34.69 36.72 38.37 40.26 37.33 36.90 40.79 41.06 42.56 44.19 43.45 43.45 43.58 43.54 43.49
49.97 49.01 49.11 49.14 49.11 48.77 48.40 48.26 48.00 47.21 46.97 47.01 46.83 45.91 45.01 45.18 46.17 46.04 41.71 42.19 40.55 35.89 28.73 30.71 36.42 34.74 38.55 39.10 37.87 37.74 36.17 37.09 35.09 34.37 36.90 38.40 36.68 39.78 37.72 37.68 37.31 39.54 39.49 38.41 38.32 41.04 42.03 43.19 44.63 44.84 44.24 44.21 44.04 44.56
49.94 49.55 49.51 49.64 49.31 49.15 49.09 48.66 47.01 46.60 46.62 46.70 46.38 45.93 45.80 46.70 45.89 45.13 42.69 41.69 42.46 35.83 28.59 30.17 35.74 36.95 38.11 37.14 35.98 36.13 35.01 33.49 32.16 29.50 32.03 36.70 40.16 38.74 38.55 38.50 36.79 40.05 39.63 37.32 37.32 42.99 43.27 43.14 44.70 44.08 43.35 42.03 41.96 42.03
50.20 49.88 49.98 50.27 49.71 49.57 47.67 47.65 46.45 46.25 46.35 46.32 45.99 46.15 45.98 45.68 44.46 41.69 34.90 39.03 40.89 40.67 31.96 25.37 34.57 32.71 34.44 35.33 34.67 34.28 34.77 33.84 33.36 30.66 30.83 35.83 41.37 40.90 37.19 36.06 40.84 41.44 41.66 42.49 41.52 43.22 43.86 45.05 43.68 42.91 40.23 40.59 41.12 41.40
49.91 49.73 49.37 48.79 49.06 48.16 47.16 46.60 45.92 46.00 46.27 46.31 46.09 45.76 45.35 44.41 43.09 37.16 33.70 37.83 41.60 40.66 32.04 26.01 26.91 33.71 36.77 34.09 34.01 33.90 35.42 34.87 33.65 31.81 30.92 34.59 40.37 40.60 37.74 34.99 40.01 41.53 42.23 41.76 42.07 41.48 40.64 41.44 41.87 39.63 39.51 40.23 40.80 40.75
49.64 49.41 48.22 47.66 48.18 47.65 46.75 46.59 46.21 46.09 46.31 46.35 45.98 44.14 44.06 44.10 42.41 38.40 40.08 42.26 41.86 36.96 33.62 24.59 25.99 29.92 36.25 31.82 30.05 33.78 30.72 32.41 32.82 34.37 36.24 35.34 39.23 39.60 36.01 39.49 39.94 40.38 40.16 39.33 38.97 38.32 38.08 38.26 38.24 38.36 38.38 39.47 38.53 38.89
49.53 49.32 48.40 47.60 47.71 46.74 46.35 46.53 46.07 46.11 46.13 45.52 42.77 42.92 41.98 38.80 35.61 37.60 42.32 43.70 41.05 36.11 28.36 28.32 25.66 26.85 35.86 35.73 35.66 33.69 34.28 27.90 34.12 34.02 36.95 39.24 37.69 35.96 38.72 38.65 39.16 38.74 38.44 37.88 36.30 35.94 36.50 36.24 36.37 36.69 36.58 37.42 37.64 37.91
49.31 49.37 48.49 47.50 46.56 46.26 45.92 45.91 45.60 45.69 44.85 41.24 39.73 36.42 33.91 37.07 40.92 41.56 39.18 35.20 33.60 34.25 32.92 27.91 32.77 28.53 34.54 35.60 34.45 33.86 34.70 31.78 30.86 35.55 39.94 36.15 36.16 36.53 35.38 36.56 38.12 36.31 35.50 34.78 34.25 34.39 33.64 33.97 35.98 36.13 35.93 37.11 37.54 38.13
49.23 48.77 48.41 47.68 47.03 46.17 46.10 45.24 44.90 44.41 42.60 38.31 34.24 32.38 37.48 40.59 37.83 35.33 31.56 29.85 31.20 28.39 31.03 30.56 31.04 30.16 37.73 32.88 34.82 36.28 33.27 33.74 32.12 34.07 36.17 33.87 33.83 34.21 33.80 33.24 33.70 34.06 34.17 34.12 34.44 34.62 34.77 34.86 34.98 34.97 36.19 37.27 37.20 38.39
48.70 48.25 47.96 47.67 46.80 46.61 45.96 44.94 44.35 41.51 40.14 39.17 38.46 39.03 38.54 34.82 33.20 29.52 28.81 31.57 30.10 29.43 34.92 33.78 35.16 35.71 36.17 41.03 37.33 37.81 33.84 35.04 31.14 38.71 34.69 31.49 33.24 30.55 32.26 31.65 31.90 32.56 33.32 33.83 34.77 34.48 35.16 34.95 35.35 35.81 36.45 35.81 35.84 36.66
47.84 48.07 47.82 47.52 47.41 46.61 45.78 44.29 43.95 42.42 39.83 38.79 35.04 32.33 30.79 31.06 27.12 25.96 24.77 28.71 29.09 31.98 33.01 32.45 30.66 35.70 37.61 39.14 36.18 35.06 31.71 32.16 35.52 33.02 32.09 33.48 30.90 30.39 31.05 31.55 31.51 32.39 33.01 33.24 33.28 33.70 33.86 33.77 34.90 34.63 35.46 35.10 34.03 34.74
48.11 48.07 48.07 47.88 47.34 46.66 45.20 44.06 42.51 39.86 36.09 30.14 25.36 20.19 25.80 25.77 28.58 29.08 29.33 29.64 32.56 32.12 31.76 31.59 31.15 33.90 36.39 33.65 35.45 31.87 34.39 34.00 30.83 28.97 30.01 32.06 30.45 30.81 31.15 31.57 31.67 30.72 31.33 31.67 31.84 32.44 32.55 32.47 32.29 33.23 34.35 35.45 33.84 32.69
46.66 47.70 47.72 47.18 47.18 46.23 44.66 43.26 41.37 38.06 32.85 26.34 25.39 20.95 23.88 29.28 29.78 31.09 30.67 31.85 33.49 33.93 33.04 30.89 31.39 34.31 32.89 32.27 34.67 33.36 31.12 29.49 30.52 30.08 32.99 32.06 30.62 30.71 30.56 30.99 31.05 30.91 30.90 30.85 31.10 31.03 31.08 31.08 30.83 31.38 32.34 34.29 34.96 33.27
46.82 47.27 45.44 46.79 46.77 45.63 43.34 39.97 37.16 34.73 27.14 26.45 25.83 23.03 26.10 25.59 27.67 28.06 28.98 29.21 33.72 32.59 33.09 32.32 30.79 31.35 32.41 32.51 31.74 31.18 29.30 27.48 32.58 32.76 32.25 31.59 30.67 29.95 29.76 29.75 30.22 30.03 29.63 29.33 30.16 30.26 30.24 29.61 29.29 29.76 30.76 30.00 30.10 32.94
46.49 42.82 46.54 47.10 45.75 41.92 40.05 35.73 31.84 24.98 24.18 22.30 22.81 25.57 26.20 25.10 25.28 27.35 29.62 30.96 33.04 31.45 29.11 29.68 28.45 29.50 31.85 31.13 29.20 32.17 31.30 34.51 33.63 32.15 31.06 32.33 30.95 29.95 29.37 29.13 29.40 28.65 27.56 27.67 28.67 29.06 28.58 28.59 29.53 29.36 28.15 28.47 28.07 28.94
40.27 41.09 46.74 44.34 40.99 38.66 34.28 32.17 27.12 23.65 19.85 22.23 22.77 25.09 26.32 28.36 27.53 28.67 30.65 31.59 31.26 30.51 29.86 28.11 28.29 26.24 28.35 28.35 30.44 34.74 34.03 32.02 30.46 31.02 31.69 30.71 29.99 29.89 28.80 28.50 27.70 26.71 26.79 26.47 27.10 27.76 27.55 26.74 25.81 24.91 25.49 27.82 28.30 28.31
40.48 42.80 44.20 43.36 40.96 35.09 29.92 27.60 27.09 21.93 21.33 20.64 21.43 23.46 26.01 27.53 29.28 30.11 30.69 30.97 30.98 31.82 29.77 28.40 26.03 24.89 27.83 31.91 32.65 34.24 31.57 31.37 32.07 31.16 30.86 30.17 29.31 29.55 28.12 27.22 25.19 24.93 24.96 24.99 25.45 25.84 25.95 25.12 25.20 24.18 24.06 26.62 27.35 27.59
45.18 44.91 43.41 41.81 39.50 33.37 27.53 23.78 27.97 21.84 19.35 21.16 20.86 21.81 23.36 25.42 25.17 26.30 27.21 28.53 28.79 28.42 26.22 24.54 25.29 28.95 31.36 34.14 33.50 34.65 33.86 31.81 30.22 29.14 28.50 27.66 27.44 26.30 26.45 26.00 25.20 23.94 24.18 23.64 23.74 25.05 25.08 24.08 23.77 23.25 24.58 26.38 25.80 25.83
40.63 40.94 40.64 38.48 35.26 33.55 30.30 23.32 21.53 21.24 18.74 20.11 18.44 17.75 21.65 19.81 21.12 21.64 22.11 26.20 26.09 24.00 23.42 27.00 28.45 31.27 31.97 32.07 31.41 32.02 31.77 31.01 30.71 31.83 31.34 29.20 26.49 26.27 25.07 24.24 23.01 22.09 23.31 23.44 23.01 22.98 22.57 22.60 22.50 23.30 24.75 25.71 26.14 26.88
38.02 40.11 36.21 36.80 33.75 29.30 28.84 25.97 22.29 21.46 20.08 17.46 16.83 15.06 17.63 17.38 17.38 17.58 18.04 20.67 22.68 24.31 26.67 27.47 29.17 29.30 29.02 28.58 28.75 28.23 30.33 29.59 28.66 27.22 27.12 27.73 24.31 23.39 23.12 23.74 21.46 22.30 22.25 22.85 21.92 21.92 21.84 21.95 22.09 23.89 25.16 25.82 26.64 25.91
38.35 36.70 33.91 32.71 29.78 27.13 23.90 23.17 22.99 18.69 16.92 15.92 13.16 14.73 15.01 13.19 13.26 17.64 16.35 17.95 20.47 23.96 26.22 26.18 25.37 23.31 24.41 24.93 23.61 24.34 24.52 27.27 27.05 25.58 25.56 25.47 24.51 24.35 24.53 23.69 23.06 21.84 21.63 22.44 21.43 21.43 20.91 21.84 22.90 23.06 24.71 24.91 23.63 22.94
36.99 32.77 26.34 27.64 27.86 24.42 21.50 18.17 18.87 17.40 16.90 14.88 14.05 12.39 12.79 12.58 13.70 16.08 14.54 17.12 20.92 23.51 23.74 22.58 23.22 23.12 24.12 23.00 23.55 25.03 25.60 24.76 25.65 23.46 23.70 23.50 22.54 21.77 22.30 22.63 22.03 21.49 22.61 22.25 20.71 20.50 20.35 20.38 22.16 21.91 22.34 22.16 21.73 20.58
24.63 23.78 27.22 19.69 25.30 20.69 15.29 13.64 10.76 14.51 14.44 7.60 7.64 12.12 12.56 11.49 13.34 10.86 12.74 18.37 19.41 22.43 23.64 22.55 22.38 22.12 22.27 23.79 24.37 24.73 23.02 23.86 24.10 24.11 22.84 22.50 21.55 19.32 19.74 20.39 21.04 21.47 21.28 19.76 20.04 19.98 19.45 18.56 18.90 19.33 19.67 19.56 19.03 18.63
21.60 22.56 23.07 20.44 18.90 17.64 15.79 12.13 9.99 11.79 9.69 4.46 8.67 10.46 8.94 11.66 7.61 12.70 15.93 19.35 21.24 22.13 22.91 22.81 22.13 22.00 22.78 23.09 23.39 24.66 24.69 22.94 23.16 23.68 23.91 21.62 21.87 22.30 21.65 20.15 20.04 21.33 20.39 20.87 20.75 19.04 18.18 18.03 17.47 16.64 17.05 17.31 19.67 19.06
18.44 15.93 21.40 25.79 21.79 18.20 15.64 14.52 14.39 11.30 4.63 7.70 10.99 9.48 9.43 6.61 9.70 16.19 19.27 19.18 21.45 21.74 21.30 21.29 21.19 22.37 23.39 23.96 24.09 24.15 21.46 22.23 23.53 23.29 20.25 21.25 22.85 23.45 23.32 21.25 20.28 22.08 19.74 19.26 19.01 18.61 18.45 17.94 17.28 16.85 16.29 16.59 15.96 16.09
21.65 18.95 16.77 19.00 17.80 17.55 15.42 12.10 10.58 9.29 12.25 14.54 14.29 9.31 9.93 12.33 17.44 21.46 20.68 20.26 18.54 17.14 17.78 19.00 18.84 20.18 21.99 23.49 23.06 20.88 18.92 16.70 15.72 17.25 18.85 19.39 16.90 16.65 16.68 18.74 17.90 21.42 18.42 18.54 18.31 17.93 17.11 16.88 16.54 16.13 15.54 15.29 16.06 16.94
20.90 19.59 17.98 14.04 9.58 13.41 16.53 16.45 13.33 15.18 18.89 15.95 14.73 14.16 15.09 17.51 18.85 19.25 19.76 17.05 14.22 16.06 17.78 20.73 23.68 18.12 18.23 17.47 16.08 17.39 17.98 17.49 18.88 18.79 19.26 21.34 19.25 19.78 12.08 12.92 13.61 14.17 14.68 15.82 19.79 20.40 15.99 15.71 16.22 16.56 16.82 16.99 17.57 17.37
15.76 18.81 17.28 14.68 14.89 14.97 16.53 16.69 14.99 12.79 15.25 17.92 17.19 16.42 16.16 16.76 17.87 15.35 15.31 13.43 14.39 17.83 21.00 23.96 25.03 20.10 21.47 20.88 21.11 18.43 15.33 16.19 19.72 22.47 22.03 21.27 19.66 15.26 11.77 13.19 14.44 14.43 12.89 12.27 12.52 12.58 16.44 17.10 16.05 13.89 14.18 13.70 14.46 14.87
20.86 17.76 14.58 13.05 13.06 15.47 12.49 8.57 8.03 16.31 9.84 8.54 7.05 13.23 19.45 19.13 15.12 14.56 16.78 20.47 21.71 22.61 17.19 19.71 19.65 17.94 18.29 17.87 17.93 18.83 19.89 17.41 15.57 15.05 13.38 13.21 12.89 12.61 12.88 12.90 13.20 12.48 11.55 11.26 11.18 11.09 11.59 12.56 12.25 11.49 11.37 10.18 9.09 14.06
11.17 14.66 11.90 6.68 10.16 4.13 1.96 5.04 2.93 5.52 4.95 3.68 10.69 3.90 5.49 6.59 10.16 23.52 18.37 13.63 12.59 14.68 20.19 21.44 17.86 20.06 17.45 18.35 16.61 16.64 18.47 12.86 11.55 10.25 9.08 12.74 12.04 12.43 12.87 12.84 12.05 11.50 12.23 12.44 11.38 11.27 11.84 11.35 11.60 10.30 10.61 9.47 9.15 9.43
3.08 1.21 -1.23 4.24 6.26 5.67 3.81 5.40 4.81 4.01 0.42 2.20 5.89 7.09 8.17 12.33 13.52 17.82 8.54 6.55 11.26 11.69 12.40 13.27 13.69 13.09 11.79 12.13 12.50 11.88 14.18 10.35 10.82 16.30 17.79 19.18 20.17 19.09 16.97 15.94 16.53 14.58 14.64 14.02 13.71 13.05 11.64 10.76 9.84 9.01 9.04 9.44 10.15 11.07

GFSWCAN_sfc_wetblb_039.txt.gz
Wetbulb
51.17 50.70 50.11 49.45 49.54 49.66 49.48 49.24 48.85 47.81 47.95 47.53 47.70 47.49 46.54 46.22 46.61 44.69 43.08 44.24 38.95 34.31 35.45 36.86 35.71 32.48 34.12 34.04 33.15 36.01 39.61 41.45 40.18 37.08 35.81 35.61 34.03 36.54 34.99 37.04 34.84 33.22 31.51 31.28 32.46 29.16 26.44 42.78 43.30 38.74 43.37 45.56 45.89 44.78
51.17 50.76 50.33 49.20 49.21 49.27 48.86 48.37 47.72 47.70 47.99 47.97 48.01 47.93 47.35 47.18 45.83 45.48 39.73 43.68 42.83 36.90 35.55 39.84 39.15 39.49 37.64 36.49 33.03 33.79 33.07 34.27 38.43 38.83 39.91 39.35 35.86 38.46 36.57 31.96 40.01 33.17 37.20 35.04 36.04 35.27 42.30 44.19 44.52 46.39 46.09 44.86 45.26 45.55
50.97 50.39 49.64 49.20 49.25 49.41 48.79 48.42 47.95 47.88 47.52 47.13 47.39 46.65 46.47 45.69 45.86 45.45 42.15 42.16 40.27 36.35 34.72 35.51 34.86 38.95 41.03 39.66 40.47 31.23 34.49 36.53 35.62 35.05 35.56 39.56 36.33 40.23 34.77 35.76 37.81 39.55 42.54 37.31 37.49 40.86 41.98 43.50 45.87 45.85 45.65 45.41 45.54 45.30
50.75 50.03 49.26 49.03 49.29 49.44 49.18 48.87 48.85 47.85 46.84 46.99 46.93 46.46 46.16 46.08 46.39 46.20 42.11 42.75 41.38 37.20 29.95 32.29 38.23 35.94 39.95 40.03 39.32 38.76 37.36 38.22 36.52 34.34 31.65 36.80 36.84 42.60 38.45 39.53 39.15 41.76 41.31 38.41 38.65 41.85 43.15 44.12 45.96 46.18 45.24 45.83 45.42 45.83
50.45 49.37 49.25 49.42 49.65 49.73 49.34 48.86 48.26 46.86 47.02 46.72 46.09 46.36 46.39 46.36 46.27 45.15 44.14 43.81 43.46 36.17 29.74 31.11 37.09 37.31 39.00 38.57 37.27 37.59 36.16 34.60 33.23 31.15 30.54 33.06 37.82 39.97 41.10 40.75 38.82 42.31 40.88 38.28 37.35 43.90 43.62 44.55 46.59 46.88 45.67 45.24 43.82 43.07
50.25 50.13 49.68 49.57 49.94 49.76 49.06 47.53 47.50 46.70 46.48 46.59 46.68 46.57 46.32 45.64 44.46 42.61 36.11 41.31 42.48 42.13 33.39 27.20 36.74 34.86 36.06 37.44 35.78 35.25 35.76 34.71 33.64 31.29 31.29 34.34 37.29 38.47 37.38 35.88 42.18 44.71 45.70 46.26 43.77 46.14 46.23 46.48 46.62 45.73 44.23 43.83 43.13 42.48
50.31 49.86 49.35 49.14 48.66 48.79 47.31 47.37 46.72 46.41 46.54 46.66 46.93 46.60 45.56 44.16 44.32 37.86 34.78 39.15 42.83 41.67 32.67 28.29 29.48 35.26 36.87 35.93 35.39 34.37 35.53 34.36 33.53 31.63 30.09 32.09 34.93 33.60 38.08 35.56 42.11 44.42 45.24 44.76 45.99 45.23 43.15 43.61 43.13 42.41 41.77 41.79 42.19 42.31
49.94 49.51 49.44 48.23 48.66 48.10 47.01 46.60 46.50 46.55 46.65 46.78 46.43 44.52 44.29 44.46 43.08 39.77 41.68 42.83 42.64 37.37 34.49 26.72 27.65 31.29 37.17 33.44 31.20 35.18 31.23 32.74 34.19 31.71 33.08 31.30 33.92 34.88 35.06 40.99 42.17 43.49 44.11 43.22 43.02 42.19 41.07 40.82 40.45 40.58 40.84 40.66 39.94 40.61
49.54 49.63 49.25 48.06 48.11 47.48 46.35 46.38 46.44 46.37 46.28 45.78 43.13 42.91 43.42 41.00 37.38 38.82 42.58 43.13 41.55 36.55 30.49 29.70 26.83 28.83 35.58 35.46 35.19 32.69 33.00 26.27 33.47 29.67 30.67 34.81 31.76 30.91 38.81 40.73 41.06 41.63 41.49 42.32 40.01 39.43 39.33 38.83 38.71 39.34 39.37 39.52 39.09 39.78
49.36 49.37 49.25 48.00 47.11 46.40 46.13 45.99 45.97 45.92 45.16 42.31 40.80 37.95 34.99 38.24 41.42 41.73 38.70 35.28 33.67 34.55 33.64 28.35 34.30 29.91 35.01 35.25 33.12 32.15 32.53 30.57 28.26 31.43 37.54 34.34 34.48 39.36 37.14 39.31 42.61 40.36 38.96 38.91 37.50 36.79 36.89 36.68 37.60 38.41 38.00 38.79 39.08 39.12
49.27 49.38 48.94 48.05 47.22 46.41 46.05 45.56 45.31 45.30 43.68 41.12 36.97 34.69 39.32 41.39 38.73 35.99 32.20 31.12 32.92 29.55 32.42 32.06 32.12 30.37 37.37 31.75 34.19 34.36 33.35 33.67 29.24 34.39 32.59 33.25 34.00 36.88 35.92 35.34 36.28 37.04 37.47 36.93 37.81 37.69 37.60 36.86 36.12 35.95 35.88 37.61 38.80 38.52
49.13 48.62 48.39 47.80 47.21 46.38 46.08 45.42 45.16 43.44 41.48 40.24 38.94 40.36 39.72 36.28 33.85 30.36 30.42 33.12 31.22 31.01 34.64 33.14 33.28 34.49 36.30 37.05 34.86 35.78 32.44 34.01 31.58 36.05 33.41 32.07 33.98 33.48 34.65 33.71 33.88 35.36 36.05 36.32 37.42 36.37 36.00 35.39 35.47 35.20 36.12 36.30 36.00 36.34
48.46 48.07 47.94 47.66 47.07 47.02 46.19 44.79 44.17 42.73 40.82 40.83 35.81 32.76 32.89 32.90 28.81 27.24 24.49 28.78 28.65 33.20 34.20 32.79 29.04 33.64 36.75 37.76 34.82 34.00 32.05 33.26 36.25 33.56 32.08 34.92 32.99 32.63 33.20 33.58 33.33 34.69 35.63 35.91 35.76 35.67 35.39 35.55 35.78 34.60 34.19 35.98 35.38 33.70
47.58 47.93 47.95 47.75 47.68 46.72 45.79 44.54 42.73 40.85 38.73 32.85 28.98 24.69 29.78 28.88 29.79 30.54 30.25 31.00 33.86 33.48 33.32 32.85 30.75 32.11 36.19 33.25 34.76 31.67 34.92 34.63 31.71 29.84 31.29 35.62 33.64 33.25 33.50 33.83 33.85 33.32 34.12 34.36 34.25 34.44 34.14 33.95 33.43 34.33 34.43 36.33 36.01 34.18
47.97 47.86 47.86 47.87 47.38 46.78 45.28 43.36 40.87 40.84 36.38 30.41 29.15 26.46 27.71 32.98 32.54 33.29 33.78 32.17 34.53 35.57 33.69 31.77 31.69 32.02 32.17 31.95 34.25 33.33 31.74 30.10 31.48 30.92 35.33 35.79 33.66 32.98 32.71 33.42 33.45 33.11 33.14 32.85 32.97 32.74 32.76 32.52 32.56 32.58 32.61 32.39 32.83 34.53
47.39 47.31 46.40 47.24 47.22 45.98 43.47 40.84 39.97 38.38 32.99 30.76 28.67 27.60 30.25 29.23 31.95 31.39 32.10 31.17 35.42 34.16 34.15 32.79 29.79 29.66 31.12 32.02 31.68 31.73 30.80 28.98 33.35 35.89 34.88 33.95 32.50 31.59 32.15 32.14 32.25 31.66 31.18 30.95 31.82 31.66 31.93 31.22 30.39 30.86 32.09 31.38 30.94 30.56
46.76 43.88 46.65 47.15 45.51 41.91 40.20 39.04 36.39 28.67 29.39 25.36 28.50 30.31 30.06 29.56 29.62 31.05 31.58 32.00 34.84 32.23 29.15 29.70 27.56 29.63 30.84 30.49 30.82 33.87 32.99 34.58 34.46 35.85 34.23 34.33 32.50 30.49 31.10 30.86 30.98 29.94 29.37 29.52 30.22 30.38 29.87 30.10 29.96 28.93 27.64 29.67 29.96 30.01
43.44 45.32 46.80 44.05 42.22 39.80 36.54 34.61 32.14 29.05 27.00 29.59 27.65 30.75 29.83 31.49 30.92 31.32 32.63 33.62 32.32 31.48 30.73 28.64 28.98 26.49 27.81 28.89 31.49 34.58 35.16 34.29 33.47 33.49 34.14 33.05 31.67 30.89 30.46 30.45 29.34 28.40 28.38 28.06 28.44 28.81 28.81 27.54 27.09 25.89 25.81 26.48 29.45 29.99
44.23 46.26 44.87 43.92 42.65 38.93 34.68 31.55 31.82 28.72 29.70 28.07 27.84 28.33 28.70 30.31 32.33 32.52 32.04 32.65 33.04 33.22 30.95 29.34 25.44 25.55 27.98 33.72 35.12 36.51 36.01 35.04 34.50 33.97 33.69 32.95 31.16 31.31 30.70 29.70 28.24 27.28 27.18 27.03 26.99 27.06 26.72 26.40 25.79 25.60 25.77 26.54 26.60 28.03
45.73 45.19 44.37 42.38 40.87 36.45 30.82 28.64 30.07 26.01 25.51 26.15 26.10 26.25 27.03 28.21 29.02 29.03 29.54 30.32 29.59 29.10 25.93 24.66 26.11 30.71 31.78 35.54 36.39 35.38 36.22 35.35 34.45 33.85 32.49 31.74 31.74 31.03 30.19 29.16 27.65 27.42 26.83 26.44 26.15 26.11 26.39 26.05 25.55 25.09 25.89 26.98 26.41 26.05
41.64 41.70 41.17 40.88 38.06 36.70 33.90 28.66 27.41 26.08 24.99 24.17 25.03 23.19 25.50 26.29 25.61 26.71 26.61 27.63 26.24 25.11 25.17 29.32 30.88 33.19 34.37 34.24 34.61 33.41 33.20 33.74 33.20 33.37 33.63 33.23 31.19 30.14 29.70 28.58 27.27 25.92 25.85 26.07 25.55 25.83 24.81 24.89 25.07 24.92 25.74 26.71 27.09 27.36
39.37 40.53 37.66 38.16 34.91 32.25 31.54 29.23 27.92 25.90 23.53 23.95 22.73 21.06 22.37 23.33 23.86 23.20 22.08 21.39 23.46 27.08 29.65 30.68 31.95 31.43 30.28 29.79 31.04 31.21 31.09 31.90 32.24 31.35 31.01 30.24 28.03 27.31 27.80 28.23 26.08 25.70 26.03 27.28 25.73 24.78 24.88 24.62 24.21 24.67 25.56 26.65 27.51 25.80
39.63 38.23 35.30 33.71 30.52 28.77 25.71 27.12 25.52 24.71 23.28 23.49 21.70 20.00 22.03 21.29 20.47 20.92 19.07 22.44 24.86 28.85 29.96 29.61 29.41 28.15 26.36 26.83 27.16 27.26 27.80 27.53 29.11 30.05 29.92 29.89 29.68 29.87 29.29 28.24 27.22 27.05 26.15 26.06 25.61 25.09 24.57 24.00 24.29 24.23 24.82 25.94 25.40 24.61
38.43 34.17 31.29 29.44 29.20 24.43 24.38 22.47 22.66 21.35 20.72 19.79 19.27 18.94 21.76 20.90 19.08 19.24 19.23 24.14 26.90 27.39 26.60 27.19 27.19 25.56 26.78 26.50 25.50 27.18 28.68 28.33 27.89 29.04 27.58 27.96 26.85 26.21 26.73 27.50 26.77 26.64 27.27 26.10 25.08 24.52 23.99 22.84 23.60 23.58 23.41 23.33 23.53 22.68
27.83 27.44 29.06 23.35 28.08 24.22 20.51 19.07 17.58 18.31 17.28 18.92 16.57 18.55 19.62 17.59 19.45 18.64 18.69 25.26 26.40 27.74 29.77 28.05 26.46 25.85 23.96 24.84 26.34 27.38 27.65 26.28 26.86 27.04 29.26 26.97 27.70 24.19 24.19 24.75 25.07 25.47 25.67 24.42 23.33 23.13 23.48 22.77 21.99 21.93 21.87 21.60 20.91 19.82
20.98 24.83 24.38 23.35 23.35 21.58 20.76 16.52 15.33 15.87 17.69 16.32 16.29 17.82 15.56 17.81 15.55 17.75 22.74 26.39 26.77 28.94 29.10 27.15 25.91 25.62 26.16 25.76 25.23 26.27 27.46 25.76 25.59 25.51 28.76 26.30 25.54 26.38 26.70 24.87 24.13 24.84 24.63 24.53 25.05 23.91 22.77 21.39 20.59 19.20 19.49 19.61 21.61 20.42
20.74 21.69 24.83 27.43 25.07 21.82 19.61 18.47 18.77 17.02 15.64 15.24 18.32 14.61 15.55 13.51 16.21 22.66 26.28 26.27 27.37 29.83 28.46 27.48 25.90 25.90 26.65 27.11 27.40 27.44 26.92 24.89 25.70 25.73 22.38 23.39 25.84 26.66 27.36 25.89 24.21 25.50 23.58 23.17 23.05 22.69 21.90 21.10 20.29 19.83 19.37 19.63 19.14 18.35
24.12 23.13 18.73 21.65 21.19 21.85 20.29 18.14 17.15 16.31 18.26 20.07 18.53 13.46 13.86 16.95 21.40 29.24 28.77 29.77 28.21 26.73 25.14 25.05 24.79 24.59 24.86 25.81 27.66 26.57 25.57 23.43 21.65 20.85 22.31 23.17 22.55 22.92 22.64 23.68 22.40 23.21 22.96 22.21 22.02 21.05 20.38 19.87 19.25 18.96 18.10 17.40 17.77 19.11
23.23 22.40 21.83 16.17 17.36 18.55 20.32 20.73 20.55 21.28 23.17 20.20 19.39 19.45 20.98 24.13 27.75 28.24 29.22 26.03 23.65 22.10 22.84 25.20 27.58 24.81 23.26 22.82 22.76 22.98 23.89 22.54 21.59 22.36 22.92 24.19 25.80 25.10 20.56 19.75 19.33 20.47 20.69 20.37 22.41 22.77 18.18 18.18 18.37 18.23 17.85 18.40 19.23 19.68
20.48 24.11 21.40 18.78 18.45 18.65 22.38 22.75 23.91 24.04 22.12 23.34 22.65 22.08 22.14 23.94 26.58 28.38 26.25 24.57 22.59 24.35 27.08 28.05 29.29 28.39 26.27 25.58 25.40 24.95 21.76 22.19 22.64 24.05 24.60 24.82 25.92 20.73 17.26 16.64 16.91 17.19 17.32 17.05 16.82 16.69 19.53 19.57 19.32 17.62 16.40 16.82 16.40 16.20
23.68 22.10 20.28 20.52 18.91 23.96 26.49 19.13 16.78 18.80 18.22 19.09 19.32 18.65 21.57 25.09 27.30 29.29 25.47 27.06 27.67 28.15 27.09 25.96 26.08 26.17 23.57 23.73 23.07 22.24 22.46 23.13 20.64 21.53 22.95 20.00 18.79 18.42 18.03 17.93 18.62 18.21 16.66 15.58 15.41 15.09 14.88 15.07 15.16 14.57 14.05 12.91 11.49 15.65
20.31 19.70 18.50 14.33 18.14 15.16 12.77 15.98 18.00 17.53 19.14 14.99 17.78 16.40 16.05 16.97 18.12 25.96 28.73 26.54 24.70 24.26 26.33 26.64 24.88 25.30 24.81 23.55 21.90 22.29 23.39 19.25 16.76 15.42 14.18 18.56 16.82 16.57 16.78 16.48 15.64 15.55 15.22 14.88 15.15 14.69 13.61 12.50 13.26 13.77 13.34 11.39 10.61 10.46
13.36 13.43 11.98 15.02 17.07 16.90 13.84 15.79 15.61 13.75 12.34 12.42 14.52 16.59 19.27 17.64 16.36 23.95 17.29 13.72 17.35 19.04 19.24 19.31 18.59 17.06 14.06 14.02 15.89 16.94 17.47 14.89 14.28 17.95 18.62 18.73 18.95 18.35 17.02 17.25 17.78 17.40 15.68 15.78 16.85 15.94 13.47 12.12 11.88 11.03 10.67 9.48 9.06 9.39

GFSWCAN_sfc_wetblb_042.txt.gz
Wetbulb
51.43 51.07 50.50 50.06 49.33 49.01 49.11 48.78 48.60 48.02 47.94 48.22 48.30 48.33 47.92 46.99 47.20 44.34 42.69 43.74 38.42 33.38 34.58 36.72 36.38 31.80 32.31 32.47 28.90 32.59 35.42 39.30 38.34 33.79 34.03 33.40 29.97 31.95 30.00 32.54 31.77 30.74 28.56 29.58 30.98 28.14 22.61 41.37 40.75 36.07 39.80 42.41 42.14 41.81
51.72 51.08 50.53 50.00 49.18 48.98 48.52 48.54 48.32 48.03 47.96 47.73 47.66 47.28 46.87 46.34 45.99 45.59 40.38 42.91 42.57 36.82 34.77 39.47 38.91 39.06 37.29 35.89 32.20 32.60 31.55 32.10 35.72 35.19 35.60 35.80 32.38 32.61 31.69 27.15 35.27 29.58 33.05 30.88 31.76 31.28 38.72 40.62 40.19 42.25 42.59 41.95 42.08 41.74
51.88 51.16 50.62 49.84 49.16 49.05 49.13 48.84 48.71 48.79 48.20 47.11 47.21 46.96 46.73 46.22 46.63 45.94 42.66 42.49 40.34 36.52 34.40 34.10 34.12 38.71 40.87 39.68 40.29 30.46 33.72 36.17 34.77 34.51 32.97 35.85 34.08 35.92 29.11 30.94 33.54 34.61 37.57 33.55 34.23 36.56 37.98 40.36 42.49 42.50 41.46 41.74 42.55 43.00
51.31 50.76 49.99 49.23 48.88 49.03 49.14 49.26 49.52 49.56 47.57 47.46 47.38 46.85 46.94 47.01 46.93 46.26 42.55 42.76 41.05 36.52 28.35 30.90 38.50 36.27 39.71 38.98 38.68 38.37 36.45 37.68 35.57 34.94 31.49 31.87 34.89 38.82 34.45 35.39 34.75 37.26 37.47 35.01 34.55 37.53 38.84 40.56 41.84 42.64 42.74 42.76 42.75 42.87
50.83 50.41 49.22 49.04 49.25 49.47 49.78 49.77 48.94 47.74 47.02 46.95 46.80 46.99 46.87 46.58 46.02 44.42 42.82 43.14 43.28 36.32 29.37 30.15 36.06 37.22 38.14 37.79 37.12 37.45 35.82 33.85 31.86 30.16 29.23 28.46 34.80 35.15 37.79 36.76 34.53 38.13 36.17 33.65 32.34 39.02 38.69 39.82 42.49 43.96 42.52 42.40 41.16 39.66
50.55 49.95 49.76 49.55 49.33 49.19 49.36 48.08 47.74 46.99 46.66 46.81 46.75 47.13 46.53 45.88 44.06 41.83 36.11 41.22 42.40 41.38 32.46 26.84 35.49 34.39 35.36 37.55 35.39 34.76 34.59 33.69 32.28 29.85 28.86 30.61 34.57 33.14 29.67 32.24 38.74 40.89 42.01 41.89 38.67 42.32 42.03 42.64 43.09 42.50 42.11 41.25 40.30 38.83
50.27 50.12 49.73 49.16 48.45 49.06 48.03 47.39 47.10 46.57 46.58 46.68 46.80 46.20 44.55 45.01 42.81 37.36 34.87 38.74 42.76 40.93 32.39 27.40 28.33 34.82 36.58 35.67 34.44 33.88 34.52 34.58 33.11 31.36 28.52 27.27 28.83 34.50 32.98 28.90 37.09 41.71 43.04 41.78 42.42 42.34 40.08 40.25 39.13 39.60 39.14 39.11 39.73 39.06
50.21 49.89 49.53 48.51 48.62 48.61 47.54 46.71 46.91 46.73 46.58 46.36 45.39 43.40 43.93 44.57 42.99 39.20 40.63 42.61 42.28 37.02 33.52 26.24 26.94 30.79 35.90 32.48 30.74 34.83 30.43 32.24 31.71 29.38 29.39 27.11 29.26 29.48 26.59 34.17 39.63 41.27 41.93 41.58 39.62 38.72 37.72 38.14 38.04 37.82 38.10 38.37 37.21 37.27
49.66 49.52 49.30 48.45 48.03 48.16 46.82 46.25 46.31 46.31 46.12 44.30 41.95 43.67 42.54 39.69 36.92 37.93 42.65 42.86 41.59 36.27 29.94 29.50 26.06 27.09 36.34 34.38 34.96 30.97 31.83 25.78 31.06 28.03 27.21 29.69 28.16 25.53 29.87 31.79 37.06 40.18 38.69 38.86 37.80 37.41 36.80 36.53 36.50 37.02 36.49 36.59 36.03 36.60
49.31 49.51 49.16 48.37 48.04 46.78 46.15 45.96 45.95 45.87 45.31 43.12 39.86 36.30 34.30 37.07 41.20 41.09 38.57 34.87 33.61 34.15 33.47 27.60 33.75 28.60 35.36 34.43 33.49 30.47 31.07 29.02 23.36 28.19 33.01 28.05 30.50 33.44 37.71 39.06 38.98 37.74 37.09 37.23 34.89 32.33 30.64 30.12 34.19 34.72 34.57 35.79 36.44 36.78
49.32 49.31 48.86 48.20 47.34 46.72 46.11 45.65 45.69 45.64 44.96 39.32 35.02 33.99 37.56 41.98 38.08 36.23 32.15 30.89 32.70 29.39 31.93 31.81 32.26 30.36 36.33 30.80 32.14 33.86 31.82 30.32 25.88 31.10 29.73 31.56 31.97 34.43 35.34 34.99 36.00 35.81 36.15 35.28 35.99 36.00 35.58 34.99 33.98 33.40 34.76 37.01 37.28 37.25
49.14 49.04 48.40 47.88 47.35 46.55 46.16 45.29 45.07 42.55 39.51 38.77 37.48 39.31 38.98 35.93 33.20 29.33 29.63 33.03 31.49 30.27 33.95 32.74 31.78 32.66 34.42 37.17 33.00 34.82 31.23 31.58 28.87 35.32 32.35 31.19 32.98 33.34 33.48 32.79 33.93 34.45 34.84 35.21 36.35 35.33 35.08 35.48 35.33 35.14 35.30 35.83 35.86 35.66
48.93 48.49 48.28 47.83 47.25 46.95 46.32 44.73 43.84 41.83 40.82 39.04 34.21 29.64 32.77 29.22 20.91 22.02 21.82 25.31 27.05 32.79 33.33 32.23 30.06 32.36 34.30 36.79 33.51 32.49 31.06 31.59 35.42 31.99 30.61 31.28 31.71 32.13 32.22 32.58 32.82 33.67 34.68 35.19 34.95 34.84 35.00 34.08 34.14 32.96 32.46 34.59 35.82 35.03
48.11 47.97 47.86 47.68 47.67 46.78 45.85 44.57 42.06 40.64 37.22 29.82 23.35 16.85 23.40 21.49 24.63 25.67 26.46 27.64 31.90 31.73 32.14 31.60 31.06 30.60 33.87 32.53 33.81 30.85 34.97 33.89 29.59 28.34 29.80 30.09 30.80 31.03 32.08 33.44 33.15 32.47 32.90 33.08 33.05 33.37 32.64 32.23 31.39 32.35 31.90 31.58 32.04 34.07
47.79 47.74 47.62 47.37 47.60 46.89 45.35 42.89 41.09 39.53 33.69 25.41 25.04 17.83 20.30 28.63 27.59 27.56 27.19 27.75 30.92 33.54 31.86 30.52 30.75 31.36 30.22 30.53 33.72 31.90 30.94 27.58 29.98 29.74 31.70 30.81 30.33 31.84 31.91 32.66 31.37 30.71 31.09 30.92 31.48 31.08 31.09 30.61 30.33 30.51 30.46 30.18 29.93 29.70
47.65 47.30 46.26 47.80 47.25 45.73 43.21 40.85 38.97 36.55 29.77 25.32 23.42 21.36 27.52 22.88 24.09 25.34 24.87 24.52 31.23 32.00 30.80 32.63 29.23 28.85 29.00 30.59 29.65 30.23 29.61 28.18 30.44 31.77 33.61 32.55 31.20 31.12 31.30 31.63 30.58 29.70 29.13 30.63 31.00 30.94 30.73 29.12 28.31 28.97 30.25 29.68 29.56 29.05
46.99 42.58 46.95 47.18 45.80 42.88 41.28 37.20 33.79 24.59 23.85 20.23 21.44 28.68 26.08 23.83 23.75 25.81 27.87 28.14 31.88 27.81 27.17 27.94 24.77 25.19 28.35 28.01 28.83 32.06 30.13 31.52 32.55 33.08 31.40 30.68 30.09 29.65 29.86 29.58 29.24 27.88 28.21 28.83 29.90 30.19 29.68 28.56 27.22 26.21 24.42 25.09 25.87 28.34
42.14 45.03 46.59 44.06 42.29 40.30 35.61 34.54 28.41 23.41 19.60 24.23 21.77 25.46 28.13 27.67 26.81 27.79 28.68 30.22 27.90 26.23 28.53 26.86 28.49 23.01 23.12 23.94 27.66 32.29 33.09 32.13 32.68 32.04 32.21 30.51 30.59 29.84 29.29 28.17 27.90 27.58 27.49 27.57 27.77 28.15 27.48 24.22 23.25 22.67 22.90 23.56 24.77 25.22
43.83 45.54 45.05 44.21 43.09 36.24 30.43 29.70 29.00 21.75 23.02 24.40 25.24 25.62 25.98 27.32 28.94 28.76 28.22 29.03 29.88 31.36 28.37 27.19 24.59 23.43 23.69 27.26 28.17 32.20 31.97 33.36 33.07 32.28 32.75 31.83 30.21 29.76 29.72 28.31 26.79 26.67 27.02 26.32 25.91 25.16 24.59 24.01 22.38 22.22 22.45 23.93 23.78 24.63
46.08 45.35 44.68 42.47 41.43 32.52 24.86 25.54 28.90 21.60 18.63 21.89 22.53 20.75 22.78 23.88 25.41 24.90 25.55 27.26 28.35 27.16 24.46 23.20 23.78 26.17 27.20 28.67 28.48 28.89 29.55 31.66 30.30 29.85 31.11 30.29 29.88 27.02 28.43 28.91 28.01 26.07 24.24 22.94 23.00 25.97 22.38 21.79 21.87 21.82 22.21 23.79 23.14 22.48
41.63 41.68 41.70 40.35 36.76 33.89 32.23 28.13 24.84 23.47 20.25 19.17 19.67 18.98 19.04 22.84 19.83 18.37 25.36 27.35 24.89 24.05 21.36 24.72 26.07 28.00 29.36 29.43 29.50 28.89 29.01 28.33 28.67 29.82 29.25 27.98 30.05 28.72 27.08 26.05 24.32 24.19 23.33 23.67 22.09 21.42 23.63 19.77 20.27 20.97 21.70 23.06 23.38 23.52
39.24 41.10 36.58 37.19 32.95 32.53 30.80 29.78 27.33 23.42 19.51 18.79 16.96 17.94 15.62 15.93 16.61 20.24 22.12 20.02 22.17 20.37 23.77 23.62 24.00 24.43 26.28 24.98 24.02 23.28 26.52 26.50 26.28 27.80 31.59 31.19 26.28 24.89 26.56 27.40 25.34 23.39 21.17 21.00 20.98 20.05 19.67 20.28 20.47 20.63 21.32 22.54 25.11 23.21
39.73 37.80 34.82 33.35 30.15 27.75 24.29 24.17 23.48 22.45 18.67 18.72 17.33 13.85 14.32 12.79 12.30 15.36 10.32 15.46 18.71 23.67 24.46 23.48 21.82 21.30 21.95 23.59 21.38 22.38 22.35 22.34 23.19 24.45 26.64 26.81 27.10 26.11 23.72 24.97 25.48 24.15 22.83 22.45 20.39 19.71 17.23 23.64 21.98 21.79 21.05 22.05 22.68 21.92
38.46 32.63 28.73 28.63 28.71 21.28 22.62 15.75 22.12 19.28 20.32 16.75 14.01 10.70 12.64 12.53 12.89 9.70 10.50 16.31 22.19 23.21 21.57 18.72 21.17 22.07 20.72 20.24 19.26 21.04 21.65 21.21 23.08 24.28 25.78 23.54 21.72 22.14 23.52 24.94 24.63 24.66 22.91 20.54 19.09 17.25 17.15 20.11 22.94 20.71 20.63 16.15 16.30 17.02
27.21 26.95 28.35 25.30 28.05 23.73 16.40 15.52 13.58 18.42 14.04 13.11 8.98 8.95 11.11 10.56 9.16 8.60 10.12 16.33 17.98 19.59 20.79 20.86 20.90 20.08 18.69 18.58 20.16 20.88 22.23 20.90 21.28 23.57 26.56 24.34 22.84 18.88 17.18 18.26 20.59 21.47 21.92 16.73 15.56 15.79 14.43 15.31 15.24 14.93 15.07 13.81 13.15 11.78
21.70 25.33 23.72 22.71 18.66 21.25 17.37 10.19 10.57 10.01 11.09 7.61 10.20 11.01 9.05 11.70 10.07 9.92 14.54 16.51 18.28 19.72 20.10 20.70 20.48 20.14 19.38 21.60 19.64 19.10 20.89 21.68 21.76 21.83 25.28 25.03 23.60 21.27 19.05 17.73 16.13 19.69 21.02 20.49 17.40 17.39 16.45 16.52 15.01 13.17 13.29 14.87 21.56 14.80
16.34 16.48 24.38 26.83 23.07 20.75 17.16 16.14 16.57 13.13 7.58 10.75 12.18 11.91 13.41 13.99 9.62 14.87 20.52 19.25 19.07 19.43 20.48 21.17 21.14 19.96 19.82 21.01 21.98 22.82 21.40 21.52 22.27 25.17 21.98 21.12 22.99 24.84 25.16 24.15 22.44 21.95 20.67 19.96 19.21 17.89 16.95 16.30 14.81 14.35 13.45 11.19 11.62 12.07
21.26 20.28 15.60 19.30 16.61 16.33 13.04 14.21 14.22 12.93 15.18 20.51 20.57 15.49 14.49 12.46 13.53 19.97 21.43 20.64 20.77 18.58 16.17 15.56 16.67 19.51 19.91 21.63 22.17 20.82 17.67 18.19 17.53 17.24 19.28 22.18 22.42 22.39 22.09 23.33 21.28 25.29 19.79 19.82 19.44 17.57 16.97 16.16 15.53 13.80 12.15 11.65 9.81 10.16
22.07 20.08 19.11 16.05 12.44 14.24 16.39 17.56 18.89 20.71 23.11 20.67 16.55 13.28 14.81 18.93 18.83 18.20 20.51 19.44 14.10 12.83 11.68 14.08 22.04 21.46 21.74 21.43 20.15 19.74 15.92 16.53 15.54 16.13 19.26 22.05 25.11 25.35 22.12 20.45 19.99 19.90 19.18 17.40 24.47 20.60 15.07 12.51 11.95 11.62 11.05 11.95 11.38 10.32
20.42 19.86 15.84 12.81 14.97 15.03 17.16 22.59 18.96 16.74 19.08 20.05 20.05 16.73 18.70 19.57 19.95 23.10 17.78 14.64 14.13 21.53 25.56 26.64 26.84 22.48 24.99 24.96 24.09 19.62 18.28 20.40 21.83 21.66 21.11 22.38 24.45 22.06 18.92 16.76 16.26 16.56 15.98 15.34 11.74 9.08 20.57 13.73 13.35 7.76 8.81 9.63 9.87 8.73
21.76 21.02 18.26 16.36 13.58 16.15 18.43 13.32 12.71 18.71 12.91 9.91 12.08 14.59 20.01 21.20 23.33 25.89 26.86 27.73 27.76 27.26 26.24 25.29 25.62 25.87 24.49 24.08 21.96 21.20 20.89 17.33 19.04 20.06 21.51 15.95 14.40 15.03 14.01 13.18 13.98 13.20 11.81 9.49 7.63 6.97 5.79 5.95 4.78 3.98 4.27 3.49 4.73 13.16
17.66 15.32 14.89 8.06 9.85 8.54 6.80 7.58 8.30 7.39 7.46 5.76 8.67 8.88 6.32 7.11 9.54 16.68 19.36 23.08 23.08 23.00 25.70 25.82 23.17 23.58 20.75 21.76 15.67 15.34 26.00 11.01 10.09 9.24 10.04 11.77 12.10 10.87 11.05 9.13 6.42 7.15 6.48 6.09 5.88 5.92 5.50 4.78 4.90 6.17 8.33 6.01 6.56 6.49
6.87 6.28 4.33 6.47 6.74 7.02 6.92 7.10 6.38 5.48 3.40 2.29 7.42 11.20 15.41 13.51 12.81 17.53 8.61 5.06 10.57 9.97 7.39 4.97 5.11 5.74 4.49 6.03 6.68 7.23 13.38 5.41 9.85 18.83 19.70 19.97 19.88 14.18 6.93 6.61 8.16 8.48 8.08 7.98 7.46 8.74 9.70 8.75 7.52 4.48 6.93 7.19 6.26 4.89

GFSWCAN_sfc_wetblb_045.txt.gz
Wetbulb
51.80 51.25 50.64 50.48 49.67 49.25 48.93 48.36 48.28 47.68 47.58 47.77 47.74 47.44 47.17 46.73 46.47 41.94 40.64 42.03 38.23 31.46 31.53 34.13 34.97 31.00 30.42 29.33 25.99 30.33 33.88 35.99 36.89 33.10 31.57 30.92 28.42 29.83 28.24 30.18 29.85 28.79 26.44 25.43 27.74 26.71 21.37 39.48 39.14 34.97 38.98 40.09 39.94 40.50
51.95 51.62 50.81 50.50 49.71 49.40 48.76 48.40 48.19 48.10 47.70 47.27 47.24 46.99 46.94 46.25 46.38 44.84 39.90 43.27 42.60 36.55 32.11 36.67 37.50 37.68 36.47 34.66 30.44 30.26 30.12 31.81 35.29 33.98 34.95 35.00 31.40 29.51 28.79 25.43 31.33 28.11 31.32 29.10 29.52 28.77 35.95 39.95 39.23 40.75 41.88 41.38 39.94 39.70
51.95 51.69 50.86 50.47 49.45 49.27 49.18 49.10 49.02 48.87 48.45 47.25 47.61 47.56 46.95 47.24 47.16 45.13 42.32 42.14 39.90 35.81 30.77 30.54 31.16 36.10 39.45 38.70 39.42 28.68 32.18 35.46 33.95 34.38 32.76 33.69 33.80 34.64 27.63 28.64 30.33 32.85 35.64 32.07 32.61 34.15 36.21 38.53 40.65 40.88 41.07 40.86 42.19 41.89
51.60 51.51 50.93 50.00 49.50 49.21 48.98 49.15 49.53 49.31 47.73 47.21 47.06 46.85 47.15 46.76 46.34 45.26 40.02 40.04 39.60 35.48 27.52 28.42 37.45 35.05 38.69 39.13 38.53 38.24 36.03 36.67 35.49 33.84 29.86 29.83 30.87 37.01 33.31 33.63 31.43 34.62 35.88 33.30 32.56 35.26 37.44 38.69 40.06 41.04 41.17 41.14 41.00 41.31
51.25 51.08 50.49 49.49 49.16 49.30 49.44 49.35 48.39 47.54 46.88 46.68 46.83 47.02 47.24 46.58 45.62 41.77 39.37 39.43 41.72 35.29 28.31 29.36 34.53 35.63 36.83 37.17 36.59 37.19 35.74 33.81 31.47 29.01 26.69 26.95 32.01 32.59 32.41 33.74 32.42 36.34 35.13 32.51 31.64 36.83 36.80 37.61 40.48 41.66 40.69 40.81 40.80 39.89
50.74 50.52 49.79 49.88 49.56 49.45 49.18 47.99 47.90 46.80 46.24 46.43 46.71 46.68 45.89 44.62 43.69 38.89 33.57 37.85 40.02 39.06 30.24 25.03 34.26 31.97 33.62 36.12 34.36 34.22 34.34 32.98 31.50 29.29 27.59 29.27 32.74 29.47 25.24 27.03 35.24 38.97 39.65 40.82 37.12 40.35 39.66 39.94 40.34 41.30 40.46 39.61 39.45 38.78
50.24 49.70 49.91 49.67 49.14 49.13 48.01 47.79 47.00 46.32 46.49 46.52 46.31 45.38 44.37 44.94 38.88 34.01 32.80 37.28 41.78 38.75 31.14 23.64 26.39 33.94 35.91 34.95 33.25 32.40 33.40 32.98 31.20 28.67 27.61 26.23 27.00 31.78 29.21 24.12 32.14 36.57 39.10 39.42 41.60 41.01 39.10 39.23 38.02 37.79 38.44 38.28 39.43 37.64
49.84 49.90 49.65 49.18 49.20 48.43 47.53 47.02 46.74 46.11 46.16 45.94 44.37 42.79 44.36 44.73 42.27 36.48 38.12 42.29 41.16 36.25 30.79 19.95 22.96 28.51 35.47 31.80 29.20 32.46 28.84 30.04 29.36 27.80 28.03 25.96 26.77 25.96 21.73 26.94 31.20 34.98 39.53 38.98 37.63 38.08 38.59 37.53 36.80 36.74 37.25 37.41 36.33 36.36
49.70 49.55 49.39 49.07 48.74 47.80 46.96 46.51 46.07 45.74 45.77 44.39 42.25 44.07 40.12 36.00 32.79 36.13 42.69 42.46 40.96 36.20 28.94 26.64 24.08 22.47 36.84 33.55 35.20 31.10 30.68 25.05 29.26 25.66 26.26 27.26 25.39 23.17 26.90 28.30 29.85 33.77 36.91 37.27 38.42 36.84 35.82 35.62 36.00 36.11 35.79 34.92 33.89 34.77
49.13 49.30 49.08 48.65 48.23 47.04 46.58 46.25 45.60 45.71 45.61 43.59 37.33 33.81 29.86 33.67 41.13 40.74 38.62 35.55 32.77 33.26 32.96 26.54 32.04 27.67 34.57 33.71 33.49 29.82 30.42 24.80 18.71 25.32 29.17 26.66 24.51 31.36 31.69 33.70 37.81 35.94 36.42 37.26 34.87 32.21 31.13 30.25 33.79 33.19 32.80 34.31 34.82 35.02
49.18 49.17 48.55 47.85 47.25 46.95 46.43 45.83 45.45 45.11 42.97 36.10 31.28 29.62 34.32 41.47 35.81 33.95 29.63 26.92 31.53 25.54 30.94 29.82 31.63 29.64 34.78 29.46 30.19 33.66 27.86 28.67 17.67 26.56 26.30 27.65 31.62 32.87 34.48 35.23 36.09 37.91 37.59 36.02 34.79 35.04 34.98 35.27 33.84 33.50 35.03 36.32 36.64 36.34
49.13 48.94 48.07 47.44 47.09 46.71 46.24 45.33 44.78 39.18 35.62 35.82 34.08 36.74 35.34 34.54 31.21 20.67 17.51 28.34 26.72 26.00 31.99 31.09 31.14 32.22 33.34 36.60 32.79 32.84 30.57 31.42 23.50 32.28 29.59 29.92 33.20 33.31 33.07 32.83 33.21 34.56 36.41 36.09 36.40 35.05 34.58 35.63 35.76 35.32 35.03 35.23 35.60 35.83
48.97 48.52 47.85 47.46 47.24 46.85 45.98 45.11 43.28 42.00 40.20 36.03 30.36 23.38 25.11 21.86 17.13 12.88 11.65 17.06 17.59 25.69 26.40 27.48 27.12 31.58 33.39 35.10 33.41 32.25 29.60 30.08 35.05 31.09 30.39 31.89 32.23 31.76 32.97 33.29 33.39 35.02 36.21 35.63 34.88 34.75 34.36 32.92 32.66 31.83 31.32 32.00 32.51 33.61
48.69 48.07 47.66 47.41 47.52 46.89 45.61 43.99 42.25 39.83 33.66 24.16 15.09 14.50 15.67 13.19 15.10 18.36 19.09 17.10 25.69 24.15 25.85 28.71 26.53 28.21 32.18 30.77 33.67 29.49 34.23 33.59 27.46 28.01 28.44 31.36 30.94 30.64 32.12 33.63 33.08 32.85 34.11 33.59 33.45 33.44 32.75 31.88 31.09 31.11 30.31 29.30 28.59 28.31
47.89 47.66 47.45 47.17 47.18 46.33 44.74 42.75 41.72 36.40 28.02 19.20 18.11 13.52 13.87 22.53 17.28 18.30 26.94 21.18 23.89 26.28 25.40 25.01 29.26 31.04 28.00 28.56 31.76 31.30 30.07 27.32 28.84 26.78 31.60 32.61 32.42 31.75 31.62 32.14 31.67 31.17 31.41 31.73 31.51 31.50 30.78 29.70 29.06 28.91 29.29 28.98 28.21 27.66
47.66 47.11 44.63 47.63 46.79 44.89 43.06 40.56 36.19 32.81 23.11 18.51 15.69 15.56 21.69 15.55 13.91 17.18 14.15 17.71 24.21 27.62 24.28 27.89 25.33 27.61 26.67 28.88 27.25 28.29 28.83 23.85 28.60 32.12 32.85 32.76 31.62 32.13 31.74 30.99 30.14 28.76 28.73 29.98 30.40 30.59 29.64 28.12 26.94 26.67 27.07 25.77 26.88 27.73
45.89 40.86 47.21 46.71 45.14 43.57 42.14 33.13 28.20 20.01 16.56 13.52 15.24 24.41 19.92 14.68 17.78 18.76 25.39 25.44 29.40 23.97 16.82 23.62 21.90 18.93 24.72 24.09 24.85 30.25 26.35 29.96 33.43 33.91 33.35 32.41 30.25 30.47 29.10 29.35 28.58 27.30 27.94 29.26 29.99 29.87 29.25 29.02 27.05 24.16 23.11 23.88 24.66 26.93
40.18 45.69 46.31 44.40 41.97 39.98 32.16 27.91 22.18 16.52 15.84 13.21 17.25 18.68 25.98 25.14 22.73 24.99 25.83 27.60 25.59 22.08 21.46 15.45 23.06 22.46 19.32 18.44 23.27 30.99 31.35 32.28 31.03 31.53 31.14 32.34 32.32 30.26 29.76 28.94 28.19 27.89 29.41 29.38 28.92 28.93 28.54 25.67 25.06 23.78 22.08 22.07 22.80 23.09
44.03 44.67 45.26 44.19 40.94 32.69 27.08 27.40 24.56 19.28 17.31 17.17 20.01 21.47 22.84 24.47 26.25 26.17 26.30 27.08 27.54 28.63 28.02 25.75 22.53 21.41 19.84 22.27 22.99 23.40 29.17 29.95 29.60 30.35 31.46 32.01 31.14 30.21 30.64 30.52 28.73 27.32 27.84 27.89 26.41 25.81 25.21 24.42 22.84 22.43 22.04 23.28 22.99 23.24
45.63 45.48 44.05 43.10 40.20 28.00 20.29 22.67 25.35 15.71 13.26 18.75 16.40 14.87 18.65 20.28 22.60 21.63 22.80 25.94 28.51 26.68 23.83 22.15 21.35 23.20 23.77 24.45 23.45 24.98 27.62 27.94 27.13 25.70 26.56 28.73 30.14 27.08 29.24 29.74 29.32 29.05 27.92 25.71 25.20 26.97 23.94 23.07 22.90 22.11 21.52 23.10 22.88 21.96
41.76 41.69 42.03 39.25 33.87 30.70 31.16 26.99 22.02 18.10 12.65 14.94 12.03 13.75 13.12 13.72 12.98 11.15 19.93 24.68 25.28 23.52 20.53 23.46 23.77 24.75 26.36 26.57 26.56 26.41 25.78 25.62 24.10 24.70 26.16 27.23 28.10 26.15 25.98 28.61 28.79 26.61 24.99 24.32 23.69 23.54 25.94 21.79 20.76 20.98 21.04 22.01 22.63 22.93
39.38 41.10 35.97 36.36 31.74 29.32 29.66 29.45 27.30 18.58 15.02 13.91 11.83 10.47 5.07 5.90 6.91 16.38 19.64 20.08 21.14 18.84 21.12 20.59 20.31 22.81 24.68 23.82 22.15 21.21 23.28 23.34 23.72 24.23 27.09 26.95 24.99 22.03 23.31 24.94 24.93 25.87 25.44 24.47 22.45 21.62 20.74 20.76 20.59 20.77 20.34 21.51 23.73 22.87
39.22 36.12 32.39 32.14 28.26 26.69 20.43 23.95 23.46 22.69 13.39 9.82 6.71 7.63 6.87 5.57 6.09 12.77 11.42 10.94 14.71 19.68 23.92 22.78 21.38 18.54 20.67 21.30 19.71 21.01 19.94 19.73 21.97 22.91 23.82 24.02 25.42 25.25 24.70 23.57 24.32 24.20 24.33 24.21 21.74 20.27 17.70 23.67 22.35 21.73 20.93 21.47 21.86 21.48
37.18 27.98 25.18 26.58 24.42 20.24 20.31 10.69 20.51 14.85 17.44 10.96 6.65 5.85 5.94 5.60 6.89 5.79 8.88 10.84 18.73 22.61 23.07 20.15 17.57 19.63 18.92 18.55 17.94 21.53 20.97 18.33 18.63 19.95 21.88 20.69 23.72 25.57 24.04 23.89 24.86 24.15 24.80 22.64 21.23 21.08 19.90 21.10 23.65 20.82 20.33 15.68 16.01 16.40
25.65 24.44 26.07 22.81 24.19 17.30 10.19 12.20 9.11 16.55 7.63 5.23 5.38 6.23 6.88 4.94 4.43 0.45 8.63 15.88 13.94 19.82 24.53 19.79 19.62 19.60 18.16 16.99 18.06 20.61 22.15 20.77 17.03 18.37 20.07 21.30 23.06 23.35 20.96 19.40 21.24 22.13 20.82 17.88 16.45 16.15 16.44 17.26 17.21 16.47 15.33 14.20 14.20 11.22
21.41 23.41 22.10 19.51 16.79 20.78 15.71 7.17 7.13 7.14 6.47 4.41 6.84 6.41 2.49 4.88 7.36 8.70 11.12 15.42 17.67 22.78 20.01 22.52 22.24 18.24 18.21 20.33 19.49 19.44 22.68 20.95 16.23 14.97 18.68 22.65 24.21 23.53 21.55 20.43 21.91 22.92 20.22 22.65 18.51 16.43 15.97 16.03 16.26 16.04 15.42 16.41 22.72 16.31
19.71 17.62 24.37 26.15 21.51 19.73 15.09 13.75 14.30 9.35 2.01 5.76 6.15 5.46 6.51 6.22 6.51 13.13 17.04 18.52 21.27 23.10 22.22 22.78 21.27 20.09 20.58 20.77 20.84 22.34 22.79 18.20 20.27 20.89 17.66 19.35 22.22 24.14 24.93 23.81 23.58 25.01 20.29 20.30 19.75 17.59 17.41 17.02 16.83 16.61 15.48 10.98 11.95 11.99
19.40 18.14 17.14 19.96 14.82 13.35 10.80 8.45 6.07 7.19 9.83 15.54 16.63 7.99 7.58 8.88 11.80 16.94 20.52 21.79 22.48 20.45 19.10 19.89 19.86 19.74 20.40 22.29 22.90 21.89 17.35 12.21 11.17 9.98 14.24 19.65 22.06 22.96 23.68 24.68 25.91 27.65 21.85 19.81 19.13 17.29 17.31 17.24 16.53 16.69 15.07 14.13 13.09 13.05
23.04 18.28 18.42 17.03 8.80 8.88 12.72 13.44 12.33 16.54 20.54 19.38 15.11 13.77 13.75 17.81 17.69 22.24 28.08 26.23 12.38 12.43 14.40 19.05 21.00 20.31 20.73 21.29 20.63 19.48 15.64 11.95 12.53 14.54 14.83 18.97 21.82 23.06 20.53 22.24 22.41 23.14 22.75 20.36 26.46 23.10 18.23 16.36 17.01 15.88 15.31 15.05 13.71 10.01
20.94 17.01 11.40 5.82 10.00 11.61 14.74 19.13 16.96 13.03 17.90 20.41 20.09 17.22 19.95 20.49 21.41 21.88 18.87 14.73 14.10 21.71 25.36 25.71 26.26 25.72 24.56 24.73 24.37 23.03 14.79 17.47 19.02 19.91 19.70 20.23 20.74 16.86 14.70 13.58 15.69 16.03 17.78 18.51 17.40 13.18 24.20 17.32 15.49 12.72 14.13 11.18 10.12 7.60
17.13 10.88 9.77 9.85 10.53 10.78 12.47 12.25 9.44 19.08 10.28 7.70 7.87 15.23 21.39 24.39 26.59 27.51 24.83 26.30 26.29 25.89 24.58 24.61 25.38 25.78 22.85 22.87 22.37 21.48 21.32 15.18 18.12 18.83 19.84 12.72 11.37 11.65 12.49 12.85 13.29 14.66 15.19 14.57 13.25 11.01 9.68 8.41 8.25 4.51 2.96 1.82 3.09 10.83
10.85 11.67 10.30 6.18 8.19 7.26 2.41 5.64 2.88 2.97 2.57 2.03 10.20 2.60 4.24 5.16 8.19 22.95 15.59 18.30 22.30 22.91 25.76 25.92 23.08 23.93 15.16 14.81 16.02 18.33 27.55 16.51 10.17 10.74 10.06 8.95 8.47 9.09 10.94 11.10 11.39 13.01 12.73 11.54 10.25 8.35 6.11 4.47 3.81 3.70 3.39 1.79 3.18 3.65
11.19 10.56 1.27 3.26 5.15 5.04 4.29 5.13 3.08 2.88 -0.10 0.82 6.77 8.97 10.59 11.93 12.66 16.86 7.71 2.22 10.43 10.12 4.75 2.91 2.09 1.77 2.39 2.35 3.68 5.47 12.80 3.10 6.94 18.73 20.15 19.99 19.52 14.31 6.02 6.61 9.24 9.02 8.71 7.00 4.00 4.29 2.87 2.47 2.25 2.77 3.33 3.65 3.34 2.92

GFSWCAN_sfc_wetblb_048.txt.gz
Wetbulb
51.80 51.57 51.27 50.50 49.82 49.90 49.53 48.86 48.67 47.91 47.54 47.67 47.46 46.99 46.74 46.46 46.26 40.49 38.53 41.43 36.50 30.61 30.08 33.32 34.04 29.79 30.61 28.92 25.75 29.80 32.46 34.62 36.18 32.07 32.02 29.16 27.66 28.31 26.60 28.84 28.80 28.39 26.92 26.50 27.62 25.21 20.68 36.14 37.29 33.21 37.04 38.78 39.45 38.56
51.76 51.61 51.39 51.12 50.04 49.87 49.29 48.91 48.49 48.28 47.92 47.41 47.52 47.52 47.39 47.34 47.22 43.58 38.42 43.34 42.36 33.00 31.53 35.74 36.19 36.10 36.02 34.64 30.39 30.15 29.29 32.02 34.69 33.68 34.23 34.59 31.10 28.96 27.43 24.40 29.46 27.91 30.32 27.93 29.38 29.16 35.06 36.98 38.33 40.43 41.04 40.53 39.68 39.41
51.56 51.62 51.51 51.08 50.11 49.85 49.37 49.20 48.86 48.84 48.82 47.40 47.32 46.86 47.12 47.01 46.96 43.88 41.53 37.96 39.20 33.44 29.31 29.49 29.68 34.88 38.52 37.97 38.19 28.66 32.56 34.23 32.92 34.08 31.74 32.87 32.54 35.85 28.18 27.61 28.34 31.38 33.40 31.03 31.14 33.65 34.92 37.65 38.92 40.18 40.64 40.53 41.56 40.41
51.27 51.46 51.36 51.00 50.21 49.67 49.35 49.13 49.29 49.37 47.88 47.01 46.74 46.92 47.31 47.31 45.96 44.02 36.75 38.10 39.91 35.06 23.35 27.85 36.33 34.32 38.68 38.75 38.46 37.76 36.18 36.34 34.93 33.33 29.47 28.51 29.33 35.98 33.17 32.95 31.44 33.34 34.43 32.11 31.19 33.57 35.45 37.44 38.81 40.72 40.47 40.40 40.23 40.34
51.13 51.22 51.23 50.70 50.23 49.58 49.45 49.64 48.83 47.75 46.96 46.57 46.68 47.01 46.77 46.10 45.12 39.75 37.17 37.51 39.02 30.51 25.23 28.24 33.91 35.97 36.90 37.24 36.79 37.24 36.05 34.02 32.23 29.38 27.51 25.93 30.05 30.09 30.30 31.33 29.05 35.08 34.23 32.54 31.58 36.04 36.02 36.90 38.63 40.53 39.90 39.58 39.99 40.13
51.06 51.05 50.54 49.93 49.75 49.70 49.55 48.57 47.78 46.93 46.57 46.46 46.39 46.23 45.25 44.92 43.39 37.54 31.25 35.75 38.51 36.82 27.34 22.30 33.97 33.10 33.93 36.19 34.64 34.38 34.66 33.02 31.39 28.80 27.33 29.02 31.37 28.81 21.62 23.95 30.86 35.44 37.70 38.14 35.53 38.82 40.10 38.67 38.91 39.85 40.00 39.77 38.76 38.53
50.77 50.41 49.66 49.88 50.01 49.22 48.40 47.89 47.10 46.78 46.26 45.87 45.57 44.19 45.17 44.60 36.67 32.47 30.67 34.67 40.71 36.77 27.43 20.66 24.24 33.48 35.22 33.94 32.60 31.79 32.60 31.70 30.79 28.63 27.93 26.35 26.26 28.74 25.99 23.06 29.36 31.05 32.50 35.42 38.79 38.84 38.56 39.49 38.05 38.32 38.33 37.94 39.47 37.47
50.06 49.58 49.71 49.53 49.58 48.40 47.84 47.24 46.85 46.22 45.65 45.04 43.42 44.35 44.81 44.35 40.67 34.10 37.06 42.18 40.47 33.37 28.87 18.62 22.71 27.93 35.06 31.51 29.62 32.19 29.07 30.01 29.68 28.07 28.01 26.45 27.05 25.82 21.38 26.20 28.00 29.59 31.01 33.03 36.47 38.28 38.10 38.25 35.95 36.22 36.83 36.95 35.74 35.52
49.07 49.40 49.27 49.46 48.86 47.75 47.27 46.66 46.12 45.70 44.82 43.59 44.48 44.59 38.25 34.48 30.89 33.21 42.46 41.88 40.63 34.23 22.07 20.98 21.43 21.32 36.59 32.11 34.64 31.82 30.73 25.19 29.27 25.75 26.40 26.80 24.59 21.89 27.33 27.85 28.21 29.90 29.55 34.91 35.59 36.85 38.08 37.18 36.55 36.21 35.65 35.09 34.09 34.12
49.03 49.03 49.09 48.95 48.07 47.37 46.82 46.24 45.79 45.67 44.14 43.38 36.88 32.43 28.62 32.48 40.92 40.93 38.81 34.68 32.91 32.96 28.24 18.93 26.29 22.15 33.23 31.63 31.52 29.14 29.01 24.17 14.95 25.20 28.08 25.38 23.38 30.19 31.70 33.78 32.96 35.59 36.04 34.17 32.76 33.64 34.32 33.14 34.31 34.40 33.69 34.37 34.46 34.35
48.97 48.78 48.74 48.13 47.36 47.19 46.51 45.84 45.37 44.79 42.18 34.42 30.21 27.50 32.95 40.36 36.01 34.40 29.79 25.85 30.16 23.06 29.15 23.93 26.90 28.27 32.80 29.11 29.21 33.45 25.60 26.55 17.82 22.14 24.68 21.85 27.86 34.74 34.32 33.52 34.02 37.34 37.56 37.36 36.96 35.67 35.41 35.65 34.19 34.17 35.58 36.51 36.00 35.97
48.76 48.41 47.90 47.22 47.15 46.87 45.86 45.17 44.36 37.35 34.03 34.69 33.47 35.52 33.69 31.65 29.63 16.62 18.00 25.69 23.59 20.28 29.29 30.08 28.50 29.66 31.59 34.65 32.91 32.42 29.97 30.76 22.74 30.61 26.08 26.88 32.71 32.84 33.06 33.52 34.31 34.25 36.03 36.35 36.45 35.33 35.35 35.94 36.10 35.82 35.16 35.20 35.21 35.61
48.55 47.76 47.26 47.13 47.17 46.21 45.14 43.67 42.82 42.24 39.75 34.35 29.08 21.53 24.35 19.58 15.03 10.72 8.77 14.76 15.13 21.41 22.50 24.09 23.94 26.96 31.90 32.77 32.46 32.17 28.70 28.67 33.02 28.65 29.71 29.91 32.89 32.93 32.49 32.65 33.21 34.25 36.03 34.98 34.54 35.19 34.37 32.31 32.52 31.96 30.92 29.81 30.91 31.59
48.14 47.38 47.05 47.24 47.01 45.75 44.52 43.25 42.95 40.01 32.25 23.93 15.57 13.44 16.17 10.76 12.44 15.80 16.02 14.79 23.07 22.12 22.95 26.80 27.66 24.27 28.42 27.06 32.03 28.64 31.44 33.42 28.23 22.96 23.19 31.57 32.63 32.35 32.82 33.86 33.70 33.08 33.89 33.79 32.38 32.63 32.70 31.42 30.38 30.35 29.39 28.67 28.17 27.23
47.73 47.12 47.08 47.03 46.52 45.12 43.93 42.92 41.91 35.03 27.01 20.21 18.49 14.62 12.15 20.31 14.19 14.57 26.54 21.61 21.88 24.18 24.20 24.57 28.57 29.23 26.39 24.52 29.52 30.35 29.43 25.38 26.39 24.16 27.87 32.34 33.45 32.28 32.20 32.85 32.00 31.77 32.34 32.41 32.55 31.74 31.15 30.17 29.16 28.88 28.47 27.95 27.88 27.21
47.42 46.77 44.16 46.98 45.76 44.27 43.04 39.83 35.18 31.20 22.53 18.63 15.88 15.45 19.60 14.47 11.97 21.10 19.03 19.12 22.44 25.74 22.89 26.37 26.32 25.12 24.61 26.82 24.02 24.53 24.21 21.69 25.07 30.39 34.12 33.61 33.07 32.77 32.23 33.13 31.42 28.29 29.47 30.63 31.19 30.91 30.10 28.35 26.48 25.46 25.37 24.53 26.22 26.97
45.68 41.00 46.86 46.20 44.73 43.33 40.89 31.77 28.51 20.80 18.62 15.88 16.95 23.27 18.18 15.91 17.72 18.83 24.24 24.83 27.61 23.49 16.42 15.84 11.04 15.15 23.91 22.21 20.94 24.37 22.27 25.30 27.69 32.49 31.66 31.26 30.82 31.58 31.71 30.36 28.94 27.87 28.67 29.97 30.95 30.81 29.62 29.58 28.44 24.27 22.29 22.59 24.22 26.01
40.95 45.96 45.95 44.85 41.06 37.65 31.10 27.79 22.08 17.42 17.92 14.78 19.68 17.98 24.91 24.20 21.55 24.19 25.04 26.54 25.30 21.87 20.09 12.97 24.39 20.21 17.65 17.12 18.00 30.65 31.26 30.90 31.55 30.12 30.89 30.95 29.57 29.83 30.77 30.18 30.56 27.95 29.97 30.62 29.75 28.60 27.67 27.74 25.69 25.04 23.74 21.95 21.30 21.77
44.85 44.79 44.80 43.86 39.81 31.68 26.81 27.13 25.96 18.76 17.88 18.20 20.06 20.06 22.04 23.67 24.98 25.10 25.57 26.51 26.71 26.39 22.64 21.66 21.95 18.97 17.80 20.23 18.45 14.37 21.67 26.03 26.66 27.77 27.90 27.64 28.04 28.65 29.52 30.40 31.10 28.47 29.03 28.82 27.83 26.43 25.85 25.92 24.64 23.46 22.34 23.05 22.74 22.34
45.63 45.22 44.42 42.25 38.89 28.40 22.02 25.80 25.50 19.79 15.33 18.81 17.25 16.57 17.26 19.07 21.00 20.20 22.15 25.67 28.62 26.52 23.52 21.69 19.72 21.96 22.39 22.07 21.98 22.61 23.15 24.60 23.43 22.90 23.60 23.79 25.06 24.06 26.02 26.60 29.22 30.18 28.76 28.24 28.07 29.32 25.75 23.53 23.24 22.56 21.75 22.14 22.54 21.61
42.04 41.85 41.59 37.52 31.41 30.72 27.32 26.97 25.37 18.21 13.52 15.79 11.76 13.40 12.19 10.97 10.11 14.50 11.17 19.61 22.61 23.53 16.91 22.90 24.44 24.33 25.17 25.23 24.94 25.30 24.66 23.40 21.49 21.55 21.68 22.16 24.10 23.54 25.53 25.22 24.80 27.74 28.37 28.38 27.00 26.25 27.71 24.20 22.43 22.42 22.19 22.33 22.83 22.91
39.61 41.08 35.86 34.71 28.14 29.85 25.76 28.75 24.95 20.24 15.04 14.38 13.37 11.41 3.79 6.40 4.65 6.85 14.70 21.37 21.71 17.49 21.06 21.06 19.88 22.15 23.82 22.95 22.39 20.66 22.94 22.51 22.19 22.50 26.84 25.93 22.81 20.77 21.86 23.34 21.59 23.92 24.78 26.93 26.66 25.90 24.69 22.87 22.12 21.70 21.46 22.04 23.88 22.93
38.59 35.47 31.98 27.13 23.27 22.31 20.00 25.92 22.95 23.74 14.29 10.51 7.08 7.27 6.43 2.78 5.12 15.57 12.82 10.49 14.95 18.88 22.75 21.41 19.98 19.76 21.65 22.94 20.10 20.70 19.62 18.45 20.51 21.83 22.71 23.07 23.53 23.76 22.86 23.85 23.93 23.36 24.92 25.34 22.83 23.29 22.15 24.46 22.60 22.68 20.92 21.98 21.43 21.36
36.14 27.40 24.10 26.08 19.75 18.25 21.06 15.20 23.06 20.60 18.24 10.82 6.59 7.93 5.46 2.07 9.51 5.11 8.79 10.59 17.64 19.42 18.94 19.02 19.48 18.91 19.52 20.27 20.03 20.69 20.21 18.34 18.82 19.52 20.74 19.84 19.08 22.90 23.93 24.15 23.99 23.62 24.80 24.23 21.19 21.63 20.97 21.28 24.35 21.82 20.65 15.41 15.55 16.14
24.15 22.57 21.89 18.14 19.99 14.80 13.77 15.52 15.83 17.63 7.73 2.07 4.51 6.94 4.91 4.41 3.38 -0.67 7.14 18.05 12.11 16.03 20.59 20.08 18.65 21.03 21.63 19.75 19.27 20.19 19.94 19.56 18.91 20.10 22.69 19.43 17.57 18.51 21.69 20.80 22.55 22.89 22.50 19.34 19.57 19.07 19.22 16.56 15.91 16.67 14.92 13.99 14.09 12.83
18.28 20.34 17.62 17.89 16.62 16.97 16.27 10.61 11.75 6.98 4.35 1.52 9.18 4.17 -0.74 2.23 9.02 7.59 10.34 11.76 15.41 14.75 17.48 19.53 21.69 21.59 21.48 21.96 21.21 20.60 23.27 20.52 18.39 17.95 21.66 19.91 19.66 18.55 16.46 18.79 21.58 25.05 20.53 22.33 19.68 18.88 18.37 16.90 16.34 15.06 14.46 16.02 23.00 18.98
15.60 16.20 24.51 26.26 22.43 19.56 15.86 12.83 13.30 7.72 0.12 6.44 5.15 3.00 2.01 1.62 4.57 11.59 15.39 14.49 16.12 17.06 16.98 20.06 22.56 23.51 24.31 24.06 22.59 23.15 23.03 16.91 20.18 21.84 20.03 18.53 20.19 20.96 21.29 22.16 22.04 24.27 20.09 21.12 20.74 20.21 19.48 18.33 16.47 15.99 15.76 12.06 13.35 14.11
21.10 20.59 18.34 19.45 15.78 11.48 9.51 7.35 5.53 6.79 9.63 12.69 11.54 4.48 6.17 7.98 11.88 15.69 16.81 18.22 19.42 16.43 17.39 20.28 22.81 24.99 24.37 24.95 26.67 26.87 20.76 11.37 8.50 8.92 14.08 18.97 19.57 21.24 21.19 22.50 24.26 27.57 26.55 21.48 20.81 19.87 19.45 18.94 18.00 17.41 14.86 14.28 13.24 10.13
19.46 17.74 18.42 16.47 8.10 8.69 11.23 12.38 10.95 14.55 18.80 15.94 12.06 11.10 12.55 15.88 15.13 15.18 23.31 20.03 16.78 10.72 16.29 24.04 26.39 21.15 19.26 20.63 22.10 23.68 20.89 13.71 10.69 11.09 13.24 18.55 17.38 16.92 15.60 17.44 18.68 17.66 19.77 21.92 27.70 25.57 19.63 18.56 18.31 18.13 17.26 14.96 13.20 7.24
19.30 17.15 10.37 8.38 9.43 11.45 14.38 16.99 13.29 11.77 15.96 19.04 18.60 17.53 19.97 22.62 26.78 23.12 22.51 24.19 11.87 19.55 24.20 25.26 26.23 23.31 24.37 24.37 24.43 23.61 15.28 16.99 17.97 19.32 16.91 19.13 19.33 13.21 8.11 8.72 9.00 11.20 12.79 15.33 15.80 14.36 26.67 19.18 19.39 15.32 13.88 11.99 10.41 8.89
15.20 9.41 7.37 7.24 8.49 8.76 11.13 8.51 7.76 18.48 10.28 8.84 7.68 15.58 21.33 23.70 26.15 27.16 26.64 26.64 25.71 25.66 24.52 23.63 23.88 23.08 22.03 22.39 22.36 20.72 20.92 13.88 16.41 17.50 19.21 18.21 9.11 7.61 7.83 8.16 7.26 6.99 9.91 11.63 12.63 12.29 13.34 13.41 11.73 9.57 7.81 6.67 6.86 12.32
14.07 9.46 12.74 11.09 8.13 6.66 0.70 2.44 -0.49 0.75 1.57 -0.74 9.51 0.47 4.52 4.81 8.06 16.97 14.21 10.18 12.63 19.10 24.23 24.00 20.09 22.11 6.49 4.51 4.72 7.21 21.89 11.72 9.58 13.41 12.31 11.77 10.43 7.95 6.49 5.09 4.26 5.71 7.89 9.30 10.82 10.51 9.50 9.20 7.34 6.44 6.23 4.67 2.98 2.70
9.21 6.86 1.82 2.73 4.44 4.53 3.14 3.71 2.12 2.10 -0.80 -1.43 4.21 2.97 2.62 7.75 10.30 14.80 5.35 0.52 5.34 6.08 3.81 2.40 1.62 1.74 2.76 1.40 2.27 3.58 10.81 1.26 3.98 19.02 20.66 20.95 19.93 13.43 3.58 2.17 3.95 5.26 6.01 5.49 6.07 6.89 3.74 2.80 2.65 3.27 3.35 1.81 0.72 -0.07

GFSWCAN_sfc_wetblb_051.txt.gz
Wetbulb
52.11 51.84 51.43 50.90 50.15 49.88 49.94 49.46 48.95 48.06 48.09 47.52 47.16 47.15 47.02 47.17 47.07 39.80 37.14 41.18 33.88 29.77 29.13 32.56 32.91 28.09 28.67 26.97 23.88 28.51 32.40 32.85 35.17 32.38 30.78 30.00 27.35 27.23 24.88 27.47 27.60 27.60 25.68 26.02 27.88 27.03 21.38 34.60 35.69 31.61 35.06 37.97 38.89 38.75
51.71 51.50 51.30 50.81 50.50 50.24 49.56 49.22 48.92 48.31 48.19 47.49 47.56 47.48 47.13 47.13 47.19 42.19 37.63 42.61 42.24 31.22 29.96 34.63 35.33 35.33 34.04 33.09 29.11 28.85 30.06 32.34 33.18 32.65 33.14 33.62 31.83 28.24 25.40 23.43 27.88 27.04 29.35 27.22 28.51 29.03 35.27 34.97 37.43 39.32 40.01 39.59 38.98 38.83
51.37 51.31 51.40 50.76 50.69 50.25 49.58 49.26 48.91 48.87 48.72 47.53 47.04 46.87 47.08 47.01 46.66 43.16 36.77 37.01 39.05 33.99 28.23 28.96 29.35 33.39 37.06 36.33 36.59 27.36 31.48 34.01 32.60 34.05 31.23 32.19 30.16 35.18 29.02 27.07 26.83 29.48 31.87 30.18 30.21 32.81 33.85 35.93 37.60 39.37 39.96 40.16 40.25 41.00
50.86 51.17 51.26 50.88 50.69 50.46 49.91 49.46 49.32 49.54 48.23 47.16 46.95 47.02 47.14 46.51 45.77 42.75 35.85 38.29 39.49 33.48 23.19 27.11 35.35 32.44 36.62 37.79 37.49 36.51 34.80 35.46 34.26 31.87 30.04 28.38 27.99 33.55 32.02 31.40 32.34 34.25 34.39 31.88 30.27 33.47 34.14 36.31 37.51 38.49 40.51 40.88 40.32 39.61
50.59 50.98 51.08 50.67 50.51 50.35 50.03 49.55 49.50 48.19 47.25 46.89 46.99 46.73 45.89 45.45 43.94 38.85 36.26 36.21 37.15 29.37 24.39 26.84 31.75 34.00 35.40 36.59 36.22 36.31 35.34 33.09 31.31 28.71 27.12 26.45 28.98 29.11 28.83 29.58 28.74 33.16 31.64 30.24 30.40 35.28 33.13 34.73 36.91 38.75 39.23 39.70 40.14 39.72
50.66 50.85 50.77 50.42 50.26 49.98 50.17 49.57 48.18 47.23 46.86 46.63 46.11 45.02 45.24 45.16 42.10 36.46 30.78 35.08 37.71 35.37 23.76 20.55 30.92 30.72 32.52 35.16 33.95 34.26 34.47 32.99 31.60 29.15 27.23 27.58 30.31 29.41 22.36 22.35 29.21 30.97 34.39 34.92 32.15 36.48 35.85 37.34 39.40 38.55 38.35 39.42 39.48 39.45
50.52 50.59 50.51 50.06 49.84 50.13 49.73 48.53 47.45 46.98 46.59 45.79 45.02 45.73 44.82 43.43 36.24 31.77 30.99 35.98 40.67 35.41 25.56 18.78 20.96 30.96 33.75 33.48 32.23 31.73 32.64 31.37 29.41 27.38 27.43 26.08 25.87 26.90 25.51 22.43 27.77 28.94 29.40 29.77 31.88 32.02 31.62 38.08 36.76 38.54 38.85 37.85 39.64 36.98
50.36 50.35 49.88 49.47 49.92 49.59 48.92 47.63 47.14 46.54 45.89 44.93 45.50 44.99 44.77 44.11 40.29 33.38 36.40 41.62 40.77 31.47 25.44 14.48 19.40 24.95 33.97 29.66 29.31 32.25 29.62 29.73 30.32 28.82 28.17 26.57 27.19 25.80 21.78 26.07 28.26 29.28 29.56 29.43 30.28 32.94 34.73 36.67 37.94 37.16 36.72 36.21 35.40 35.12
49.84 49.23 49.16 49.71 49.32 48.91 48.10 47.21 46.35 45.67 44.49 45.26 45.51 44.25 37.13 33.21 29.78 32.27 42.12 41.99 39.33 33.87 18.71 17.16 18.91 18.69 33.16 30.37 33.62 30.98 29.69 24.94 28.65 25.65 26.21 26.72 24.66 22.08 27.26 29.32 30.48 32.45 32.00 30.33 34.20 33.49 35.19 36.44 37.62 37.47 36.75 35.16 33.59 33.93
48.72 48.77 49.18 49.04 48.69 48.09 47.59 46.35 45.64 44.59 45.26 44.68 36.31 32.04 27.71 31.56 40.06 39.97 35.91 33.90 33.18 32.72 25.06 17.80 26.16 22.44 27.99 29.44 28.07 29.15 29.42 25.83 18.59 25.66 28.33 25.22 24.08 29.94 33.85 35.70 34.40 33.77 35.85 35.61 32.23 32.65 33.64 32.67 35.51 35.69 35.13 35.33 34.65 34.01
48.53 48.66 48.74 48.37 47.82 47.37 46.97 46.25 45.22 45.01 41.27 33.82 30.36 27.53 31.84 39.87 34.39 33.89 30.38 26.22 26.31 20.97 30.08 27.87 28.40 24.88 30.85 28.44 29.10 32.43 27.19 26.68 20.90 23.71 24.23 22.83 27.04 33.30 34.52 33.15 35.31 35.25 35.47 36.69 37.04 35.64 34.45 35.28 34.75 34.98 35.65 35.64 35.49 34.96
48.47 48.46 48.11 47.60 47.32 47.09 46.55 45.94 45.61 37.12 34.52 34.12 33.42 34.48 32.33 27.88 22.37 16.94 13.94 21.39 20.76 18.38 27.46 28.99 29.16 28.04 28.56 33.67 32.00 33.00 27.75 29.52 22.49 28.55 25.74 25.72 30.22 34.11 33.47 32.72 33.85 33.82 34.86 36.28 36.08 34.18 33.73 33.95 34.90 35.86 35.38 34.48 34.42 34.65
48.36 48.07 47.43 47.34 47.14 46.20 45.73 45.68 43.14 41.76 38.41 32.02 29.23 21.42 23.87 18.46 14.47 9.98 7.95 12.14 13.88 19.99 21.71 23.69 20.19 25.24 30.58 32.03 31.04 31.33 27.37 27.43 32.11 26.99 27.24 29.19 32.50 33.60 33.34 32.88 33.10 34.72 34.62 35.22 34.52 34.68 34.33 33.36 32.03 31.25 29.37 29.15 30.37 29.90
47.90 47.14 47.09 46.95 46.35 44.61 43.79 43.38 42.95 38.66 31.27 23.77 18.37 15.11 14.71 10.22 12.01 14.51 15.82 15.60 21.45 26.14 21.89 26.16 22.03 25.97 26.86 25.57 29.91 26.94 30.64 32.71 25.41 21.40 23.00 25.65 32.24 33.40 33.50 33.92 32.53 32.26 33.20 33.14 32.15 32.23 32.39 31.39 30.26 30.36 29.95 29.15 28.46 27.59
46.91 46.86 46.86 46.19 45.51 44.41 43.84 43.41 40.82 33.60 27.18 21.84 20.28 14.03 11.49 18.12 19.61 20.81 22.36 23.49 21.71 24.08 24.53 23.92 21.88 27.73 27.81 26.05 26.68 28.50 26.90 15.59 23.37 22.03 25.67 28.94 31.40 33.30 32.19 33.19 31.85 30.16 30.32 31.58 32.28 31.23 30.54 29.92 28.72 28.24 27.13 26.63 28.20 27.50
46.86 46.40 43.67 46.09 45.13 44.08 43.06 38.76 34.09 29.99 22.00 19.68 15.35 14.62 19.86 14.74 9.50 22.43 22.76 18.87 22.14 25.03 23.67 23.65 17.11 21.65 24.36 25.44 23.85 22.49 14.04 11.94 18.05 21.72 25.67 29.51 31.44 31.95 30.87 31.99 32.27 31.07 27.62 31.00 31.59 31.48 31.12 30.26 28.31 27.28 26.01 24.98 26.48 27.32
45.21 41.77 46.01 45.63 44.22 42.05 39.97 31.39 28.73 19.67 19.64 15.39 15.33 23.27 17.79 14.78 16.09 17.93 24.04 24.93 26.81 23.03 16.34 15.99 11.76 15.56 23.39 20.56 20.79 25.39 16.01 18.20 19.13 25.04 26.24 28.83 28.32 29.98 30.09 30.01 30.55 30.56 27.79 29.07 30.36 31.26 30.38 30.32 28.88 27.92 24.19 23.81 24.31 25.68
41.83 45.05 45.52 43.76 39.63 36.70 31.07 27.61 21.90 19.05 16.77 14.03 18.27 17.99 24.51 23.18 21.43 23.89 24.70 25.93 24.82 21.77 20.16 13.30 20.73 20.18 15.14 12.04 13.72 19.74 25.89 28.24 29.29 27.31 27.86 28.55 27.79 26.83 27.54 27.95 29.70 30.82 28.35 29.02 30.21 29.93 28.37 27.41 27.17 26.15 25.74 24.09 23.58 22.73
44.48 44.29 44.28 43.07 38.88 31.74 28.10 27.65 25.78 18.76 17.52 18.46 19.72 19.98 21.94 23.78 24.55 24.59 25.28 26.20 26.17 25.78 21.64 16.71 19.68 18.06 16.68 18.99 17.48 12.78 19.44 25.00 23.58 25.05 25.37 24.94 24.44 24.06 26.24 26.65 27.16 27.46 28.69 29.04 29.00 29.36 28.92 26.83 26.64 24.94 23.40 23.00 23.41 23.23
45.26 44.57 43.05 41.48 37.99 28.78 24.33 24.44 25.62 21.88 16.82 20.02 18.22 15.77 16.63 18.11 19.77 19.65 21.80 25.18 26.80 20.24 20.32 21.57 19.38 20.82 21.36 21.10 20.97 21.78 22.30 24.06 22.26 20.30 21.63 22.72 22.07 19.67 23.91 24.62 25.68 25.33 27.36 27.84 28.82 30.75 28.23 27.01 24.64 23.49 22.98 22.46 23.04 23.21
42.00 41.20 40.26 36.23 31.36 29.00 25.70 25.42 22.56 16.57 18.68 17.61 13.57 15.53 12.54 11.45 9.98 17.02 10.87 19.21 25.61 18.02 17.86 22.15 22.67 24.82 24.97 24.35 24.49 25.53 26.18 25.09 22.70 20.79 20.36 19.18 22.92 20.85 23.95 24.02 21.71 24.04 26.23 27.73 27.40 28.62 31.14 28.16 27.28 23.50 22.80 22.95 22.38 22.91
39.50 40.84 33.85 32.81 27.47 23.96 23.65 24.88 20.85 21.07 18.63 16.09 12.55 17.33 5.93 8.04 3.85 13.58 12.97 19.88 18.11 19.33 20.86 19.86 20.19 23.20 22.98 22.40 22.71 20.82 23.85 23.40 22.31 22.03 26.15 25.18 21.52 20.63 22.48 22.72 20.75 22.72 22.70 24.36 25.70 26.37 27.66 28.32 26.31 23.31 22.09 22.42 24.03 22.73
38.26 35.25 30.91 26.47 22.11 19.00 19.61 26.15 21.81 23.14 15.43 10.50 10.75 8.65 6.79 3.67 6.34 17.01 14.73 11.36 16.58 18.68 19.41 18.63 19.49 18.23 21.39 22.58 18.30 20.39 20.80 21.69 21.80 22.09 22.07 21.96 21.96 21.51 20.88 21.55 21.02 19.62 22.69 25.00 24.63 25.00 24.87 27.06 25.05 23.93 21.64 22.46 21.37 21.06
35.66 28.31 24.56 22.50 18.48 14.62 21.93 15.58 23.06 20.45 19.05 13.80 12.27 10.82 6.19 1.19 11.04 7.53 9.11 12.42 16.53 17.97 17.48 17.36 15.79 18.67 17.77 16.59 17.71 24.15 25.40 23.42 23.83 21.44 21.39 19.69 17.82 20.79 21.22 22.35 23.14 22.11 23.07 24.42 22.39 23.29 23.49 23.59 25.33 22.12 21.19 18.53 17.06 17.05
23.73 19.81 19.15 20.81 19.58 14.75 12.88 16.41 16.78 17.25 14.77 4.97 11.71 9.78 4.42 4.55 2.98 1.18 7.84 13.01 8.82 14.51 16.65 17.11 15.35 17.67 19.88 22.42 23.82 23.02 22.69 23.08 22.71 23.02 23.74 20.11 17.90 16.31 20.59 20.52 21.98 23.17 20.89 15.74 19.14 20.35 22.08 20.45 19.70 20.13 17.56 15.72 14.15 11.91
14.02 19.69 15.70 15.95 18.03 15.84 14.90 11.90 14.20 12.55 6.96 1.29 8.12 1.94 -1.63 0.96 9.21 7.60 9.05 10.51 13.98 15.23 15.67 16.09 18.04 16.82 18.07 22.30 23.34 23.87 24.59 22.31 20.28 20.06 23.23 20.54 19.52 18.72 19.32 19.06 20.47 22.91 20.10 20.46 16.85 17.33 19.16 18.73 17.71 17.43 17.47 18.46 23.76 18.32
12.77 17.87 23.87 25.35 22.17 19.09 16.26 13.52 13.41 8.07 1.98 8.55 3.97 2.47 1.34 1.31 3.00 10.56 14.00 13.34 14.82 16.70 17.47 18.22 18.94 18.75 20.18 23.46 23.91 26.53 27.79 23.22 23.62 23.32 18.56 17.26 18.92 20.79 21.16 21.50 21.23 23.28 18.73 18.24 18.72 18.64 19.80 19.78 17.80 17.34 17.07 13.51 15.06 14.90
20.22 20.25 19.11 21.52 15.90 13.57 12.00 8.31 6.86 7.31 9.23 11.50 10.43 3.55 4.78 7.14 10.97 15.25 16.48 16.47 18.59 20.89 19.09 19.66 19.54 21.53 23.84 26.08 28.06 27.40 27.52 20.77 11.36 9.42 10.76 15.75 17.72 20.09 19.89 20.64 22.12 26.01 24.75 20.04 19.67 20.19 19.51 19.34 19.08 18.26 15.90 16.26 16.49 12.12
19.30 19.95 20.23 17.20 10.18 11.46 11.99 12.30 11.52 14.11 17.86 13.60 11.03 9.21 10.89 14.67 14.24 14.11 23.25 19.87 18.71 13.08 17.63 23.48 26.97 24.50 19.47 20.64 21.44 22.14 21.08 14.61 14.85 17.77 17.16 15.37 12.10 19.75 14.66 16.51 14.90 11.83 14.17 15.52 24.50 26.46 19.98 17.88 17.01 16.64 15.87 16.27 16.06 9.18
16.84 16.29 12.52 10.32 12.11 13.80 13.84 15.63 11.44 9.25 13.81 16.65 16.84 15.89 18.60 22.10 27.62 23.63 20.05 26.42 23.18 20.05 22.59 24.07 24.99 21.17 22.33 22.52 22.69 22.06 15.80 18.10 19.44 19.65 19.20 18.75 18.09 13.81 7.30 7.80 8.19 7.87 6.67 7.64 10.93 12.14 23.68 18.89 17.12 10.13 8.84 8.03 9.76 9.88
14.99 10.35 6.80 6.20 7.39 8.04 7.77 5.47 5.21 16.87 10.71 7.42 6.96 15.20 20.89 20.19 22.03 26.48 24.22 25.55 25.29 24.71 21.91 21.79 21.24 14.84 16.12 19.32 17.91 18.37 19.88 13.84 15.15 16.52 17.79 13.44 8.83 8.42 8.49 8.87 9.54 5.14 4.40 5.95 6.75 7.54 8.81 8.11 7.13 6.43 6.77 5.28 5.41 10.80
15.25 7.68 14.14 14.27 10.66 5.79 1.43 1.14 -2.60 -1.43 -0.29 -1.41 5.98 -0.06 3.20 3.98 7.11 16.57 7.96 8.13 7.74 8.13 14.10 9.20 10.18 13.38 5.14 5.72 5.42 5.16 15.59 12.00 10.40 10.18 9.52 10.63 11.32 12.25 9.16 6.17 1.68 2.45 3.82 4.59 4.38 4.44 4.16 4.90 5.05 6.45 6.43 5.19 3.98 1.87
6.53 5.75 1.15 2.93 4.32 3.90 2.31 2.60 1.84 2.11 -1.15 -3.52 1.47 0.60 -0.48 6.50 10.11 12.83 2.51 -1.06 3.57 4.85 6.66 10.47 11.11 11.37 10.19 8.26 7.95 8.88 12.60 9.84 7.77 19.05 23.35 23.91 22.81 15.37 2.70 0.43 2.30 3.94 5.02 3.45 1.74 0.74 0.61 0.81 1.93 2.17 3.41 1.50 -0.38 0.51

GFSWCAN_sfc_wetblb_057.txt.gz
Wetbulb
53.85 52.80 51.91 51.62 51.29 51.12 51.07 50.35 48.94 48.52 48.10 47.63 47.17 47.38 47.36 46.28 44.53 38.78 37.91 37.14 31.26 27.74 28.21 30.91 31.13 25.89 27.15 25.22 22.15 25.08 30.53 32.45 34.81 32.15 30.20 29.68 27.63 25.55 23.25 24.70 25.19 26.62 24.72 24.75 26.50 24.12 20.66 33.23 34.15 30.94 33.59 36.93 37.92 38.29
53.25 52.16 51.55 51.25 50.97 51.05 51.13 50.00 49.00 48.41 48.03 47.67 47.52 47.41 47.20 46.45 44.89 41.29 34.21 38.40 36.16 30.65 29.74 32.76 32.81 32.78 32.43 31.78 27.63 25.90 30.00 32.85 31.62 32.87 32.13 33.44 30.84 31.27 24.27 22.14 26.78 25.64 28.30 26.27 27.70 27.34 33.12 33.75 33.86 34.88 35.48 34.60 36.31 36.83
52.52 51.63 51.35 50.94 50.88 51.15 50.74 49.97 48.98 48.46 48.14 48.00 47.71 47.32 47.15 46.01 45.08 40.94 34.63 35.16 32.66 29.26 27.81 29.09 28.03 32.11 35.05 33.90 34.72 25.92 28.15 32.39 32.61 32.46 31.48 32.16 30.72 33.54 27.92 29.29 25.65 28.34 30.40 29.43 30.03 31.51 31.58 33.54 34.93 33.80 32.06 31.82 35.77 38.34
51.60 51.19 50.88 50.65 50.80 50.85 50.36 49.83 49.21 48.61 48.21 47.86 47.60 47.65 47.09 45.40 44.14 40.66 35.08 35.24 32.89 28.88 25.16 26.82 33.83 30.45 34.54 35.85 35.78 34.01 32.97 32.92 31.29 28.63 28.15 27.35 27.32 29.28 30.24 28.14 27.56 30.31 31.68 28.63 28.77 31.20 31.33 32.83 32.37 32.14 32.58 33.03 36.12 37.82
50.97 50.83 50.47 50.41 50.60 50.34 50.03 49.69 49.54 48.91 48.17 47.57 47.51 47.31 46.14 45.00 43.47 38.37 35.67 34.74 34.62 30.48 25.73 26.39 29.47 31.62 32.59 34.04 33.99 34.75 33.53 30.51 27.40 23.48 22.07 24.86 28.48 28.23 27.94 26.22 25.12 29.00 27.14 25.84 24.99 29.42 29.87 29.73 32.15 33.01 31.20 31.28 35.79 34.69
50.81 50.32 50.14 50.18 50.17 50.03 49.83 49.70 49.65 48.52 48.08 47.39 47.14 46.51 45.29 44.04 41.10 34.66 30.17 34.43 35.93 32.52 26.34 21.87 29.03 27.88 31.45 32.31 31.88 31.76 32.26 29.97 27.75 26.85 24.59 26.88 29.31 28.06 24.35 23.50 27.39 27.59 28.31 28.80 28.20 31.37 32.34 32.42 32.27 32.04 30.13 33.51 35.00 35.38
50.35 50.01 49.86 49.86 49.84 49.70 49.61 49.66 49.51 48.38 47.22 47.30 46.23 45.53 44.67 42.98 36.70 31.66 30.08 33.98 38.18 32.66 26.57 17.64 19.06 28.90 30.35 30.38 29.19 28.86 29.40 28.35 27.26 26.15 27.15 25.93 26.06 28.37 27.10 22.82 28.22 29.52 33.09 34.26 34.45 33.29 30.58 32.18 33.05 35.52 35.41 35.38 36.52 36.35
49.89 49.59 49.57 49.53 49.54 49.52 49.49 49.44 48.39 47.71 47.09 46.11 45.99 44.58 44.09 43.34 39.20 33.12 36.76 40.38 35.17 28.05 24.36 11.78 13.90 22.58 31.26 27.82 29.99 31.20 27.22 27.32 27.00 26.42 26.62 25.82 26.87 26.04 22.48 26.77 30.23 33.26 33.78 33.77 33.54 34.19 33.50 36.01 36.56 35.70 36.47 35.83 34.47 35.11
49.20 49.20 49.34 49.31 49.38 49.46 49.06 48.24 47.74 47.01 45.99 46.04 45.05 44.16 35.75 31.55 29.32 31.67 41.92 38.72 33.86 29.47 18.26 16.71 16.14 10.36 28.49 27.43 33.38 31.33 27.89 24.27 27.69 24.84 25.13 26.94 24.84 22.02 28.33 30.12 31.33 32.99 31.97 32.56 33.57 33.84 34.21 33.89 34.25 33.75 34.30 34.61 34.84 36.19
48.87 48.85 48.99 49.02 49.04 48.74 48.17 47.74 47.30 46.66 46.23 45.38 37.23 31.91 29.58 31.65 40.68 40.89 32.59 28.56 26.79 26.48 25.11 19.45 26.93 16.21 23.90 23.76 24.94 28.06 26.75 23.57 14.25 24.95 27.35 25.53 24.19 29.12 29.83 31.32 33.58 33.31 33.55 33.20 29.99 29.74 31.67 32.12 31.64 30.60 32.25 34.94 35.63 36.05
48.50 48.53 48.71 48.61 48.39 47.88 47.52 47.36 46.82 46.11 44.08 34.88 30.88 30.31 34.04 39.28 31.91 27.96 20.58 20.65 22.05 17.71 23.22 23.01 21.96 19.27 27.85 21.10 23.02 29.00 27.28 20.03 9.95 20.32 22.49 19.20 22.31 27.89 31.15 31.31 32.07 32.22 33.36 33.26 33.34 33.51 33.52 33.63 31.54 31.03 32.83 33.99 33.38 33.11
48.37 48.34 48.30 48.27 47.83 47.45 47.22 46.69 46.57 39.89 36.28 35.27 34.30 34.58 30.58 26.22 20.97 18.10 10.52 18.70 18.85 16.61 24.20 22.21 24.52 26.53 26.66 31.01 29.14 30.98 24.10 25.96 14.67 23.72 18.03 14.88 23.83 26.36 27.88 29.91 30.81 30.72 31.67 32.48 33.00 32.76 32.56 32.67 33.30 31.32 31.15 30.33 30.40 31.75
48.05 48.07 48.04 47.74 47.43 47.18 46.58 46.58 43.87 41.50 38.90 33.45 30.17 24.33 23.51 18.76 14.64 12.96 11.61 11.73 12.76 18.85 22.81 20.77 16.83 24.34 27.01 31.21 26.46 27.71 24.03 21.53 27.79 23.98 18.47 20.09 25.24 29.50 28.73 28.29 29.03 30.49 31.40 31.84 31.79 31.96 32.38 31.52 32.50 30.96 29.42 28.28 28.69 29.00
47.75 47.63 47.40 47.10 46.78 46.30 46.23 44.62 42.68 38.39 32.29 27.41 23.08 15.79 14.93 13.34 13.33 13.95 16.23 16.34 20.97 24.27 24.50 24.22 18.45 24.06 27.83 26.10 27.57 22.86 24.82 29.69 23.48 14.36 13.28 15.46 21.46 27.18 28.33 29.37 28.86 27.30 28.72 28.68 28.76 29.23 30.32 30.27 29.34 30.29 29.29 27.23 26.81 27.98
47.33 46.99 46.55 45.94 45.85 45.88 45.08 43.17 39.65 33.33 29.39 23.56 23.29 15.58 14.53 19.96 19.59 17.23 18.94 20.46 25.81 27.62 24.80 22.56 19.67 23.21 17.77 22.13 27.21 23.63 19.79 21.54 16.31 14.22 15.08 18.75 20.40 24.14 24.99 26.15 26.14 25.54 25.10 25.20 26.94 27.65 27.83 29.47 29.75 29.15 29.68 28.31 26.74 27.51
46.68 45.87 44.27 46.01 45.88 45.65 43.93 39.00 33.99 30.47 25.01 22.26 18.52 19.08 22.58 18.56 18.90 23.68 20.89 17.89 22.58 25.07 26.06 21.47 14.78 12.77 15.68 18.98 20.07 16.44 14.34 10.81 16.17 14.60 19.82 25.95 23.15 23.60 23.33 24.65 25.02 25.24 25.01 26.46 27.48 27.10 30.47 29.54 29.69 29.43 29.46 28.56 26.14 26.41
45.05 42.22 45.64 46.04 45.05 42.00 40.66 32.21 29.41 22.11 22.09 20.59 18.42 25.30 20.82 19.60 19.22 19.90 23.39 24.17 25.97 24.23 17.42 15.98 10.73 13.71 21.02 19.71 18.93 22.81 19.67 17.40 17.51 23.59 27.83 28.29 23.60 23.73 23.85 23.71 24.53 24.80 25.24 25.59 26.05 29.87 30.26 31.13 28.80 28.52 27.75 28.37 27.45 26.84
40.88 43.74 45.15 43.18 39.81 37.19 31.05 28.87 25.25 23.27 19.18 18.75 23.40 20.90 24.09 22.89 22.68 22.93 24.15 25.63 25.47 23.03 20.34 14.38 16.15 10.29 10.23 7.74 11.49 16.99 18.96 17.96 25.02 28.88 28.51 27.80 24.95 24.09 24.24 22.69 24.18 24.27 22.94 22.22 23.46 24.20 27.28 28.45 28.09 28.16 28.40 27.62 26.22 25.25
42.11 42.62 42.80 42.11 37.61 31.84 28.23 26.74 26.65 21.04 21.40 22.50 22.62 22.02 23.10 24.41 24.40 24.66 25.36 26.13 26.09 25.65 21.11 16.41 12.54 10.16 15.99 17.04 15.04 12.21 12.53 16.28 20.24 22.89 23.25 24.01 23.94 23.13 22.50 21.56 21.60 20.48 19.11 18.86 22.20 23.57 25.42 27.06 29.03 29.34 28.71 27.50 25.78 25.34
43.96 43.11 42.67 40.11 36.72 29.10 25.25 24.28 27.09 23.60 19.29 21.33 21.18 17.74 18.35 19.05 19.83 20.06 22.21 25.12 24.03 14.14 15.26 15.01 17.08 19.09 19.84 20.24 20.10 20.21 20.66 21.59 21.01 21.16 23.26 23.86 22.21 17.15 20.33 21.38 21.59 20.79 19.27 17.64 20.26 26.92 24.59 27.99 26.59 27.78 27.48 27.05 25.05 24.13
40.54 39.24 38.71 34.79 30.01 28.74 26.04 21.87 21.30 19.79 19.57 17.82 13.54 14.70 13.07 14.30 18.99 20.94 13.73 20.43 15.04 12.50 13.18 19.46 20.19 22.53 23.11 22.36 22.50 23.43 23.25 22.89 22.12 21.70 22.80 23.07 23.45 19.07 22.04 23.65 17.83 19.81 19.87 21.55 20.63 22.47 23.55 23.08 26.26 27.18 27.68 28.14 26.85 25.71
37.53 39.00 32.46 32.53 27.25 25.21 24.22 25.50 20.99 21.34 17.46 15.68 12.59 12.80 7.62 7.59 10.49 16.93 17.36 22.37 13.00 17.08 18.66 18.28 17.55 19.02 21.52 21.40 20.41 19.33 21.82 21.96 21.91 22.14 26.66 26.58 23.85 20.30 22.86 22.82 20.97 22.44 19.90 18.28 19.13 20.24 21.97 23.66 25.81 26.49 26.98 27.97 28.65 25.60
37.62 33.70 28.49 27.85 23.40 21.74 20.77 23.28 18.91 16.03 14.62 11.78 9.21 9.83 5.63 2.66 6.10 14.88 16.40 16.58 15.79 17.24 18.24 17.89 15.78 15.07 17.97 18.26 15.66 17.66 17.32 18.24 19.09 20.57 21.95 22.18 22.84 22.40 21.70 23.17 23.37 18.95 19.08 22.29 19.27 19.10 19.78 25.36 25.53 26.15 26.15 26.62 26.09 24.73
34.18 26.52 22.90 21.58 22.21 18.85 21.32 18.51 20.75 16.42 11.97 11.90 9.56 8.72 5.00 0.94 7.72 8.72 8.40 10.94 15.27 16.06 14.52 12.47 12.42 14.94 15.00 14.37 14.20 18.13 19.47 17.48 17.61 17.78 20.01 18.90 18.94 21.49 22.35 22.53 22.58 22.57 22.53 22.01 21.40 20.80 18.10 21.29 25.07 23.99 24.13 21.77 22.58 23.00
25.20 21.47 21.24 16.53 18.55 18.25 16.78 13.85 14.54 12.09 9.51 10.31 12.13 6.49 3.31 4.15 2.42 8.94 4.86 10.36 5.79 11.42 13.43 12.99 12.12 14.75 16.73 17.76 17.50 19.31 19.30 17.48 17.43 20.35 22.23 20.22 21.60 18.82 19.51 21.52 22.75 23.06 23.23 17.54 18.47 19.72 18.71 16.28 18.53 18.60 19.12 19.74 20.46 20.18
17.10 19.49 17.32 15.75 16.91 18.32 15.38 12.37 9.81 10.06 7.60 6.17 8.11 0.32 -2.52 2.19 7.44 4.85 7.87 9.57 11.36 11.10 13.09 15.02 17.52 16.55 17.52 18.55 20.53 22.37 24.55 18.53 16.35 16.79 23.34 19.25 20.97 21.89 22.05 20.81 21.22 23.00 22.05 21.90 19.31 18.69 19.23 17.75 17.97 17.48 18.22 19.42 24.47 24.17
15.52 16.94 22.51 24.15 20.36 17.68 14.52 12.87 12.98 10.55 6.06 9.49 3.42 1.03 1.59 2.87 2.03 10.36 12.61 11.24 12.96 14.45 15.08 15.08 17.21 17.74 19.62 23.37 23.71 23.39 22.31 14.09 17.71 23.20 25.68 17.91 20.18 21.50 22.33 20.00 19.12 22.76 20.30 17.91 17.82 17.74 18.83 18.49 17.35 17.41 18.13 17.58 17.92 18.36
19.90 20.33 16.48 14.24 13.19 11.02 10.14 8.14 7.42 7.33 9.20 10.19 10.27 4.21 5.66 7.42 10.98 13.94 14.98 14.52 15.74 11.14 8.45 10.66 13.79 16.14 17.92 20.00 21.24 21.88 21.22 18.78 13.67 15.00 15.21 15.36 15.87 18.57 17.84 20.19 21.72 25.86 24.36 19.64 16.15 13.91 15.80 17.43 17.38 16.63 16.07 17.01 18.08 15.44
16.35 19.39 18.77 15.19 15.71 12.12 9.43 11.57 12.05 12.49 16.42 11.99 10.52 8.02 9.29 12.95 11.61 9.75 15.97 12.45 4.24 6.05 12.30 18.10 17.37 8.76 11.80 12.46 14.35 16.68 16.66 16.69 13.52 15.40 14.58 16.15 15.08 13.75 8.73 8.53 10.20 10.99 9.27 11.00 22.34 22.65 15.31 14.51 16.88 17.28 17.22 17.33 13.47 8.77
16.46 17.50 14.76 12.10 11.63 11.28 11.21 11.19 7.59 5.08 11.64 14.52 15.16 12.99 13.73 14.64 15.34 12.43 12.70 11.91 10.54 10.46 8.98 6.61 5.19 3.66 8.34 7.83 11.48 12.67 13.87 14.86 13.59 15.07 13.75 13.17 12.98 11.67 14.62 11.53 12.26 8.12 3.61 6.59 5.82 5.60 20.24 15.13 14.47 11.58 13.43 13.76 7.63 6.75
13.27 8.54 7.81 6.67 7.54 4.17 2.56 2.49 1.78 14.85 5.40 0.71 2.30 8.51 13.52 9.22 12.84 6.14 1.89 -0.54 -1.08 0.04 5.60 8.26 10.14 0.16 2.51 5.21 2.35 4.63 7.99 6.27 8.26 9.99 11.26 14.19 13.62 12.99 12.92 13.70 9.43 5.69 3.12 3.64 3.98 4.14 3.77 5.06 5.13 7.33 15.30 15.50 7.80 6.76
11.40 5.34 11.25 11.26 6.39 1.26 -1.95 -2.26 -3.92 5.27 -3.91 -1.99 0.44 -5.71 1.88 2.34 4.77 8.13 3.69 -1.99 1.84 5.48 10.17 3.96 3.61 9.75 4.30 4.29 4.01 4.70 14.39 11.34 10.00 9.93 8.75 11.49 13.20 13.72 13.16 9.46 1.67 0.90 1.89 3.02 1.98 1.62 0.99 0.51 1.44 3.37 5.68 4.34 2.68 1.81
8.79 -0.57 0.17 8.45 8.35 4.60 1.08 0.75 -1.22 -1.63 -3.64 -4.33 -2.54 -4.25 -5.96 1.43 7.39 9.51 1.77 -2.76 4.39 5.01 5.32 5.48 6.38 7.62 7.06 5.11 4.34 3.79 10.57 6.82 8.16 18.73 20.48 23.98 25.98 22.64 10.83 9.38 3.84 2.46 2.91 1.78 -0.89 -1.32 -1.62 -2.39 -2.64 -3.49 -3.73 -3.44 -3.55 -3.27

GFSWCAN_sfc_wetblb_060.txt.gz
Wetbulb
46.61 47.95 51.58 52.52 51.80 51.66 51.58 50.64 50.01 48.80 48.29 48.18 48.09 47.59 46.33 45.63 44.49 42.57 39.76 40.85 38.94 33.80 33.57 34.45 34.13 31.88 31.63 31.91 32.32 31.15 34.41 36.05 36.25 35.17 35.22 34.35 33.43 32.58 32.21 32.26 32.27 31.63 30.99 30.90 31.21 28.31 25.17 38.85 38.89 34.45 35.84 37.67 37.36 37.52
46.05 48.01 52.85 51.90 51.39 51.39 51.34 50.36 49.82 49.04 48.00 47.91 48.08 47.80 46.92 45.80 45.00 42.48 38.50 41.24 40.45 36.91 34.52 37.13 37.17 37.52 36.69 35.50 33.75 32.52 33.47 33.37 33.72 33.56 35.96 34.92 32.15 34.24 32.22 29.65 33.75 31.11 33.82 32.43 33.41 33.48 37.16 38.45 38.31 38.41 36.40 34.95 35.82 35.39
45.71 47.50 51.28 51.59 51.16 51.34 50.84 50.19 49.66 49.13 48.40 48.08 47.98 47.72 46.98 46.15 45.20 42.27 40.26 40.19 40.46 35.83 33.67 34.92 32.92 36.54 38.63 38.33 38.85 32.82 34.19 34.62 34.37 36.19 35.79 35.32 31.38 34.09 31.48 32.17 33.43 34.50 36.89 34.59 34.61 35.24 34.37 36.45 38.71 37.61 38.06 36.11 36.53 36.52
45.57 48.74 51.98 51.21 51.02 51.05 50.20 49.90 49.55 49.03 48.18 48.17 48.13 47.65 46.35 45.58 44.10 42.15 41.09 39.53 38.82 36.84 32.03 31.33 37.08 35.06 38.35 39.83 38.81 37.74 36.74 36.65 36.11 36.29 34.24 34.17 33.24 33.40 33.42 32.16 33.15 34.09 34.67 30.35 32.37 35.03 35.29 37.03 38.48 36.98 36.62 36.97 36.10 36.98
45.68 48.84 51.23 50.79 50.81 50.26 49.84 49.57 49.27 49.02 48.66 48.10 48.18 47.12 45.61 44.50 43.36 41.11 40.27 39.65 39.16 37.66 32.16 31.34 34.14 35.49 37.17 38.10 37.63 37.86 36.59 35.03 34.52 33.25 32.84 31.44 33.27 33.10 32.15 31.36 30.31 32.98 29.69 29.11 28.97 33.86 32.08 33.31 35.91 36.98 35.86 35.77 36.55 36.61
45.68 47.39 50.72 50.47 50.40 49.85 49.63 49.34 49.09 48.85 48.39 48.19 47.78 46.19 44.71 43.34 40.07 39.47 36.38 39.66 40.17 37.73 35.53 29.85 33.33 34.12 35.64 36.46 35.92 35.24 35.37 34.34 34.38 32.79 31.03 31.95 32.20 31.97 28.47 27.25 31.55 32.75 32.97 33.97 31.71 34.90 34.00 35.21 36.05 36.86 34.85 35.65 36.76 36.40
45.76 47.71 50.47 50.21 49.84 49.60 49.47 49.20 48.88 48.46 48.49 47.96 46.49 45.21 44.02 42.96 41.37 36.43 35.62 38.23 39.56 37.99 34.93 28.63 29.55 32.86 35.26 34.57 34.65 34.35 34.75 34.14 33.73 32.25 30.98 30.78 30.56 31.75 29.78 27.36 31.64 33.82 34.97 35.23 35.82 34.47 32.14 33.99 32.89 35.52 36.73 37.03 37.54 36.80
46.10 50.32 49.95 49.68 49.58 49.40 49.31 48.78 48.42 48.30 47.95 46.88 45.91 44.76 43.84 42.78 40.48 37.35 40.16 39.88 38.12 34.47 33.38 27.43 25.90 30.68 34.51 32.55 31.05 34.68 32.52 33.32 32.61 31.55 31.71 29.99 30.88 30.22 25.88 31.32 32.59 34.69 35.09 34.50 34.97 34.89 34.07 34.91 35.29 35.54 35.67 35.38 34.23 34.84
47.06 49.78 49.63 49.53 49.37 49.32 49.02 48.36 47.97 47.69 47.09 45.85 44.90 43.22 39.36 36.46 35.07 36.49 40.26 38.91 37.97 36.30 29.21 27.60 26.47 24.59 33.37 32.21 34.35 33.01 32.90 28.80 32.03 29.60 29.38 30.14 28.72 26.51 32.10 32.56 33.20 33.75 32.83 32.85 34.18 33.98 33.97 33.41 33.67 33.82 32.75 33.16 33.72 34.96
47.50 49.22 49.28 49.11 49.05 48.99 48.26 47.89 47.36 46.79 45.90 44.55 39.08 34.99 33.00 34.95 40.74 41.60 36.66 34.81 34.32 33.49 32.23 26.32 28.88 26.38 31.00 31.05 30.54 30.06 31.06 28.64 26.09 28.82 31.13 28.07 28.88 33.21 34.15 35.12 34.96 34.93 34.03 33.48 29.99 29.58 31.32 30.74 31.84 31.63 30.91 32.11 33.74 33.65
48.91 48.85 48.54 48.65 48.62 48.02 47.48 47.06 46.79 45.89 43.50 37.15 33.27 31.61 35.68 39.98 35.40 32.07 28.79 29.33 28.48 27.66 30.19 28.24 28.32 27.64 32.45 28.51 28.84 31.90 28.09 27.54 24.53 27.15 27.17 27.28 27.42 32.17 35.00 34.90 35.34 35.31 35.00 34.10 33.27 32.62 32.52 32.00 31.60 30.98 30.65 31.95 31.82 31.22
48.60 48.30 48.40 48.40 47.88 47.29 46.88 46.53 45.50 40.54 38.55 37.11 36.47 36.66 33.89 30.08 26.85 24.74 18.75 24.95 26.38 26.21 28.93 29.03 29.36 30.37 31.01 33.31 30.04 31.33 26.55 27.53 23.15 28.76 25.35 23.97 30.85 32.52 33.82 33.96 34.47 34.92 34.51 33.78 34.16 32.69 32.57 31.95 31.89 31.30 30.77 30.95 29.75 30.65
48.40 48.30 48.17 47.76 47.29 46.95 46.53 45.52 43.51 42.10 39.90 36.49 32.94 28.68 29.35 23.68 20.09 22.74 16.97 21.23 24.30 26.85 27.56 28.24 26.39 29.78 30.71 31.95 28.84 28.63 25.08 24.88 29.61 26.21 24.21 28.34 31.62 33.48 33.45 32.93 32.07 32.99 32.80 32.16 31.93 32.53 32.74 32.97 32.92 32.31 30.93 31.40 28.55 29.49
48.12 47.87 47.53 47.17 46.76 46.32 45.56 44.23 42.91 39.08 35.53 32.15 28.52 21.29 25.03 22.66 23.66 23.09 25.77 26.51 26.63 28.26 27.11 27.65 27.03 28.00 28.91 27.19 28.03 23.77 28.04 29.72 24.79 22.10 23.48 29.67 30.96 31.43 31.02 30.68 29.72 29.19 29.58 29.28 29.22 29.76 30.23 31.62 31.75 32.50 32.12 30.79 29.03 28.14
47.65 47.30 46.98 46.36 46.26 45.70 44.86 43.52 39.87 35.33 32.76 28.35 28.99 21.49 21.83 22.43 23.36 22.95 23.25 26.99 27.83 29.18 27.84 26.54 27.05 28.30 25.79 25.62 27.70 26.12 23.12 21.29 24.76 24.30 27.56 30.28 29.89 29.90 29.38 29.52 28.80 28.38 28.38 27.96 28.53 28.48 28.62 30.19 31.24 31.24 32.64 32.16 30.16 27.81
47.18 46.50 44.69 46.22 45.73 44.76 42.85 39.26 35.27 32.75 28.36 27.22 24.76 22.59 23.66 25.11 22.71 25.33 23.99 24.70 28.44 28.19 27.76 27.96 23.93 22.78 23.07 24.44 23.24 21.54 19.67 18.87 24.88 26.62 30.23 29.58 29.45 29.07 29.27 29.15 28.83 28.21 28.14 28.42 28.95 28.57 29.27 30.97 31.27 31.48 32.22 31.48 30.41 27.94
45.83 42.56 45.59 45.02 44.05 41.87 41.39 33.96 32.38 25.85 27.25 27.02 23.49 27.41 26.17 27.62 26.63 26.01 27.44 26.99 28.51 28.77 26.01 24.64 20.05 19.97 24.22 21.10 20.32 24.68 22.37 27.28 29.83 30.07 30.13 30.77 30.37 29.31 30.13 29.23 28.65 27.83 27.66 27.68 27.44 27.16 27.86 30.36 31.65 31.21 29.82 31.13 30.15 29.35
42.10 44.30 44.79 43.92 40.88 38.29 31.88 31.38 28.34 27.14 22.20 22.96 26.36 25.00 25.70 26.23 26.05 25.83 26.92 28.18 28.79 26.32 25.75 23.68 23.05 19.61 18.98 17.02 19.48 24.71 28.02 29.93 28.77 28.79 30.00 30.14 29.82 29.38 28.70 27.85 27.54 27.12 26.61 25.80 25.29 25.23 26.17 26.58 27.61 28.40 30.77 31.47 29.77 28.45
43.09 43.32 43.79 43.37 39.21 33.23 29.96 28.52 28.85 22.90 22.52 24.34 24.76 25.01 26.04 26.05 26.67 27.58 28.12 28.18 27.95 27.75 24.98 23.20 20.57 21.24 22.41 23.05 24.95 25.46 24.36 24.33 25.26 27.16 27.28 28.20 27.62 27.23 27.46 26.69 24.82 24.92 24.70 24.30 24.45 25.39 26.27 27.14 28.28 28.78 30.10 30.96 29.13 29.29
43.84 43.38 42.48 39.85 37.09 30.86 26.67 25.66 29.80 26.07 23.36 23.74 24.16 22.23 21.76 22.25 22.14 24.41 26.23 27.04 26.83 24.99 23.29 21.44 22.60 24.56 25.14 27.04 26.87 27.75 27.71 26.90 25.55 24.69 26.35 28.50 27.69 26.33 26.35 26.34 26.35 26.55 24.98 24.71 25.02 27.34 26.36 27.38 28.62 29.45 29.85 30.12 28.81 28.40
40.94 38.91 38.28 34.43 30.73 28.95 26.19 24.40 22.00 22.34 21.87 20.05 19.06 20.01 18.44 19.90 22.67 23.45 23.25 24.97 25.38 22.79 22.75 24.62 25.20 27.26 26.58 27.12 26.84 27.05 26.57 25.91 25.50 25.53 25.57 25.38 28.04 26.08 26.89 28.10 26.43 25.27 24.21 24.63 25.31 26.23 26.34 25.26 26.25 27.09 27.90 29.33 30.40 29.38
37.95 38.90 32.63 32.47 27.84 26.84 24.94 25.64 22.51 22.44 19.97 17.96 18.03 16.91 16.83 17.90 17.87 18.62 18.87 24.56 22.27 24.03 24.09 23.73 24.33 25.35 25.59 25.18 26.05 24.52 25.98 25.04 24.75 24.59 27.01 27.31 25.63 26.27 26.69 27.30 25.42 25.98 26.19 26.44 26.60 25.78 25.59 25.53 25.28 26.69 27.63 28.62 30.09 29.27
36.89 33.32 29.72 29.60 25.37 24.23 21.69 25.21 21.05 19.24 20.95 17.94 15.99 16.96 13.11 12.66 12.10 15.98 17.90 21.48 21.40 22.40 23.36 23.38 22.34 19.81 22.00 23.18 20.77 22.46 22.03 22.44 23.34 24.22 24.40 25.45 25.84 25.96 25.97 25.90 26.12 25.05 25.38 26.94 27.99 27.19 26.03 26.34 25.80 25.87 26.70 27.16 27.46 27.26
33.77 26.68 23.66 22.78 23.81 19.48 22.22 18.56 20.93 17.97 17.83 17.42 15.75 13.46 11.84 11.52 10.89 13.78 16.14 17.01 19.58 20.09 19.94 18.72 19.73 21.74 21.29 19.32 20.59 24.47 26.49 23.20 23.44 23.79 23.99 23.26 24.44 25.92 26.68 25.42 26.35 25.99 26.29 27.36 26.52 26.18 26.09 24.04 25.80 24.85 24.88 24.69 24.79 24.84
26.27 22.00 24.29 18.72 21.35 19.83 17.54 15.21 14.78 16.21 11.38 12.56 12.73 12.21 10.82 8.43 13.74 13.92 13.56 17.29 16.53 19.15 20.86 19.15 18.77 19.80 21.21 23.00 23.27 24.01 23.52 23.61 24.38 24.57 26.79 24.22 25.04 24.98 24.83 24.85 25.25 26.41 27.44 24.96 24.80 24.93 25.49 24.79 23.54 23.42 23.29 23.21 22.83 22.99
18.85 20.53 20.29 19.19 19.62 20.30 17.47 14.95 12.70 12.46 11.89 11.31 9.59 5.78 5.59 11.70 11.63 12.25 14.30 17.27 19.06 20.03 21.60 22.72 23.62 22.65 22.34 21.41 22.41 24.57 26.16 24.24 22.88 21.48 24.26 25.54 24.10 23.31 22.84 22.48 23.20 24.92 26.60 25.79 25.68 25.19 24.96 24.09 22.78 21.73 22.38 22.86 25.03 24.68
18.27 19.08 22.42 24.03 20.88 18.46 15.81 14.91 14.87 14.17 11.08 11.53 9.10 7.33 9.39 8.06 8.30 15.26 17.68 17.51 19.87 21.17 20.60 21.35 21.48 21.85 22.58 23.43 24.14 24.68 25.04 23.24 21.18 23.84 24.71 23.69 24.08 23.93 23.66 22.26 22.14 25.15 25.37 24.00 23.64 23.69 23.08 22.83 22.50 22.02 21.65 22.34 21.97 21.88
21.20 21.92 18.38 17.45 15.44 14.68 12.71 11.21 11.84 12.66 13.83 13.21 13.79 11.23 11.63 12.53 14.87 18.67 19.23 20.59 19.63 17.01 16.90 17.33 17.57 18.19 19.16 20.79 22.02 21.61 21.38 21.27 19.89 19.15 20.21 21.56 21.84 21.35 20.53 19.94 19.61 22.82 22.46 21.09 22.27 22.19 21.12 20.95 21.38 21.32 20.61 20.42 21.26 21.47
19.44 20.62 20.23 14.73 13.42 13.09 12.30 14.68 15.47 15.66 17.33 15.75 14.90 12.57 13.08 15.44 16.35 16.88 19.39 18.07 12.89 15.51 16.54 17.67 18.83 15.10 16.83 17.24 17.07 16.98 16.81 16.86 15.33 13.54 12.85 14.65 16.19 18.18 18.01 18.11 18.37 17.90 17.21 15.62 20.89 24.16 20.38 20.33 20.68 20.94 20.81 21.21 21.13 17.08
17.78 18.94 15.97 13.48 11.19 12.80 12.59 12.42 11.50 10.11 14.93 16.22 16.53 15.42 16.08 16.43 16.57 13.10 14.94 14.12 14.71 14.28 12.54 11.81 11.85 11.68 13.92 11.23 10.98 10.73 12.53 13.52 13.46 11.62 8.94 9.43 11.29 13.92 14.20 15.25 15.78 16.05 16.22 14.60 14.99 15.80 21.00 20.25 19.13 18.31 18.23 16.86 18.33 16.23
16.62 15.03 12.36 11.48 10.76 7.28 6.25 4.40 6.64 14.70 6.84 6.81 5.66 10.95 13.50 11.94 14.56 10.84 9.16 7.06 7.68 9.17 12.56 13.85 13.68 8.49 8.72 9.61 8.23 7.32 8.85 10.17 7.28 8.97 10.44 12.49 13.27 13.72 14.99 16.17 16.20 15.14 13.37 12.27 11.97 12.47 13.47 14.44 13.96 13.87 15.11 15.83 16.74 15.28
13.54 11.50 13.02 12.27 9.95 5.89 2.73 2.88 5.11 7.65 2.01 5.23 5.37 2.70 5.56 8.69 9.35 13.46 8.18 7.27 11.38 12.70 15.53 13.07 9.66 11.83 9.62 8.85 7.82 7.66 13.92 11.68 10.06 10.34 8.77 10.76 15.02 19.43 20.92 16.14 12.76 10.56 10.99 11.34 11.17 11.46 9.91 9.55 10.81 11.69 15.44 14.66 11.48 10.21
8.75 4.94 11.07 13.43 13.30 7.73 3.88 4.34 3.11 2.27 2.21 0.81 3.06 -0.47 -1.24 4.87 9.06 12.42 7.33 3.88 11.09 12.33 11.40 10.55 9.53 8.26 7.55 5.82 5.99 6.52 11.00 8.12 7.36 17.10 18.40 21.20 23.81 22.83 15.34 13.55 12.50 11.30 10.70 10.06 8.57 7.42 5.73 4.31 5.73 4.73 4.53 3.28 3.03 4.19

GFSWCAN_sfc_wetblb_063.txt.gz
Wetbulb
46.20 46.22 45.18 45.58 47.25 48.25 52.06 51.21 50.66 50.22 48.94 48.56 48.14 47.53 46.90 45.71 45.46 45.29 41.25 43.30 43.03 36.83 35.44 36.86 36.32 34.97 34.63 35.77 36.29 34.98 37.32 38.99 39.07 36.81 35.44 35.52 34.49 35.10 34.15 35.57 34.21 32.89 31.42 30.57 31.24 28.30 26.01 39.12 39.93 34.56 36.66 38.51 38.06 38.28
45.95 46.02 44.87 45.33 47.22 51.83 51.62 50.91 50.36 49.66 49.14 48.19 47.70 47.23 46.17 45.70 44.80 44.96 39.62 43.42 44.92 39.11 35.79 39.24 38.16 38.75 38.08 37.35 36.96 37.51 36.83 36.78 37.97 36.21 37.26 36.48 33.27 36.13 34.48 30.15 36.69 31.68 35.50 33.62 34.66 34.25 38.97 39.29 39.37 39.75 39.08 37.75 37.93 37.38
45.58 45.84 44.74 45.14 49.81 51.84 51.14 50.50 49.95 49.41 49.21 48.58 47.65 47.12 46.37 46.00 44.43 44.94 42.45 43.25 42.15 37.35 36.55 37.44 34.48 38.84 41.29 40.20 40.96 35.97 37.45 37.38 36.67 38.57 38.58 36.09 32.00 35.93 32.63 33.84 34.98 36.37 38.17 35.53 35.67 37.38 38.15 38.39 40.38 39.85 39.74 37.95 38.45 38.57
45.39 44.66 44.66 44.64 46.39 49.34 50.50 49.88 49.59 49.40 49.25 48.48 48.07 47.27 46.72 45.91 44.97 44.29 42.57 42.21 43.55 40.06 33.91 32.53 39.34 36.49 40.15 41.55 40.36 40.22 38.70 38.76 38.45 39.39 37.70 37.10 34.15 36.62 35.69 34.79 34.72 36.97 35.52 33.56 33.58 36.84 37.34 39.29 40.30 39.52 38.23 38.65 38.62 39.21
44.66 44.47 44.19 44.95 47.27 50.76 50.11 49.65 49.23 49.16 48.95 48.46 47.56 46.99 45.96 44.98 44.72 44.07 42.51 41.95 42.56 41.47 33.49 32.76 37.19 37.92 39.74 40.04 39.08 39.45 38.41 37.50 37.18 36.01 36.01 34.73 36.18 35.16 35.23 34.24 33.14 36.36 33.64 31.17 30.99 35.66 34.56 35.45 38.06 38.16 36.40 36.44 37.67 36.52
43.86 44.28 43.95 45.34 51.17 50.29 49.62 49.24 49.02 48.84 48.71 47.74 46.35 45.61 45.02 44.77 44.71 43.54 38.85 41.76 42.07 43.11 37.33 31.06 36.21 36.02 37.39 38.64 37.43 36.72 37.25 36.75 36.89 35.68 34.05 34.36 34.26 34.07 31.08 30.02 34.57 35.68 34.94 35.86 33.40 36.52 35.82 36.25 37.06 37.36 35.77 35.82 36.49 36.27
43.57 43.55 44.11 48.10 50.25 49.57 49.17 48.98 48.83 48.72 48.78 47.13 45.14 44.13 44.12 44.44 43.46 38.64 37.94 40.32 40.93 42.59 37.23 30.77 31.02 35.62 37.11 36.70 36.98 36.26 37.48 36.31 36.46 34.74 33.62 33.35 32.85 33.66 31.75 29.04 34.36 35.54 36.41 37.21 37.84 36.18 33.62 35.23 33.58 36.00 35.93 36.17 37.18 36.50
43.58 43.96 44.87 46.55 49.64 49.16 48.90 48.83 48.63 48.62 47.93 46.01 44.56 44.44 44.22 43.89 42.84 39.03 40.68 40.29 41.85 39.02 39.29 31.89 29.10 31.81 36.30 33.18 32.21 36.71 34.71 35.81 34.90 34.01 33.68 32.08 32.61 32.06 27.85 34.09 35.38 35.88 35.96 35.70 36.58 36.88 35.07 35.44 35.23 34.84 35.68 35.38 33.53 33.66
43.59 44.60 45.93 47.27 49.22 48.98 48.88 48.49 48.34 47.72 46.75 45.40 44.13 43.23 42.26 39.22 38.16 38.03 40.32 40.96 42.13 40.48 33.62 33.51 30.27 27.49 35.58 34.12 34.52 34.80 35.33 31.42 34.00 32.25 31.85 31.89 31.31 27.41 33.37 34.77 33.91 34.54 33.50 33.19 34.36 33.95 33.32 32.45 33.00 33.30 32.99 32.58 31.22 32.14
44.24 45.04 48.22 48.87 48.75 48.68 48.44 48.22 47.77 46.66 45.81 44.37 41.03 38.17 35.29 36.56 41.69 41.92 39.90 38.43 37.94 37.25 36.35 29.95 33.09 28.56 34.12 33.24 30.60 31.19 33.01 31.14 28.40 31.40 32.84 29.55 31.07 36.36 36.11 36.18 35.60 35.15 35.03 34.70 30.91 29.77 31.01 30.33 30.89 31.12 31.84 32.45 31.94 32.17
44.90 44.98 48.58 48.59 48.36 48.09 47.92 47.60 46.79 45.77 43.44 38.47 35.16 32.61 37.05 40.53 38.39 35.42 32.40 33.66 32.34 32.24 33.65 31.80 32.19 29.30 34.55 30.65 29.68 32.27 28.79 29.87 26.70 29.60 28.94 29.80 29.53 34.13 36.91 35.48 35.89 35.88 35.59 35.15 35.01 34.66 34.25 33.13 31.51 31.02 31.77 32.62 32.48 32.43
44.86 46.54 48.52 48.36 47.93 47.66 47.32 46.49 45.58 42.14 39.85 39.08 37.87 38.63 37.23 33.84 31.62 30.70 25.68 28.73 30.49 29.74 31.16 31.45 30.94 33.10 31.99 34.38 30.77 31.50 27.27 27.78 25.73 30.66 26.59 25.15 32.45 34.52 34.94 34.21 34.23 34.23 34.07 33.67 34.23 33.22 33.40 33.07 33.25 32.51 31.76 31.71 31.37 31.73
45.20 47.96 48.32 47.94 47.58 47.21 46.35 45.56 43.76 42.77 41.25 38.30 36.41 32.64 33.24 27.31 26.78 28.29 22.07 25.33 27.20 30.54 29.81 30.48 28.67 31.92 31.93 32.11 29.23 28.95 25.83 25.90 31.37 25.91 25.07 30.05 32.60 33.03 32.83 33.46 32.23 32.86 32.90 32.34 31.53 31.83 31.80 31.52 32.35 32.66 32.40 33.32 32.83 32.46
46.55 47.96 47.84 47.52 46.91 46.40 45.61 44.30 43.57 41.71 39.37 36.54 32.68 25.23 29.18 25.14 29.20 30.57 32.49 32.28 31.17 32.57 31.43 31.98 29.57 30.12 30.02 28.78 28.62 25.23 29.07 29.65 23.89 22.09 24.74 31.04 31.91 32.63 33.19 33.15 31.57 30.84 31.06 30.67 30.11 30.19 29.84 30.05 30.04 32.23 33.79 34.13 33.13 31.80
47.87 47.62 47.40 46.54 46.14 45.37 44.94 43.83 39.99 38.18 35.99 31.47 34.14 25.96 25.46 25.67 26.75 26.77 29.88 30.26 31.23 33.32 31.48 29.83 30.17 31.27 28.08 26.90 28.94 27.75 24.42 22.13 25.48 25.84 29.96 32.32 32.30 31.50 30.85 31.31 31.29 31.28 30.91 29.75 29.96 29.48 28.78 29.09 29.46 30.46 33.48 33.45 33.37 32.51
47.73 46.97 45.12 46.03 45.32 44.69 42.83 41.34 37.82 35.94 32.50 31.88 28.21 24.72 26.08 27.42 26.21 28.56 30.17 28.00 31.79 31.91 32.24 32.29 27.79 26.29 24.91 26.85 24.25 23.31 22.33 21.31 27.29 31.09 32.89 32.06 31.64 31.72 31.24 31.10 31.21 31.34 30.69 29.70 30.10 30.00 29.61 28.69 28.81 29.87 31.86 32.09 32.26 32.62
46.26 43.13 45.54 45.00 43.73 42.97 41.16 37.79 36.46 29.89 31.28 31.50 26.95 30.19 30.52 31.39 30.03 30.01 31.70 30.21 33.00 31.91 29.98 29.60 25.53 22.84 26.44 23.81 22.54 26.41 24.13 29.37 32.36 32.18 32.63 32.48 31.46 30.64 30.91 30.75 30.48 30.23 29.48 29.42 29.33 28.55 27.73 28.49 28.27 28.56 28.20 30.38 31.31 32.61
42.89 44.57 44.70 43.43 42.03 39.27 34.57 35.30 32.62 31.20 25.33 26.70 28.64 27.68 27.78 29.77 28.83 29.05 29.70 30.95 31.95 29.85 30.15 28.44 27.49 23.58 22.87 21.17 23.44 28.56 30.82 34.60 33.77 31.93 31.26 31.11 30.62 30.51 29.91 29.42 29.80 29.62 28.69 28.14 27.99 26.89 26.42 26.88 27.47 28.56 29.57 30.53 30.78 31.80
43.72 43.50 43.57 43.45 40.67 36.16 32.92 30.52 33.04 25.15 24.60 26.85 27.08 27.61 28.48 27.72 29.45 30.97 30.62 30.22 30.76 31.15 29.59 28.61 25.76 25.67 25.89 27.38 29.52 31.77 31.03 29.80 28.35 29.31 29.71 30.47 30.54 29.56 29.09 28.80 28.31 27.64 26.88 27.22 27.64 27.60 27.72 27.72 27.86 28.33 29.43 30.03 29.17 30.98
43.78 43.46 43.22 40.71 39.27 33.18 28.77 27.29 32.76 28.73 26.50 25.47 27.05 24.43 24.09 24.37 26.50 29.41 29.32 29.39 30.34 31.07 27.85 26.54 26.64 28.59 28.80 31.05 31.83 32.18 31.65 30.40 28.65 27.31 28.38 30.52 31.25 29.60 29.01 28.91 28.65 28.92 28.51 28.56 28.14 29.17 28.68 29.38 29.44 28.51 27.84 28.10 28.45 29.42
40.24 38.93 37.80 35.60 32.56 30.60 28.03 26.64 23.83 25.37 25.05 21.87 22.44 24.27 22.32 26.38 26.61 27.24 28.02 28.78 30.42 28.52 27.63 29.13 29.48 30.64 30.23 30.65 30.40 30.11 29.28 29.13 28.38 28.60 28.50 28.10 30.18 29.43 29.24 29.66 29.87 29.43 27.91 27.29 27.37 27.71 29.82 30.33 30.15 28.66 26.88 27.28 28.90 30.23
38.06 38.86 34.03 34.62 29.89 28.59 26.07 26.29 24.88 24.65 22.20 21.25 22.05 23.98 24.06 23.58 23.20 21.79 21.63 27.13 27.87 29.13 29.05 28.62 28.61 28.45 28.43 28.20 29.16 28.49 28.88 28.20 28.18 27.72 29.40 29.16 27.09 28.18 28.32 28.63 28.29 27.79 28.26 28.61 28.40 27.58 29.42 31.25 29.98 27.24 27.07 27.64 29.18 29.44
37.35 34.34 31.91 31.56 27.12 26.08 22.27 26.72 22.77 22.88 24.72 20.98 21.40 22.13 18.91 19.45 17.12 18.82 21.74 25.51 26.75 27.58 27.32 26.76 26.62 24.52 24.83 26.66 24.79 25.66 25.89 25.60 26.13 27.18 27.75 28.15 28.46 28.45 28.20 28.02 28.72 27.30 26.49 27.67 29.48 29.09 29.93 31.36 28.55 27.17 26.57 27.15 27.35 27.18
34.54 28.29 26.12 24.78 26.02 20.67 23.94 20.69 22.59 21.95 23.04 22.66 22.82 18.14 17.49 17.38 15.91 18.99 21.29 24.03 25.18 23.70 23.25 23.57 24.01 25.41 25.66 23.75 25.25 27.66 29.31 28.33 27.31 27.34 27.78 26.96 26.01 26.69 28.33 27.90 27.84 27.96 27.85 28.00 27.70 27.84 28.15 27.38 28.60 26.59 25.44 25.25 25.66 25.32
27.99 23.22 26.48 21.07 24.43 22.54 20.28 19.41 19.46 21.79 18.24 18.00 18.33 16.36 14.57 13.87 18.85 18.43 20.00 24.74 23.56 23.86 25.49 23.78 23.90 24.73 25.53 26.99 27.60 28.16 27.15 27.05 26.12 25.21 27.17 27.84 26.98 26.54 26.22 26.94 27.37 27.92 28.45 26.75 26.40 26.22 26.55 27.06 27.20 25.85 24.97 24.56 23.92 23.11
20.85 21.53 23.42 22.39 21.01 22.51 20.73 19.41 19.72 18.25 17.43 16.34 13.50 11.53 12.39 17.24 16.61 18.18 21.34 24.44 24.03 25.68 26.78 27.73 27.70 26.31 26.28 27.01 25.79 26.09 27.02 27.81 25.76 23.48 25.28 27.17 26.32 24.76 23.29 22.39 22.79 24.72 28.18 27.04 25.71 24.69 24.99 25.81 25.46 23.98 23.75 23.93 26.08 24.66
20.66 20.85 22.26 24.12 22.03 20.30 18.93 18.78 19.02 20.54 18.38 15.87 13.78 12.29 15.93 14.80 16.02 21.23 22.91 23.38 25.38 28.10 27.72 26.89 25.55 25.00 24.82 25.06 26.00 26.59 26.67 25.89 24.50 23.87 24.32 23.76 24.10 24.45 23.70 21.87 20.86 22.87 22.68 22.72 22.53 22.55 22.25 22.58 23.06 23.36 23.33 23.88 23.62 23.03
22.83 24.14 20.38 19.97 19.00 20.31 18.26 17.85 18.39 19.33 18.59 17.79 18.28 14.94 15.83 17.77 19.48 25.00 26.00 26.85 27.57 25.38 25.32 24.85 23.75 23.39 23.42 24.15 23.49 21.88 21.54 21.49 20.15 20.77 22.77 23.65 24.28 23.95 19.29 20.78 20.78 22.24 21.25 20.45 20.62 21.46 21.43 21.96 21.95 22.23 22.01 21.76 22.30 23.10
21.38 22.56 23.52 18.21 19.79 20.11 18.93 19.81 20.02 19.56 20.03 20.43 20.52 18.09 18.22 21.25 24.64 25.38 25.43 24.33 21.59 23.38 24.52 24.29 24.84 21.78 22.90 23.34 22.17 19.87 17.69 16.55 15.05 13.14 12.85 13.56 14.97 17.24 19.27 17.47 17.12 17.59 17.96 17.73 20.51 22.55 23.54 23.18 22.77 22.66 22.84 22.93 23.42 20.95
21.01 22.04 19.78 17.75 18.50 18.33 16.47 14.51 17.45 17.41 18.98 19.86 19.45 20.47 20.94 22.37 23.02 19.08 20.39 22.35 23.04 22.95 21.43 20.44 19.13 18.15 17.64 15.63 15.21 15.34 16.92 15.75 14.63 12.59 10.54 9.79 11.14 13.84 13.80 14.50 16.20 17.50 17.73 17.18 16.42 17.04 20.82 20.98 20.98 19.87 19.53 18.79 18.86 18.66
19.81 21.05 19.09 18.10 14.73 13.32 11.46 9.68 13.51 16.98 14.53 15.56 13.61 19.52 19.69 17.38 19.85 17.58 17.50 17.02 17.98 19.46 21.61 20.80 19.52 16.46 15.61 15.14 13.32 11.89 12.06 14.79 10.88 10.67 11.82 13.37 13.29 13.58 14.53 15.92 18.22 18.24 15.82 13.94 13.57 13.85 14.39 14.65 16.27 14.95 15.38 13.74 13.52 17.53
17.48 15.04 18.45 16.43 14.83 12.13 10.84 12.91 13.69 15.52 14.49 18.27 16.44 13.42 16.80 18.29 16.61 21.96 16.02 15.60 19.07 21.37 21.66 19.19 17.84 17.83 15.44 13.68 12.36 11.62 14.74 12.74 11.58 12.02 10.27 10.89 11.68 15.42 19.49 17.84 14.99 14.36 13.71 13.55 13.88 13.53 12.96 11.69 12.12 11.70 14.95 16.22 11.76 9.22
14.28 15.67 16.75 15.60 15.10 13.89 13.74 14.13 13.08 13.40 14.88 14.73 12.60 9.15 10.02 11.50 12.91 19.09 15.27 13.22 18.89 20.09 18.65 17.15 15.73 14.01 11.74 9.03 10.23 11.10 13.53 11.57 10.54 17.68 18.67 21.01 23.55 25.39 21.95 17.32 15.88 14.82 14.01 13.23 12.44 11.54 9.04 6.35 7.52 5.50 4.84 2.98 2.81 3.23

GFSWCAN_sfc_wetblb_066.txt.gz
Wetbulb
46.32 46.35 46.48 46.67 46.26 46.60 46.26 47.47 49.62 50.43 49.84 49.00 47.83 47.22 47.01 46.75 47.13 44.26 40.40 42.41 40.30 33.60 33.36 36.65 36.74 33.25 33.01 33.36 32.45 32.75 35.04 36.39 36.87 33.91 34.20 31.82 29.81 30.00 28.87 30.83 29.75 29.03 26.65 25.96 27.64 24.41 19.63 36.14 36.45 30.90 31.89 35.24 35.44 34.95
46.38 46.37 46.30 46.45 46.27 45.76 46.20 48.60 50.12 50.09 49.72 48.53 47.65 47.31 46.57 46.56 46.22 45.86 38.21 42.65 42.52 36.12 33.94 37.62 37.32 37.81 36.73 36.40 33.18 35.32 34.78 35.30 36.01 33.78 33.72 32.62 30.05 31.21 30.62 25.55 32.41 27.31 30.79 29.07 31.02 29.73 35.08 34.90 35.69 36.09 35.75 33.63 34.13 33.92
46.14 46.18 46.10 46.21 45.57 44.77 46.33 50.57 50.82 49.63 49.29 48.73 48.17 47.43 46.71 46.40 45.83 44.56 40.39 40.71 39.91 34.62 33.58 33.71 32.40 37.28 40.15 39.22 39.46 32.11 34.52 36.81 35.09 35.30 35.19 33.27 29.90 32.55 27.68 29.63 30.05 31.96 34.34 31.45 32.00 33.06 34.77 34.84 36.60 36.85 35.78 34.51 35.54 36.22
46.07 45.81 45.67 45.79 45.27 44.53 46.10 49.96 49.83 49.29 48.85 48.39 47.85 47.07 46.21 45.66 46.43 45.39 40.72 41.28 41.29 37.79 29.88 29.32 38.63 34.84 39.32 39.97 39.31 38.71 36.92 37.12 36.38 35.80 33.53 34.65 30.88 33.44 30.22 30.84 30.20 31.86 32.20 29.82 30.02 31.99 32.92 35.36 34.84 34.89 35.22 35.73 35.42 36.11
45.94 45.54 45.58 45.35 44.94 44.95 46.01 49.36 49.14 48.78 48.55 47.97 47.65 47.03 46.16 46.00 45.44 42.82 41.23 40.74 41.03 38.28 29.77 29.84 35.62 37.02 38.55 38.79 37.99 38.07 37.01 35.09 33.00 31.38 30.26 28.96 31.81 31.22 30.47 29.51 28.54 32.43 29.81 26.85 26.26 31.49 30.87 32.37 34.96 35.64 34.17 34.49 35.20 35.10
45.85 45.30 45.50 44.99 44.47 44.64 45.73 49.63 49.25 48.99 48.65 47.89 47.28 46.65 46.20 45.75 45.08 42.00 36.38 40.35 40.90 41.77 33.26 27.18 34.45 34.20 35.80 36.68 35.81 35.01 35.02 33.86 32.80 31.32 29.36 29.82 32.08 29.13 25.64 24.51 30.73 31.63 32.15 32.64 29.35 32.61 33.78 34.50 34.93 35.22 34.13 34.58 35.54 35.32
45.52 45.15 45.05 44.03 43.71 44.41 49.27 49.09 48.90 48.67 47.96 47.32 46.33 45.80 45.73 44.35 40.90 37.63 36.52 38.77 40.56 40.33 33.04 28.21 26.84 33.31 35.44 34.49 33.99 33.32 34.69 32.58 32.19 30.27 29.39 28.40 28.85 28.75 26.83 23.49 30.71 32.17 32.98 33.71 34.09 33.18 31.40 33.04 31.23 33.47 33.91 34.96 35.72 35.20
44.97 45.12 44.08 43.03 43.64 48.68 48.92 48.53 48.63 48.04 46.69 45.81 45.26 45.24 45.12 44.26 43.04 37.70 39.21 41.35 41.58 36.89 35.90 25.98 24.01 27.75 34.66 31.97 31.03 33.56 30.44 31.68 30.93 29.65 29.60 27.61 28.15 27.29 23.72 30.22 31.78 33.10 32.79 32.31 32.00 32.34 31.49 31.51 31.25 31.63 32.45 32.48 32.13 31.85
44.86 44.78 43.51 42.10 47.98 48.84 48.35 48.37 47.85 46.50 45.53 45.89 45.96 45.08 42.06 38.58 36.65 36.21 40.28 41.76 40.73 38.07 28.06 29.11 23.14 19.94 33.03 32.41 33.45 31.22 30.95 27.37 30.05 28.30 28.22 28.29 26.83 21.96 29.10 31.14 30.67 31.53 30.68 30.23 31.54 30.99 30.69 29.67 29.55 29.66 29.48 29.61 30.67 30.84
45.29 44.45 43.68 44.19 44.93 48.41 48.08 48.44 47.00 46.01 45.87 45.31 41.67 38.59 34.14 35.98 41.60 40.74 39.02 35.90 33.45 33.10 33.15 24.68 29.10 23.55 31.25 31.68 29.92 29.94 31.21 29.40 26.01 27.56 29.03 26.16 26.35 32.90 32.13 31.85 31.67 31.88 31.92 31.22 24.31 25.02 27.48 25.97 28.66 28.71 28.78 29.30 30.57 31.59
44.73 44.11 43.41 45.36 45.99 47.73 47.98 47.68 46.47 45.83 44.86 38.86 34.19 32.36 37.71 41.51 37.48 34.08 28.83 28.82 28.79 26.40 30.40 27.44 27.17 24.96 31.55 28.74 28.26 31.54 27.94 28.57 24.50 27.53 24.04 27.77 24.33 29.13 30.98 30.76 31.28 30.81 30.86 30.37 30.91 30.90 30.38 29.97 28.19 28.99 29.87 30.38 30.36 31.71
44.61 43.60 44.98 47.45 47.55 47.74 47.73 46.68 46.01 41.30 38.78 38.73 37.08 38.53 37.06 33.56 31.80 25.03 21.58 26.77 26.94 24.78 28.47 27.26 27.93 29.55 30.40 32.50 29.92 29.55 27.08 27.09 24.38 28.40 25.65 22.13 29.99 29.39 29.56 29.50 29.73 29.41 29.49 29.98 30.59 29.79 29.66 30.06 29.45 29.14 29.09 28.99 29.89 32.13
44.42 44.65 45.16 47.67 47.81 47.76 46.87 45.96 44.78 43.54 41.27 38.37 35.63 29.94 29.89 24.60 22.79 20.93 18.21 22.44 20.95 27.22 27.27 26.70 24.20 28.74 30.20 31.70 28.80 28.10 24.85 25.03 29.90 24.65 22.77 25.75 30.57 28.74 28.28 27.54 28.25 29.59 30.01 29.88 29.30 29.78 29.82 29.29 29.99 29.19 28.02 29.45 31.28 32.46
44.38 44.83 47.70 47.46 47.53 46.88 46.31 45.03 44.04 42.16 37.86 34.01 27.02 18.71 21.60 19.69 24.68 28.78 28.73 25.61 27.78 28.90 29.91 28.56 26.12 26.29 28.38 28.06 27.90 17.76 26.81 28.21 21.43 15.26 18.05 27.21 28.60 28.36 28.55 29.33 28.59 27.51 28.50 28.08 24.51 24.70 26.13 26.85 27.06 28.41 28.80 29.12 30.09 31.00
44.42 45.89 47.34 47.04 46.72 46.20 44.90 44.67 43.47 37.67 35.13 27.27 28.44 17.09 22.31 25.80 26.35 27.39 27.60 27.27 28.58 30.72 28.62 27.11 25.87 26.75 26.25 21.35 25.52 22.28 22.20 11.73 17.87 16.95 22.88 24.10 25.46 26.48 27.21 27.99 27.26 26.73 24.77 23.30 24.36 23.97 23.79 24.04 25.60 26.72 27.27 27.73 28.75 29.97
44.92 47.04 45.45 46.66 46.10 45.26 44.82 41.21 37.66 35.45 32.18 28.92 26.47 22.77 26.45 25.55 24.08 26.46 26.77 26.31 28.99 29.45 28.98 29.07 23.06 19.44 19.61 20.55 17.67 13.91 13.52 11.46 18.65 21.90 24.79 25.79 24.72 26.56 26.82 26.95 27.19 27.28 26.73 26.34 24.64 24.96 23.59 22.73 23.41 24.76 25.89 26.17 27.42 28.32
46.55 43.16 46.06 45.74 44.96 44.26 42.35 36.56 34.49 30.40 29.31 27.29 24.45 29.55 29.09 28.39 27.43 28.66 28.64 26.91 30.21 28.63 24.53 25.31 16.77 17.26 22.49 16.66 15.94 19.45 15.22 20.36 23.51 24.05 24.91 26.14 25.69 25.87 26.05 26.03 26.24 26.52 26.56 26.05 24.29 25.04 23.69 22.93 21.63 21.19 22.27 25.61 25.71 27.95
42.93 44.99 45.44 44.93 42.55 40.24 34.26 33.48 30.83 27.55 23.51 26.12 26.63 26.20 27.34 28.15 27.10 26.97 27.96 28.91 28.80 26.98 27.61 24.33 24.89 17.86 15.21 12.64 16.13 21.57 22.81 23.85 26.01 25.55 25.25 26.40 25.63 25.11 25.74 24.52 25.62 25.41 24.10 23.24 23.37 22.47 18.76 20.07 20.53 23.10 23.52 25.15 24.97 25.43
44.08 44.24 44.39 43.52 40.70 35.64 29.72 28.13 30.32 22.13 24.38 26.47 26.79 26.85 27.28 27.72 29.23 28.81 27.58 27.26 27.55 28.60 28.09 24.22 18.74 16.12 19.92 20.66 20.82 21.04 21.59 22.54 22.85 23.41 24.13 25.16 25.31 24.70 25.04 23.42 23.05 22.60 21.02 20.39 23.88 25.11 24.13 23.61 22.91 24.13 25.30 25.08 24.61 25.02
44.75 44.01 43.68 43.00 39.86 32.37 27.52 26.22 31.25 26.75 24.15 24.44 26.10 23.28 23.96 24.77 26.61 27.36 26.83 27.57 28.77 27.28 20.55 18.42 21.67 24.07 23.11 24.25 24.06 23.95 24.02 25.55 23.08 20.97 22.15 23.87 24.69 20.81 21.85 22.21 23.86 22.94 22.97 21.53 22.85 28.26 24.09 23.46 25.01 25.19 25.60 25.82 23.12 24.00
42.44 42.07 40.37 35.69 32.09 29.91 27.91 25.56 23.54 25.12 24.41 21.15 22.78 24.14 23.18 25.90 24.71 24.11 23.00 25.58 23.77 18.87 18.96 23.02 22.79 24.60 25.52 25.23 25.25 24.90 24.37 24.20 22.22 22.11 21.62 19.41 24.22 21.34 21.17 22.50 22.71 24.31 23.51 24.19 23.33 24.59 26.37 24.33 26.06 26.91 24.05 23.49 22.85 24.69
38.60 39.97 33.45 34.21 29.12 27.96 24.51 26.09 24.26 24.94 22.30 21.30 21.97 24.56 23.13 19.52 17.53 15.83 18.92 18.19 19.20 21.80 22.47 21.83 21.46 22.54 23.72 23.23 22.97 21.74 24.21 23.84 23.30 23.38 27.59 26.08 21.99 20.66 22.16 23.04 20.99 21.44 20.91 21.94 23.26 24.09 25.22 26.48 26.37 26.10 22.31 23.13 25.28 24.36
39.31 34.96 32.09 31.17 26.12 24.22 21.03 26.19 21.92 22.97 22.43 19.18 21.28 20.40 17.17 14.52 13.31 15.52 14.26 18.03 19.60 20.80 21.71 20.74 18.52 17.50 18.49 19.67 18.66 19.40 19.43 19.12 20.81 21.55 22.43 22.32 22.83 22.76 21.53 22.17 22.42 21.19 20.09 22.14 22.40 22.86 23.70 27.92 27.32 26.74 23.97 23.87 22.92 22.49
35.47 28.45 25.87 24.59 24.29 19.66 23.74 19.15 23.43 22.72 23.06 22.79 20.51 15.78 15.34 11.80 12.61 12.19 13.75 16.63 19.81 20.25 18.73 15.46 16.80 18.43 18.82 18.33 17.27 19.33 20.09 18.55 18.55 20.42 22.05 19.38 19.81 22.38 22.98 23.12 22.53 21.32 21.87 23.74 22.72 22.55 22.65 24.47 26.94 24.63 23.81 17.89 18.95 20.00
28.79 23.13 24.20 19.88 23.17 20.96 19.41 19.16 19.74 20.76 17.81 18.63 17.02 12.65 9.77 10.07 10.95 9.70 11.45 14.74 15.67 17.19 17.77 16.51 16.80 17.86 17.47 17.63 17.93 19.35 20.54 18.99 16.91 19.23 22.31 19.82 21.67 22.27 20.61 20.59 22.52 22.85 23.77 22.69 22.36 21.60 21.68 20.80 22.94 21.23 18.29 15.71 17.51 16.75
20.59 20.51 21.63 20.34 20.22 21.70 20.49 18.55 18.87 18.05 18.34 14.72 8.90 8.58 7.86 10.02 7.87 9.15 12.94 15.04 16.74 16.75 16.46 17.13 19.25 18.77 18.16 19.25 18.03 17.75 19.21 18.74 17.47 18.57 21.27 19.08 18.35 18.76 18.23 18.88 18.95 20.26 20.93 20.06 19.23 18.27 18.32 19.33 19.59 19.46 19.50 19.94 24.19 21.35
17.86 17.91 20.54 24.00 21.96 20.69 19.17 19.35 20.41 20.36 14.59 10.63 10.00 8.03 8.03 6.73 7.25 13.97 17.59 16.61 17.24 17.15 17.84 17.14 16.94 16.17 15.40 16.27 19.22 19.87 18.54 14.90 13.95 17.71 19.74 18.83 17.97 16.91 16.65 17.96 16.76 17.48 19.00 18.95 18.46 17.25 16.84 17.21 17.83 19.57 19.33 17.28 15.88 15.39
22.31 22.66 19.47 19.63 19.09 20.27 18.60 17.94 16.74 12.71 13.34 15.34 15.34 7.52 11.13 13.42 14.91 17.51 16.77 16.84 16.03 14.89 14.49 14.09 13.94 13.24 13.32 13.81 14.07 15.64 12.94 10.32 12.94 14.39 14.93 14.57 13.68 11.16 9.93 11.16 12.03 20.49 18.46 15.92 17.66 17.97 17.80 18.35 18.67 19.48 18.69 18.19 18.04 15.16
20.98 22.66 23.56 19.38 20.37 18.12 15.33 13.99 14.19 15.47 17.87 15.20 13.11 12.46 14.02 16.57 15.79 15.42 16.77 14.59 11.45 12.72 12.48 12.17 12.53 10.00 10.51 12.19 10.90 9.72 8.28 6.47 4.94 3.18 3.08 5.27 5.81 7.22 11.31 12.23 11.87 13.02 14.47 15.79 20.08 20.07 19.31 20.24 21.64 22.41 22.78 22.66 22.52 19.83
20.29 22.07 20.24 19.05 18.26 12.67 10.12 11.09 10.26 11.49 15.84 15.84 17.65 16.02 16.77 16.29 14.99 12.01 12.35 11.30 10.68 10.33 9.31 9.05 7.51 6.18 6.04 5.30 8.92 8.74 6.40 5.93 5.38 4.51 1.90 3.94 7.10 10.40 10.78 11.06 12.38 13.86 15.85 15.94 14.14 13.48 17.99 17.18 17.90 15.44 15.09 13.75 9.95 9.13
21.17 22.78 18.73 15.71 11.93 9.75 8.55 8.47 10.17 17.25 11.70 9.49 9.98 13.53 12.54 9.17 12.63 10.67 8.45 7.13 7.01 6.99 8.74 7.85 6.59 4.10 4.86 4.03 1.86 0.97 3.26 3.53 1.92 2.54 5.65 10.43 10.37 9.66 10.32 11.71 13.20 15.57 12.98 12.12 11.41 11.89 12.08 11.26 11.16 10.57 10.67 6.86 8.15 11.35
17.77 16.67 17.20 13.55 10.16 9.75 7.88 7.87 8.04 8.27 8.92 9.72 7.80 5.89 7.58 8.42 8.03 10.38 6.94 5.11 6.05 8.45 15.31 9.99 6.85 7.44 6.06 4.74 3.41 3.48 14.45 4.79 2.88 5.84 6.25 9.72 10.72 13.71 16.71 18.55 14.85 10.27 9.71 11.67 11.90 10.55 8.19 7.31 7.21 6.18 4.30 2.67 4.51 4.68
16.34 16.07 14.53 12.46 9.06 8.13 9.44 8.96 8.46 6.58 6.50 3.18 3.25 1.04 0.71 4.35 7.48 9.92 6.62 5.16 9.15 9.57 8.68 7.47 6.23 5.40 4.62 2.37 2.13 2.23 8.70 1.70 4.92 17.61 18.33 20.43 22.00 22.03 20.83 14.49 10.67 7.33 6.93 10.74 10.56 9.42 7.33 5.70 4.25 1.38 -1.05 -2.31 -3.52 -3.87

GFSWCAN_sfc_wetblb_069.txt.gz
Wetbulb
46.65 46.78 46.94 47.21 47.08 46.84 47.39 46.05 46.66 48.72 50.81 49.88 49.09 48.65 48.43 49.28 48.58 41.82 38.51 40.12 35.29 29.57 30.80 33.69 33.74 30.39 30.71 30.85 30.98 31.36 33.71 34.96 34.37 31.32 30.09 28.83 27.03 28.04 27.15 29.26 28.75 27.48 24.61 24.67 25.35 22.72 19.88 33.81 34.69 29.68 30.77 32.78 34.16 34.18
46.80 46.85 46.93 46.99 46.94 46.71 46.57 45.56 46.86 49.71 49.69 48.84 48.03 47.88 48.16 49.19 46.46 43.08 36.89 40.44 39.32 32.74 30.91 35.81 35.52 35.81 35.11 33.72 32.51 33.35 32.47 32.92 33.85 31.20 31.26 29.98 28.17 28.68 27.27 23.89 29.86 27.95 29.76 27.86 27.89 27.16 33.01 34.16 32.55 33.05 33.37 32.16 32.35 32.19
46.64 46.85 46.79 46.86 46.90 46.51 45.80 45.33 46.68 50.13 48.96 47.86 47.43 47.43 47.65 47.53 46.86 42.91 38.09 38.32 36.24 31.65 30.14 30.58 30.38 34.91 37.86 37.17 37.49 31.46 32.55 35.18 33.46 33.99 32.32 31.02 28.70 30.56 25.97 27.26 27.07 29.53 32.28 30.09 31.14 31.49 32.03 32.01 33.11 33.76 33.60 32.68 33.18 33.51
46.21 46.64 46.65 46.71 46.53 46.12 45.54 45.16 47.39 49.72 48.84 47.99 47.91 47.25 47.18 46.92 46.32 43.29 37.83 39.56 37.19 33.71 26.69 28.39 36.71 33.56 37.94 38.00 37.75 37.01 35.53 35.51 34.90 33.62 30.08 30.08 28.83 31.42 28.55 29.72 29.02 31.35 31.86 28.80 28.25 29.00 30.28 31.64 32.53 32.84 33.64 34.29 34.25 34.91
46.32 46.52 46.37 46.51 46.16 45.89 45.40 45.44 48.18 49.18 48.54 48.79 47.72 46.99 46.25 47.03 45.58 41.00 38.61 38.97 39.43 34.32 27.28 28.10 33.16 35.29 36.28 36.71 36.00 36.25 35.20 33.01 31.00 29.23 26.22 26.72 29.45 29.84 28.45 27.64 26.26 30.68 29.51 26.82 25.86 29.86 29.08 29.84 32.29 33.51 32.09 32.73 33.94 34.05
46.43 46.42 46.26 46.42 45.88 45.48 45.10 46.12 49.09 48.13 47.92 47.90 47.27 46.29 46.71 45.94 44.17 39.64 33.10 38.27 39.94 37.94 29.66 24.38 33.25 32.31 34.22 34.78 34.04 33.63 33.72 32.15 30.87 29.16 27.25 27.72 30.48 27.38 23.47 22.98 28.95 29.23 30.45 31.19 28.81 31.21 31.89 32.15 33.11 32.25 31.81 32.28 33.53 33.38
46.45 46.23 46.21 46.15 45.76 44.81 44.49 48.20 48.02 47.72 48.32 47.80 46.88 46.49 46.03 44.28 38.60 36.60 33.83 36.67 40.40 38.70 29.99 24.31 23.36 32.49 34.43 33.21 32.00 31.55 32.42 30.83 30.04 28.24 27.40 26.60 27.09 26.14 24.72 22.27 28.71 29.36 31.43 31.99 32.42 30.78 29.76 30.87 28.81 30.74 30.98 32.03 32.98 31.99
46.07 46.04 46.31 45.84 45.54 44.66 44.75 48.23 48.69 48.53 48.12 47.25 46.56 45.73 44.50 43.76 41.13 34.72 37.21 40.99 40.97 35.46 31.13 20.51 23.94 26.07 32.95 28.46 27.71 31.65 28.87 29.55 28.71 27.60 27.72 26.03 26.98 25.66 22.55 27.59 29.05 30.39 30.44 29.58 29.33 29.88 29.34 29.29 28.97 29.04 29.81 29.43 29.04 28.79
45.87 46.31 45.96 45.53 44.99 44.58 44.94 48.88 48.77 48.07 47.27 46.63 45.88 45.52 40.50 37.53 34.37 34.87 40.63 41.79 38.49 32.31 25.99 22.25 18.46 16.11 30.89 31.95 31.20 29.58 29.21 26.63 28.87 26.96 26.74 27.24 25.27 20.30 26.86 28.51 28.15 29.27 28.96 28.24 29.52 29.09 29.01 28.27 28.47 28.74 28.59 28.00 27.10 27.89
46.20 46.28 45.45 44.58 43.44 46.77 48.62 48.36 47.50 46.80 46.46 46.53 41.55 36.29 32.31 34.57 41.59 41.38 37.17 31.34 30.61 30.36 28.85 21.59 23.00 23.09 31.45 30.99 29.63 30.05 30.00 28.23 18.66 26.47 27.52 25.51 24.30 28.92 28.96 29.23 29.67 30.18 30.50 29.60 21.53 24.05 25.99 24.87 26.64 27.07 27.48 28.53 28.20 28.59
46.19 45.92 45.00 43.00 46.45 47.91 47.36 46.95 46.84 46.60 45.10 37.14 32.76 32.37 36.86 41.30 35.34 32.88 27.25 23.22 26.53 23.24 25.06 22.82 22.62 24.62 30.30 26.11 27.72 30.50 27.69 28.42 23.66 24.26 22.82 25.20 26.69 28.25 28.81 27.82 28.34 28.12 28.37 28.34 28.54 28.02 27.52 27.31 24.71 25.67 26.88 27.86 28.16 28.10
45.82 45.91 44.85 44.13 47.33 47.27 46.79 46.38 46.16 40.78 38.51 37.71 36.24 37.52 35.43 31.68 27.14 21.61 16.61 25.24 25.73 21.88 25.98 24.81 26.75 26.74 27.66 30.13 26.11 28.04 25.30 26.86 23.19 28.21 25.04 21.89 27.91 30.45 29.80 27.90 26.99 27.37 27.04 28.06 28.57 27.81 27.69 27.59 27.42 26.88 25.79 25.09 25.69 26.93
45.85 45.82 44.54 45.85 45.38 46.61 46.38 45.75 44.92 43.51 41.13 37.79 32.48 27.76 25.12 20.23 16.73 15.40 16.13 20.32 18.05 24.27 24.74 24.70 20.85 25.90 27.68 30.33 28.44 27.75 22.09 23.64 29.09 24.26 22.00 25.73 28.61 29.56 27.27 25.25 26.97 27.77 28.26 28.54 28.07 28.17 27.95 27.22 27.64 26.91 25.93 26.95 27.14 27.12
45.72 45.30 45.38 44.97 46.59 47.31 46.35 45.41 44.34 41.84 36.96 30.52 24.23 19.28 17.80 13.50 18.59 24.42 24.03 22.69 25.36 25.48 26.96 25.77 23.51 24.43 27.18 25.87 27.43 12.12 25.91 26.29 13.94 10.52 12.99 22.37 28.49 26.84 27.19 27.34 26.42 25.05 26.02 26.20 24.22 23.21 23.95 24.97 25.12 26.40 26.61 26.18 25.77 25.35
45.65 45.23 44.30 47.36 46.88 46.38 45.59 45.18 43.54 36.71 32.69 22.06 22.50 16.92 14.93 23.81 23.69 24.54 25.31 26.67 25.61 28.38 27.00 24.84 23.83 25.13 23.36 19.27 23.85 20.72 19.33 7.06 14.44 14.44 22.02 21.17 24.66 24.33 24.99 26.04 25.66 24.61 21.62 20.88 22.02 20.80 21.98 22.08 22.83 24.26 25.01 24.25 24.33 24.71
45.40 45.16 44.67 46.97 46.40 45.82 44.83 40.91 36.86 34.24 30.72 22.40 20.67 19.54 24.68 21.07 19.82 23.88 25.49 27.27 26.68 27.92 25.39 25.62 21.11 16.79 17.85 17.93 15.23 10.82 10.45 9.02 15.72 17.47 22.18 22.87 22.59 24.24 24.27 25.16 24.88 24.94 24.56 24.64 23.67 23.28 23.38 21.51 22.52 23.24 23.27 23.32 23.66 24.37
44.48 43.39 46.70 46.15 45.43 44.67 42.66 35.28 32.47 29.12 26.48 21.84 22.10 26.84 25.22 23.62 22.98 24.22 26.15 26.26 28.38 26.42 20.90 21.39 15.13 16.09 21.42 14.81 15.28 15.96 13.19 16.92 20.42 20.87 21.56 24.78 24.31 24.02 24.13 24.55 24.76 24.73 24.29 24.03 22.08 22.64 22.02 23.42 19.05 17.56 18.24 22.67 22.35 24.79
41.54 45.60 45.96 45.27 43.08 40.57 33.24 32.72 30.26 25.21 21.57 22.67 21.54 22.62 26.02 26.54 25.78 26.31 27.58 28.01 25.98 24.92 24.49 18.45 22.15 15.10 13.36 11.06 13.59 20.02 19.70 17.90 21.35 22.94 24.05 26.24 24.46 23.82 24.66 23.71 24.52 24.17 22.62 20.60 21.56 19.31 17.79 19.00 20.35 22.21 21.79 22.46 22.02 23.68
44.84 44.86 44.85 43.81 39.94 32.85 28.88 28.11 28.22 20.33 22.13 22.29 23.51 25.32 25.82 26.85 27.44 27.20 26.68 25.96 26.04 27.15 26.08 21.06 16.02 13.18 17.70 18.07 17.84 14.61 15.18 19.43 22.30 22.12 22.24 23.17 23.16 22.87 23.88 22.88 22.29 20.06 19.01 18.42 22.01 23.78 24.57 24.64 24.23 24.61 24.07 22.93 22.67 23.73
45.47 44.73 43.87 42.57 39.13 30.50 24.73 24.48 29.39 23.77 19.31 22.26 22.24 20.69 23.80 25.03 26.43 25.56 24.88 26.30 27.01 20.98 18.81 15.76 19.68 22.48 22.27 22.12 20.58 21.42 21.36 24.04 22.27 20.05 20.85 21.55 22.02 17.63 20.08 20.27 21.85 21.76 21.78 18.70 20.22 27.13 23.81 23.83 24.67 23.68 23.98 24.13 22.09 23.36
42.96 42.56 40.80 34.91 30.79 29.03 25.70 23.76 22.44 20.86 22.19 20.22 21.12 20.74 21.85 24.16 23.26 20.14 16.73 22.83 20.48 14.42 17.27 21.13 20.69 22.37 23.67 23.12 23.50 23.68 23.22 22.98 20.88 20.65 20.24 18.72 22.82 20.32 21.76 22.25 20.44 21.70 21.73 23.94 22.82 22.91 24.94 22.94 23.85 24.57 24.49 25.12 25.70 23.38
39.87 40.19 33.18 33.78 27.71 24.95 22.55 25.40 22.33 23.57 21.46 20.19 20.13 22.68 21.36 19.53 15.45 10.89 14.90 15.57 11.69 17.91 19.94 19.10 19.04 20.69 22.10 21.83 21.60 19.39 22.79 22.82 21.95 21.17 25.14 24.00 19.80 20.44 21.63 22.02 18.96 18.96 17.74 20.69 22.05 22.29 23.27 24.24 24.72 25.10 24.32 24.79 25.96 23.76
39.04 36.24 31.71 29.67 24.09 22.71 20.46 25.04 21.74 21.63 21.36 18.36 19.73 19.03 17.22 13.49 10.76 14.07 12.54 11.33 15.29 17.43 19.63 18.64 15.88 14.24 17.41 17.28 16.58 17.33 16.97 17.07 19.89 20.34 21.12 20.72 21.30 21.65 20.82 21.46 20.22 18.10 20.33 20.16 20.58 21.90 22.79 26.15 25.52 24.91 23.96 23.78 23.19 21.84
36.25 28.60 25.67 23.23 21.07 18.49 22.74 16.97 21.80 20.41 21.25 21.10 18.79 15.48 15.02 12.34 12.63 11.74 11.06 11.63 17.84 19.26 17.61 13.42 14.22 16.85 16.55 16.17 16.11 17.26 17.97 15.46 15.63 17.98 19.48 17.20 18.64 20.59 20.87 21.26 21.24 19.75 20.38 22.47 21.52 21.41 21.04 21.74 23.49 21.68 21.63 19.75 18.62 17.03
29.50 22.33 22.42 14.73 17.60 19.49 16.96 16.88 18.19 19.32 17.56 18.22 16.73 14.28 12.72 11.90 10.58 8.04 10.81 12.97 11.99 15.17 14.94 13.64 14.33 15.35 15.86 15.04 14.99 16.90 17.60 16.80 15.19 16.71 19.89 16.12 17.49 17.49 16.61 17.25 18.73 19.70 20.38 17.13 15.99 16.17 16.59 17.62 18.01 17.66 17.62 17.92 17.11 16.78
20.73 19.58 18.27 16.03 16.17 19.18 19.05 17.29 18.11 17.74 18.25 15.05 11.51 10.41 11.25 12.28 9.26 11.51 12.36 12.91 15.48 14.22 13.96 15.75 17.34 16.44 16.49 16.43 16.06 15.40 16.77 14.71 13.35 12.58 15.63 14.12 16.25 14.00 15.78 16.41 17.04 16.97 16.45 15.01 16.01 15.08 14.79 14.97 14.85 14.16 15.36 17.55 21.56 18.80
16.09 12.90 19.02 23.72 21.38 20.40 19.50 20.44 21.67 20.24 17.24 14.68 11.16 11.23 13.71 10.86 9.64 13.78 15.57 13.46 14.19 11.49 12.11 13.62 13.93 13.58 13.29 13.98 16.52 17.16 15.68 10.01 9.67 12.18 15.26 14.82 14.29 13.77 17.00 13.84 10.01 13.23 16.46 17.45 16.16 14.68 13.97 14.47 14.52 15.14 15.67 17.59 18.03 16.82
20.70 19.61 17.61 17.26 19.39 20.29 18.81 18.57 19.21 17.75 14.45 14.69 16.08 12.97 14.51 15.09 15.31 15.52 14.29 12.26 10.72 7.40 9.38 7.78 8.90 9.28 9.71 10.15 10.03 12.23 9.21 4.48 7.92 7.10 7.41 9.66 8.74 4.69 3.97 8.82 11.26 18.50 17.24 14.33 16.99 17.96 16.88 15.78 15.31 15.53 16.02 17.02 17.92 18.35
17.95 21.76 22.87 18.82 18.46 16.68 15.33 17.66 16.41 15.22 18.03 14.87 13.81 12.12 13.00 14.25 11.74 10.89 13.76 11.38 5.59 12.67 10.98 9.81 9.95 2.07 5.11 5.41 4.09 5.29 2.57 3.34 3.18 1.76 0.30 3.46 2.29 5.87 3.64 9.61 9.78 10.22 11.01 12.14 18.84 19.11 17.47 18.81 19.38 19.36 17.11 15.88 15.61 11.58
18.48 21.73 19.40 17.03 17.12 14.28 11.84 10.84 10.05 11.91 15.27 15.30 16.42 14.51 15.05 13.54 11.76 8.28 10.35 8.54 9.66 8.40 6.29 4.49 2.05 4.56 4.57 3.75 5.66 4.40 1.05 1.23 3.06 3.67 -0.64 0.38 2.63 7.90 9.84 10.62 11.04 11.22 11.51 13.18 11.17 9.84 16.15 14.36 10.32 7.78 7.65 9.67 10.28 9.61
22.24 21.48 16.64 14.85 11.88 9.57 8.40 8.54 9.87 16.83 9.42 6.68 6.77 10.93 11.72 9.41 12.00 9.35 6.83 4.08 3.65 7.35 8.78 5.84 4.12 -1.96 3.07 1.65 -0.85 -1.24 2.89 0.63 -1.37 0.65 4.27 8.20 9.75 9.34 9.95 11.60 12.41 11.95 11.85 7.15 6.61 7.35 5.96 3.60 2.51 2.04 4.69 5.63 8.16 9.18
18.76 16.76 16.53 13.08 10.80 7.88 5.70 6.13 5.52 5.96 6.06 7.00 7.25 5.66 7.99 9.25 10.51 10.70 7.31 5.85 5.97 7.92 14.61 7.40 5.23 7.15 4.26 1.84 0.26 0.01 13.72 2.38 1.35 2.53 5.30 8.40 10.19 12.50 14.53 17.70 9.46 7.20 2.46 3.39 3.24 1.88 1.65 0.70 0.63 1.84 3.18 1.10 0.55 0.13
17.81 16.79 16.10 14.61 12.10 8.74 8.11 7.98 6.56 6.26 6.33 3.60 4.07 1.59 0.19 5.35 10.45 10.94 5.26 2.10 7.40 8.27 8.69 8.37 3.87 2.25 2.68 1.67 0.24 0.11 8.10 -0.89 4.37 16.60 18.07 21.08 22.46 23.04 16.69 11.05 9.76 8.32 2.39 1.44 1.08 0.23 -0.99 -2.58 -1.83 -1.75 -2.38 -2.51 -2.40 -1.62

GFSWCAN_sfc_wetblb_072.txt.gz
Wetbulb
47.05 47.35 47.46 47.49 47.53 47.65 47.90 47.33 46.77 48.34 51.23 50.69 50.11 49.06 48.38 49.16 47.17 41.64 37.51 38.96 34.30 28.80 29.99 32.93 32.88 29.82 30.84 32.30 30.62 32.06 33.48 34.44 33.51 30.48 28.96 27.97 25.99 27.18 25.80 27.14 26.84 26.62 23.87 23.62 24.62 23.75 21.06 32.46 33.17 29.13 29.92 31.41 32.35 31.94
46.62 47.19 47.26 47.22 47.34 47.54 47.70 46.76 46.51 48.49 50.23 49.56 48.74 48.12 48.42 49.47 47.01 43.28 35.05 39.08 38.15 31.80 30.94 34.80 33.81 34.63 34.56 33.33 32.35 31.95 31.50 32.40 33.50 30.66 29.78 28.85 28.05 27.07 25.57 23.31 28.40 26.08 28.80 26.77 27.08 27.19 30.80 30.72 31.03 31.78 32.40 31.51 31.28 31.05
46.43 46.83 46.61 47.01 47.35 47.42 47.29 46.69 46.49 48.93 49.33 48.61 47.96 47.44 48.28 48.23 46.45 42.88 37.56 36.58 35.01 29.72 29.99 30.59 29.93 34.52 37.25 36.17 36.71 31.87 31.92 34.58 33.14 33.17 31.17 30.00 28.46 29.35 25.13 26.13 25.34 28.04 30.99 29.22 29.67 30.08 29.07 30.71 31.81 32.52 32.34 31.26 32.28 32.62
46.33 46.65 46.62 47.00 47.17 47.06 46.87 46.43 46.06 49.22 48.20 47.71 47.70 47.88 48.53 47.30 46.30 42.67 38.20 37.93 35.52 31.76 26.57 28.67 36.13 33.29 36.88 37.18 36.56 36.12 35.06 34.88 34.34 32.64 29.30 28.94 28.66 30.22 27.71 28.68 28.00 30.16 30.70 28.43 26.28 27.61 29.22 30.39 30.78 31.33 31.86 32.44 32.50 33.17
46.44 46.60 46.78 46.92 47.09 46.98 46.46 46.00 45.71 48.13 48.32 47.64 47.14 47.56 47.53 46.59 45.27 40.89 39.05 38.10 38.21 32.67 27.25 28.12 32.57 34.54 34.99 35.56 35.24 35.44 34.46 32.30 31.01 28.70 25.88 26.31 28.34 28.43 26.89 26.61 25.59 29.25 28.84 26.90 26.20 28.70 28.21 28.87 31.46 32.26 30.27 30.53 32.13 31.91
46.56 46.66 46.81 46.86 46.81 46.71 46.04 45.84 45.95 48.58 47.52 47.81 46.88 46.23 46.74 46.32 43.55 37.68 34.08 38.24 39.77 37.36 28.54 24.94 32.31 32.26 34.13 34.41 33.68 33.02 32.87 31.49 30.16 28.48 26.36 26.94 29.14 26.91 23.25 22.63 27.21 28.06 29.25 30.12 28.31 29.33 30.77 30.84 32.18 30.49 29.56 30.69 31.73 31.33
46.80 46.81 46.63 46.83 46.59 46.23 45.41 46.83 49.20 48.50 47.60 47.33 46.29 46.78 46.33 44.06 39.03 35.78 33.42 36.67 40.68 37.09 29.70 25.53 26.45 31.85 33.83 32.56 31.47 30.89 31.52 29.98 29.19 27.84 26.88 26.06 26.64 25.90 24.50 22.01 27.08 28.14 30.50 30.73 30.40 30.10 28.34 29.48 27.40 29.11 28.45 30.23 31.14 30.46
46.79 46.59 46.68 46.60 46.51 46.17 44.92 45.62 48.10 48.45 47.63 47.19 46.66 45.69 44.84 43.70 40.62 34.18 36.86 41.84 40.08 34.02 29.63 21.28 26.42 25.81 31.85 28.38 27.47 30.41 28.33 28.93 28.29 27.21 27.01 25.69 26.45 25.10 22.23 26.32 27.58 28.75 28.49 27.99 27.78 28.54 28.17 28.00 27.47 28.10 28.67 28.22 27.41 26.81
46.97 46.54 46.39 46.44 46.67 46.29 45.46 44.23 48.14 48.17 47.29 46.48 45.79 45.21 39.51 36.80 32.04 33.14 41.71 41.60 37.97 33.22 24.81 20.68 19.03 18.83 29.88 28.59 29.23 28.97 28.89 26.28 28.47 26.27 26.43 26.83 24.74 20.01 26.38 27.21 27.09 28.38 27.37 27.18 27.97 27.22 27.03 26.28 26.66 26.31 26.09 26.26 25.14 25.81
46.83 46.23 46.21 46.59 47.02 46.48 45.67 45.61 48.73 47.63 46.99 46.52 40.58 35.87 31.89 33.39 42.15 41.35 36.66 31.00 28.88 28.44 26.76 18.66 22.26 22.89 27.30 27.01 27.72 24.48 28.48 24.33 14.67 26.11 27.17 25.33 24.26 27.57 27.45 28.03 28.55 28.92 28.00 27.60 20.70 22.27 24.46 22.37 24.87 24.50 24.87 25.70 25.72 25.94
46.78 46.60 46.73 47.00 46.56 45.62 44.67 47.44 47.80 47.15 44.80 36.86 33.48 32.05 35.90 41.05 34.98 31.25 24.28 21.65 24.43 20.67 23.88 21.01 21.85 24.45 29.91 23.51 26.76 28.59 26.82 28.12 23.18 25.31 22.66 20.34 26.08 26.76 28.34 26.74 27.21 26.81 26.13 25.80 26.50 27.07 25.88 25.04 23.21 24.18 25.51 26.51 26.34 25.84
46.59 46.59 46.64 45.69 45.03 44.48 45.62 47.65 47.04 41.04 37.43 37.58 36.30 37.45 35.21 30.99 27.86 24.15 21.42 23.15 21.29 18.93 24.44 23.87 25.53 26.98 27.87 29.42 24.76 26.54 22.50 26.63 17.37 27.72 24.67 21.30 23.46 26.15 26.34 26.45 26.39 26.29 25.26 26.76 27.12 26.74 26.30 27.07 26.07 25.23 24.43 23.23 23.18 23.78
46.59 46.45 46.04 44.59 45.27 47.83 47.48 46.87 45.38 43.39 41.10 37.42 31.63 28.56 27.61 22.63 17.00 15.94 14.00 14.94 21.02 23.96 22.95 23.50 21.58 25.25 27.08 27.78 26.25 26.37 16.96 17.76 28.20 24.00 20.64 21.42 25.86 27.67 26.87 24.05 25.91 26.03 25.84 26.73 26.80 26.79 26.64 25.93 26.45 25.67 24.59 25.13 24.92 24.53
46.39 46.13 44.84 44.14 47.48 47.03 46.69 45.94 44.88 41.96 36.70 30.14 23.01 18.87 21.45 18.90 18.23 20.42 22.65 20.69 23.82 24.54 25.68 24.31 22.48 23.73 25.97 22.23 24.25 13.68 24.46 24.78 12.72 8.53 13.20 18.56 26.05 25.93 25.76 25.90 25.37 23.20 24.96 24.99 22.21 21.72 22.50 23.86 24.23 25.33 25.40 24.76 23.79 22.81
46.02 45.28 43.85 46.30 46.86 46.38 45.90 45.24 42.43 36.80 32.68 26.56 23.59 22.49 15.51 24.23 26.53 22.09 18.64 23.84 24.31 28.13 24.91 23.07 22.59 23.81 19.37 19.74 23.83 21.72 19.01 8.83 14.26 14.06 18.16 20.96 24.01 23.48 23.67 24.53 24.50 23.72 19.61 18.35 18.71 17.92 18.26 19.91 21.74 22.94 24.61 23.84 22.85 23.09
45.78 45.05 42.23 43.81 45.81 46.10 45.36 41.76 36.89 34.35 30.58 24.94 19.09 17.39 24.69 23.06 21.31 21.30 22.47 24.17 24.80 26.30 24.33 24.27 19.05 15.78 16.92 19.67 16.11 11.87 12.07 11.15 15.40 16.45 21.72 22.59 22.37 22.80 23.00 24.28 24.29 23.41 22.83 22.91 20.73 20.10 21.16 19.73 20.86 21.83 22.71 22.35 22.83 22.74
44.96 40.97 44.67 44.86 45.54 45.69 42.96 35.03 32.82 28.14 26.16 20.59 18.56 25.84 25.28 18.63 18.36 21.51 25.98 26.07 27.51 24.81 19.35 19.34 13.62 15.05 20.72 14.97 15.29 15.99 14.81 17.03 19.57 20.73 20.62 23.46 23.48 23.22 23.13 23.79 24.38 24.36 23.13 22.46 20.59 21.47 20.16 21.08 16.81 16.50 17.34 22.24 20.94 22.96
39.65 42.81 45.48 46.64 44.80 41.60 33.71 32.86 28.91 24.63 21.65 22.40 19.74 23.53 26.29 23.36 24.10 25.31 26.30 27.25 25.84 24.05 21.11 15.26 19.90 13.15 13.60 13.10 14.16 19.85 20.12 16.42 20.09 21.58 23.15 25.87 24.81 23.47 24.09 23.22 24.14 23.52 22.33 19.34 20.13 18.01 15.19 17.85 18.81 21.80 21.80 23.02 21.33 21.19
41.15 45.66 46.20 44.56 40.92 34.02 30.34 29.20 27.29 21.59 22.80 23.53 24.96 25.11 24.91 25.03 25.63 25.47 26.33 26.47 25.88 26.52 22.62 16.24 14.06 12.05 17.92 17.98 17.96 14.02 14.09 18.68 22.93 21.84 21.02 22.17 21.77 21.34 21.95 20.50 20.59 19.12 18.26 17.47 20.74 22.69 23.18 22.87 23.21 23.41 23.30 22.82 22.01 22.93
45.11 45.63 43.79 43.03 39.53 30.36 26.51 25.27 27.42 24.56 21.27 23.30 23.30 23.17 25.78 23.94 25.22 24.53 25.35 25.54 26.07 17.89 17.54 13.65 18.32 21.32 22.37 22.02 21.07 22.29 20.95 23.20 21.56 19.36 20.10 20.38 20.52 15.87 18.70 18.63 20.51 19.51 19.24 17.32 19.31 25.41 22.65 21.58 22.71 22.13 22.16 22.70 23.75 23.18
44.09 42.37 43.25 35.15 30.23 29.23 26.32 22.99 22.58 23.38 22.61 20.67 19.72 19.99 19.58 20.40 19.59 20.76 14.91 20.60 20.12 11.97 14.73 18.94 19.85 21.65 22.94 22.71 23.15 23.27 22.63 22.06 20.11 19.82 19.13 17.48 20.73 17.90 19.13 19.00 16.14 20.01 19.14 21.64 21.07 21.54 23.18 21.11 22.58 23.08 23.20 23.62 23.60 23.68
40.14 41.15 33.14 33.04 27.41 25.50 23.52 25.67 23.92 24.24 20.34 18.38 17.70 19.98 17.89 17.61 17.92 13.35 12.88 16.75 12.75 16.81 18.50 19.01 18.58 19.94 21.44 21.03 20.82 18.03 21.73 21.77 21.15 20.30 24.31 23.16 18.47 18.20 20.28 21.19 18.51 17.54 14.67 17.17 19.58 19.96 21.27 22.52 23.55 24.70 24.81 24.80 25.49 23.11
38.68 36.65 31.38 29.19 24.28 23.49 20.93 25.32 22.85 21.84 20.81 18.15 17.66 17.12 14.55 15.81 14.31 14.04 14.48 12.16 15.09 16.80 18.94 17.57 14.07 12.75 17.66 15.89 15.71 16.47 15.42 16.06 18.91 19.34 19.97 19.61 19.97 19.17 17.66 17.58 16.94 12.66 17.68 19.19 20.02 20.59 19.52 22.06 20.83 21.12 21.13 20.93 20.81 19.95
36.63 29.67 26.32 23.28 22.70 18.54 22.78 18.31 22.64 21.49 20.10 18.08 14.95 13.55 14.65 15.54 13.11 12.06 12.92 12.26 17.30 19.21 17.81 13.31 14.86 17.11 16.14 16.07 15.59 16.37 16.31 13.24 13.51 14.71 18.15 15.86 13.69 17.02 18.18 17.33 17.21 16.41 18.18 18.25 16.92 15.94 15.74 16.56 19.30 17.66 17.44 16.54 16.48 17.10
28.73 23.82 23.35 16.75 17.24 16.97 14.71 13.28 14.07 17.11 15.00 15.70 15.79 13.95 14.00 12.98 12.91 10.68 12.87 13.63 13.05 15.89 14.84 13.66 14.18 15.28 16.66 14.77 13.68 15.25 15.66 14.89 13.28 13.98 13.85 13.27 13.09 12.15 10.68 13.79 15.58 16.11 17.67 12.31 12.36 13.75 13.91 14.58 14.46 14.01 13.71 13.64 14.98 17.63
23.27 20.68 20.06 17.29 14.48 17.63 17.16 15.91 15.47 16.76 17.49 14.01 13.19 11.99 10.12 14.66 14.56 14.27 14.31 15.29 16.55 14.59 15.08 18.06 18.35 16.51 15.88 15.50 14.94 13.79 15.27 12.94 10.64 9.26 9.94 11.30 11.29 9.69 12.33 14.89 11.79 11.14 12.88 10.47 13.57 13.39 12.79 12.82 12.98 13.18 13.64 15.15 18.99 17.83
16.97 14.43 18.82 23.55 21.11 20.94 20.15 20.94 21.86 20.96 18.52 16.14 13.10 13.49 15.16 13.85 13.75 15.52 14.99 14.06 14.86 12.52 15.00 17.20 16.24 15.39 14.94 13.62 15.14 15.24 13.14 6.06 8.48 9.31 11.82 10.27 10.02 11.69 13.45 9.07 7.10 11.45 13.78 15.35 14.71 13.08 12.57 13.50 13.97 14.16 13.99 14.82 15.79 17.19
20.13 19.32 17.60 18.70 18.32 19.40 19.39 19.27 19.75 17.88 16.48 16.59 18.44 16.79 18.83 18.18 16.65 15.39 15.14 12.55 10.28 12.13 11.43 8.36 8.33 9.39 9.11 8.76 8.09 10.34 5.01 2.39 2.83 2.89 5.25 7.02 5.31 1.19 1.83 4.71 7.64 18.03 15.93 11.26 14.62 16.22 15.73 14.50 14.20 14.50 14.72 14.83 16.28 17.50
18.56 21.53 22.37 17.80 17.79 15.27 14.02 18.12 17.31 17.25 18.80 17.06 16.23 13.14 13.11 13.56 10.53 10.17 13.51 11.43 6.73 16.66 15.33 13.52 8.34 -0.36 2.51 2.17 1.29 0.52 -0.00 3.15 4.57 2.39 1.10 1.38 1.56 4.84 1.57 8.44 8.63 8.97 7.14 8.03 16.53 18.05 16.79 18.37 16.96 16.25 14.43 13.83 14.20 11.67
18.63 21.38 18.17 15.78 16.09 13.02 11.55 13.16 15.17 15.83 16.70 15.86 17.01 14.61 14.49 12.64 10.41 7.64 10.33 10.95 13.13 10.25 7.54 5.81 2.60 4.27 4.37 3.49 2.11 2.02 -0.85 -0.80 1.79 3.22 -1.21 -1.00 1.12 4.47 7.79 7.98 9.91 10.13 8.00 8.05 10.01 7.55 14.51 11.86 8.53 6.32 7.82 9.47 9.58 5.86
21.83 19.62 15.05 13.75 11.39 11.46 12.17 11.49 13.42 16.82 11.75 10.09 8.21 11.52 10.27 9.20 12.05 9.35 7.57 3.56 3.28 6.62 9.55 4.45 1.39 -4.45 2.58 1.17 -0.04 0.10 2.84 -0.82 -3.18 -0.39 1.49 5.52 6.04 7.17 8.49 10.38 11.74 12.35 9.77 3.57 4.29 3.50 -0.12 -0.58 -1.52 -1.23 0.67 -0.14 0.61 2.45
18.48 16.78 17.23 14.47 13.56 13.65 12.47 10.83 8.92 10.61 9.12 9.79 6.84 5.19 8.16 11.32 11.89 11.56 7.39 5.58 4.36 6.42 14.45 8.41 6.86 8.29 4.10 0.34 -0.66 -0.62 13.25 0.79 -1.05 -1.14 0.83 5.45 7.52 10.46 13.26 13.54 9.76 8.55 1.06 -0.05 -0.82 -0.93 -2.61 -4.11 -3.74 -2.69 -1.39 -2.95 -2.30 -2.33
18.66 19.21 17.14 15.92 15.09 13.77 9.98 10.99 9.44 8.39 6.73 4.45 4.71 2.15 1.21 6.87 11.10 12.59 4.00 1.09 8.45 10.99 10.70 9.33 1.77 2.19 3.58 2.37 0.66 -0.30 7.69 -2.43 3.15 15.96 17.83 21.06 22.83 22.60 12.82 7.62 9.18 3.77 1.13 0.10 -2.40 -3.91 -4.11 -6.30 -5.36 -5.70 -3.59 -2.07 -1.64 -1.39

GFSWCAN_sfc_wetblb_075.txt.gz
Wetbulb
45.89 46.31 47.12 47.62 47.72 47.75 48.33 48.50 47.92 48.12 50.71 50.51 50.26 50.06 50.35 49.51 46.20 42.13 37.44 37.47 33.50 28.92 30.03 31.95 32.38 29.77 31.83 32.66 30.94 32.26 33.37 34.18 32.93 29.57 28.49 27.40 25.44 26.30 24.06 25.51 25.35 26.16 23.46 23.13 25.11 24.88 20.35 31.21 32.22 27.80 29.03 30.16 31.51 31.11
45.60 46.30 46.91 47.45 47.65 48.08 48.18 48.20 47.67 47.73 50.66 50.22 49.09 48.52 48.45 48.50 46.17 43.53 35.68 38.36 37.52 31.92 30.28 33.46 33.14 33.92 33.69 32.67 32.39 31.18 30.98 31.96 33.20 30.15 29.05 28.57 27.74 25.70 24.54 22.64 26.60 25.35 27.95 26.21 26.85 26.36 29.31 29.74 29.80 30.80 31.45 30.94 30.21 29.60
45.24 46.20 46.80 47.44 47.32 47.69 48.04 47.91 47.46 49.67 49.62 49.10 48.22 47.20 47.95 49.31 46.70 43.13 36.61 35.88 34.01 30.06 29.46 30.29 29.59 34.07 36.33 35.30 36.08 32.17 31.68 34.11 32.83 32.27 30.32 29.13 28.21 28.88 24.28 25.08 23.26 26.80 29.74 28.26 28.63 27.81 27.70 29.13 30.42 31.17 31.46 30.36 31.13 31.44
45.07 45.92 46.88 47.09 47.17 47.43 47.66 47.46 47.03 49.02 48.88 48.22 47.34 47.19 48.51 47.37 45.73 43.16 37.36 37.12 34.45 31.26 26.66 28.43 35.29 32.70 35.91 35.84 36.01 35.79 34.86 34.62 33.73 31.94 28.53 28.78 28.52 29.42 26.43 27.94 27.16 29.17 29.38 27.78 26.10 26.09 26.91 29.65 29.57 29.94 30.88 31.32 30.98 31.81
45.13 46.08 46.90 47.09 47.27 47.38 47.39 47.06 46.45 46.75 48.13 47.74 47.37 48.10 47.46 46.68 45.14 41.47 38.06 37.56 36.72 32.80 27.05 28.03 31.90 33.85 34.74 34.98 34.72 35.12 34.40 32.38 30.88 28.68 25.88 26.10 28.22 27.74 25.61 26.39 24.95 27.68 28.03 26.73 26.01 28.36 27.98 27.77 30.56 31.45 28.92 28.60 30.20 29.60
45.47 46.18 46.86 47.19 47.20 47.32 47.21 46.73 46.23 46.90 47.32 47.39 47.50 48.13 47.25 46.17 43.54 37.15 34.11 37.26 38.38 35.84 29.33 24.70 31.58 31.51 33.90 33.76 33.03 32.49 32.59 30.65 28.77 28.69 26.01 26.42 28.44 26.62 23.72 23.24 26.42 27.04 28.38 29.24 27.90 28.43 29.55 29.62 30.75 29.53 27.64 28.38 29.84 29.67
45.03 45.98 46.55 47.08 47.10 47.15 47.04 46.14 46.84 48.40 47.55 46.86 46.20 47.26 45.37 44.27 38.67 34.47 33.99 36.57 40.14 35.96 28.64 25.26 24.57 31.13 33.01 31.15 30.94 31.19 31.13 29.31 28.69 27.28 26.45 25.53 25.95 25.52 24.43 22.45 26.01 27.29 28.34 28.21 28.09 29.16 27.28 28.15 26.15 28.12 26.55 28.43 29.46 28.14
45.05 45.78 46.45 46.98 46.97 46.85 46.29 46.35 48.86 48.03 47.39 46.67 47.00 46.37 44.90 43.93 40.70 33.90 36.90 42.59 38.66 31.59 28.45 22.37 25.24 26.04 31.38 28.17 27.48 30.16 28.68 28.65 28.00 26.49 26.39 25.26 25.95 24.95 22.09 25.80 26.46 28.51 27.36 26.68 26.81 27.03 26.65 26.62 26.19 26.12 26.36 26.89 25.52 25.28
45.01 45.73 46.29 46.86 46.71 46.75 46.23 45.30 48.16 47.80 47.16 46.88 45.94 44.95 38.64 35.61 31.82 32.35 41.99 40.68 37.26 33.46 24.17 21.61 20.33 19.19 30.25 28.11 29.18 29.00 29.05 25.71 27.97 25.60 25.90 26.31 24.14 19.81 25.68 25.87 26.59 27.81 27.30 26.77 27.54 26.12 25.42 23.96 24.76 24.92 24.45 24.35 23.28 24.29
45.09 45.68 46.33 46.66 46.79 47.07 46.75 44.21 48.08 47.83 46.99 46.62 40.02 35.25 29.94 32.74 41.68 40.77 34.57 29.90 28.89 29.10 27.13 22.58 25.38 22.58 26.01 25.41 24.61 24.79 27.57 24.72 15.28 25.34 26.67 24.73 23.57 27.81 26.67 27.23 28.37 28.51 28.33 27.47 20.52 20.86 23.04 20.98 23.67 23.20 23.89 24.20 24.29 24.75
45.58 46.02 46.81 46.93 46.86 47.17 46.88 44.44 48.14 47.30 45.68 36.70 32.81 30.66 34.33 40.60 33.86 29.93 24.18 23.06 24.87 21.56 26.33 22.82 22.84 24.28 28.74 21.49 23.88 27.45 23.13 25.49 15.53 21.25 21.49 17.33 20.63 25.69 26.77 26.19 26.87 26.35 25.35 24.78 25.54 25.85 24.67 24.12 22.07 23.27 24.41 25.65 25.73 25.07
46.26 46.65 46.86 47.07 47.00 47.33 46.95 44.81 47.89 41.98 37.14 37.72 36.55 37.35 33.75 29.22 24.76 20.42 15.68 22.40 23.79 20.62 24.16 24.10 25.34 26.87 27.32 28.55 24.73 25.10 21.69 24.38 15.43 26.83 19.36 15.15 23.10 25.64 25.97 25.41 25.17 24.71 23.81 25.03 25.31 25.60 25.26 26.30 24.79 24.10 23.32 22.18 22.52 23.24
46.54 47.06 47.40 46.99 47.27 47.29 46.41 46.40 46.27 43.39 40.95 36.88 32.50 28.83 27.93 22.40 15.88 13.14 13.21 15.22 16.76 23.80 25.18 23.36 22.66 24.99 26.57 27.28 23.72 20.49 15.79 16.47 27.73 23.66 17.03 19.98 24.72 26.87 25.69 23.70 25.01 25.49 25.23 25.84 25.83 25.51 25.32 24.06 25.03 24.09 23.26 23.98 23.45 23.17
46.81 47.09 46.81 47.02 46.97 46.75 46.08 46.65 45.27 42.34 36.75 30.70 24.66 22.21 22.90 15.30 15.98 17.85 20.84 22.52 26.08 25.81 24.00 23.43 23.49 23.60 25.50 21.91 22.31 13.82 24.70 22.72 16.23 9.04 13.65 18.48 24.89 26.43 25.45 25.36 24.70 22.33 24.31 24.62 21.87 20.64 22.17 23.20 22.84 24.10 24.02 23.07 22.48 22.38
47.08 46.88 46.70 46.14 46.10 45.62 46.36 46.63 43.84 37.19 32.31 27.33 24.45 21.24 15.30 23.61 25.10 23.54 20.76 24.02 23.54 27.22 24.27 22.24 21.56 23.64 20.22 20.70 23.42 22.87 20.29 9.38 15.34 15.18 18.59 20.63 22.24 23.92 23.91 24.03 23.35 22.95 19.51 18.64 17.78 16.71 16.09 17.24 19.77 21.40 22.90 22.73 22.36 22.54
46.86 45.86 42.34 44.13 46.97 47.05 46.12 43.27 37.55 34.77 29.65 23.58 17.99 17.59 23.92 22.51 23.81 20.24 16.02 19.57 22.77 25.11 23.98 24.39 19.45 17.44 17.56 19.44 15.96 12.30 13.59 12.25 16.27 16.89 21.75 22.04 21.65 23.08 23.14 23.40 23.51 23.07 22.14 21.72 20.08 19.04 19.95 18.97 20.15 19.95 19.18 20.36 20.91 21.50
45.07 38.08 43.83 46.96 45.74 44.03 42.83 35.70 33.62 28.71 27.18 19.82 20.28 25.81 25.55 23.93 22.65 22.73 24.34 24.97 25.94 23.27 19.14 19.43 15.08 15.95 19.95 14.09 13.94 14.80 13.66 16.60 18.33 19.59 20.66 23.23 23.53 22.40 22.06 23.03 23.80 23.74 22.45 21.28 19.46 20.93 19.99 19.13 13.71 15.15 16.73 20.66 19.90 22.39
39.52 42.22 44.72 45.87 42.40 39.61 34.93 33.51 29.60 26.51 20.20 19.89 22.15 23.97 26.46 24.34 23.72 24.22 24.44 26.03 25.29 23.00 21.08 17.14 20.11 13.54 13.39 12.93 13.95 18.36 18.62 14.64 19.33 21.17 22.58 25.19 23.62 22.42 23.10 21.56 22.60 22.20 20.68 18.52 18.99 17.52 13.58 16.84 18.20 20.68 20.60 21.37 19.74 20.41
40.86 42.73 44.94 43.57 40.04 34.54 31.64 30.61 29.38 20.15 19.14 23.54 25.55 25.81 25.34 25.44 25.74 25.66 25.87 25.67 25.65 25.49 20.42 14.50 14.33 12.76 16.93 17.28 15.84 11.80 13.06 18.58 23.83 22.70 20.39 21.00 20.27 20.28 20.44 18.55 18.48 16.82 15.65 14.38 19.15 20.51 21.29 21.24 21.42 21.98 22.19 21.35 20.66 21.99
44.94 44.79 44.26 43.62 40.17 31.61 27.83 27.46 29.16 23.11 20.87 23.74 24.62 24.44 25.16 23.53 23.91 22.96 23.75 24.92 24.64 15.05 15.62 14.07 18.70 20.63 21.60 21.13 20.57 21.83 21.11 22.50 20.55 18.38 19.09 19.40 18.53 14.00 16.97 17.13 18.90 18.27 18.02 16.33 16.83 24.04 20.39 20.14 21.53 21.34 21.62 23.04 24.14 22.75
42.81 42.50 43.46 37.39 31.73 30.45 28.21 24.62 23.11 22.40 23.13 23.22 23.42 23.78 20.31 18.20 17.18 15.63 14.95 20.12 15.60 11.85 16.55 19.10 19.66 21.20 23.33 22.59 22.97 23.63 22.21 21.28 19.26 19.02 18.24 14.66 19.44 16.66 16.12 16.35 13.41 17.89 17.32 19.40 18.93 19.74 20.88 19.97 21.11 22.09 22.81 23.35 23.73 24.15
40.71 41.57 32.34 32.42 28.16 26.56 24.64 26.03 24.15 23.78 21.53 22.54 21.69 21.91 16.98 15.28 13.91 12.68 11.56 11.70 12.65 18.65 19.79 19.38 19.26 20.45 21.43 20.82 20.32 17.56 21.18 20.77 20.13 19.62 23.10 22.09 17.51 16.51 18.12 18.02 16.84 14.05 13.19 13.66 17.45 18.22 18.08 18.59 19.30 19.54 19.27 19.29 20.68 20.27
38.64 35.43 31.30 29.87 25.07 24.15 21.24 25.51 22.16 22.23 21.74 20.09 18.91 18.59 15.36 10.61 10.98 14.16 13.45 10.52 14.81 16.77 18.62 17.83 15.13 14.25 18.73 15.34 16.12 15.81 15.20 15.99 18.12 18.43 19.07 18.59 18.74 17.33 14.50 14.82 14.06 7.47 12.53 17.13 16.67 15.69 14.51 18.86 17.07 17.77 16.99 16.44 16.10 15.93
36.96 30.84 27.48 24.53 23.74 19.71 23.74 20.32 23.89 22.04 21.29 18.61 15.82 14.05 12.54 13.16 14.42 15.01 16.59 13.19 17.57 19.06 17.56 13.69 19.37 18.08 16.86 16.71 15.72 15.63 14.87 12.54 12.46 13.47 16.44 14.15 10.36 14.78 15.20 14.17 14.39 13.42 16.15 15.58 13.15 13.03 13.54 14.31 17.07 14.66 14.18 12.92 12.47 12.93
28.62 24.12 25.26 18.47 21.36 19.46 18.35 17.91 18.59 19.34 16.36 14.71 14.95 11.34 11.09 14.29 16.65 14.92 14.96 13.71 13.38 16.62 16.46 16.48 15.69 16.71 17.29 14.27 13.31 14.26 13.85 13.61 11.75 11.68 10.77 11.86 11.35 9.55 8.08 11.65 13.66 14.07 13.72 8.08 10.63 11.76 11.98 12.47 12.27 12.18 12.45 12.96 14.13 16.19
22.73 21.33 21.93 20.08 16.74 18.71 18.34 17.02 17.23 17.13 16.60 13.15 13.69 13.33 13.19 16.44 17.74 17.62 16.45 17.54 17.16 16.91 17.23 19.91 18.81 16.64 15.83 15.48 14.90 13.28 14.62 11.91 10.56 8.62 7.58 9.49 9.43 6.21 1.45 8.26 5.84 9.74 10.75 8.33 11.22 11.54 11.21 11.60 11.98 11.82 12.42 13.15 17.59 15.20
18.59 17.13 20.35 23.41 22.03 21.79 20.51 21.16 21.74 20.76 18.09 15.22 12.96 12.66 15.88 17.07 15.05 17.02 16.06 15.59 16.96 15.80 18.71 19.44 19.45 17.93 17.42 14.90 14.38 13.95 11.14 4.95 7.60 7.76 8.42 8.22 8.46 8.76 7.03 4.40 4.26 9.82 12.86 13.82 12.39 11.21 10.98 12.14 12.36 11.91 12.57 12.97 13.78 14.42
20.69 18.95 17.25 18.56 19.31 20.21 20.38 19.58 19.80 19.56 18.03 17.94 19.03 17.50 18.68 18.76 18.25 18.12 16.40 11.60 11.40 15.64 11.88 9.37 10.43 14.00 13.98 9.02 8.47 10.20 4.02 0.89 -0.84 -0.22 3.05 5.11 3.28 -0.12 0.09 2.99 6.28 17.15 16.28 10.62 14.61 14.48 13.88 13.38 12.97 13.26 13.19 12.93 13.31 13.87
18.37 20.64 21.47 16.21 16.78 15.36 15.61 18.58 17.73 17.79 19.39 19.48 18.42 14.67 14.55 15.46 13.23 9.85 11.83 12.29 8.34 19.03 17.17 14.72 6.62 3.97 5.82 2.54 0.61 -1.54 -0.66 2.19 3.97 1.21 0.72 0.36 -0.11 3.64 -1.12 2.10 4.17 6.11 5.63 5.63 15.49 17.27 16.09 17.78 14.59 14.59 10.30 9.89 10.33 9.09
17.90 21.55 17.40 14.63 16.05 13.10 12.30 13.23 15.63 16.31 17.61 17.65 18.74 17.05 16.75 14.35 11.13 8.43 11.44 12.48 16.83 16.25 11.61 12.85 10.08 8.74 7.28 7.34 3.36 2.03 -1.54 -2.52 0.91 4.27 0.72 -0.26 1.23 1.56 1.49 5.91 7.95 7.73 6.54 5.90 5.73 3.64 13.08 7.08 3.99 -0.77 1.12 2.13 2.70 1.10
21.49 18.86 14.72 13.59 11.46 12.27 12.93 13.05 16.48 17.34 14.73 13.89 13.04 14.33 13.21 12.73 12.86 8.92 7.23 4.59 6.93 9.38 12.14 7.65 0.08 -4.11 6.92 -0.79 -0.32 0.28 2.96 0.37 -4.02 -1.61 -1.32 -1.25 -1.06 1.81 7.72 9.20 9.80 9.62 5.30 -1.38 -2.03 -1.52 -3.82 -2.93 -5.17 -5.04 -1.97 -2.48 -1.83 0.95
18.59 16.55 16.17 13.32 13.27 14.84 14.74 15.19 14.71 14.62 12.45 12.52 10.38 8.29 7.98 12.23 12.35 13.00 8.75 7.45 9.00 11.73 15.72 14.02 11.63 9.24 4.96 -0.14 -0.73 -0.94 13.62 3.04 1.02 0.35 -2.10 -0.38 2.80 8.99 10.82 8.02 6.49 0.92 -1.03 -1.62 -3.48 -4.60 -5.33 -6.67 -5.26 -3.32 -1.51 -2.25 -1.79 -1.56
18.62 18.83 17.25 16.29 16.19 16.75 16.14 16.84 13.88 12.50 10.24 7.84 5.23 1.47 1.24 9.16 14.06 15.97 6.11 4.05 12.11 18.20 15.50 11.57 2.15 3.00 6.44 4.25 2.48 0.51 7.79 -2.73 2.81 14.69 18.00 19.62 22.67 22.73 11.29 5.25 4.39 1.66 0.87 -0.36 -2.60 -4.31 -4.82 -7.05 -5.51 -4.79 -1.59 -0.07 0.60 0.28

GFSWCAN_sfc_wetblb_078.txt.gz
Wetbulb
45.03 45.76 46.42 47.46 47.81 48.13 48.53 48.80 48.64 49.62 50.58 50.67 50.94 50.41 49.16 48.23 47.55 40.94 35.28 36.03 32.89 28.36 30.39 31.65 32.80 32.27 33.56 34.42 31.40 32.09 32.91 33.98 32.48 29.22 27.93 26.72 24.91 25.21 22.81 23.60 23.68 25.69 22.67 22.51 26.12 24.41 18.82 29.31 31.27 25.98 28.45 29.13 30.45 30.03
44.89 45.43 46.23 47.10 47.84 48.02 48.16 48.52 48.12 50.19 50.20 49.69 49.50 49.50 49.36 47.71 47.78 43.24 34.48 37.24 36.46 31.32 29.79 32.68 32.86 35.42 32.74 32.16 32.24 30.70 30.82 31.37 32.60 29.82 28.45 28.20 27.31 24.36 23.39 21.87 25.41 24.56 27.27 25.52 26.24 25.63 28.90 28.31 28.57 29.57 30.68 30.43 28.92 28.95
44.80 45.26 45.92 47.10 47.71 47.88 48.13 48.34 47.88 50.18 49.53 49.00 48.78 48.91 48.89 47.71 47.09 41.92 34.79 35.17 33.87 29.78 29.28 29.93 29.29 34.21 35.59 34.20 35.44 32.28 31.62 33.60 32.51 31.63 29.76 28.79 28.04 27.89 23.64 24.24 22.30 25.56 28.49 27.30 28.11 26.98 27.02 28.13 29.17 29.85 29.69 29.31 30.05 30.18
44.63 45.06 45.98 46.87 47.65 47.87 47.92 47.97 47.27 48.80 48.80 48.38 47.41 48.92 49.45 48.05 46.21 42.51 36.26 35.47 33.61 31.13 26.91 27.65 34.53 32.02 35.49 35.13 35.41 35.59 34.87 34.30 33.15 31.28 28.27 28.72 28.35 28.35 25.83 26.55 26.31 28.65 29.06 27.16 26.92 26.75 26.32 29.49 29.93 29.77 30.32 29.69 29.68 30.10
44.41 44.97 45.81 46.31 47.33 47.70 47.69 47.64 47.07 46.70 48.26 47.44 48.18 48.05 47.19 46.30 45.55 40.18 37.41 36.68 35.60 32.96 26.90 27.41 30.91 33.37 34.54 34.43 34.49 34.93 34.55 32.74 30.44 28.77 25.19 25.83 27.56 26.94 24.40 25.88 24.67 28.07 28.05 26.91 26.48 28.77 28.07 27.69 29.57 31.26 28.21 27.29 28.58 28.23
44.18 44.91 45.12 46.29 47.01 47.55 47.62 47.49 47.03 46.45 47.89 47.42 47.68 47.88 46.49 45.11 43.65 37.43 32.87 36.69 37.53 35.78 29.45 23.35 30.32 30.26 33.25 33.09 32.18 31.83 31.90 30.38 28.64 28.95 26.11 26.25 27.77 26.09 23.60 23.18 26.63 26.30 27.55 28.65 27.92 27.36 28.39 28.79 30.15 29.06 26.66 27.30 27.11 28.02
44.22 44.39 45.22 46.01 46.98 47.41 47.49 47.41 46.99 47.07 47.84 47.37 47.47 46.48 45.39 44.23 39.64 34.86 32.59 35.69 39.67 35.51 29.00 21.39 22.79 30.33 31.24 30.71 30.40 30.07 30.24 29.32 28.44 27.10 26.26 25.30 25.73 25.13 24.25 22.39 25.88 26.81 28.11 27.75 27.77 28.02 25.90 27.48 25.62 27.25 25.99 27.07 28.36 26.97
44.34 44.35 45.02 45.93 46.78 47.19 47.25 46.13 48.40 48.34 47.66 46.83 47.12 45.60 44.93 44.10 40.92 35.15 36.31 42.31 37.35 31.71 29.67 21.19 22.41 24.20 30.69 28.09 27.23 29.54 28.25 28.53 27.95 26.05 25.98 24.90 25.64 24.84 22.17 25.65 25.33 27.96 27.67 25.98 25.66 26.04 25.11 26.41 25.28 24.11 24.90 25.31 24.34 23.91
44.08 44.39 44.91 46.02 46.75 46.89 46.65 45.42 48.72 47.91 47.13 47.03 46.14 44.10 38.75 35.32 32.33 32.80 42.11 39.92 35.93 32.06 23.03 22.63 19.74 17.13 30.03 28.85 28.85 29.03 28.92 25.55 28.34 25.59 25.39 25.67 23.76 20.87 25.64 25.25 26.00 27.63 26.93 26.24 27.30 25.08 24.39 23.10 22.75 23.37 22.06 22.55 21.78 22.88
43.88 44.37 45.14 45.96 46.59 46.76 46.95 45.13 48.16 47.62 46.94 46.08 39.12 34.15 30.56 32.83 41.42 40.02 34.12 30.37 29.67 29.50 28.07 19.15 22.35 20.25 25.71 25.63 25.78 25.03 27.12 25.18 18.51 25.73 26.20 24.20 23.01 27.74 26.89 26.95 27.82 28.56 28.12 27.28 20.24 20.26 21.95 20.39 22.81 22.10 22.64 23.19 23.03 23.36
43.71 44.58 45.42 46.22 47.04 47.18 47.10 45.11 48.10 47.14 43.78 36.17 31.60 29.89 34.06 40.37 33.57 29.61 24.34 21.92 24.57 21.55 27.07 24.50 23.09 24.43 29.73 23.24 23.99 26.85 20.57 22.24 15.44 22.21 21.72 16.91 19.52 24.93 26.09 26.01 26.79 26.59 25.97 24.40 24.57 25.06 24.32 23.73 20.94 22.50 23.57 24.57 24.68 24.21
44.08 45.27 46.07 46.61 47.07 47.20 46.96 45.39 47.55 42.36 38.18 37.18 35.37 36.50 33.29 29.12 24.99 20.77 17.03 22.15 21.24 20.06 23.81 23.20 24.62 26.50 26.79 28.19 24.97 25.02 19.56 19.00 16.28 24.56 16.94 13.55 21.13 25.05 24.93 25.00 24.23 24.03 23.66 23.78 24.63 25.22 24.87 25.52 23.85 23.38 22.26 20.83 21.00 22.10
44.60 45.74 46.37 46.83 47.34 47.30 47.24 46.17 47.04 43.52 41.21 36.72 32.37 28.26 26.26 22.03 15.87 14.50 13.49 13.62 18.99 23.95 25.61 25.92 22.71 25.28 26.31 26.98 23.20 19.50 14.52 16.25 26.09 21.99 13.30 18.14 23.10 26.22 24.92 22.69 24.23 24.36 24.64 25.51 25.30 25.34 25.24 23.66 24.20 23.07 21.99 22.63 22.24 21.42
44.61 45.75 46.54 47.31 47.82 47.39 47.21 46.77 46.19 42.27 37.38 31.16 25.69 21.14 20.30 13.89 17.89 19.53 19.81 22.15 24.90 25.80 24.85 23.69 24.07 23.49 25.37 21.58 21.75 13.22 24.78 23.59 14.92 8.56 12.26 16.33 22.00 25.71 24.74 24.88 24.55 22.03 23.47 24.07 21.98 20.74 22.02 23.87 23.05 23.58 23.30 22.27 21.22 20.58
44.84 46.10 46.69 47.19 47.15 47.09 46.54 46.95 44.98 38.25 33.30 28.70 24.17 17.44 17.66 22.57 22.88 21.41 19.86 21.59 24.04 26.84 24.19 22.61 21.69 22.45 18.87 19.44 22.83 23.59 20.19 13.44 14.94 15.09 17.23 18.05 19.65 22.95 23.22 23.68 23.21 22.02 18.28 17.86 17.36 16.17 16.16 16.64 18.34 19.97 22.12 22.01 21.50 21.53
45.68 46.00 45.19 46.70 47.08 47.00 46.10 44.52 38.48 36.33 31.35 25.93 18.47 14.08 21.97 19.07 22.74 24.48 18.62 23.21 24.65 25.08 23.62 23.58 17.86 14.01 16.42 18.57 15.08 16.11 13.36 12.42 17.39 16.80 19.90 20.56 20.66 22.61 22.78 22.99 22.37 21.84 21.21 21.10 19.38 18.05 18.97 17.48 18.95 19.13 18.00 19.18 20.58 20.83
45.25 41.29 45.93 46.49 46.79 46.28 44.05 36.52 34.08 31.33 30.19 25.12 16.60 23.73 25.08 23.83 24.42 25.09 24.59 25.27 26.13 24.20 19.09 18.75 12.92 15.39 18.63 11.97 15.54 15.34 14.83 17.54 17.18 17.56 19.64 22.54 23.12 21.44 21.35 22.69 22.60 22.16 20.86 19.88 17.51 18.20 16.82 18.49 12.46 13.28 15.36 19.31 18.76 21.12
41.64 42.68 45.45 45.86 45.19 43.49 34.81 33.24 32.00 29.10 24.99 21.24 19.51 22.07 26.84 25.66 25.52 25.41 25.51 26.57 25.98 23.22 20.90 17.06 18.67 12.18 13.08 14.42 14.68 18.20 18.18 14.37 19.76 20.72 21.86 24.20 21.87 20.53 22.05 20.63 21.39 20.56 17.56 13.88 15.87 13.82 11.61 13.54 16.21 19.61 19.11 20.28 19.41 19.51
41.99 44.05 45.51 45.06 41.30 34.71 31.89 30.12 31.01 24.68 21.05 21.36 23.83 25.73 26.15 26.56 26.87 27.02 26.44 26.17 25.77 24.89 20.92 14.55 12.74 12.42 16.63 17.63 15.94 12.67 14.88 20.55 23.79 22.97 20.06 19.90 19.29 19.79 19.56 17.09 16.25 15.02 12.52 13.60 17.37 18.51 19.40 19.43 19.54 20.30 21.15 21.36 20.73 21.66
44.95 44.04 43.27 42.87 39.10 32.18 28.42 26.35 30.16 24.65 21.00 22.65 24.45 24.97 25.23 25.10 24.87 24.54 24.95 25.20 24.30 16.95 16.12 14.67 19.05 20.59 21.44 21.51 20.71 22.36 21.87 22.19 20.80 18.61 18.24 17.90 17.49 13.17 16.43 14.97 16.07 14.91 14.04 13.08 14.35 21.74 18.28 18.22 19.22 19.43 19.90 21.42 20.11 19.69
43.17 42.31 41.75 37.02 32.01 31.33 29.34 25.52 23.25 24.93 22.81 22.86 24.22 24.90 22.88 22.77 21.51 19.29 17.40 20.39 17.22 13.67 15.61 18.71 19.46 21.40 22.99 22.20 23.79 24.54 21.87 21.25 19.31 18.99 17.54 13.85 18.41 15.01 14.54 13.92 11.39 16.73 15.42 16.75 16.46 16.99 17.62 15.92 16.42 17.68 18.10 18.31 17.90 18.59
40.16 39.02 32.73 33.69 28.50 27.40 25.55 26.00 23.07 24.14 23.25 22.66 22.65 23.35 21.56 20.88 20.19 18.32 14.54 14.30 14.52 18.92 19.09 19.32 19.31 20.55 21.52 20.18 19.46 17.93 20.68 20.01 19.45 20.65 22.35 21.77 16.68 14.01 14.91 14.84 12.30 6.04 6.94 9.23 14.42 14.33 14.08 15.34 17.19 17.71 16.75 16.02 16.89 15.64
38.51 35.89 31.28 30.19 25.60 25.38 21.42 26.22 22.52 22.38 21.20 20.88 20.57 20.01 19.22 18.19 16.97 16.49 17.01 13.85 15.97 17.12 18.77 18.29 16.03 16.04 18.83 15.39 17.25 17.13 16.13 16.37 17.66 17.80 18.38 17.64 17.48 15.55 12.68 12.97 11.54 5.78 8.08 12.96 13.95 13.29 11.83 17.33 15.35 16.18 14.78 14.23 14.00 13.86
37.84 31.44 27.67 25.65 25.10 19.91 23.99 21.76 24.27 22.01 21.25 19.99 19.85 18.20 16.41 17.20 16.48 13.03 16.23 15.32 17.64 18.60 17.65 16.23 19.74 18.11 17.24 17.08 16.00 15.92 14.74 12.76 12.30 12.60 14.56 13.30 9.52 13.58 13.42 12.72 12.84 12.18 13.45 13.19 11.39 11.29 11.76 12.61 15.77 13.04 12.62 11.63 11.61 12.58
28.18 25.30 24.45 19.16 23.25 18.97 14.03 16.73 19.63 20.87 17.73 18.43 17.23 16.33 16.27 15.68 14.16 10.97 15.55 15.42 13.81 17.57 18.64 17.87 17.52 18.71 18.25 13.77 13.50 14.60 13.30 13.07 12.49 12.23 10.07 10.97 10.07 8.46 7.42 9.81 11.85 11.17 12.08 5.07 8.18 10.13 10.07 11.06 10.98 10.68 11.18 11.70 13.40 14.62
23.15 22.65 22.62 21.41 18.89 14.92 15.10 15.31 16.63 17.10 17.62 15.79 17.83 15.56 14.73 16.61 15.67 16.86 18.35 18.95 19.89 20.22 19.85 20.89 20.27 16.82 15.82 16.84 17.03 14.16 15.58 12.47 11.45 9.71 7.02 8.53 8.62 5.38 -1.02 3.39 3.07 7.25 10.11 8.68 8.52 9.19 9.38 10.29 10.45 10.12 10.87 11.52 16.12 13.20
18.10 18.88 21.34 24.66 21.22 19.64 18.52 19.97 21.02 20.02 17.48 16.89 14.94 13.42 15.88 17.01 18.91 19.14 17.59 18.42 19.24 18.42 23.28 23.28 21.56 21.25 19.02 16.31 15.68 15.34 12.78 7.09 7.35 7.92 8.71 7.65 7.57 8.10 5.11 2.78 2.61 8.67 12.28 12.16 10.08 9.97 10.32 10.83 11.25 11.37 11.66 12.02 12.36 12.28
23.38 20.22 13.09 14.74 15.12 15.27 17.63 18.93 19.30 20.81 19.60 19.04 19.12 16.43 18.53 18.57 19.45 19.47 19.72 16.56 16.76 21.52 16.07 12.91 13.57 18.98 18.45 14.27 15.63 13.22 5.60 0.92 1.56 2.04 4.84 5.33 2.16 -1.21 -0.58 1.10 2.76 15.58 15.16 9.08 14.23 13.78 12.49 12.17 11.89 11.96 11.17 9.95 9.82 10.41
17.10 17.88 17.77 8.36 9.57 12.76 15.63 19.64 20.08 19.72 21.05 20.57 20.13 16.04 14.88 15.19 14.85 15.32 15.21 14.94 19.36 20.11 17.55 15.44 9.29 10.12 8.43 6.17 4.46 1.88 3.43 8.23 6.94 2.90 2.42 1.46 -0.92 2.83 -2.35 -0.82 2.03 1.30 1.29 3.07 14.77 16.28 15.95 17.68 12.15 11.22 5.08 5.78 7.23 5.05
16.14 14.28 14.20 9.54 12.00 12.89 12.52 14.77 15.72 16.13 17.84 18.75 19.06 16.81 16.70 15.76 14.29 12.70 14.46 16.56 21.49 21.84 20.05 18.55 12.75 15.25 12.28 12.42 5.60 3.38 -0.50 -1.04 2.01 6.03 3.43 0.87 2.27 1.36 -2.61 -0.18 2.50 1.95 1.50 2.64 1.47 -0.34 12.81 4.23 2.82 -3.19 -1.68 -0.92 -0.61 -0.60
16.67 15.55 12.42 12.39 10.72 11.05 12.94 14.07 17.39 18.23 16.50 15.66 15.67 16.78 16.05 15.99 15.72 12.60 10.17 8.16 13.35 16.08 15.45 11.75 4.26 5.05 11.33 8.06 6.12 6.52 5.00 1.13 -4.19 -1.74 -1.66 -1.63 -2.42 -1.87 0.94 2.11 2.57 2.35 -0.33 -3.11 -3.58 -3.01 -4.50 -3.96 -6.12 -6.80 -2.91 -2.89 -2.06 1.01
16.24 16.04 14.21 11.73 12.20 14.34 14.74 15.03 15.60 15.29 15.36 16.31 14.13 13.46 13.83 16.68 15.12 15.54 11.18 10.37 13.38 14.25 18.56 17.81 15.54 12.37 7.61 3.53 5.63 1.82 15.01 7.37 5.44 2.11 -0.61 -0.08 -0.34 4.86 6.05 2.53 0.42 -1.26 -1.59 -2.13 -3.78 -4.93 -6.47 -7.58 -5.66 -3.95 -1.52 -1.98 -0.82 -0.39
16.43 16.39 15.24 15.47 14.62 14.20 14.34 16.24 16.71 15.87 15.11 13.66 12.01 9.82 9.11 13.01 15.08 18.00 9.20 7.11 13.90 18.34 18.02 16.05 7.95 12.89 10.06 7.99 6.46 6.51 9.99 0.87 4.86 14.47 15.60 18.39 21.95 19.60 9.07 1.88 2.32 1.76 0.97 -0.28 -2.69 -4.57 -5.00 -6.78 -5.44 -4.59 -2.01 -0.72 0.77 2.19

GFSWCAN_sfc_wetblb_081.txt.gz
Wetbulb
44.98 45.07 45.88 46.79 47.63 48.37 48.74 48.91 49.09 50.42 51.08 51.25 50.87 49.99 49.79 48.01 45.39 38.56 34.29 34.89 33.12 28.86 29.64 32.62 33.15 30.04 31.70 31.80 30.68 31.94 32.68 33.73 31.87 29.08 27.76 26.18 24.77 24.71 22.54 23.03 23.29 25.19 22.77 23.10 24.43 21.51 18.50 29.78 31.62 27.31 29.56 30.34 31.40 31.41
44.44 44.87 45.65 46.50 47.46 48.21 48.61 48.72 48.68 50.46 49.94 49.93 49.95 49.78 49.01 49.53 46.31 41.26 33.23 36.26 35.47 31.22 29.93 33.96 34.46 33.58 31.62 31.57 31.73 30.47 30.94 30.79 31.96 29.52 28.22 27.88 26.45 23.28 22.81 21.98 24.77 24.31 27.32 25.98 26.34 26.03 29.24 29.77 30.12 30.56 31.09 30.98 31.00 30.74
44.02 44.66 45.17 46.23 47.14 48.00 48.40 48.38 48.32 49.82 49.69 49.02 48.98 48.74 48.31 47.67 46.55 41.30 34.10 34.35 33.31 29.64 29.46 31.14 31.35 34.74 34.93 33.46 34.55 32.25 31.50 33.47 32.06 31.24 29.35 28.49 27.87 27.20 23.55 23.81 22.34 25.50 28.44 27.57 28.35 27.35 28.79 29.75 30.36 30.97 31.05 30.77 31.56 31.70
43.74 44.47 44.90 46.02 46.38 47.56 48.07 48.12 47.97 47.61 49.39 48.70 48.30 49.43 48.35 47.60 46.34 42.54 35.37 34.53 33.32 30.62 27.66 28.29 34.33 31.44 35.28 34.77 34.71 34.94 34.39 33.96 32.71 30.72 27.85 28.48 28.51 28.45 25.66 26.06 25.96 28.64 29.26 27.27 27.22 28.24 27.36 29.40 30.36 30.74 30.91 30.94 30.72 31.15
43.55 44.32 44.68 45.13 46.18 47.10 47.83 47.86 47.79 47.26 47.78 48.01 48.52 47.65 46.81 46.63 44.91 39.44 36.69 35.81 34.68 32.22 26.79 27.35 30.85 32.93 33.98 33.79 34.17 34.30 34.35 32.26 30.56 27.90 24.95 25.98 27.42 26.71 23.85 25.22 24.33 28.14 28.45 27.34 27.03 28.90 28.54 28.19 29.64 31.31 29.18 28.09 29.03 29.05
43.43 44.29 44.48 44.73 45.51 46.65 47.63 47.70 47.53 47.07 47.19 47.80 47.65 47.19 45.88 45.30 43.37 36.85 32.63 36.20 36.71 34.73 28.13 22.89 30.32 29.99 32.44 32.60 31.60 31.28 31.15 29.13 28.86 28.84 26.01 25.99 27.27 25.76 23.59 22.88 27.28 26.79 27.46 28.86 27.87 27.30 28.44 28.87 30.25 29.68 27.87 27.84 28.26 28.40
43.44 44.21 44.39 44.53 45.33 46.79 47.62 47.56 47.30 46.89 47.33 47.94 47.95 46.18 45.09 44.55 38.20 33.48 32.37 35.65 39.00 35.37 28.85 20.95 21.81 30.35 30.87 30.65 30.00 29.58 29.25 28.35 28.27 26.83 26.27 25.46 25.50 24.76 23.92 22.66 26.69 26.32 28.45 27.99 28.28 29.15 26.54 28.53 27.17 28.84 26.90 26.82 28.00 26.53
43.48 44.05 44.23 44.46 45.54 46.77 47.40 47.12 47.59 48.21 48.17 47.92 46.49 45.62 45.07 44.32 40.56 34.13 35.99 40.88 36.76 31.66 29.31 20.29 20.79 24.33 30.74 28.13 27.52 29.15 27.77 28.13 27.69 25.88 25.90 24.71 25.15 24.30 22.12 25.80 24.48 27.30 27.77 25.92 26.37 26.00 25.29 27.14 25.74 25.04 24.92 24.62 23.61 23.45
43.41 43.63 43.82 44.33 45.64 46.61 47.14 46.29 48.73 48.51 47.55 47.54 45.96 44.01 37.62 34.20 31.01 32.79 42.04 39.25 34.63 30.88 22.47 21.14 20.74 18.39 29.77 28.16 28.28 29.24 28.53 25.39 27.80 25.33 25.07 25.21 23.22 19.97 26.26 25.22 25.30 27.27 26.91 26.68 26.78 25.73 24.95 24.19 23.39 23.03 22.26 22.48 22.04 22.61
43.39 43.59 43.76 44.52 45.66 46.31 46.96 45.64 48.40 47.65 47.18 44.66 39.76 33.77 29.22 31.79 41.91 39.61 33.73 30.29 27.63 27.19 26.44 19.66 25.07 22.21 26.43 25.83 24.80 24.49 26.80 24.02 15.82 24.81 26.06 23.82 22.88 26.92 26.81 26.64 27.15 28.14 27.68 26.89 20.87 20.59 21.93 20.10 22.30 21.31 23.02 23.15 22.81 22.82
43.51 43.41 43.66 45.00 45.84 46.47 46.94 45.96 48.21 46.59 43.39 37.68 32.94 30.45 33.49 39.81 32.46 28.63 23.16 21.80 24.30 21.46 25.24 22.44 23.21 25.66 29.16 22.11 24.38 26.83 21.17 20.26 13.09 20.83 21.62 17.51 19.12 24.16 25.68 25.44 26.43 26.86 26.75 25.09 24.33 24.34 23.56 23.26 20.97 22.50 23.30 24.22 24.15 23.53
43.58 43.80 44.06 45.27 45.98 46.70 47.05 46.52 47.43 42.04 38.48 37.29 35.44 35.42 32.35 28.49 23.73 18.90 14.80 21.30 20.59 19.69 23.92 24.48 25.73 27.19 26.95 28.23 25.02 25.00 20.09 19.20 15.44 22.83 17.11 14.20 20.61 24.05 24.13 24.46 23.74 23.60 23.62 23.53 23.45 23.99 24.20 24.94 23.51 23.01 22.19 20.77 20.67 21.44
43.61 43.85 44.60 45.46 46.15 46.94 47.30 46.61 47.09 43.69 41.10 36.25 32.25 28.19 26.10 22.46 15.06 12.87 14.18 16.48 16.69 23.84 24.92 26.40 24.75 26.13 26.01 26.87 22.72 19.00 15.13 17.20 23.87 19.93 13.86 17.69 21.80 25.24 24.22 22.12 23.24 23.13 23.40 24.79 24.67 24.47 24.70 23.57 24.06 22.84 21.69 22.04 21.57 20.86
43.64 43.91 44.61 45.53 46.45 47.25 47.64 47.23 45.25 42.70 38.85 31.20 28.16 24.91 23.38 15.55 17.75 20.42 21.51 23.17 25.93 26.21 25.23 24.24 24.84 23.71 25.41 21.74 21.75 13.83 23.00 23.08 16.06 10.63 12.34 15.61 21.23 24.48 24.35 24.21 24.08 22.20 23.13 22.77 20.16 18.89 20.63 22.37 21.72 22.86 22.71 21.86 20.91 20.36
43.43 43.88 45.04 45.72 46.72 47.36 47.56 46.84 44.25 39.25 35.07 30.59 26.70 19.64 20.51 22.52 20.63 21.41 20.15 24.10 26.20 28.60 25.87 23.82 22.83 23.13 19.88 19.18 22.57 23.21 19.57 13.43 15.10 14.26 16.66 17.16 18.58 22.50 22.97 23.14 22.89 21.75 17.46 15.83 15.58 14.51 13.03 15.17 17.28 18.91 21.01 20.80 20.59 20.86
43.09 43.83 42.90 45.95 47.15 47.67 46.72 43.18 38.29 37.04 31.42 27.03 19.19 14.02 18.67 17.45 18.53 23.52 21.64 23.77 26.40 27.72 25.50 25.93 21.03 17.62 17.04 18.55 16.15 14.76 12.43 12.32 17.21 16.70 19.44 20.95 20.13 22.11 22.40 22.74 21.75 21.29 20.04 19.22 16.51 16.10 16.09 14.87 16.62 16.88 16.37 17.42 18.83 19.69
43.30 41.60 45.81 46.83 47.18 46.70 43.31 36.52 34.59 31.95 31.60 27.38 19.59 22.30 22.48 23.65 22.71 24.44 24.67 25.29 27.24 25.36 23.76 21.50 15.84 18.03 18.92 12.50 13.55 16.40 15.54 18.00 17.71 17.76 19.65 22.56 22.75 21.31 20.91 21.60 21.26 20.96 19.05 17.99 14.80 14.99 14.16 15.40 10.22 10.86 14.30 18.40 17.83 20.58
40.47 43.03 46.23 46.86 45.80 41.81 35.29 34.66 33.50 30.73 26.64 21.36 17.31 18.32 26.10 26.53 26.14 26.14 26.55 26.50 26.43 25.01 22.37 17.77 20.29 14.58 15.11 12.85 15.31 19.32 19.17 14.80 19.10 21.22 21.99 22.49 20.74 19.86 21.39 19.82 20.08 19.39 15.41 11.45 13.26 10.97 9.70 10.93 15.04 18.05 18.04 18.84 18.98 19.50
42.66 43.26 46.14 46.47 41.82 35.68 32.06 30.48 32.26 23.18 19.89 16.68 20.01 22.93 24.90 26.86 27.64 27.26 27.56 27.89 26.03 25.12 21.47 17.41 14.22 14.27 17.89 19.39 17.99 15.51 17.98 20.90 22.18 21.72 19.20 18.97 18.83 19.09 18.96 16.87 15.48 13.34 9.65 9.95 15.76 16.74 17.61 17.29 16.76 17.36 17.46 18.01 18.03 18.14
44.93 45.12 46.14 45.54 41.52 32.85 28.69 26.73 29.15 18.37 14.81 19.60 18.95 19.56 24.15 25.48 25.28 25.75 26.38 26.55 26.01 21.16 18.05 14.96 19.85 21.58 21.62 20.74 20.52 22.47 23.32 23.56 22.09 18.14 17.47 17.57 16.80 12.86 16.15 14.46 14.72 13.10 11.55 9.49 11.71 19.16 15.14 15.24 15.98 15.89 16.57 18.40 16.20 15.06
43.98 43.42 45.35 37.69 32.63 32.84 29.79 26.46 21.28 23.69 20.41 18.34 16.96 20.69 22.33 23.56 23.90 23.05 23.80 23.86 20.77 15.95 18.16 20.57 21.35 22.34 23.18 22.41 24.55 25.18 22.60 21.39 20.01 19.51 17.55 13.76 17.29 15.35 13.40 11.70 9.94 14.83 13.85 15.05 13.87 14.22 14.86 13.22 14.21 16.20 16.54 15.92 15.78 15.61
40.53 40.30 33.61 34.27 29.19 27.85 25.94 27.59 25.52 24.60 21.98 18.94 19.36 22.10 21.72 21.32 22.25 22.05 21.06 19.13 16.94 22.71 21.27 21.47 21.48 21.90 22.08 21.35 20.21 19.44 20.64 20.14 20.43 21.80 24.12 22.65 16.24 13.71 13.61 13.31 11.35 7.89 5.02 6.77 12.19 11.98 12.05 13.67 15.97 17.00 15.14 14.69 15.42 14.27
39.41 36.02 31.62 30.71 26.15 25.98 22.34 21.83 22.20 22.17 20.86 20.20 20.66 21.06 21.49 21.18 20.84 18.84 20.85 20.27 21.44 21.09 21.45 20.63 19.06 18.58 19.65 17.38 18.48 17.89 17.05 18.29 17.95 18.11 17.94 16.93 16.77 14.99 12.04 12.32 10.52 5.19 5.26 10.21 11.37 10.87 9.02 16.21 13.89 15.30 13.58 13.01 13.02 12.96
38.11 32.39 28.50 26.03 25.80 20.58 24.31 21.26 23.62 22.25 21.34 20.67 20.27 20.17 17.50 19.29 17.74 18.28 18.24 18.04 20.83 20.73 19.59 18.60 20.56 18.77 18.81 18.63 17.98 17.49 16.06 15.53 15.03 13.10 14.15 13.75 10.33 12.77 12.81 12.36 11.88 9.96 12.21 11.46 9.39 8.97 9.45 11.14 14.62 11.89 11.44 10.23 10.04 11.36
28.78 25.87 26.42 20.85 22.47 15.26 10.44 14.42 16.90 19.98 18.05 19.29 17.31 16.07 16.71 16.97 18.21 16.43 15.04 20.81 19.80 20.28 20.33 20.55 21.30 22.02 21.36 17.36 16.65 16.86 14.13 14.92 15.39 12.55 8.74 9.96 10.17 7.99 6.83 9.36 9.75 10.02 10.59 2.89 5.22 7.69 7.21 8.23 8.68 8.45 9.61 9.86 12.23 13.60
25.27 24.16 23.01 17.66 16.19 14.61 14.09 11.70 14.00 14.55 11.87 11.55 16.25 15.21 16.12 18.17 16.94 17.90 18.69 20.97 20.72 22.32 21.43 21.88 22.44 19.25 18.09 18.33 18.62 17.16 16.61 11.58 12.47 11.41 7.32 10.02 9.90 6.93 0.90 3.75 3.20 6.18 9.03 9.09 6.31 5.64 6.82 8.45 8.46 7.74 9.23 9.49 14.75 10.12
19.81 19.55 22.52 23.96 21.05 18.80 16.49 17.38 18.97 16.18 13.83 12.76 13.34 13.26 17.06 18.32 18.02 20.95 18.64 20.60 22.01 24.13 26.57 26.17 24.28 24.12 21.86 17.70 16.81 16.00 13.15 7.47 7.79 9.33 12.05 9.79 8.43 8.26 5.94 3.42 2.63 7.81 9.73 9.81 9.65 9.43 8.86 9.66 9.52 9.79 9.76 8.79 7.08 8.62
24.01 19.71 16.75 16.95 14.68 14.23 13.28 14.60 16.67 17.14 17.78 19.87 18.47 16.24 19.52 20.59 21.70 19.42 19.21 18.40 20.52 25.79 22.52 18.76 19.98 21.77 21.01 19.48 16.51 12.32 4.90 2.17 3.61 7.20 8.31 5.76 2.77 -0.35 -0.69 1.19 2.17 15.01 12.59 7.37 12.27 14.71 10.35 9.60 10.30 10.02 7.58 5.25 4.62 4.58
13.74 16.89 20.25 8.90 10.73 13.82 15.26 17.24 19.11 18.31 20.63 19.83 21.37 18.35 19.96 17.52 15.15 15.61 16.17 17.33 20.83 22.54 19.56 16.04 12.32 13.83 11.78 9.65 7.12 5.18 8.26 9.94 10.32 6.82 5.76 3.75 1.11 3.54 -0.82 -1.70 -1.01 -0.67 -0.34 0.73 13.44 14.34 14.81 15.58 7.74 6.67 0.49 0.28 0.84 -1.88
13.23 16.58 14.53 10.92 15.05 15.37 14.20 14.43 14.39 8.93 15.87 17.45 19.29 17.36 17.28 16.53 15.03 13.80 14.93 16.63 21.32 22.32 21.30 18.77 16.11 18.40 15.17 14.62 7.71 3.95 0.15 3.12 5.55 10.53 7.77 5.37 5.63 1.13 -2.91 -2.04 -1.41 -1.78 -1.85 -1.01 -2.42 -3.49 12.96 1.88 2.02 -4.04 -3.81 -2.58 -1.81 -1.55
17.73 16.00 13.32 12.91 11.48 10.04 8.58 12.16 13.44 19.00 16.41 15.95 17.60 18.65 17.15 16.70 16.22 14.77 14.21 13.34 17.66 19.08 17.71 16.37 16.11 19.27 17.00 14.58 13.44 9.22 8.44 5.52 1.32 1.91 2.76 4.22 2.01 -0.22 -0.88 -1.97 -0.69 -1.47 -3.10 -3.75 -3.77 -3.71 -4.99 -5.03 -7.15 -7.14 -3.78 -2.91 -1.60 1.13
17.73 14.33 13.76 10.39 8.74 11.97 13.81 15.15 15.89 15.58 15.88 17.12 15.83 14.85 14.51 17.21 15.81 15.57 13.32 14.71 19.27 19.28 22.27 20.27 18.36 16.34 14.05 12.35 10.12 7.48 18.70 12.23 6.63 5.26 6.90 3.25 0.74 1.36 1.97 0.94 -1.36 -1.18 -2.20 -2.79 -4.49 -5.17 -6.66 -7.18 -6.20 -6.18 -3.92 -4.33 -1.38 0.01
14.87 13.72 11.89 11.96 11.55 10.85 13.30 16.95 16.32 13.34 15.14 14.82 13.53 12.74 13.41 16.00 16.69 17.41 11.72 14.29 18.89 20.87 20.72 20.46 18.42 15.90 11.14 10.39 10.56 10.46 12.85 10.05 10.71 16.27 17.85 16.76 16.68 15.09 4.37 2.53 3.02 1.34 1.25 -0.90 -3.99 -4.88 -5.69 -6.94 -6.55 -7.02 -5.77 -4.35 -1.29 0.59

GFSWCAN_sfc_wetblb_084.txt.gz
Wetbulb
46.05 45.31 45.04 46.08 47.06 47.91 48.99 49.10 49.47 50.96 50.82 51.02 50.93 50.59 50.45 48.43 44.68 42.86 39.32 39.86 40.91 35.86 34.08 34.73 35.08 35.98 37.78 38.47 38.34 38.46 38.74 39.55 39.63 35.98 34.38 33.28 32.52 32.91 31.51 31.87 31.92 31.35 30.81 31.13 30.98 28.13 25.21 36.18 36.40 33.42 35.84 35.74 37.11 36.94
45.28 44.55 44.71 45.55 46.59 47.48 48.60 48.59 48.85 50.58 50.13 49.90 49.96 49.97 49.56 49.55 45.86 42.59 40.04 40.05 40.04 38.07 34.96 36.78 36.81 37.13 35.72 36.25 37.68 37.66 37.52 37.51 39.42 37.66 36.23 35.65 33.25 32.57 31.49 30.41 33.34 30.40 34.06 33.39 33.24 33.40 35.28 36.35 36.54 36.74 36.59 36.84 36.69 37.10
44.92 43.93 44.38 45.33 46.27 46.81 48.15 48.40 48.44 48.31 49.78 49.37 48.70 49.66 49.05 48.35 46.33 43.40 40.33 39.81 40.17 37.23 35.42 35.78 34.94 37.15 37.97 37.27 38.26 37.81 38.30 38.38 38.23 38.57 38.83 37.12 33.53 35.35 32.30 32.53 32.36 34.15 34.83 34.28 33.69 34.42 35.88 36.32 36.04 36.39 36.51 36.43 36.45 36.45
44.74 43.59 43.97 44.87 45.43 46.31 47.45 48.22 48.03 48.05 48.61 48.89 48.91 49.51 48.84 47.74 46.15 42.75 40.91 39.95 39.95 37.97 36.34 34.28 37.62 36.19 38.76 38.37 37.53 38.36 38.33 38.27 38.19 38.64 38.55 37.52 35.20 35.45 34.57 32.86 33.02 35.86 35.07 34.42 34.66 36.10 34.58 35.77 36.57 36.87 35.68 35.48 34.88 34.81
44.70 43.67 43.79 44.45 45.01 45.83 46.76 47.86 47.95 47.73 47.27 48.34 48.28 47.65 47.07 46.06 43.39 41.71 40.44 39.45 39.01 38.20 34.21 32.72 35.00 36.85 37.37 37.82 37.57 38.56 38.82 38.22 38.73 38.03 37.95 36.48 35.35 34.13 32.81 32.73 32.84 35.55 36.17 34.43 34.64 35.85 36.28 35.66 35.86 36.61 35.14 33.82 33.35 32.91
44.64 43.71 43.98 44.22 44.75 45.21 46.69 47.68 47.78 47.57 47.22 48.26 48.03 46.92 45.93 45.54 43.86 41.45 37.96 40.28 39.97 38.96 36.03 31.58 34.86 34.37 36.07 36.26 35.56 35.22 35.69 35.58 36.94 37.31 35.50 33.99 32.49 34.36 32.33 31.55 36.24 35.87 35.55 36.08 36.15 34.72 34.39 34.80 35.37 35.51 34.21 32.84 32.74 32.61
44.52 43.65 44.04 44.33 44.54 45.31 46.77 47.76 47.60 47.47 47.18 47.92 48.03 46.71 45.69 45.07 42.39 38.59 36.24 39.58 41.17 39.11 35.38 30.15 30.96 34.00 34.38 34.65 34.80 35.17 34.68 34.24 35.60 33.87 33.25 33.80 32.82 33.96 32.36 30.92 35.51 34.22 34.77 34.01 34.71 34.97 33.03 33.87 34.06 34.55 33.55 32.08 31.85 31.30
44.39 43.77 44.08 44.12 44.22 45.33 46.75 47.59 47.52 48.60 48.00 48.24 46.73 45.76 44.82 44.50 42.39 38.31 40.24 42.30 39.79 36.09 34.99 28.23 28.88 30.67 34.21 32.78 32.72 33.81 33.79 34.09 33.13 32.44 31.37 31.48 30.79 30.94 28.79 34.21 31.94 32.64 33.60 33.24 34.16 33.72 31.81 33.32 32.24 31.39 30.86 29.88 29.22 29.12
44.09 43.74 43.94 43.82 43.98 45.25 46.58 47.33 48.24 48.67 48.54 47.02 45.32 43.38 41.52 38.81 36.67 37.18 42.08 40.97 38.88 36.12 32.31 29.87 29.34 27.63 33.55 31.63 32.63 33.34 33.42 31.84 32.09 30.71 30.27 30.63 29.87 27.82 33.34 33.32 31.64 32.45 32.60 32.57 31.21 31.02 30.75 30.34 30.14 29.74 29.09 28.96 27.85 28.93
43.76 43.67 43.86 43.77 44.26 45.31 46.18 46.83 48.12 48.09 46.97 44.33 41.34 37.06 34.52 36.17 42.02 40.00 37.35 34.97 34.83 33.88 31.88 30.72 30.19 28.87 32.32 30.73 30.28 31.35 31.08 30.55 27.89 29.42 29.93 27.70 29.36 33.61 32.53 32.59 33.63 33.70 33.04 31.74 28.31 27.13 28.02 27.53 28.22 28.73 28.41 29.51 28.95 28.42
43.66 43.71 43.89 43.93 44.69 45.61 46.29 46.92 48.01 45.80 44.06 40.30 35.50 34.35 37.11 39.52 37.03 33.12 30.87 29.80 29.22 27.82 29.90 29.05 29.77 28.42 32.47 30.12 30.34 31.04 28.98 27.76 24.93 27.26 26.78 27.41 26.63 30.30 31.48 31.59 31.91 33.83 32.47 31.37 30.80 30.35 30.12 29.60 28.44 28.05 28.69 28.95 28.75 28.35
43.64 43.79 43.94 44.28 45.02 45.82 46.50 46.93 46.98 42.50 40.45 39.63 38.09 37.26 36.05 33.00 29.95 27.77 24.84 25.36 24.70 25.57 27.15 28.51 29.09 30.95 30.33 32.17 30.69 29.11 27.05 26.05 24.01 28.13 25.52 24.45 29.44 29.93 29.72 29.74 29.86 31.64 31.19 29.50 29.79 29.57 29.24 28.99 28.82 28.09 27.61 27.08 27.08 27.50
43.78 43.93 44.13 44.47 44.88 45.92 46.89 47.17 47.07 43.72 41.37 38.56 34.87 31.46 31.11 28.07 23.30 22.50 20.69 23.02 22.23 27.04 28.26 28.81 28.55 29.88 29.30 30.75 27.78 26.77 23.84 24.15 27.88 24.21 23.91 27.37 28.42 29.60 29.33 28.78 27.54 28.82 29.34 29.41 28.94 28.90 28.42 27.81 27.88 27.10 26.50 27.65 27.46 26.53
44.23 44.04 44.20 44.64 45.56 46.08 47.24 47.55 45.42 42.74 39.32 33.74 31.42 25.42 27.09 23.80 23.43 25.46 26.21 27.30 28.53 29.28 28.43 29.24 27.73 28.79 29.05 27.74 26.83 23.05 25.59 26.47 20.18 18.01 22.31 28.18 28.08 29.63 28.69 28.56 27.65 27.14 28.37 27.66 25.46 23.87 23.94 24.13 24.26 25.21 25.53 25.55 24.69 24.19
44.26 44.42 44.62 44.66 45.99 46.49 46.84 46.72 44.34 40.29 35.92 32.19 29.52 24.92 25.51 28.89 26.02 26.40 25.33 26.19 28.51 30.53 29.04 28.12 27.70 27.90 26.47 23.96 25.68 24.73 20.84 18.65 20.77 23.46 28.27 27.67 26.77 28.32 27.31 27.06 27.41 26.85 24.91 24.13 23.33 22.29 20.19 20.99 22.31 23.44 24.27 23.46 23.51 23.47
44.32 43.82 42.28 44.28 45.44 46.45 46.66 43.72 39.46 37.37 32.81 31.51 27.43 23.79 23.36 23.21 24.02 25.95 25.60 26.52 29.52 30.12 28.97 29.28 26.15 24.01 25.07 24.53 22.01 21.02 19.81 20.29 27.68 26.55 27.95 26.42 26.24 26.90 26.84 26.86 26.25 25.66 24.84 23.89 22.74 22.08 21.66 20.57 20.83 20.78 21.13 22.01 21.84 21.72
43.77 40.22 44.07 44.67 45.73 46.31 44.37 37.57 35.64 33.46 32.59 30.07 25.92 26.85 26.38 25.72 27.90 28.27 27.83 27.77 30.36 29.12 27.72 26.62 22.71 25.32 23.30 21.57 20.54 23.85 22.67 29.19 27.27 25.32 26.92 27.63 26.99 25.97 25.34 24.85 24.27 23.75 22.99 22.45 20.94 20.91 20.58 20.44 19.40 20.03 18.98 20.12 20.30 21.00
40.06 41.80 45.56 45.98 45.66 42.46 36.55 35.77 34.35 32.54 30.05 27.93 27.18 26.81 26.04 27.91 28.10 28.38 28.76 28.27 29.26 27.78 25.65 25.29 24.42 22.25 22.24 21.38 23.61 26.73 25.63 23.47 26.11 26.94 26.44 25.30 24.52 24.06 24.43 23.50 22.96 22.59 21.11 19.43 19.25 18.81 19.27 18.87 18.77 19.03 18.70 19.21 19.66 20.13
41.37 42.72 45.94 45.74 42.26 36.36 33.03 32.01 33.46 30.02 27.44 25.13 24.56 26.14 27.54 28.01 29.15 29.58 29.39 29.18 28.52 27.87 26.27 24.06 21.20 22.13 24.43 25.82 27.57 25.45 25.14 26.93 25.56 24.22 23.12 22.82 23.02 22.62 22.25 21.26 20.56 19.43 17.53 18.40 19.79 20.25 20.12 18.57 18.33 18.33 18.48 19.27 18.34 18.22
44.29 45.10 45.78 44.43 41.48 33.64 31.16 29.66 32.34 25.42 23.31 26.09 24.51 24.45 26.33 26.67 27.34 28.01 28.42 28.22 28.24 26.53 23.75 21.29 22.25 25.55 25.35 27.17 26.27 27.54 27.92 27.40 24.19 21.66 20.54 20.70 21.09 19.64 20.75 20.91 20.69 19.05 18.37 17.99 18.61 20.22 18.69 18.40 18.65 17.96 18.45 19.02 17.12 16.78
43.42 43.11 44.61 39.92 33.75 34.37 31.97 26.37 24.62 23.74 21.94 23.51 23.07 25.42 23.92 24.05 24.19 24.92 26.05 27.21 26.32 25.81 23.84 25.75 25.35 26.60 25.58 25.76 26.29 28.63 27.63 26.86 25.60 25.54 22.99 20.12 20.55 20.47 18.69 18.44 18.04 18.25 18.06 17.83 17.13 16.85 17.04 16.26 16.78 17.83 18.01 17.59 17.77 18.23
41.10 40.74 33.33 34.57 29.98 28.97 29.06 28.72 24.64 24.96 22.24 22.21 23.16 22.61 21.08 20.59 21.43 22.93 25.18 24.00 25.56 27.86 26.41 25.72 25.08 25.03 25.09 25.02 24.78 24.51 24.91 22.71 22.96 24.77 25.67 23.95 18.83 18.29 18.12 18.35 17.27 15.97 15.96 16.04 15.69 15.33 15.47 16.03 17.50 18.49 17.23 16.89 17.62 16.96
39.03 36.57 32.29 31.37 27.05 25.82 24.75 27.75 22.59 21.79 18.84 21.51 21.48 18.41 19.07 20.08 21.91 21.95 23.83 26.71 27.77 27.42 24.94 24.57 23.87 22.64 23.91 20.76 21.30 21.35 22.14 22.88 21.95 22.37 22.32 20.71 19.81 19.18 17.94 17.18 16.56 15.14 14.83 15.32 15.60 15.44 14.88 16.59 15.63 16.80 15.83 15.26 15.26 15.61
38.15 32.82 30.32 28.21 27.14 23.01 24.06 20.69 24.53 22.24 22.77 20.68 19.16 17.90 18.38 19.47 18.84 20.61 22.75 24.24 24.75 22.71 22.60 21.92 22.46 20.64 20.38 20.75 20.97 21.21 20.85 21.73 20.26 18.93 19.61 18.87 17.28 15.77 16.65 16.36 15.85 15.83 16.57 15.29 14.75 14.44 14.03 13.49 15.21 13.91 13.51 13.01 13.44 13.85
29.44 27.40 28.20 23.46 24.32 18.45 15.62 17.64 18.06 19.08 16.48 17.83 15.30 14.73 15.22 17.03 17.78 18.10 18.29 23.96 22.98 22.28 23.50 22.71 23.65 25.40 24.28 22.88 20.69 20.42 18.68 21.50 20.18 19.06 17.27 17.49 15.47 13.93 13.70 14.37 13.95 15.02 14.91 13.59 13.17 12.90 12.74 12.66 12.81 12.57 12.50 12.72 14.36 15.63
25.61 27.41 23.56 21.21 16.86 16.51 15.07 12.73 13.90 14.30 14.84 13.27 16.68 15.91 15.57 16.17 14.72 16.75 19.77 25.25 22.98 24.29 23.00 22.89 23.35 22.55 21.91 23.76 21.72 19.85 20.17 18.73 19.54 19.43 16.89 16.55 16.93 16.11 13.75 12.76 12.29 12.98 14.23 13.78 12.33 11.51 11.35 11.90 12.05 11.17 12.37 12.39 14.63 12.28
24.50 22.75 24.19 24.30 21.50 19.11 17.78 18.14 19.00 16.17 11.37 11.22 12.68 12.15 14.04 11.63 14.32 20.37 22.72 23.11 25.41 26.40 27.86 27.52 27.60 26.64 25.40 21.38 21.06 20.42 18.70 18.29 19.06 19.01 17.21 15.47 15.41 15.41 14.73 13.23 11.64 14.26 14.17 13.27 13.04 12.13 11.45 11.98 12.10 12.30 12.20 12.59 11.49 10.24
25.43 22.98 16.86 18.83 15.41 16.14 13.99 15.08 14.33 15.25 16.99 17.62 17.61 10.62 14.10 17.59 21.07 24.48 22.41 19.85 22.69 28.31 28.54 28.44 29.05 28.12 24.98 22.71 19.17 14.86 11.09 11.20 11.96 12.29 12.21 11.25 10.05 10.10 10.26 11.56 11.29 16.00 15.69 12.71 12.80 13.14 14.36 13.47 12.82 12.58 11.81 10.18 9.43 9.48
21.59 20.47 20.37 9.64 8.87 13.30 17.20 17.98 18.95 20.24 22.04 20.34 20.69 18.92 18.09 20.64 17.11 16.38 17.81 19.02 23.32 22.48 21.94 20.08 17.27 18.25 16.89 16.62 15.85 13.39 12.61 14.73 14.59 12.09 12.46 12.50 10.05 11.32 8.63 8.87 9.30 9.33 9.19 9.28 13.94 17.39 14.81 15.03 13.43 12.12 8.48 7.99 7.99 6.39
16.76 18.71 14.45 9.02 15.00 17.48 17.45 15.94 17.54 15.47 18.12 20.70 20.43 16.77 16.38 15.44 14.91 14.55 15.59 19.17 22.18 23.44 24.39 23.16 18.46 19.92 17.14 16.77 12.08 10.13 11.88 15.55 15.56 17.29 15.65 13.23 13.62 11.96 10.05 9.32 9.89 8.99 7.43 7.52 8.26 8.33 14.90 8.55 8.66 5.77 6.21 6.98 7.88 8.12
16.88 13.72 10.77 12.07 15.13 12.31 12.38 14.51 17.38 19.26 17.24 15.36 16.76 16.41 15.26 13.62 14.86 15.34 16.39 18.99 21.70 20.07 19.07 18.78 20.63 20.96 20.52 17.92 17.30 14.35 13.21 11.78 8.89 9.68 9.70 12.70 12.15 11.06 10.54 9.66 9.44 7.95 6.98 7.02 7.27 7.69 6.53 5.62 4.75 4.72 5.30 4.26 4.12 6.61
16.46 11.96 12.97 10.69 10.18 12.71 14.10 15.99 16.52 15.81 11.99 11.99 10.27 9.12 11.55 13.85 16.34 16.60 16.16 18.04 20.40 19.82 22.66 22.39 20.82 20.06 22.32 22.06 19.69 20.60 22.39 14.19 10.39 10.67 13.36 12.81 12.47 11.57 10.32 8.54 6.17 6.90 6.81 6.42 5.82 5.49 3.40 3.97 4.61 4.35 5.56 3.91 3.88 4.32
8.66 7.86 7.83 10.61 10.50 10.62 14.32 15.48 13.05 11.17 9.59 7.83 9.17 10.43 13.61 17.29 20.07 18.23 14.93 17.97 21.11 22.45 22.42 22.71 22.48 19.67 18.96 18.86 17.39 17.34 16.82 14.10 14.68 19.13 20.62 20.10 18.45 14.29 8.84 8.53 7.64 7.22 6.06 6.76 5.53 4.34 2.80 1.68 3.23 1.78 1.72 0.26 2.05 3.32

GFSWCAN_sfc_wetblb_087.txt.gz
Wetbulb
48.92 46.78 45.23 45.33 46.56 47.53 48.64 49.02 49.29 50.77 50.62 50.58 50.65 50.51 50.48 49.96 46.85 46.33 43.38 44.43 43.74 41.21 38.25 37.98 38.58 40.48 41.23 42.02 40.50 41.60 41.07 41.73 41.94 37.60 36.19 35.74 34.30 35.61 33.43 35.20 34.00 32.87 32.16 32.41 32.74 29.66 26.96 39.68 38.26 34.44 37.32 38.63 39.99 39.57
49.07 46.54 45.00 44.99 45.96 46.77 47.78 48.73 48.81 48.90 50.20 49.90 49.68 50.46 49.32 49.73 47.66 46.55 43.87 44.45 44.13 42.07 38.24 39.66 39.22 39.53 38.36 39.12 41.33 41.89 40.53 41.03 42.54 39.86 38.96 38.62 35.03 36.02 34.42 31.87 36.64 32.15 36.04 34.13 34.51 34.82 38.55 40.22 39.75 39.94 39.68 39.33 39.24 39.56
48.97 46.56 44.72 44.87 45.59 45.95 47.12 48.29 48.42 48.60 48.61 49.68 49.43 49.91 49.22 48.17 47.30 45.36 44.06 43.21 45.21 41.80 38.73 38.91 38.25 39.65 40.52 40.26 41.03 40.90 42.50 41.69 42.03 41.70 41.66 40.02 35.17 38.37 33.42 34.60 35.07 37.27 38.29 35.46 35.53 38.75 38.74 39.81 40.17 39.82 39.69 39.28 39.24 39.13
48.77 46.53 44.83 44.53 45.15 45.41 46.39 47.38 48.33 48.11 47.93 48.85 49.36 48.55 48.17 46.88 45.78 45.28 43.21 42.73 43.09 42.11 39.38 37.51 40.38 38.61 41.13 41.42 39.96 41.12 40.76 41.72 41.91 42.47 41.49 39.77 36.63 38.75 36.81 35.77 35.33 38.22 37.41 36.81 36.68 39.49 38.58 39.27 40.11 40.34 38.60 38.32 37.62 37.46
48.47 46.60 45.01 44.37 44.75 45.04 45.42 46.69 48.01 47.95 47.89 47.77 48.54 47.30 46.72 44.80 44.68 45.37 43.84 42.26 41.96 39.96 36.61 37.12 38.13 39.44 40.16 40.52 40.11 40.69 40.85 41.40 41.87 40.56 40.11 38.33 39.20 36.99 37.38 35.43 34.95 38.65 37.59 35.24 34.97 40.02 39.43 38.85 39.26 40.12 38.09 36.68 36.72 35.65
48.32 46.56 45.21 44.44 44.67 44.84 45.24 46.62 47.77 47.84 47.68 47.55 48.12 47.26 45.72 45.46 44.49 44.97 41.27 42.82 42.43 41.56 38.84 34.80 38.11 36.79 38.33 38.83 38.58 38.37 39.42 39.94 40.94 40.61 40.05 38.61 36.16 36.40 35.05 33.86 39.77 41.14 40.86 41.84 39.33 38.68 37.95 37.57 37.98 38.42 37.74 36.29 35.70 34.90
48.08 46.45 45.13 44.55 44.77 44.69 45.40 46.81 47.76 47.70 47.63 47.44 48.12 47.35 45.74 45.62 46.12 41.59 39.64 42.65 43.00 42.40 37.93 35.42 34.56 36.19 36.55 36.99 38.38 38.49 38.51 38.33 38.52 38.78 36.79 37.91 35.87 36.16 35.43 32.51 39.93 39.82 39.83 38.82 38.21 37.49 35.37 36.08 36.30 37.02 36.48 35.66 34.50 34.22
48.09 46.30 44.98 44.64 44.79 44.54 45.15 46.80 47.66 48.25 48.66 47.79 47.35 45.71 45.11 44.96 43.89 41.75 42.91 42.60 42.75 39.83 38.60 33.71 33.38 33.35 36.15 35.51 35.50 37.15 36.76 37.60 37.35 37.24 34.90 34.26 33.84 34.23 31.35 37.75 37.67 37.27 37.27 36.75 36.95 37.48 34.65 36.53 35.83 35.16 34.33 33.17 31.17 30.96
47.65 46.18 44.88 44.63 44.73 44.43 45.35 46.95 47.93 48.58 48.83 47.51 45.78 43.85 43.51 42.18 40.59 41.08 42.56 42.91 42.14 39.84 35.41 33.30 32.16 31.25 35.58 34.53 35.69 35.83 35.91 32.93 35.12 33.57 33.54 33.16 33.31 29.70 35.59 37.78 36.33 35.28 34.52 35.23 35.58 33.80 33.28 32.58 32.69 32.33 31.66 31.23 29.88 30.35
47.04 45.95 44.69 44.59 44.50 44.60 45.69 46.58 48.22 48.66 47.28 44.93 43.98 39.80 37.03 39.44 41.86 42.37 40.49 38.24 37.87 37.22 35.41 32.43 35.23 31.41 34.60 33.72 33.83 34.47 34.62 33.81 30.60 32.91 33.16 29.11 30.72 36.92 38.28 37.55 38.40 36.89 36.36 34.69 29.58 28.94 30.24 30.28 30.32 31.26 30.71 31.32 30.95 30.34
46.57 45.54 44.95 44.47 44.73 45.45 45.95 46.81 48.21 46.90 44.77 43.32 38.95 37.35 40.50 40.66 40.04 36.74 34.09 33.54 33.65 31.66 33.48 32.84 33.81 32.13 34.99 32.42 33.39 34.81 33.10 32.56 27.64 30.70 28.86 29.80 29.19 34.26 36.73 35.66 35.69 37.06 35.47 34.69 33.62 32.68 32.58 31.93 30.91 29.69 30.07 30.68 30.61 30.20
46.17 45.26 44.97 44.74 45.04 45.24 46.23 47.01 47.91 44.83 43.62 42.34 40.69 40.17 39.67 36.50 33.81 31.35 31.28 29.38 28.07 29.34 30.19 30.90 31.72 33.79 33.30 35.07 33.23 32.22 30.33 29.28 26.09 31.07 27.68 26.01 33.64 32.78 33.23 33.38 33.64 35.29 34.23 32.06 32.25 30.76 30.69 30.35 30.26 29.29 28.73 27.83 28.00 28.54
45.87 45.14 44.99 44.80 44.74 45.45 46.46 47.42 46.76 44.33 42.29 41.01 38.01 34.93 33.59 31.76 26.86 25.91 24.46 28.01 27.21 29.95 31.00 31.36 30.38 32.75 31.70 33.16 31.33 29.87 26.19 26.73 30.28 26.29 26.00 30.96 31.91 32.35 32.06 31.66 31.47 33.44 32.48 30.78 30.11 30.39 29.78 28.91 28.88 28.03 26.94 27.74 27.60 26.79
45.61 45.02 45.12 45.04 45.31 46.01 46.94 47.74 45.70 42.67 42.00 36.96 33.49 27.82 29.65 27.54 27.97 31.59 31.70 32.89 32.24 32.05 31.39 32.22 30.88 31.13 31.70 29.50 30.49 25.52 29.12 27.90 23.35 20.97 24.41 33.48 31.91 32.09 31.86 31.30 29.39 28.69 30.10 28.92 26.91 25.94 25.71 25.47 25.36 26.45 26.56 26.21 25.19 24.44
45.35 45.00 45.11 44.95 45.26 46.20 47.12 47.09 44.57 41.47 38.49 33.11 32.89 27.86 30.23 33.62 31.57 31.41 30.73 30.33 31.19 33.53 31.75 30.11 30.58 30.76 29.18 27.71 27.79 26.81 23.05 20.81 23.66 26.26 32.93 32.65 32.11 30.85 29.87 29.95 29.67 28.91 27.82 26.75 26.12 24.04 21.44 22.89 24.03 24.64 24.86 24.06 23.81 23.04
45.16 44.50 43.71 45.02 45.85 46.54 46.68 44.85 40.65 38.39 33.98 33.22 32.12 29.09 29.46 28.43 30.92 29.71 30.34 30.28 32.63 32.53 32.69 32.12 29.30 26.73 26.71 27.84 24.24 23.19 22.96 23.14 30.13 30.62 32.29 29.99 30.16 30.23 29.18 29.54 29.58 28.53 27.26 25.75 24.71 24.19 23.21 22.05 22.02 21.75 22.37 22.80 21.96 21.61
44.18 40.75 44.35 45.05 45.91 46.31 44.53 38.64 37.12 33.80 32.84 32.08 30.64 33.14 32.54 30.45 33.35 32.38 32.01 31.70 33.69 31.48 30.00 30.27 25.30 26.38 25.97 24.54 23.45 28.38 25.95 31.86 30.92 30.66 30.28 31.02 30.22 29.76 29.04 27.35 26.34 25.69 25.05 24.59 23.68 22.73 22.29 21.97 20.92 21.27 19.97 20.87 20.55 21.33
39.69 41.92 44.65 45.40 45.77 44.14 37.88 36.59 34.76 32.93 31.34 32.15 29.79 32.29 30.82 32.97 31.48 31.62 32.43 31.97 31.73 31.13 29.40 28.63 28.35 23.86 24.51 24.39 27.23 31.01 30.90 29.77 28.65 30.23 29.84 29.09 29.00 28.18 26.70 25.64 24.95 24.46 23.18 21.83 21.71 20.77 20.66 20.11 20.67 20.75 20.01 20.57 20.72 21.41
40.70 42.69 44.37 45.28 43.35 37.28 33.71 32.84 34.46 30.70 31.21 31.55 30.83 29.79 30.66 31.66 33.11 33.95 33.51 32.52 32.99 32.51 29.22 26.82 26.34 25.55 27.27 29.69 30.14 32.24 30.53 28.89 28.77 27.77 26.70 26.71 26.62 25.77 24.63 24.27 23.24 21.66 20.55 20.91 21.75 21.83 21.43 19.95 19.69 19.90 20.08 20.65 19.82 20.18
43.03 44.39 45.03 44.73 42.45 34.83 31.95 31.69 33.24 32.18 28.22 30.28 29.04 29.84 30.37 31.00 31.83 31.43 31.96 30.99 29.59 30.42 27.97 25.87 26.90 29.70 29.44 30.52 30.46 29.70 30.18 30.42 26.64 23.98 23.28 23.50 23.99 23.22 23.39 23.29 22.99 21.45 20.63 19.68 20.49 21.40 20.48 20.41 20.58 19.89 19.94 20.27 18.99 18.29
40.06 43.04 44.47 43.03 35.02 35.54 35.66 31.00 29.91 31.20 29.26 27.57 29.23 29.15 29.23 27.75 28.35 28.02 28.01 30.66 28.92 28.62 28.44 31.28 31.28 32.42 29.49 28.77 28.71 28.75 29.70 28.84 27.40 27.76 26.05 22.95 23.00 23.84 21.46 21.42 20.86 20.84 20.34 20.04 19.76 19.13 19.11 18.77 18.96 19.43 19.60 19.23 19.23 19.70
40.94 42.37 34.20 35.55 31.56 30.78 33.37 32.25 31.23 28.77 26.52 26.29 25.49 27.79 25.91 25.05 26.01 26.58 30.12 26.69 27.38 30.50 31.67 33.38 33.10 33.30 28.36 26.85 27.40 28.35 29.77 28.73 25.76 26.48 27.63 26.09 21.06 20.55 20.79 21.02 19.98 19.93 20.00 19.78 18.65 18.09 18.17 18.30 18.98 19.64 19.00 18.52 19.27 18.58
40.09 37.59 32.43 31.98 28.95 28.40 28.99 30.60 27.21 25.95 22.97 23.58 24.45 24.14 24.37 24.93 27.49 28.84 25.58 27.67 29.70 33.42 33.39 31.66 29.70 27.30 28.80 25.14 24.79 24.39 25.45 26.21 24.74 24.57 24.95 23.90 23.42 22.79 22.43 20.91 20.96 19.41 18.00 17.66 18.23 17.92 17.54 17.70 17.47 17.92 17.82 17.11 16.98 17.08
39.37 34.41 31.42 29.56 30.91 26.51 26.40 23.20 26.96 25.10 24.78 22.70 22.34 21.59 24.08 25.86 23.13 22.51 22.69 29.17 31.29 29.88 27.93 27.02 26.43 24.19 23.04 22.82 23.90 24.18 23.28 25.72 23.92 22.30 22.79 21.52 19.89 19.09 20.32 19.33 18.82 19.64 19.75 18.56 17.41 17.18 16.63 15.96 16.66 16.02 15.67 15.01 15.44 15.71
30.67 29.65 30.73 27.54 28.00 21.69 20.04 20.59 21.64 22.06 20.12 21.57 21.25 22.44 20.50 21.59 21.29 21.99 22.25 27.50 30.52 28.32 29.19 28.08 26.60 27.82 28.60 26.63 25.20 24.26 23.16 24.89 23.40 21.76 21.13 21.78 19.96 17.66 17.09 17.55 17.46 17.95 17.66 16.23 15.45 15.88 15.73 15.25 15.12 14.83 14.49 14.51 15.00 16.17
26.80 29.44 27.84 27.36 22.35 20.73 19.84 18.08 19.00 19.49 20.64 19.89 21.37 21.76 20.93 20.89 19.70 20.71 24.80 29.45 31.58 31.28 29.44 27.00 26.52 26.14 27.29 28.09 24.70 23.05 21.70 23.59 24.51 22.82 19.77 20.19 19.82 19.48 17.21 15.43 14.43 14.72 16.92 17.32 16.40 15.05 14.57 14.39 14.04 13.00 13.82 14.75 16.27 13.97
25.84 26.48 25.90 26.46 24.26 22.36 20.68 22.08 23.06 21.37 18.79 19.99 19.05 17.37 19.35 18.03 18.05 24.52 29.23 30.98 33.02 33.54 33.15 31.47 30.17 29.25 29.78 27.42 27.09 24.81 23.32 23.92 23.59 22.58 21.28 20.71 20.24 20.49 20.52 18.18 16.41 18.54 16.97 16.05 15.72 14.95 14.23 13.86 13.81 13.91 14.07 14.75 14.32 12.78
28.75 25.21 18.85 21.12 20.82 22.92 18.73 20.13 18.65 18.85 21.46 22.41 21.08 16.31 17.13 19.56 23.70 31.01 31.84 25.28 25.44 29.15 31.56 31.26 30.84 31.22 30.06 27.42 23.64 20.35 16.56 15.58 15.50 16.03 15.71 14.70 14.32 15.41 15.79 15.95 16.96 19.78 16.76 16.25 15.68 15.06 14.46 14.69 14.36 14.13 13.77 12.83 12.38 12.48
23.33 23.84 23.06 15.41 17.06 18.95 20.14 20.41 21.00 24.40 25.32 23.56 23.21 24.04 22.76 26.12 28.04 26.37 22.66 22.53 26.62 26.64 24.93 23.46 22.43 23.67 21.48 20.49 20.13 19.74 16.47 17.97 17.60 15.85 16.42 15.79 13.28 13.21 13.67 14.52 14.87 14.22 14.45 15.02 18.05 18.31 15.10 14.70 14.62 14.52 11.61 11.12 10.95 9.85
20.74 25.90 20.39 17.14 16.08 18.29 22.87 24.71 27.42 27.21 25.10 27.16 26.80 23.98 23.43 22.85 20.32 18.71 19.29 22.05 24.16 25.16 25.91 24.81 21.58 21.91 18.83 17.97 15.49 15.47 18.93 21.18 22.94 22.02 19.51 18.13 17.63 17.57 13.10 12.35 12.64 12.82 12.47 12.64 12.78 12.01 18.07 12.83 12.50 9.67 9.79 10.31 11.05 11.44
23.04 21.71 19.79 20.96 19.60 22.07 18.89 18.41 20.75 21.04 20.34 20.92 20.21 22.34 23.86 21.18 19.87 18.34 18.52 21.82 25.36 23.62 22.09 20.57 21.57 23.31 20.67 19.26 17.67 16.22 15.45 16.08 16.60 18.08 18.98 19.05 16.00 15.65 14.50 13.99 14.29 12.52 11.95 11.87 11.51 12.04 12.00 9.64 9.43 8.24 7.89 5.40 3.80 8.28
20.46 20.94 18.43 15.43 16.08 14.48 16.54 19.07 19.28 19.95 18.73 18.77 19.71 17.93 18.54 19.34 19.37 20.80 18.11 20.61 21.85 21.73 24.39 23.37 22.52 21.15 23.96 23.50 23.43 24.90 25.86 18.29 15.04 15.28 17.42 16.09 15.94 15.46 14.36 13.11 11.46 11.71 11.14 10.82 10.77 9.19 6.98 7.39 8.18 7.88 7.47 4.12 3.32 3.22
15.44 15.96 14.68 13.99 12.91 13.32 15.83 17.26 16.46 14.16 15.48 16.61 17.71 17.17 18.78 20.03 19.12 21.80 17.70 22.01 23.11 23.58 24.11 25.20 25.90 25.06 23.99 23.19 22.34 21.31 20.44 18.62 18.24 20.92 21.57 21.06 19.59 17.02 13.48 12.04 11.81 11.46 10.07 10.19 9.53 8.14 5.47 3.44 5.03 3.12 2.01 0.31 0.89 2.17

GFSWCAN_sfc_wetblb_090.txt.gz
Wetbulb
53.03 50.85 47.38 45.83 45.76 46.93 47.89 48.95 49.15 49.53 50.25 50.32 50.16 50.56 50.52 50.15 48.64 46.56 42.03 43.14 41.36 38.34 36.36 38.42 38.68 36.40 38.33 39.14 36.38 38.42 37.65 38.33 37.73 33.04 30.81 29.64 27.71 29.93 27.66 29.86 27.85 27.86 25.63 25.83 26.57 22.18 19.88 35.91 34.30 29.78 32.94 34.04 35.59 35.23
52.90 51.36 47.89 45.88 45.48 46.09 46.81 48.23 48.74 48.94 49.07 49.93 49.81 50.24 49.74 49.76 48.33 48.01 41.76 43.86 43.42 38.94 35.74 39.31 38.83 38.57 37.06 36.41 34.74 39.18 37.13 38.15 37.99 34.61 33.22 31.98 29.21 29.92 29.30 24.57 31.47 26.05 30.78 28.28 29.36 29.29 35.05 35.73 35.01 35.57 36.10 35.43 34.46 34.88
52.73 51.69 48.50 46.16 45.41 45.79 46.00 47.42 48.29 48.53 48.69 48.84 49.72 49.48 49.11 48.83 47.79 46.15 42.31 41.60 42.63 38.87 35.88 36.30 36.44 38.48 40.26 39.00 39.25 34.85 38.48 39.06 39.20 37.52 35.99 34.54 30.37 32.12 26.58 28.31 28.46 32.34 34.27 30.13 31.32 33.06 33.81 35.44 35.80 35.79 35.27 34.53 35.86 35.75
52.29 51.56 48.87 46.41 45.31 45.60 45.62 46.36 47.37 48.35 48.32 48.27 49.13 48.75 47.90 46.49 46.81 47.38 41.68 41.06 40.67 39.11 35.10 33.44 39.53 37.16 39.63 39.88 39.24 39.04 37.53 39.86 38.88 38.06 36.18 34.68 31.71 34.37 30.63 31.24 29.92 32.71 33.20 31.70 31.66 34.78 33.94 35.39 35.85 36.53 35.76 35.59 35.09 34.98
51.86 51.29 48.95 46.71 45.34 45.43 45.44 45.68 46.93 48.06 48.02 48.05 48.33 48.55 46.68 46.56 46.30 44.66 42.28 40.89 40.48 38.42 33.55 33.19 36.54 37.53 38.76 38.77 38.79 39.34 38.25 38.04 37.30 34.80 32.61 32.89 33.87 32.21 32.44 30.33 29.24 33.71 32.24 30.24 29.21 34.87 34.06 33.34 34.77 36.95 34.86 33.98 34.08 32.23
51.70 51.01 48.88 46.88 45.35 45.26 45.38 45.57 46.74 47.78 47.81 47.67 48.10 48.38 47.35 46.71 46.25 43.36 39.32 41.16 41.56 39.87 35.49 31.05 35.59 34.58 35.75 36.63 36.28 36.10 37.18 36.29 35.67 35.44 34.77 33.91 33.80 30.95 28.77 27.62 34.78 35.76 36.86 36.84 34.44 34.55 34.02 34.37 35.12 35.23 34.53 34.03 33.06 31.27
51.55 50.69 48.92 46.89 45.45 45.31 45.30 45.59 46.79 47.68 47.78 47.67 47.73 48.32 47.17 47.01 43.60 39.86 37.96 40.30 42.57 40.10 35.31 29.80 30.78 33.30 34.43 33.96 35.19 34.87 35.65 34.57 33.31 34.30 31.79 32.49 31.35 30.05 29.70 28.59 34.92 36.08 36.65 35.06 34.24 34.28 31.89 33.20 32.27 33.62 33.34 33.15 33.19 30.63
51.24 50.46 48.77 46.87 45.45 45.30 45.25 45.50 46.89 47.86 48.45 48.10 47.88 45.74 44.83 44.81 43.48 39.36 40.36 42.23 41.26 37.44 35.59 28.50 28.40 29.51 33.08 31.57 31.04 33.79 32.07 32.97 33.38 32.27 30.54 29.27 29.45 28.86 26.52 32.85 34.90 34.97 35.10 33.96 33.70 33.07 32.32 33.64 33.75 32.75 31.74 30.56 27.37 27.01
50.78 49.94 48.57 46.84 45.39 45.21 45.05 45.71 47.34 48.50 48.87 48.36 46.66 44.42 41.97 39.62 37.18 38.51 43.06 43.78 40.78 36.61 30.62 28.89 26.37 25.33 32.74 31.28 32.11 31.77 31.86 28.67 31.73 28.84 29.24 29.72 28.86 25.80 30.27 33.22 33.77 32.68 32.17 32.16 32.76 30.89 30.72 30.09 30.32 29.73 27.83 26.28 24.88 25.54
50.27 49.27 48.10 46.82 45.63 45.28 45.09 45.98 47.37 48.50 47.25 45.93 42.19 38.25 34.07 37.27 42.30 42.88 38.67 35.53 34.05 33.91 32.29 28.11 30.85 26.26 30.48 30.00 29.58 29.69 30.74 28.86 22.60 28.73 28.94 25.92 26.71 33.15 34.62 35.32 35.26 33.51 33.42 31.37 25.46 24.22 25.92 25.84 26.96 27.17 25.90 27.05 26.30 25.46
49.97 48.73 47.50 46.30 45.69 45.59 45.36 46.39 47.94 47.22 44.98 41.11 36.68 34.07 38.30 41.02 37.55 34.19 29.90 29.06 31.00 27.37 30.97 28.64 28.21 26.99 31.28 26.89 28.76 30.95 26.75 26.76 18.50 25.37 23.58 24.13 26.40 29.85 32.60 32.71 33.83 33.48 32.07 30.41 30.03 29.60 28.94 28.47 25.32 25.83 25.89 25.74 25.50 24.84
49.62 48.19 47.00 45.97 45.66 45.55 45.55 46.81 48.23 44.38 42.07 41.24 39.15 39.21 37.64 34.17 30.87 24.80 23.49 26.95 25.18 25.20 26.84 26.65 27.85 29.42 29.18 30.92 29.38 29.15 24.74 23.99 17.81 26.57 22.28 20.06 28.01 28.08 29.44 29.44 31.49 30.86 30.13 28.12 28.24 26.87 27.03 27.02 26.70 25.47 24.03 21.76 20.77 21.68
49.18 47.77 46.71 45.90 45.68 45.22 45.83 46.87 47.95 45.33 42.59 39.42 35.81 30.65 30.56 28.00 18.91 18.99 14.93 20.43 21.48 25.78 26.48 26.36 24.19 28.50 28.85 29.82 28.40 27.46 21.29 22.03 26.53 21.81 20.44 26.48 28.66 29.20 27.97 27.80 28.83 28.98 28.02 26.91 26.57 26.56 26.31 25.64 25.31 23.93 22.77 23.05 23.10 22.39
48.67 47.27 46.43 45.71 45.57 45.74 46.59 47.14 46.68 42.93 41.05 33.30 27.40 20.01 23.56 20.62 23.74 27.18 26.72 27.29 27.09 28.01 27.29 28.09 25.72 26.58 28.26 26.41 27.27 20.75 27.27 25.14 15.18 15.28 21.72 28.73 29.28 28.93 28.51 28.11 26.82 25.38 26.00 25.25 23.11 23.12 23.25 23.77 23.05 23.65 23.30 22.25 21.44 20.16
48.08 46.82 45.96 45.28 45.49 45.96 46.82 47.25 44.50 41.35 37.80 32.47 31.22 25.75 25.95 29.16 27.44 26.06 25.80 25.69 26.35 29.87 28.08 25.84 25.87 27.27 25.01 23.05 25.37 24.30 19.68 15.46 20.76 22.08 28.32 27.95 28.92 27.79 26.77 26.52 25.95 25.28 22.51 20.84 21.54 18.80 16.97 18.72 20.88 21.19 21.34 21.39 20.25 19.74
47.50 46.11 43.53 45.19 45.68 46.42 46.98 45.06 41.08 38.56 33.97 32.93 32.11 29.26 30.16 23.33 24.10 24.32 23.93 24.89 28.62 29.49 27.35 27.36 23.47 20.32 22.17 24.26 18.27 17.69 17.71 19.16 25.36 28.53 29.94 26.43 27.72 26.67 25.40 26.01 26.01 25.30 23.50 23.03 21.54 21.61 19.55 18.70 18.41 16.98 18.11 19.97 18.80 18.85
45.87 40.15 44.50 45.26 45.70 46.45 44.97 39.21 37.28 33.75 33.35 32.21 30.03 32.64 28.48 25.25 26.35 27.37 29.50 28.43 31.07 27.96 23.51 24.41 17.48 18.81 21.76 17.18 17.25 22.65 22.30 28.36 31.05 28.49 27.44 27.83 27.56 26.37 25.68 25.09 24.51 23.53 22.59 22.42 21.14 20.90 19.11 17.92 15.05 14.80 14.75 16.63 16.50 18.89
40.73 42.16 44.66 45.35 45.46 43.92 38.62 36.47 34.82 33.01 29.77 31.48 29.91 29.92 29.38 29.81 27.46 26.96 27.89 29.82 28.49 26.85 26.18 21.63 22.78 15.85 16.39 14.62 18.92 24.91 25.68 28.29 27.44 27.85 27.74 27.84 27.02 25.73 25.52 23.68 23.22 22.72 21.17 19.47 20.11 17.40 15.59 14.48 15.72 16.98 16.79 17.64 16.07 15.67
41.52 42.85 44.73 45.46 44.04 37.88 34.33 33.24 33.91 30.46 30.44 32.00 30.71 29.98 27.91 28.59 29.53 29.78 29.21 29.70 28.98 28.20 24.75 20.34 17.95 17.69 21.44 23.59 24.66 26.97 25.03 26.44 26.98 25.98 24.74 24.99 24.92 23.57 23.32 22.84 21.38 20.22 18.78 18.45 19.75 20.37 19.71 18.21 17.12 16.74 17.08 17.11 16.21 16.49
44.20 44.27 44.05 45.03 43.10 34.91 31.92 32.17 33.52 31.92 28.22 29.41 29.57 28.92 27.25 26.82 28.19 27.28 27.79 28.26 26.46 22.47 19.67 18.99 22.05 25.87 25.79 27.13 26.45 25.57 24.93 27.46 24.49 22.46 22.05 21.97 22.45 21.00 21.89 21.07 20.70 20.17 19.48 17.11 17.26 21.23 17.59 17.23 18.07 17.49 17.47 17.33 16.01 14.52
42.51 41.28 43.09 42.97 36.12 35.57 34.22 31.12 30.42 32.06 29.25 25.53 28.10 28.99 26.88 27.76 25.50 25.19 23.42 26.74 22.84 24.98 21.53 27.08 28.13 29.32 28.79 26.81 26.36 26.01 25.97 27.73 26.00 27.08 24.39 21.84 21.71 22.59 21.49 20.70 19.39 20.46 19.50 18.98 17.87 17.74 18.73 15.61 16.16 16.38 17.31 16.79 16.03 16.04
37.19 41.31 38.54 36.81 32.28 32.53 32.50 32.46 27.69 28.65 24.21 24.75 26.94 27.91 25.48 24.12 25.47 26.98 29.93 26.73 26.33 27.60 28.01 29.92 31.30 30.62 29.38 26.12 24.59 24.40 25.94 27.33 26.61 25.21 28.36 26.82 20.51 20.14 20.20 20.08 19.54 19.16 19.08 18.61 17.78 16.99 16.55 16.40 16.60 17.05 16.24 16.14 17.20 15.39
39.69 37.08 32.28 31.87 29.07 28.85 29.50 30.00 21.90 23.45 21.28 22.59 24.65 22.96 23.64 24.20 25.53 29.10 23.84 26.15 26.59 28.91 31.17 31.33 31.60 25.83 28.45 23.44 20.95 20.88 23.31 25.01 23.29 22.84 24.40 22.70 22.43 22.26 21.86 20.79 21.19 19.94 18.26 17.78 17.94 16.75 14.93 18.25 16.73 16.96 16.22 15.51 14.46 13.95
38.35 32.09 30.02 29.52 30.16 26.33 26.86 24.24 27.87 25.09 24.01 21.95 21.86 20.18 22.33 23.78 23.75 22.60 20.96 22.01 27.89 26.58 28.30 30.21 28.28 22.75 19.00 18.84 19.84 22.03 22.07 24.66 21.62 21.19 21.99 21.42 20.36 19.76 21.01 19.49 19.99 20.04 19.86 18.59 16.94 15.95 14.85 14.85 16.86 14.82 14.36 10.37 10.36 10.81
30.07 29.30 30.29 27.25 27.85 22.02 19.30 19.64 19.56 22.27 18.99 21.50 20.72 21.53 20.28 21.08 18.13 19.67 18.13 20.95 26.79 27.29 29.02 28.63 27.50 27.94 27.34 27.25 25.54 21.66 22.32 25.27 24.44 23.08 20.94 21.53 19.52 17.89 16.93 17.14 17.35 17.93 18.14 16.01 15.00 14.66 13.50 12.95 12.52 11.66 10.84 8.64 8.98 7.70
26.77 28.35 27.57 26.78 20.67 18.72 18.79 16.93 18.72 19.77 20.40 19.17 20.86 20.89 19.76 19.27 15.56 15.37 17.76 22.65 27.60 29.22 28.78 28.01 27.50 25.79 25.83 27.97 23.62 21.57 22.39 26.43 25.93 23.46 20.90 21.60 20.25 19.24 17.08 15.50 14.13 14.56 17.37 17.42 16.17 14.61 13.44 13.07 11.84 9.78 8.68 10.07 15.50 8.09
25.43 26.48 28.55 26.72 24.19 22.67 20.57 21.72 22.80 21.11 18.95 19.28 19.17 17.40 17.80 12.50 12.55 18.17 22.79 23.52 28.70 27.70 28.61 30.82 29.50 28.16 28.29 26.69 23.94 23.37 25.57 25.82 23.85 23.63 21.86 21.69 20.30 21.05 20.89 18.45 16.31 18.02 17.27 16.90 16.32 15.07 13.16 12.17 12.05 10.26 7.91 7.18 6.54 5.97
27.37 24.39 19.20 20.24 19.16 20.83 18.64 19.17 18.95 19.65 20.74 22.65 21.10 16.17 17.43 16.80 18.49 23.76 24.92 18.35 18.06 20.04 21.52 21.19 21.80 22.55 21.50 20.75 22.50 21.78 17.62 16.31 16.60 16.97 16.72 15.44 15.30 16.69 16.87 17.09 18.21 21.50 17.07 15.57 14.98 14.01 12.97 12.11 10.38 7.59 6.86 5.64 4.37 4.75
23.14 24.51 23.07 16.41 17.10 19.21 20.36 20.33 21.09 23.13 24.98 22.86 21.50 18.27 17.27 21.38 22.14 19.69 15.71 15.44 16.13 17.81 17.05 16.21 13.85 15.67 18.61 18.15 19.36 20.96 17.30 18.65 17.84 16.37 16.65 15.50 13.14 13.25 14.80 17.34 19.21 16.51 16.01 17.62 20.12 15.52 11.59 11.54 9.41 7.77 4.93 4.00 2.97 0.69
20.63 24.01 18.09 16.56 17.96 19.75 21.47 23.37 24.13 25.22 24.22 24.99 24.25 20.39 20.69 20.03 14.97 12.47 14.37 14.44 17.06 18.11 17.54 15.95 16.72 16.76 15.62 16.63 15.51 15.95 18.51 21.75 23.69 22.62 20.68 19.26 18.11 16.19 14.87 15.21 14.21 13.51 13.49 13.46 12.45 10.97 21.77 11.71 11.13 2.26 0.75 0.79 1.86 1.63
23.89 20.87 19.08 19.67 19.84 20.47 19.21 18.50 17.22 20.76 15.47 13.78 13.64 16.26 20.89 13.64 14.93 11.99 11.42 14.36 16.22 17.42 17.43 15.26 16.21 18.71 18.29 18.05 17.74 16.36 16.00 18.93 16.82 19.91 21.98 21.12 17.64 15.87 15.06 14.74 14.09 12.73 12.16 11.49 10.42 9.40 9.80 3.66 1.25 -1.20 -1.04 -1.42 -3.14 0.41
21.71 21.93 20.03 18.53 16.77 11.37 11.90 11.81 10.51 10.66 9.49 9.45 10.17 8.34 9.55 11.95 13.37 16.38 13.69 16.51 18.46 19.13 22.61 20.46 18.84 20.00 22.03 22.15 22.63 22.47 25.77 19.42 17.39 19.03 19.34 17.80 16.87 16.32 15.56 14.82 13.16 12.54 11.68 10.59 10.06 8.00 5.75 3.44 0.54 -0.14 0.43 -3.32 -4.48 -4.32
15.23 13.84 12.05 10.37 6.00 7.00 10.89 10.39 8.28 4.67 5.09 6.26 8.47 10.15 10.90 14.56 16.61 18.62 10.71 18.38 18.74 21.58 21.33 21.61 17.91 18.96 21.39 21.46 22.68 23.47 22.43 19.80 19.89 22.96 22.94 21.98 20.71 18.20 14.93 13.79 13.08 12.18 10.78 9.70 8.18 5.99 3.65 0.58 -1.10 -2.05 -3.05 -4.32 -5.48 -5.15

GFSWCAN_sfc_wetblb_093.txt.gz
Wetbulb
51.92 52.55 52.64 49.03 46.75 46.01 47.07 48.07 48.95 49.08 49.44 50.06 50.33 50.89 50.55 50.47 50.13 43.37 38.99 39.43 38.36 32.87 32.73 35.91 36.41 34.17 34.62 34.69 33.26 36.13 35.64 36.50 35.08 30.96 28.63 27.40 25.63 27.68 24.90 27.64 26.30 26.26 23.36 23.66 24.23 20.87 18.11 34.61 33.34 29.28 31.91 33.01 35.11 34.55
52.02 52.33 53.10 49.94 47.42 46.16 46.55 47.14 48.21 48.62 48.70 49.00 49.95 50.02 49.50 49.39 49.56 47.09 37.14 40.97 40.77 36.06 34.57 36.94 36.78 36.87 36.22 36.03 34.32 34.74 35.31 35.32 35.58 31.76 30.79 29.02 27.53 26.76 26.06 22.59 29.09 24.98 28.61 26.83 27.17 26.92 33.20 34.55 34.38 34.40 34.92 34.33 34.08 34.41
51.86 51.91 52.80 50.94 48.09 46.51 46.11 46.44 47.51 48.21 48.44 48.47 49.10 49.49 48.62 47.73 47.98 46.33 38.38 37.97 39.29 34.29 33.10 32.82 33.13 36.34 37.91 37.07 37.76 35.03 35.68 36.16 36.81 35.60 33.21 32.22 28.62 29.22 25.20 25.34 26.33 29.20 32.19 29.15 29.87 30.13 32.63 34.26 34.85 35.13 34.92 34.50 34.53 34.50
51.45 51.55 52.22 51.60 48.57 46.78 45.99 46.01 46.65 47.60 48.34 48.13 48.29 49.09 47.75 47.32 47.37 45.66 37.76 37.32 37.33 36.03 29.83 32.59 37.39 34.38 37.74 37.80 37.44 37.01 36.27 36.91 36.96 35.42 33.26 31.88 30.19 32.53 28.45 29.57 28.34 30.47 31.70 29.71 29.28 31.98 32.34 34.21 33.91 34.89 34.47 34.57 34.05 34.00
51.09 51.31 51.92 51.76 48.88 46.99 45.92 45.88 46.05 47.10 48.16 48.09 47.87 48.52 48.28 46.94 46.57 41.57 38.75 37.98 37.59 35.71 29.35 31.01 34.55 35.23 36.60 36.70 37.18 37.12 36.02 35.29 34.22 31.53 27.57 30.50 31.75 30.74 30.01 28.60 26.70 31.78 31.41 29.29 28.56 33.27 33.00 32.42 34.16 35.17 33.53 33.25 33.67 32.44
50.94 51.04 51.55 51.48 49.00 47.20 45.99 45.73 45.83 46.70 47.79 47.97 47.70 48.18 48.38 47.32 46.80 40.61 36.13 39.06 39.54 37.77 29.24 26.76 33.63 31.97 34.30 34.70 34.75 35.24 35.95 34.56 33.56 33.15 31.68 31.97 32.46 29.94 26.13 24.83 31.83 32.71 33.63 35.13 33.23 33.38 33.05 33.42 34.55 34.83 33.93 33.24 32.40 31.55
50.79 50.80 51.16 51.13 49.12 47.23 46.04 45.74 45.84 46.56 47.49 47.91 47.81 47.90 47.21 46.56 40.52 37.55 35.45 38.66 41.48 37.64 31.49 25.17 26.92 31.58 32.96 32.21 33.03 32.86 33.38 32.31 32.07 31.42 31.02 30.19 30.11 28.42 27.18 28.46 33.32 35.03 34.60 33.32 33.01 33.22 30.51 32.35 31.73 33.19 32.76 32.32 33.66 30.04
50.62 50.67 51.09 50.74 49.10 47.26 45.99 45.77 45.76 46.61 47.58 48.26 48.04 47.24 44.99 44.77 42.60 36.88 38.25 41.66 40.39 34.93 31.33 21.20 22.70 27.06 31.15 29.20 28.76 31.66 29.94 30.21 30.13 29.76 29.59 28.20 28.89 27.90 26.63 30.65 34.55 35.84 34.25 31.86 31.97 31.25 32.69 32.68 32.04 31.35 30.58 29.72 27.18 25.95
50.24 50.37 50.85 50.46 48.91 47.11 45.93 45.69 45.87 47.63 48.85 48.65 48.09 45.45 39.74 36.92 33.81 35.79 43.31 42.81 38.17 34.15 25.15 22.03 17.69 20.11 30.94 29.46 29.91 30.29 29.70 26.97 30.16 27.69 27.57 28.85 27.00 24.98 30.36 30.85 32.14 32.61 32.69 31.74 29.90 30.09 30.30 30.40 30.31 29.03 27.14 26.11 24.54 24.50
49.86 50.05 50.51 50.03 48.45 46.98 46.10 45.68 46.46 48.58 48.12 46.92 40.18 36.08 30.88 34.67 42.14 41.12 36.60 32.55 29.94 28.40 27.07 23.04 24.63 23.26 27.60 27.11 26.90 27.01 28.45 25.94 18.00 27.33 28.53 25.58 25.78 31.52 33.03 33.13 34.58 33.28 32.57 30.38 24.47 24.37 25.38 23.88 26.12 26.02 25.44 25.27 24.70 24.61
49.71 49.79 50.12 49.46 47.67 46.53 46.30 45.90 47.26 47.47 44.48 38.01 34.13 30.74 35.66 41.15 35.28 30.99 24.87 24.90 26.94 23.65 26.95 24.89 24.46 24.22 29.20 23.72 26.73 29.25 23.13 22.42 13.88 22.87 22.70 22.32 24.39 29.18 30.22 30.63 33.23 32.66 31.68 29.94 28.86 27.96 27.93 27.28 25.13 24.87 25.01 24.89 24.53 23.90
49.49 49.58 49.71 48.97 47.21 46.45 46.38 46.46 48.26 43.18 38.52 39.25 37.18 37.72 35.17 31.00 26.03 19.74 15.26 23.52 22.58 22.07 25.19 24.01 25.29 27.62 27.58 29.05 26.35 27.24 22.50 24.28 16.50 24.03 20.53 20.15 26.14 29.13 27.92 28.89 28.85 29.23 28.69 27.75 27.74 26.39 26.05 26.06 25.82 24.84 23.52 21.91 21.36 21.37
49.37 49.44 49.57 48.56 47.12 46.54 46.33 46.94 48.14 45.91 41.67 37.15 32.43 27.42 27.27 24.09 16.69 15.56 13.50 14.69 14.80 22.60 22.94 23.29 20.98 26.48 27.08 28.51 25.97 22.03 17.24 19.92 24.20 14.85 18.01 23.79 29.90 29.81 28.15 27.80 26.92 26.56 26.89 26.30 25.81 26.03 25.54 24.42 24.54 23.33 22.04 22.37 21.99 21.33
49.24 49.34 49.31 48.13 46.92 46.12 46.24 47.16 47.71 43.58 37.79 30.36 24.40 19.85 21.73 16.12 20.07 21.77 21.71 20.12 23.86 23.85 25.15 24.86 22.34 24.48 26.63 23.35 24.96 15.17 23.73 22.37 10.73 11.10 16.81 22.72 29.84 29.42 28.75 28.33 26.52 24.43 25.43 24.84 22.47 23.14 23.92 24.01 23.29 23.61 22.75 21.68 20.58 19.44
49.14 49.20 48.80 47.32 46.39 45.77 46.49 47.27 45.91 41.72 34.91 29.08 29.14 22.95 23.10 25.12 19.78 20.00 20.20 22.97 23.04 27.26 26.97 24.49 23.21 24.89 21.21 20.91 23.99 20.18 15.63 10.23 15.25 15.77 22.44 26.11 28.03 28.37 27.77 27.03 25.84 25.01 23.40 21.23 19.99 19.50 19.53 20.22 21.59 21.31 21.32 21.12 20.15 19.91
49.05 48.79 46.94 46.96 45.87 45.63 46.53 46.03 41.57 39.02 33.52 32.29 30.89 28.36 29.53 23.76 17.60 17.47 15.36 18.69 24.66 27.14 24.00 25.75 19.90 16.64 19.27 19.31 15.79 14.44 10.66 11.57 17.34 22.53 26.01 24.70 26.77 27.63 27.19 27.02 26.27 25.56 23.96 22.83 21.24 21.06 20.73 20.41 20.31 19.20 18.87 19.74 19.19 19.27
48.61 43.87 46.49 46.08 45.10 45.68 45.63 39.65 37.65 34.03 33.48 32.29 29.89 32.35 28.85 25.07 21.34 22.49 24.82 25.62 27.83 25.88 20.53 21.61 15.52 18.57 19.47 12.35 14.10 18.97 16.07 20.30 24.40 23.48 23.57 26.14 27.47 27.54 26.34 26.35 26.00 25.23 23.69 22.36 21.84 21.31 19.61 19.73 18.15 18.10 16.73 17.17 17.25 19.13
44.78 44.49 45.87 45.09 44.48 44.12 39.17 36.80 34.79 33.03 30.50 32.09 30.21 30.62 31.93 30.19 25.36 25.65 26.38 28.23 27.07 24.71 24.72 19.62 20.35 14.08 14.84 12.75 15.66 21.56 23.56 20.16 21.81 22.58 24.17 26.62 26.35 27.34 26.23 24.99 24.39 23.82 22.61 21.54 20.92 18.40 18.10 17.87 18.52 18.68 18.05 18.26 16.81 16.55
44.88 44.39 44.91 44.71 43.27 38.32 33.42 33.21 34.21 30.09 30.26 28.65 30.71 29.27 30.22 29.74 29.73 27.00 26.62 29.48 26.66 27.23 24.96 17.23 14.70 14.26 18.51 20.54 21.44 21.19 18.96 21.81 23.40 23.78 23.29 24.30 25.07 23.76 24.04 23.37 23.12 21.51 20.69 19.37 19.52 20.00 20.61 20.18 19.31 18.58 18.45 18.17 17.41 17.59
45.35 45.07 44.48 44.25 42.81 33.82 31.30 31.48 33.95 31.63 28.64 29.26 27.47 27.91 28.41 28.04 28.43 26.70 25.88 27.83 25.90 20.63 19.44 17.45 19.60 22.42 23.06 24.67 25.50 24.82 24.40 25.42 23.08 21.20 21.77 21.26 21.44 19.51 21.38 21.79 22.21 20.93 19.20 17.54 19.24 22.12 18.92 18.57 18.83 18.48 18.12 18.12 17.48 16.30
43.82 43.21 43.51 42.44 33.11 33.30 32.85 30.38 30.58 31.81 25.45 24.06 25.98 28.24 25.98 26.57 25.78 24.32 22.87 25.01 17.59 19.47 20.88 23.69 24.20 28.24 27.20 27.19 26.67 27.20 25.74 25.83 24.29 24.55 24.60 18.77 20.21 20.94 20.33 20.58 19.63 19.53 18.81 18.75 18.78 19.93 22.00 18.19 18.12 18.22 18.39 18.05 17.63 17.29
36.56 42.91 38.57 34.76 31.84 31.21 31.73 32.14 30.30 29.60 27.64 26.83 27.62 26.21 24.71 23.56 25.18 26.54 26.62 20.57 24.02 28.65 28.03 23.16 28.79 29.81 28.16 27.76 29.85 24.24 26.59 25.71 25.45 24.62 28.82 26.62 18.46 18.55 20.19 20.67 19.96 19.24 19.20 19.60 20.09 19.46 19.04 18.30 18.12 18.20 17.81 17.75 18.39 16.36
40.49 35.32 32.13 31.87 29.31 30.38 28.79 31.11 25.10 23.80 21.19 22.00 25.33 23.28 22.54 22.12 24.90 29.46 24.98 26.91 26.63 28.51 30.66 29.14 31.50 26.51 28.40 27.53 22.58 21.01 23.41 25.06 24.90 24.39 24.19 24.01 21.39 21.49 21.00 20.50 21.72 20.18 19.02 19.23 20.27 19.09 17.80 19.65 19.44 17.91 17.08 16.70 15.75 15.31
37.30 31.94 30.40 29.27 29.29 26.89 27.27 24.78 26.84 23.91 22.80 21.81 21.26 16.97 16.98 20.00 25.82 23.49 21.44 21.83 25.52 27.08 26.76 29.62 28.64 21.84 18.76 18.93 23.03 27.85 24.27 24.34 23.08 18.59 21.43 20.72 17.94 18.80 20.41 20.06 19.70 21.56 21.12 20.01 19.19 18.10 17.18 16.93 18.35 16.74 15.42 13.80 13.49 13.07
29.18 27.88 29.72 27.27 28.18 21.47 19.44 20.04 20.16 20.54 17.15 18.84 16.40 14.49 19.94 21.31 18.73 18.36 18.63 18.02 23.90 27.92 29.48 27.10 27.26 28.25 27.65 28.54 28.36 28.65 22.97 24.64 23.79 23.32 19.89 22.57 17.98 16.25 16.02 16.73 18.29 19.20 20.10 17.73 16.74 16.48 15.71 15.21 14.91 14.18 13.59 12.72 12.20 10.41
26.54 28.11 27.38 27.54 21.46 19.06 17.95 15.71 16.78 17.17 18.26 15.48 17.98 18.42 18.10 19.01 17.61 16.36 15.17 22.33 26.63 29.80 27.25 26.04 26.69 26.07 26.09 28.53 28.66 22.41 23.01 23.84 23.31 22.41 18.67 21.74 21.71 20.58 19.76 16.32 14.74 16.04 18.98 19.71 17.86 15.98 15.19 14.71 13.82 12.92 12.82 13.23 17.49 11.74
25.00 25.24 28.53 27.29 23.95 21.42 19.29 19.82 22.49 19.61 16.07 15.66 17.01 16.20 19.01 18.33 17.23 19.49 23.18 25.87 26.71 24.19 26.51 29.21 29.31 28.14 28.48 26.28 26.51 21.01 21.94 24.54 20.82 20.94 23.13 23.69 21.54 21.56 22.28 19.73 17.92 19.82 18.98 18.80 18.17 16.97 15.59 14.32 13.48 12.97 12.74 12.00 11.27 10.30
28.55 24.43 21.30 21.17 20.26 19.74 17.01 16.77 15.30 16.69 17.75 19.61 20.50 13.71 17.72 20.76 22.40 25.71 26.89 24.28 15.72 15.89 17.07 16.03 19.45 23.80 21.01 19.39 19.03 18.62 14.38 13.46 14.88 16.36 17.17 14.55 13.08 14.18 19.06 20.34 20.86 23.58 19.34 19.00 18.03 17.25 16.18 14.94 13.83 13.01 11.99 10.87 9.80 7.16
22.58 23.84 23.23 17.19 18.63 18.30 17.24 15.74 17.25 19.75 23.47 22.89 22.25 20.45 22.01 23.98 25.76 25.58 19.91 15.55 13.00 20.78 20.18 18.35 15.22 12.43 14.23 13.49 12.17 9.46 16.43 17.11 15.10 12.05 13.21 13.85 12.71 15.03 16.70 20.22 21.57 18.63 18.04 19.61 21.96 17.95 14.54 14.01 13.40 12.75 11.19 9.80 7.34 3.69
20.90 24.83 19.10 17.18 17.33 16.11 17.74 19.78 18.86 20.85 22.73 26.57 27.18 23.25 21.00 20.18 17.68 12.13 16.20 17.96 19.82 20.87 21.52 19.07 16.31 17.20 14.45 16.49 11.79 8.04 10.91 17.21 21.14 18.83 20.55 18.92 19.45 17.76 17.22 18.88 16.54 16.95 18.51 18.46 17.35 17.77 22.18 18.43 17.57 9.77 6.62 5.57 5.52 4.86
24.10 20.95 18.97 17.91 15.85 13.44 14.26 16.51 20.28 22.66 20.38 20.52 18.74 20.42 18.68 14.79 16.49 13.08 16.93 17.36 17.54 13.89 15.48 11.27 11.62 13.29 14.76 13.77 14.81 13.61 14.32 16.83 13.95 15.01 20.58 20.31 17.18 17.76 18.32 17.61 16.87 16.65 16.96 16.86 16.31 16.94 16.38 10.41 8.34 6.33 5.66 5.27 2.59 3.70
20.12 16.76 17.64 14.57 12.50 13.61 16.77 19.20 19.05 19.55 17.70 18.15 14.34 7.23 11.11 12.98 16.15 19.35 15.11 14.64 15.57 16.71 22.14 20.54 18.53 19.16 19.66 17.73 18.35 14.49 24.23 18.38 19.32 20.42 19.79 17.77 17.69 18.17 17.93 16.62 15.60 14.91 14.35 14.32 14.66 13.85 10.99 9.67 7.77 6.65 5.46 3.58 0.55 -2.02
12.37 10.96 11.65 13.78 14.18 15.09 15.55 18.38 17.68 15.42 11.42 7.95 11.26 11.40 12.25 16.31 18.12 21.78 11.19 18.01 19.31 23.33 22.70 23.34 21.29 15.30 18.88 19.63 19.03 19.84 21.72 17.54 21.20 24.88 24.47 23.15 21.70 19.50 16.78 15.78 14.98 14.09 12.98 12.73 12.24 11.28 8.90 7.04 6.09 4.29 4.03 2.31 -0.39 -3.64

GFSWCAN_sfc_wetblb_096.txt.gz
Wetbulb
52.56 52.66 52.37 52.88 50.55 48.08 46.88 47.05 47.96 48.86 48.93 49.33 49.96 50.52 50.04 49.88 50.01 42.06 38.05 38.38 37.67 32.08 32.40 35.61 35.95 33.95 34.38 34.71 33.14 35.26 34.17 34.97 33.84 30.26 28.31 26.82 24.92 26.15 24.59 25.88 24.76 24.98 22.36 22.52 23.29 20.67 18.07 33.34 32.58 27.93 30.35 31.97 34.38 33.97
52.37 52.43 52.34 52.24 51.68 48.91 47.18 46.61 46.97 48.10 48.67 48.67 49.07 49.98 49.23 48.61 49.23 45.05 36.07 39.29 39.75 36.01 34.88 36.06 36.38 35.78 35.26 36.19 35.49 34.11 35.00 34.28 35.15 30.94 29.45 28.49 27.24 25.55 24.54 22.53 27.22 25.08 27.66 24.84 26.26 25.79 31.55 33.43 32.67 33.52 33.59 33.29 33.45 33.56
51.92 52.18 52.18 51.90 52.36 49.86 47.84 46.61 46.46 47.38 48.00 48.51 48.53 49.27 48.98 47.94 48.08 44.85 37.33 36.79 38.34 34.04 33.41 32.75 33.39 35.53 37.23 36.25 36.75 33.86 34.77 36.40 35.37 35.29 32.54 31.08 28.58 28.42 25.10 24.23 24.13 28.38 30.64 28.69 29.12 28.38 30.91 33.55 33.67 34.17 34.23 33.93 34.01 33.82
51.47 51.66 51.79 51.51 52.17 50.57 48.32 46.83 46.28 46.68 47.40 48.37 48.32 48.44 49.07 47.55 47.23 43.90 36.30 36.46 36.73 35.25 29.23 32.19 36.43 33.73 37.12 37.01 36.47 36.19 35.28 36.25 35.89 34.03 31.76 30.67 29.95 32.04 28.04 29.20 27.36 30.13 30.81 29.14 27.94 30.85 31.43 33.13 33.39 34.37 34.08 34.11 33.54 33.48
51.22 51.27 51.50 51.47 51.72 50.96 48.55 47.00 46.33 46.27 46.84 47.93 48.16 47.97 48.72 48.22 47.04 40.55 37.52 37.08 36.70 34.47 29.25 30.12 33.61 34.98 35.62 35.66 35.53 35.57 35.13 34.05 32.92 30.49 26.51 29.50 30.79 30.19 29.20 27.61 25.81 30.88 31.28 28.92 29.96 32.46 32.08 31.57 32.84 34.40 33.16 32.91 33.20 31.99
51.15 51.03 51.10 51.20 51.44 51.00 48.82 47.23 46.28 46.14 46.54 47.40 47.95 47.81 48.36 48.40 46.24 39.66 34.93 38.26 38.71 37.28 28.64 25.27 32.37 30.96 33.05 33.79 33.56 33.20 34.47 33.67 32.14 31.21 30.22 31.18 32.24 30.16 26.53 25.40 30.78 31.65 33.11 36.23 34.00 32.64 33.13 32.70 33.45 33.36 33.27 32.86 32.29 31.19
50.99 50.79 50.76 50.93 51.35 50.85 49.16 47.37 46.29 46.07 46.47 47.24 47.67 47.81 48.07 46.62 39.17 36.72 34.50 37.79 40.58 36.72 30.00 23.81 23.67 31.31 31.24 31.21 31.91 31.92 32.29 31.35 30.96 29.97 29.58 29.12 29.55 29.10 25.46 29.16 32.87 33.86 34.34 33.21 32.95 32.60 29.68 31.57 31.90 33.40 32.81 32.06 33.41 29.30
50.82 50.72 50.68 50.67 51.14 50.68 49.13 47.58 46.41 46.01 46.44 47.20 47.70 47.92 46.43 44.66 41.53 35.30 37.52 41.57 39.21 33.45 29.17 19.41 20.82 25.60 30.85 28.60 28.26 30.34 29.10 28.91 29.24 28.83 28.73 27.25 28.27 27.10 25.52 30.31 32.42 33.24 33.80 32.61 31.85 31.85 32.61 32.24 31.16 30.10 29.79 29.12 26.61 25.42
50.47 50.46 50.48 50.56 50.93 50.39 48.79 47.39 46.54 46.01 46.56 48.65 48.64 46.49 39.09 36.05 32.75 34.62 42.88 41.92 36.59 32.71 23.22 20.68 16.75 17.62 29.96 28.51 29.15 29.23 28.91 26.49 29.23 27.07 26.84 27.96 26.37 24.31 29.18 30.19 31.10 31.91 31.92 31.34 30.08 30.59 30.97 30.59 29.52 28.67 27.27 25.72 24.21 24.09
50.05 50.13 50.15 50.17 50.55 49.95 48.43 47.33 46.23 46.72 48.62 46.55 39.78 35.39 30.75 34.35 41.53 40.61 35.11 31.25 29.23 27.34 26.01 22.61 22.90 23.07 27.15 26.08 26.23 26.14 27.65 25.18 17.49 26.22 27.64 25.55 25.29 29.40 30.86 30.45 31.10 32.39 32.99 29.58 25.58 25.40 26.06 25.91 27.76 26.04 25.20 24.97 24.78 25.23
49.95 49.91 49.83 49.82 50.04 49.22 47.72 46.99 46.63 47.90 44.12 38.08 33.87 31.08 34.86 40.87 34.55 29.91 25.41 23.96 26.92 24.35 26.31 23.45 24.02 23.91 28.57 23.24 25.70 28.40 21.88 21.24 13.37 21.64 22.59 20.59 21.93 28.02 30.40 28.49 29.49 29.53 31.97 31.08 30.54 29.71 28.97 28.43 26.28 24.31 24.49 25.00 24.68 24.32
49.82 49.71 49.60 49.64 49.74 48.70 47.51 46.94 48.06 42.65 39.25 39.38 36.93 36.92 34.69 30.59 25.85 21.10 17.30 22.98 23.10 22.90 24.80 24.39 25.23 27.32 26.91 28.54 25.99 26.22 21.18 23.66 16.49 22.81 19.51 16.69 22.58 27.80 28.16 27.90 28.04 28.13 29.53 29.15 28.95 27.89 27.21 27.26 25.90 25.20 24.17 23.06 22.95 22.82
49.71 49.62 49.59 49.61 49.65 48.40 47.29 46.82 47.87 45.61 41.89 38.12 33.26 27.26 27.12 25.48 18.20 17.51 16.09 15.36 13.72 21.99 23.07 23.81 21.87 26.22 26.50 28.14 25.15 21.32 17.01 19.41 22.91 13.05 17.64 20.09 24.68 28.30 27.51 27.03 25.68 25.64 27.07 26.67 26.04 26.01 25.64 24.54 25.08 23.81 22.51 22.63 22.33 21.66
49.55 49.50 49.43 49.46 49.36 47.95 46.86 46.88 47.31 43.20 38.49 32.46 28.36 21.19 22.28 18.39 22.52 24.10 22.32 21.98 24.04 23.47 24.38 23.47 22.44 24.20 26.04 23.19 24.03 14.80 22.90 21.16 13.43 14.89 14.46 19.25 24.40 27.09 27.09 27.25 25.01 23.13 25.20 25.23 24.21 24.68 24.29 24.20 23.11 23.61 23.24 22.33 21.48 20.12
49.41 49.32 49.18 49.04 48.82 47.40 46.17 47.06 46.00 41.94 35.69 31.94 27.73 22.98 21.79 26.21 26.00 24.49 21.16 22.96 23.63 27.99 26.07 24.01 22.84 24.02 20.49 20.40 23.57 19.59 16.48 15.99 14.44 15.58 18.66 21.03 25.85 24.88 25.31 26.01 25.08 23.74 22.25 22.20 21.66 21.08 20.85 22.04 21.89 21.20 21.28 21.19 21.05 20.58
49.30 48.93 48.18 49.10 48.34 46.79 45.55 46.67 42.82 39.52 33.79 32.01 30.22 27.19 27.67 22.58 24.46 24.30 19.88 19.01 24.28 27.17 24.63 25.17 19.35 16.67 18.15 18.39 15.18 14.64 10.69 11.47 17.72 17.90 22.79 22.51 24.87 24.27 24.82 26.32 25.67 24.58 23.19 22.17 21.87 21.56 21.25 21.08 20.92 19.82 19.50 19.80 19.60 20.08
48.81 46.35 48.47 48.64 47.30 45.76 45.62 40.16 37.91 35.82 32.90 31.62 29.53 31.22 28.05 26.28 28.89 27.29 24.92 25.51 27.92 26.46 22.45 21.00 15.46 17.83 20.69 11.79 17.09 17.62 14.77 19.68 20.97 22.03 22.50 25.32 25.32 24.92 25.12 25.92 25.87 24.78 22.98 21.85 21.14 21.54 20.55 19.59 17.26 17.55 18.13 19.23 18.71 19.87
46.58 48.09 48.26 47.87 45.49 43.72 41.04 37.22 34.17 31.95 30.39 32.10 29.93 31.10 31.75 30.90 28.31 28.12 26.55 27.52 28.34 25.29 24.16 19.36 20.21 15.53 16.28 14.01 15.75 20.09 22.24 18.71 21.58 23.55 24.21 25.80 25.29 25.26 26.11 24.67 25.06 24.25 22.42 19.74 20.04 19.67 19.11 17.48 17.47 18.54 19.41 19.34 18.10 17.00
47.81 47.51 47.67 45.99 43.10 34.19 31.79 31.48 33.29 29.91 30.93 30.82 28.74 29.35 31.45 30.85 30.74 29.29 28.71 29.42 26.85 27.76 24.98 18.84 17.89 18.52 19.23 20.08 18.84 17.75 16.78 21.74 24.84 24.63 23.42 24.54 25.48 25.11 25.25 22.86 21.41 18.95 17.84 18.33 20.52 20.20 19.61 18.80 19.32 19.80 19.59 18.40 17.83 18.45
48.26 47.35 46.22 44.79 42.17 32.56 30.21 30.90 33.84 31.85 28.23 29.15 26.80 29.61 29.34 29.12 29.94 30.04 28.25 28.17 26.84 23.51 18.85 18.67 22.80 24.98 22.30 22.45 23.92 24.55 23.46 25.27 23.30 21.92 22.47 22.41 21.92 19.30 21.06 21.23 21.62 20.08 17.47 14.07 16.20 22.47 18.70 18.17 19.36 19.09 18.98 18.17 17.04 17.30
46.36 45.14 44.51 42.66 33.22 32.04 31.92 30.45 30.53 32.45 28.33 27.51 26.31 29.43 28.42 27.49 26.98 26.44 26.31 28.98 22.22 19.73 20.53 26.27 27.06 28.57 26.24 25.59 25.49 26.49 26.13 25.69 24.59 25.11 25.26 20.31 21.55 21.28 19.13 19.20 18.35 19.40 18.44 18.32 17.92 18.70 21.50 18.25 19.45 19.26 18.99 18.70 17.75 17.49
40.34 44.18 38.67 34.34 31.53 30.64 31.52 32.05 30.90 30.07 23.97 21.62 28.08 26.19 25.01 24.51 24.97 26.14 26.92 25.38 21.10 27.72 27.73 31.92 32.11 30.45 28.84 25.91 27.68 24.47 28.31 25.81 25.74 24.50 28.60 27.03 19.77 17.02 17.78 19.91 18.57 18.89 18.88 19.19 19.10 18.58 19.84 19.58 19.42 19.00 18.18 18.15 19.92 17.15
42.33 35.60 31.82 31.86 29.81 29.62 27.98 31.52 25.78 24.01 20.45 24.53 26.82 22.56 22.89 22.52 23.75 28.21 25.29 24.05 26.20 28.56 32.63 33.29 33.02 28.15 27.70 26.86 22.45 23.78 24.59 25.20 25.69 25.23 25.42 25.32 23.44 21.18 19.44 20.30 21.24 19.50 18.39 18.00 19.69 19.13 19.08 21.40 21.83 18.39 17.87 18.60 16.75 15.86
37.73 32.00 30.18 28.78 29.17 26.56 27.74 26.13 26.18 23.34 22.97 22.60 22.98 20.84 19.91 21.94 27.18 24.68 23.26 21.79 24.78 27.00 30.35 32.07 31.41 30.00 20.13 19.15 24.20 29.54 29.96 25.09 27.01 23.97 24.40 22.32 20.96 20.12 21.03 20.63 20.38 21.30 21.42 19.60 19.19 17.83 16.31 18.46 20.67 19.44 16.75 15.57 15.01 14.45
28.87 27.58 29.29 26.47 27.77 22.97 21.05 20.97 20.59 20.60 17.64 19.18 18.02 17.92 19.87 23.17 21.50 20.81 19.32 17.17 21.22 26.96 29.33 29.86 29.37 29.23 28.36 28.17 28.71 29.26 26.89 26.04 25.30 25.62 25.34 23.82 18.76 14.15 13.09 14.71 16.86 18.46 19.23 17.57 16.31 15.62 16.21 17.61 17.77 16.31 14.95 14.29 13.62 12.94
25.24 27.46 26.65 26.81 21.36 19.71 18.10 16.52 18.37 16.93 18.00 15.88 17.17 19.13 18.94 18.77 16.31 17.16 17.77 20.20 26.29 28.44 29.51 29.40 28.25 26.81 27.03 28.76 28.54 25.60 26.51 24.37 23.54 23.43 22.63 22.66 22.23 21.92 18.72 16.32 14.07 15.32 18.31 19.62 17.51 16.40 15.71 16.37 15.78 14.72 14.14 15.63 19.09 13.92
24.88 25.30 28.59 28.35 23.87 20.70 18.31 19.46 20.91 20.79 19.85 18.39 16.93 16.08 17.47 17.26 16.64 19.29 21.60 23.62 27.68 29.86 31.19 30.74 29.50 28.39 27.98 26.56 27.54 22.26 20.45 23.24 21.42 20.03 17.85 21.60 23.01 23.62 22.41 19.63 17.68 21.18 18.95 19.80 19.16 18.89 17.16 15.60 15.06 14.84 14.23 13.72 13.49 13.00
29.16 24.92 24.01 22.19 19.73 16.94 16.62 18.80 17.97 18.34 19.27 20.42 22.03 17.85 17.77 18.55 20.36 25.01 26.48 26.38 26.52 21.25 18.51 18.38 22.13 26.55 22.72 21.69 20.78 19.09 13.50 12.15 11.45 13.18 15.14 14.14 11.46 10.33 16.21 20.36 16.82 24.47 20.02 20.14 20.40 19.88 17.59 16.74 16.13 14.81 13.78 12.88 11.64 11.23
22.24 23.91 22.59 16.33 17.87 18.86 19.63 18.01 19.16 23.06 25.03 23.47 23.03 19.56 20.70 23.46 26.45 26.82 24.00 15.15 12.52 23.35 21.21 20.29 15.70 11.94 13.15 11.75 11.07 9.52 15.32 17.43 16.88 13.53 14.80 15.27 8.97 12.80 10.44 15.99 19.29 18.79 19.25 21.16 23.97 20.32 17.28 16.83 15.95 14.81 13.55 12.58 11.26 7.98
19.93 23.68 16.33 16.23 15.06 16.19 19.41 21.97 22.48 23.95 23.45 26.75 27.06 23.64 22.52 19.44 20.99 19.14 17.74 18.00 21.13 23.31 23.41 19.33 18.89 21.18 18.52 17.81 12.98 8.48 9.75 17.37 22.01 20.43 17.92 17.77 15.97 15.91 18.35 18.54 15.78 16.89 20.03 20.24 19.74 19.96 23.85 20.10 19.40 12.32 8.61 7.39 7.24 6.34
22.52 19.20 15.47 14.23 14.08 13.25 14.49 15.30 20.19 23.46 21.87 22.87 20.85 23.95 20.28 13.47 15.81 11.15 15.49 19.52 20.94 18.20 17.09 13.43 10.49 10.28 15.02 14.99 15.39 14.73 16.22 16.34 15.13 12.42 11.08 14.97 17.91 19.45 18.76 16.28 16.84 19.14 19.57 18.64 18.43 18.79 18.17 13.47 10.30 7.95 7.76 7.32 7.45 8.54
20.76 19.23 19.41 16.36 12.73 12.99 16.03 18.05 20.68 20.76 18.58 19.71 13.93 6.97 9.71 12.02 14.97 16.94 16.71 17.77 17.14 18.13 23.17 22.77 18.88 19.35 19.42 17.08 17.04 13.87 24.58 16.50 18.66 16.84 17.19 15.91 17.55 19.54 18.27 17.61 18.86 19.17 18.13 17.73 18.34 17.61 13.49 11.52 9.50 9.07 8.20 7.01 6.23 4.99
13.54 15.14 15.62 15.18 14.30 14.13 17.01 21.13 19.66 16.21 11.49 9.00 10.78 8.81 11.12 15.69 18.63 21.10 14.85 21.90 25.52 25.31 24.08 24.32 25.45 15.99 18.14 19.20 19.10 18.85 20.92 13.70 17.89 24.08 25.40 23.92 22.65 21.06 18.08 18.04 18.28 18.09 17.40 16.74 15.68 13.87 11.66 10.16 9.24 8.25 7.25 6.12 4.67 3.56

GFSWCAN_sfc_wetblb_099.txt.gz
Wetbulb
52.90 52.88 52.91 52.83 52.51 52.49 50.05 47.95 47.34 47.98 48.69 48.84 49.03 49.85 49.87 49.04 49.65 41.13 37.52 37.67 37.20 32.00 32.24 35.02 35.97 33.83 33.92 33.61 32.52 34.26 33.52 33.58 32.86 29.55 28.42 26.34 24.41 25.37 22.85 25.57 24.95 24.60 21.72 21.82 22.50 20.03 18.24 32.70 31.80 27.51 30.43 30.90 33.35 33.20
52.97 52.80 52.65 52.65 52.35 52.50 51.15 48.80 47.47 47.06 47.95 48.51 48.52 48.86 49.67 48.60 49.00 43.25 35.59 38.10 38.93 35.75 35.15 35.66 36.24 36.11 35.70 35.84 34.80 33.35 33.41 32.94 34.47 30.59 29.17 28.11 27.25 24.28 23.62 22.18 24.96 24.17 27.24 24.11 26.02 25.65 31.05 32.38 32.17 33.03 32.95 33.30 33.23 32.82
52.75 52.80 52.51 52.45 52.47 52.09 51.79 49.79 47.92 47.02 47.33 47.96 48.49 48.44 49.08 48.36 47.83 43.76 36.85 35.90 37.37 33.82 33.79 32.68 33.06 34.95 36.24 36.05 37.08 33.94 33.68 35.21 34.44 33.95 31.70 29.90 28.58 28.54 24.39 23.57 22.80 27.80 28.77 27.80 28.06 29.27 29.76 32.19 33.20 34.16 33.64 33.23 33.89 33.60
52.36 52.48 52.40 52.08 52.11 51.77 52.04 50.26 48.62 47.18 46.80 47.48 48.30 48.18 48.24 48.79 47.40 43.00 35.83 35.54 36.25 34.09 28.16 31.50 35.78 32.91 35.79 36.02 35.67 35.93 35.18 35.31 34.91 33.27 31.02 29.65 29.18 31.08 27.24 28.66 26.36 29.68 29.45 27.96 27.11 29.78 30.25 32.19 32.53 33.80 33.96 33.72 32.96 32.77
52.01 52.17 52.16 51.88 51.74 51.50 51.70 50.59 48.95 47.41 46.65 46.90 47.93 47.81 47.79 48.58 47.65 39.93 36.81 36.13 35.91 33.45 27.58 29.46 32.66 33.65 34.83 35.18 35.11 35.05 34.60 33.29 32.17 29.66 26.27 28.97 30.09 29.68 28.27 26.91 27.38 30.29 31.87 28.76 29.94 32.56 32.21 31.75 32.84 33.73 33.09 32.80 33.06 31.71
51.91 51.96 51.90 51.67 51.40 51.45 51.44 50.52 49.00 47.71 46.67 46.64 47.42 47.81 47.45 48.09 45.56 39.10 34.58 37.58 37.82 36.63 27.51 24.62 30.88 29.74 31.44 32.42 32.64 32.79 33.66 32.58 31.65 30.67 29.28 29.68 30.95 30.33 26.64 24.24 30.34 31.64 33.07 36.81 35.57 32.86 31.81 32.60 32.63 31.52 33.33 32.97 32.29 31.09
51.69 51.71 51.66 51.47 51.26 51.15 51.31 50.39 49.08 47.77 46.69 46.68 47.24 47.69 47.69 46.11 39.40 36.04 34.57 37.54 39.93 36.12 29.12 23.62 23.12 30.64 30.88 30.80 30.86 30.91 31.18 30.49 30.42 29.24 28.35 28.14 28.87 29.48 25.69 28.83 32.30 33.60 33.26 33.36 32.93 32.04 30.58 31.08 32.76 32.60 32.05 32.22 33.77 28.92
51.30 51.46 51.54 51.30 51.08 50.96 51.15 50.29 49.10 48.09 46.82 46.58 47.20 47.74 47.58 44.87 41.25 35.39 37.11 42.27 38.27 32.68 28.30 16.98 20.12 24.72 31.22 27.98 27.55 29.22 28.47 28.12 28.36 28.23 28.74 27.66 27.74 28.54 26.71 29.75 31.13 31.99 31.99 31.65 31.64 32.00 32.31 32.00 31.65 30.38 29.49 27.86 25.77 24.26
50.71 50.91 51.21 51.20 51.01 50.80 50.98 50.15 48.89 47.79 46.98 46.58 47.17 46.95 39.30 35.93 32.74 34.55 42.80 41.27 35.98 32.38 23.81 20.84 16.41 18.50 29.23 28.00 28.57 28.29 28.23 25.87 28.56 26.43 26.48 27.71 25.92 24.13 29.75 29.93 30.19 30.36 29.89 31.09 29.70 29.50 28.75 29.88 29.25 28.12 27.44 25.44 23.95 23.24
50.11 50.32 50.60 50.79 50.69 50.52 50.69 49.80 48.52 47.11 47.19 47.63 40.62 35.58 31.55 33.86 40.93 40.98 34.49 31.02 28.58 27.57 26.74 23.05 23.69 23.18 26.72 25.72 25.76 25.78 26.96 24.94 16.59 25.70 27.19 25.17 24.95 29.77 30.77 31.36 29.89 29.30 28.97 28.96 24.00 24.82 25.87 25.60 27.95 26.71 26.15 24.96 24.55 24.19
49.91 49.96 50.09 50.30 50.22 50.03 50.28 49.26 47.45 48.12 44.78 39.06 35.23 33.17 34.80 40.62 34.34 29.82 25.47 25.27 27.26 24.45 27.43 24.01 24.99 24.34 28.76 24.36 26.10 28.17 21.87 21.24 16.49 21.54 22.07 19.72 20.95 26.24 28.93 29.16 28.85 27.81 28.02 28.79 29.27 30.08 30.37 29.75 28.07 26.04 24.93 25.31 25.45 24.45
49.62 49.74 49.90 50.00 50.02 49.95 50.07 48.79 47.87 43.62 40.13 39.72 37.74 37.63 35.81 31.91 26.89 22.50 19.40 23.87 23.91 23.97 25.26 24.02 25.25 26.83 26.57 28.48 26.82 26.19 21.74 23.12 19.39 22.24 19.33 18.52 22.26 26.09 27.00 27.55 27.16 25.40 26.29 27.88 27.97 27.82 27.41 28.94 27.48 25.95 25.28 24.09 23.35 22.98
49.13 49.64 49.88 50.01 50.04 50.09 49.80 47.86 47.75 44.74 42.21 38.97 34.30 30.02 29.67 28.35 20.27 16.63 17.60 21.43 20.24 23.06 23.55 24.25 23.23 26.02 26.26 27.92 24.96 21.47 17.76 19.78 22.47 12.62 18.16 19.82 23.80 26.20 26.25 25.77 25.30 24.25 24.73 25.81 25.24 25.56 25.95 25.00 25.60 24.60 23.13 22.96 22.24 21.42
48.97 49.26 49.68 49.89 49.88 49.84 49.29 47.52 47.13 43.23 39.49 33.29 30.10 24.73 22.92 19.52 20.81 22.73 25.65 26.85 26.41 24.12 24.89 23.96 23.51 24.77 25.96 23.05 23.59 16.28 23.18 20.68 15.35 16.01 14.79 19.07 23.32 26.16 25.88 26.47 25.06 23.04 23.92 23.93 19.84 21.66 23.41 24.14 23.47 24.06 23.70 22.72 21.56 20.09
48.88 49.25 49.35 49.46 49.50 49.49 48.42 47.40 45.89 42.43 36.03 31.67 29.35 23.57 22.55 25.29 21.91 23.02 26.81 27.22 26.72 28.19 25.94 24.72 23.19 24.03 20.86 19.79 23.18 19.53 17.23 17.36 16.51 16.87 19.79 20.65 23.96 25.43 24.72 25.64 24.98 23.34 20.23 19.94 18.80 17.57 17.91 20.67 21.36 21.17 21.43 21.38 21.17 20.85
49.13 48.98 48.62 49.49 49.41 49.34 47.29 46.67 44.24 39.94 33.99 32.31 29.70 25.33 25.59 20.69 19.46 24.06 25.96 26.97 27.88 28.76 26.58 26.46 22.02 18.62 18.67 19.23 16.35 16.36 13.16 13.50 19.84 19.70 23.28 22.26 25.03 24.49 24.15 25.77 26.02 24.25 22.75 21.71 19.71 18.88 18.80 19.88 19.98 19.12 19.36 19.69 19.40 20.44
48.83 46.66 48.79 49.02 49.05 48.71 46.56 40.68 36.17 31.93 31.77 30.97 29.71 31.78 26.15 23.23 25.91 28.09 28.27 28.59 29.76 29.32 26.49 24.02 17.68 19.92 21.60 16.39 18.57 19.20 16.42 20.82 22.22 22.15 22.17 25.60 26.30 25.29 24.76 25.56 26.36 25.01 23.26 21.76 19.74 19.67 17.22 16.04 14.32 14.95 14.70 16.87 19.29 20.48
46.43 47.67 48.38 48.82 48.68 45.61 38.46 33.54 32.32 31.50 28.74 31.90 29.05 29.79 30.69 29.26 27.83 28.05 28.32 28.94 30.08 27.96 26.30 23.55 20.73 15.08 17.99 19.77 20.66 21.95 22.70 20.28 21.16 23.01 25.27 26.85 25.89 25.69 25.96 25.62 25.93 24.89 22.98 20.40 19.39 16.93 15.09 14.55 15.27 16.83 16.55 18.24 17.13 16.56
47.54 48.32 48.23 48.58 45.96 35.30 31.76 30.11 31.67 29.05 31.17 32.30 32.60 28.17 30.16 30.09 30.46 31.76 29.65 30.56 29.15 28.79 26.00 18.19 15.55 17.02 22.57 25.23 25.33 20.09 19.45 22.09 25.70 25.80 25.65 26.06 25.45 25.40 25.54 24.03 22.36 21.43 20.33 18.72 19.05 20.23 19.88 18.58 18.15 17.44 18.43 17.99 17.43 18.33
48.24 48.46 48.21 47.56 43.59 33.37 30.06 30.68 31.86 31.32 28.19 30.00 29.38 30.40 28.32 28.63 30.05 30.73 30.22 29.95 29.21 27.86 20.84 17.99 21.28 26.05 26.58 28.07 27.46 26.30 24.79 25.56 24.59 23.24 23.88 23.60 23.14 20.95 22.37 22.62 22.89 21.07 18.74 13.85 15.89 22.25 17.09 16.87 17.91 18.17 18.54 18.32 16.86 17.09
47.01 47.33 47.64 43.98 34.65 33.08 32.10 30.23 30.12 32.12 28.65 27.50 26.72 30.74 27.65 25.53 28.42 30.08 28.83 30.06 28.26 24.50 22.64 24.72 29.99 33.21 29.51 29.17 28.65 28.11 26.95 26.16 26.19 28.37 26.87 22.92 23.55 23.54 22.19 21.34 16.96 19.17 18.37 18.87 19.04 19.90 23.10 18.85 18.40 18.08 18.21 19.18 17.97 17.51
42.77 45.08 37.67 35.61 31.60 30.71 31.34 31.96 31.47 29.55 25.87 25.49 28.99 28.60 25.40 25.33 25.57 29.45 30.06 27.39 27.53 31.10 28.22 31.51 33.10 33.38 32.38 29.75 30.47 27.42 28.44 27.11 26.94 25.76 30.21 28.22 22.85 18.36 18.83 20.76 18.30 19.58 19.83 20.41 20.43 20.37 20.88 19.86 18.19 17.80 17.56 17.97 21.00 17.19
40.86 36.09 31.86 31.86 29.05 28.55 28.00 31.99 26.84 26.34 23.58 25.35 27.43 24.83 23.52 23.54 22.97 28.22 25.10 26.08 30.16 27.25 33.17 33.52 33.89 33.17 33.32 32.72 27.09 26.73 27.94 27.61 27.72 26.73 27.65 27.58 27.26 24.76 21.83 20.87 21.51 21.22 19.60 20.11 21.07 20.41 19.39 22.32 22.83 17.81 17.18 19.20 17.67 17.24
37.56 32.07 30.56 28.75 29.07 25.99 28.08 25.96 25.24 22.73 23.76 24.66 24.43 22.06 20.21 22.54 25.67 23.56 22.38 21.00 25.66 28.00 32.12 32.80 33.21 32.41 32.76 23.08 28.08 30.67 30.65 25.82 28.11 29.15 28.80 25.41 25.76 24.94 23.99 23.85 21.35 22.06 23.11 19.88 19.51 19.16 18.22 19.63 22.64 19.26 16.45 15.73 15.10 14.99
28.74 27.47 29.10 25.75 28.21 23.69 21.09 19.84 17.74 20.50 17.91 16.22 17.97 15.45 19.14 24.58 21.42 20.67 21.19 16.57 20.58 26.61 30.56 32.09 32.62 32.48 31.78 32.82 33.07 32.01 29.49 29.76 28.40 27.62 28.93 26.78 26.87 15.72 15.25 16.71 18.55 20.65 19.61 16.79 16.93 17.04 16.22 16.77 17.55 15.84 14.61 14.22 12.47 12.57
25.77 27.69 26.47 26.61 22.22 19.41 16.93 13.43 14.60 13.88 13.91 15.33 18.19 16.41 17.68 19.80 18.36 16.54 16.24 22.42 23.90 27.39 30.05 30.61 31.19 30.99 30.62 31.16 30.59 26.28 28.99 28.20 28.66 27.10 26.17 25.39 25.06 24.84 22.91 18.82 15.57 16.38 18.86 21.24 18.35 16.93 16.09 16.31 15.31 13.94 14.54 17.14 20.49 13.66
24.65 24.94 27.93 28.33 24.37 20.75 17.63 17.47 18.92 16.83 13.95 15.94 15.84 15.25 17.77 17.50 15.36 18.44 19.88 22.06 26.93 31.45 33.74 33.95 32.16 30.89 30.70 30.01 30.55 29.16 23.19 26.41 25.31 23.75 19.72 22.53 23.73 25.01 25.27 21.94 20.06 20.82 19.30 20.23 19.50 17.91 16.67 16.13 15.56 15.15 14.80 14.85 16.32 15.28
29.36 27.98 23.99 23.15 16.74 15.45 13.89 14.31 13.56 17.11 18.21 20.12 20.74 12.94 15.77 18.32 20.00 23.81 24.42 26.60 29.53 25.89 26.66 23.00 25.45 28.95 27.96 25.33 24.07 21.50 14.24 12.83 12.16 12.72 13.89 13.14 10.08 8.59 11.43 13.52 15.47 25.37 19.49 20.36 19.90 19.47 18.52 17.62 16.31 15.29 14.96 14.41 13.19 13.53
24.10 24.56 22.28 18.90 12.70 15.04 16.47 17.03 18.27 21.40 23.46 22.16 20.95 20.08 19.75 21.43 23.90 26.57 25.59 23.88 21.43 21.93 19.23 20.84 16.93 14.05 14.97 14.61 13.86 12.06 16.45 19.28 19.73 16.82 15.54 17.13 10.31 13.27 7.78 13.16 17.67 16.04 18.37 21.59 25.00 21.16 17.18 17.49 16.49 16.36 15.68 14.34 12.88 10.64
21.62 25.53 19.89 15.22 14.41 16.46 18.30 20.36 16.96 19.39 21.93 24.86 26.00 22.86 22.56 20.50 21.68 21.04 21.74 21.96 23.51 24.60 27.45 25.07 23.37 22.71 21.05 22.37 17.76 9.94 10.22 16.58 20.66 21.35 20.00 19.31 17.39 12.73 15.11 16.16 15.94 16.66 19.25 19.56 18.83 20.18 25.35 22.07 21.26 15.06 11.35 9.51 8.57 7.75
23.32 21.90 14.26 13.94 14.90 9.71 10.93 13.57 19.31 23.94 20.64 20.79 21.15 24.22 22.59 20.15 22.29 20.13 21.99 23.42 23.50 19.58 19.94 14.14 10.13 12.69 20.22 17.19 17.17 17.61 17.59 17.51 15.58 14.07 9.11 9.71 13.72 15.79 17.20 15.91 16.70 18.72 19.90 18.88 19.39 20.67 20.10 16.35 12.41 11.10 9.76 8.77 8.05 9.80
19.33 21.07 16.05 12.81 12.24 9.68 10.24 11.76 15.93 17.91 17.05 20.44 20.24 16.16 16.37 19.57 22.51 24.91 20.84 20.21 19.11 18.96 23.90 20.78 18.67 19.96 21.07 22.99 19.11 14.91 25.47 18.40 18.72 17.80 14.10 13.40 14.50 16.44 16.62 17.25 18.88 19.40 18.65 19.16 20.23 18.79 14.65 13.04 11.55 10.91 9.32 8.59 8.80 7.27
17.68 18.34 17.47 15.99 15.53 15.41 12.72 13.51 12.62 13.18 14.63 14.04 14.51 16.75 18.97 20.92 22.66 24.48 18.74 24.58 28.00 29.13 25.54 24.51 26.23 24.16 20.14 21.51 18.96 16.92 20.63 11.22 16.29 23.33 24.24 23.44 22.70 19.97 17.82 18.73 19.50 19.35 19.29 19.10 18.40 15.72 13.49 11.95 10.96 9.62 8.81 8.49 7.53 6.18

GFSWCAN_sfc_wetblb_102.txt.gz
Wetbulb
53.96 53.76 53.39 53.22 53.12 52.81 52.56 51.14 48.88 47.81 47.92 48.71 48.98 49.01 49.84 49.03 49.05 40.61 37.07 36.94 36.72 31.53 32.25 34.47 35.19 33.16 32.85 32.77 31.58 33.46 33.12 32.30 31.68 28.80 28.28 26.17 24.15 24.58 21.82 24.07 22.43 23.88 21.03 21.13 21.82 20.02 17.90 31.66 30.66 27.31 30.30 29.41 32.62 32.72
53.87 53.80 53.57 53.10 52.86 52.83 52.34 52.22 49.76 48.23 47.32 48.02 48.60 48.73 49.13 49.00 48.30 42.47 35.94 37.53 38.22 35.25 34.43 35.26 36.35 35.89 35.56 35.46 34.79 32.70 32.63 31.92 33.84 29.97 28.58 27.59 27.28 22.85 22.56 21.69 23.50 23.16 26.11 23.56 25.41 25.09 30.54 31.33 32.32 32.88 31.98 32.84 32.66 32.74
53.45 53.57 53.45 53.25 52.84 52.75 52.70 52.14 50.94 48.94 47.63 47.50 48.07 48.68 48.62 49.30 47.76 42.60 36.72 35.68 36.65 32.92 33.59 32.85 32.80 34.09 35.86 35.88 37.20 33.50 32.78 34.32 33.59 33.24 30.85 29.14 28.10 28.29 24.18 22.48 21.73 26.98 28.10 26.62 27.27 28.60 29.30 30.63 32.03 32.54 33.25 32.61 32.73 33.28
52.79 53.03 53.13 53.03 52.83 52.50 52.46 52.02 51.70 49.72 48.12 47.33 47.70 48.52 48.26 48.60 48.43 42.68 36.11 34.98 35.68 33.14 27.91 30.78 35.24 32.10 34.78 35.54 35.53 35.82 35.20 34.72 34.03 32.57 30.33 29.07 28.54 30.82 26.56 28.15 25.42 29.16 28.31 26.63 25.87 30.23 30.02 32.67 31.78 32.91 33.13 33.18 33.23 32.42
52.21 52.41 52.65 52.71 52.64 52.27 52.00 51.89 51.69 50.35 48.61 47.48 47.21 48.12 48.14 47.87 48.43 39.74 36.99 35.73 35.35 33.37 27.57 28.96 31.83 32.53 33.85 34.41 34.46 34.03 34.26 32.72 31.44 29.01 25.71 28.92 29.32 28.73 27.83 25.80 24.49 29.50 30.05 26.49 28.58 33.27 31.19 32.50 31.88 32.64 31.79 32.84 32.94 32.46
51.96 51.99 52.15 52.27 52.34 52.21 51.75 51.66 51.40 50.65 49.08 47.88 46.98 47.69 48.12 47.68 46.21 38.46 34.24 36.93 37.16 36.11 28.82 25.42 30.47 28.96 30.54 31.63 31.90 31.30 32.73 31.66 30.79 29.72 28.54 28.73 29.80 29.55 27.06 24.18 29.61 31.13 32.20 34.41 33.31 30.91 31.66 32.94 32.57 33.12 32.74 32.50 32.71 31.93
51.23 51.33 51.62 51.85 52.04 52.04 51.65 51.34 51.29 50.66 49.16 47.54 46.97 47.50 47.95 47.72 39.80 35.53 34.39 37.38 39.41 35.60 29.11 23.43 24.59 30.10 31.10 30.60 30.07 29.88 30.25 29.78 29.97 28.78 28.00 27.34 28.17 28.32 27.62 28.37 33.76 31.88 32.80 32.42 32.32 29.59 29.68 30.70 32.01 32.85 32.53 32.46 34.55 29.89
50.47 50.82 51.15 51.40 51.54 51.79 51.52 51.12 51.08 50.38 49.26 47.55 46.95 47.48 47.89 46.08 41.51 36.43 37.36 42.40 38.05 32.32 29.01 17.79 21.25 24.76 31.10 27.62 27.50 29.14 27.97 28.17 28.23 28.00 27.89 29.68 29.50 28.72 27.76 32.09 30.50 31.46 31.66 30.67 30.50 30.54 31.43 30.81 30.38 30.14 29.13 28.22 26.83 26.00
49.81 50.22 50.33 50.66 50.90 51.04 51.45 51.03 50.86 49.95 48.81 47.11 47.14 47.17 41.61 37.58 32.87 34.55 42.94 40.59 35.55 32.36 24.94 22.19 17.88 19.22 29.33 27.67 28.42 28.33 28.09 25.76 28.46 26.56 27.13 28.17 27.86 25.94 29.69 30.21 30.50 31.10 29.94 29.87 29.41 28.57 29.10 28.92 29.90 28.42 27.66 26.38 25.60 23.87
48.75 49.37 49.55 49.65 50.01 50.35 51.05 50.93 50.75 49.55 47.77 46.81 43.02 38.43 34.63 35.46 41.22 41.56 34.28 31.07 28.80 28.18 26.99 23.65 23.45 21.60 26.71 25.53 25.88 25.25 26.94 25.11 16.28 25.44 27.05 26.96 26.52 30.58 31.76 31.24 30.15 30.17 29.25 27.75 22.62 24.46 26.12 25.22 27.36 26.62 26.62 25.15 25.93 24.75
47.89 48.38 49.15 49.51 49.66 49.79 50.36 50.74 50.49 47.92 46.87 40.01 35.98 33.87 36.36 41.21 35.58 31.93 28.12 25.99 27.19 25.29 27.68 25.79 25.16 23.97 28.30 24.03 25.84 27.89 22.42 23.42 16.51 21.83 21.84 19.78 20.90 25.82 28.44 28.24 29.20 27.57 27.02 27.02 27.62 28.88 29.10 28.88 26.45 26.44 25.74 25.63 24.85 24.22
47.56 47.53 48.26 49.04 49.42 49.70 50.14 50.58 48.89 44.87 41.64 40.27 38.22 38.06 36.05 32.67 29.58 27.71 25.69 23.86 24.59 24.27 26.32 25.72 25.07 26.98 26.46 28.24 26.65 25.82 22.01 22.27 19.92 22.44 20.33 20.72 23.23 26.87 26.36 26.91 26.98 26.21 25.42 27.43 27.80 28.50 28.83 29.19 28.26 26.69 24.63 22.63 21.95 21.81
47.32 46.96 47.29 48.08 49.03 49.88 50.27 50.34 47.93 45.06 42.65 39.74 35.21 31.90 30.59 29.71 20.14 20.94 17.67 18.63 23.37 27.34 26.34 26.55 25.58 27.12 26.39 27.89 24.98 22.24 17.72 20.93 22.37 17.85 19.10 21.53 24.45 26.05 26.48 25.96 25.89 25.80 25.51 26.17 26.26 26.06 25.93 24.39 25.34 24.39 23.07 22.71 21.70 20.58
47.20 47.49 47.88 47.89 48.36 49.21 49.79 49.95 47.27 44.22 40.57 33.78 30.78 25.48 25.60 19.12 21.59 22.99 23.32 24.30 26.78 27.38 26.84 28.10 25.86 26.12 26.75 24.60 23.55 16.68 23.44 20.85 16.74 17.63 17.40 23.45 25.38 27.01 26.24 26.27 26.16 25.18 24.92 25.29 20.12 21.07 23.01 24.20 23.72 23.59 23.09 21.46 20.29 19.36
46.90 47.31 47.74 47.88 48.42 48.75 49.31 49.45 46.07 42.98 36.65 31.43 30.94 26.46 25.65 25.25 19.79 19.85 20.96 23.17 24.85 29.56 27.13 26.44 26.61 27.00 23.00 20.81 23.38 20.83 18.12 17.17 17.83 17.62 22.04 26.04 26.99 25.84 25.69 25.43 25.46 25.03 21.86 20.68 18.26 17.23 16.22 18.57 20.59 20.82 20.85 20.22 19.77 19.34
46.59 46.85 46.08 47.83 48.48 48.84 48.98 48.66 44.29 39.92 34.35 31.71 30.14 27.57 25.08 17.94 15.50 18.48 18.36 22.97 28.58 29.72 28.12 28.12 24.53 23.44 22.94 21.04 16.61 16.74 19.01 18.81 22.55 20.99 25.92 24.58 26.11 26.50 25.93 25.81 25.94 25.43 23.68 22.48 20.34 19.54 18.81 18.69 19.15 17.33 17.05 18.67 18.32 18.61
46.34 43.31 47.16 48.00 48.43 48.34 48.61 43.86 33.55 31.29 30.48 29.91 29.35 31.59 24.91 19.63 21.45 25.47 26.39 27.99 30.64 28.80 26.89 26.13 19.60 22.35 21.26 14.97 15.60 21.70 21.56 26.62 23.90 23.00 24.16 25.15 28.04 27.83 26.31 25.56 26.11 25.99 24.11 22.92 21.38 20.71 19.64 17.37 14.05 12.61 14.16 14.83 14.56 17.62
42.36 44.26 47.11 48.05 48.29 47.05 38.68 34.19 32.40 31.10 28.04 31.08 29.21 29.82 29.75 26.73 25.07 25.33 27.86 29.84 30.05 28.24 27.42 25.58 24.65 18.36 16.84 15.11 18.49 25.89 26.86 27.21 21.69 22.79 24.53 25.84 27.68 27.39 26.78 26.03 26.13 25.80 24.39 22.40 21.50 20.24 17.52 15.93 16.97 18.34 16.99 15.32 13.36 13.16
43.39 44.24 46.96 48.02 47.34 35.88 32.27 30.38 31.56 28.47 29.75 32.15 29.09 26.57 28.52 27.47 28.04 29.59 29.55 31.38 30.00 29.52 26.46 20.60 22.47 17.06 19.44 23.68 27.47 29.19 27.64 26.80 26.40 25.45 25.17 26.37 27.59 26.98 26.70 25.52 23.60 22.38 21.73 19.04 20.35 21.42 21.28 20.12 20.67 19.45 17.85 17.09 16.69 16.25
45.59 46.27 46.68 46.85 43.60 33.90 30.67 30.61 31.80 30.94 29.34 30.11 29.72 29.44 25.65 25.69 29.38 30.05 29.65 30.94 29.60 28.57 26.64 18.93 20.67 22.95 24.93 27.79 29.57 30.08 29.44 28.12 26.37 24.36 25.62 26.17 27.50 25.80 25.20 25.14 25.55 25.02 20.99 15.88 17.52 23.68 18.43 17.83 18.73 18.16 17.86 17.64 15.79 16.03
44.02 44.44 45.62 45.50 36.57 32.98 31.95 29.16 28.09 30.84 24.71 27.23 30.97 30.73 29.42 27.49 27.90 29.44 29.14 31.33 29.47 27.66 25.24 29.62 24.29 28.29 29.72 30.16 30.24 30.62 29.62 28.20 28.34 29.77 29.04 27.26 26.83 26.64 27.19 25.37 23.62 21.40 20.89 20.43 20.58 21.28 25.36 20.59 21.86 19.27 19.06 20.08 18.83 16.59
42.36 45.19 36.73 37.09 32.23 31.27 31.46 31.85 29.38 29.78 27.04 25.95 30.42 29.12 21.96 24.17 26.21 29.47 31.33 28.63 28.58 31.47 32.81 34.01 34.73 34.05 33.31 31.72 31.20 29.98 30.54 28.28 28.65 28.12 32.46 29.11 25.80 21.48 22.18 24.95 21.43 21.90 22.24 23.17 22.47 22.73 22.56 23.52 19.46 19.24 18.97 18.53 21.10 16.92
40.47 36.95 32.44 31.88 29.46 28.23 28.38 32.16 27.74 26.15 23.90 26.01 27.39 25.94 20.56 18.36 23.72 30.76 26.75 28.09 30.59 34.38 34.89 34.90 33.69 32.52 33.99 34.76 32.96 30.87 30.58 29.55 30.38 29.56 29.62 29.93 29.66 28.65 26.07 25.67 24.62 24.14 23.49 23.47 23.41 22.92 22.01 23.50 23.55 19.37 18.28 19.44 17.79 16.06
38.28 32.40 30.19 29.01 29.32 26.12 28.58 26.37 26.51 24.08 25.48 25.42 24.89 19.10 17.34 16.07 26.06 24.91 23.33 24.42 31.25 29.44 32.39 33.91 33.71 33.29 33.31 32.55 32.49 34.47 34.26 30.43 31.64 32.86 32.05 29.62 28.41 28.21 27.73 28.05 24.50 25.09 26.78 21.79 21.87 21.33 19.36 21.00 23.07 21.03 17.64 17.02 16.33 16.00
30.02 28.42 28.73 25.70 28.19 24.53 23.12 16.51 15.61 19.24 16.56 21.20 22.41 13.54 17.91 22.17 20.64 19.96 16.12 16.68 24.99 28.57 31.47 32.88 33.70 34.02 33.48 34.56 35.18 35.41 33.98 34.28 29.54 28.99 31.72 28.60 28.83 21.90 19.28 21.76 22.62 23.49 21.81 18.65 17.38 18.38 17.55 18.73 21.01 18.47 16.72 15.87 13.97 12.65
25.64 28.12 25.83 24.01 19.27 19.30 19.99 15.72 13.91 11.72 12.24 15.70 20.31 18.54 16.63 21.59 19.70 16.36 16.32 19.84 27.26 28.89 31.34 32.10 32.38 32.26 32.62 34.06 33.43 33.45 29.77 32.04 32.11 29.45 31.84 30.16 28.52 28.41 27.70 24.85 21.14 21.61 20.61 23.19 20.60 18.18 17.01 18.01 18.50 16.08 15.47 17.61 21.33 13.89
25.00 23.75 25.33 28.50 22.99 20.17 17.01 16.46 17.95 15.85 12.85 18.08 16.86 16.75 18.85 18.54 15.49 18.33 20.20 22.89 28.59 32.10 33.72 34.85 34.35 33.61 33.80 34.29 33.50 33.29 25.34 29.37 29.63 26.65 23.35 27.03 28.88 28.79 28.34 23.97 23.10 22.56 20.18 21.44 20.87 19.22 17.86 17.36 17.23 16.54 15.72 15.88 17.85 15.50
22.14 23.15 23.57 23.18 16.12 13.73 11.93 11.94 12.55 14.64 16.93 17.27 19.43 16.26 17.66 17.77 20.26 22.71 23.92 24.08 26.72 23.30 23.71 25.50 29.31 32.56 33.90 31.18 23.08 21.86 14.38 14.47 13.30 13.79 17.56 18.21 14.06 11.20 12.85 14.14 16.23 26.09 19.17 20.30 20.05 19.29 18.98 18.41 17.73 16.97 15.82 15.53 14.01 13.81
22.03 24.10 23.06 19.43 13.22 11.54 15.92 17.38 16.35 19.49 22.47 20.75 19.59 17.26 17.43 19.26 19.13 19.93 22.91 21.84 22.37 24.87 20.69 24.22 22.96 20.22 17.43 15.07 13.73 15.41 17.43 20.62 22.61 22.19 21.80 21.32 14.41 18.91 12.57 14.37 16.16 16.58 15.69 19.86 25.36 20.93 17.38 19.05 17.96 16.95 15.66 15.05 14.40 13.45
23.41 25.88 21.87 18.35 20.42 15.64 18.53 19.67 15.99 14.99 19.77 23.82 25.05 21.44 20.83 19.30 21.36 22.22 22.38 22.11 23.53 24.91 26.37 27.66 24.57 23.48 22.24 22.39 17.80 14.93 14.55 22.44 27.14 25.52 23.68 22.47 21.63 13.86 14.62 15.88 15.93 14.16 16.68 19.61 19.19 19.39 25.76 21.60 21.75 15.33 12.16 11.85 12.08 11.54
24.83 20.82 14.03 14.06 15.29 12.09 9.27 9.47 12.84 22.76 14.31 13.73 15.11 20.74 23.16 19.06 21.20 20.62 23.43 26.47 28.08 23.76 22.57 20.65 20.38 23.75 24.23 22.84 23.02 23.16 22.19 21.07 18.66 16.64 13.44 14.89 14.16 14.87 15.37 15.05 15.49 17.06 18.46 18.97 19.97 20.25 20.08 15.58 12.37 11.83 11.92 11.81 11.64 11.14
16.49 20.63 15.06 9.24 9.08 6.16 6.37 8.37 10.02 12.54 10.38 14.00 16.61 14.63 17.25 18.51 20.04 22.40 20.49 22.97 22.56 23.10 27.40 28.58 24.65 22.49 24.88 28.12 28.23 22.68 29.73 27.10 23.87 18.79 17.05 14.74 13.96 14.06 14.80 16.21 17.14 18.08 18.31 19.30 20.79 19.29 14.64 13.57 12.91 13.09 12.38 11.57 11.10 8.49
16.01 13.87 10.24 15.98 14.87 12.12 12.08 15.40 10.71 10.97 9.05 11.32 16.34 17.98 20.28 20.41 20.87 24.48 18.85 26.72 30.68 31.22 31.76 29.72 29.12 26.13 25.71 26.43 26.50 25.17 21.91 17.18 19.95 24.57 24.93 24.11 22.28 18.90 17.02 17.65 18.13 18.33 18.49 19.45 18.19 14.64 12.84 12.54 12.42 12.24 11.89 10.42 9.06 7.60

GFSWCAN_sfc_wetblb_105.txt.gz
Wetbulb
54.29 54.34 54.34 54.04 53.42 53.34 53.33 52.87 52.14 50.32 48.77 47.98 48.52 49.03 49.08 49.57 48.73 40.28 37.12 36.34 35.40 30.98 31.83 34.16 35.67 33.30 32.28 32.02 31.07 32.59 32.15 31.34 30.67 28.86 27.66 26.20 24.11 23.84 21.48 23.08 22.75 23.72 21.16 21.08 22.10 20.75 18.30 31.53 31.22 27.99 31.28 30.09 32.64 33.43
54.10 54.13 54.13 54.01 53.75 53.26 53.06 53.06 52.38 51.01 49.38 48.03 47.91 48.66 48.86 49.21 48.55 42.05 35.72 37.01 37.60 34.40 33.18 34.85 36.04 35.16 36.48 36.51 34.47 32.11 32.12 30.94 33.03 29.42 28.17 27.55 27.37 22.32 22.28 21.55 22.97 23.19 25.93 23.73 25.25 25.59 30.96 31.50 32.97 32.87 32.41 33.40 33.94 33.52
53.55 53.75 53.80 53.80 53.67 53.57 53.12 53.00 52.73 51.66 50.08 48.60 47.81 48.16 48.80 48.51 48.79 42.50 36.13 35.17 35.91 31.67 32.20 32.09 32.59 34.28 35.24 35.86 37.47 33.42 31.98 34.00 32.82 32.73 30.19 28.88 27.82 27.48 24.30 22.44 21.88 26.68 26.98 25.72 27.33 29.02 30.05 30.73 31.57 32.57 32.77 33.32 34.00 34.76
52.81 53.15 53.35 53.33 53.27 53.31 53.18 52.79 52.60 52.17 50.81 49.32 48.21 47.86 48.63 48.31 48.63 43.42 36.10 34.76 34.51 31.91 27.16 30.48 34.57 30.86 33.69 35.27 34.98 35.44 34.99 34.05 33.23 32.03 30.08 28.97 28.41 30.48 26.53 27.82 25.14 29.18 27.88 26.13 25.68 29.86 31.08 32.22 30.98 32.74 33.07 32.71 32.79 33.64
52.20 52.56 52.80 52.82 52.66 52.80 52.83 52.59 52.24 52.06 51.38 50.10 48.42 47.58 48.30 48.21 48.16 40.73 36.58 35.69 35.28 33.00 28.11 29.10 31.54 31.51 33.03 34.18 34.33 33.84 34.02 32.44 31.03 28.63 26.52 29.23 28.94 27.85 27.09 26.14 25.06 28.92 29.40 26.41 28.53 31.99 31.24 31.01 32.38 32.48 32.75 33.61 33.58 32.58
51.78 52.09 52.27 52.06 52.00 52.23 52.47 52.39 52.02 51.70 51.22 50.07 48.63 47.31 47.93 48.20 45.40 40.04 34.38 36.21 36.60 35.77 28.51 26.10 30.28 28.61 29.75 32.13 32.38 31.54 32.25 30.85 29.94 29.95 28.18 28.20 29.20 28.72 26.48 23.92 29.59 30.47 31.80 35.07 33.30 31.15 31.63 32.05 32.05 32.49 32.95 34.37 33.11 32.59
51.27 51.49 51.49 51.05 51.29 51.63 51.98 52.14 51.90 51.57 51.33 50.10 48.28 47.21 47.78 48.09 41.59 37.52 35.59 37.54 39.26 35.62 29.42 25.04 26.26 29.73 30.65 30.21 29.27 29.39 29.74 29.26 29.82 29.23 28.29 27.08 27.65 28.57 27.03 26.95 33.22 31.45 32.43 32.26 31.74 29.18 29.42 30.29 30.98 31.60 31.69 32.13 34.27 30.77
50.08 50.29 50.37 50.49 50.92 51.18 51.45 51.66 51.74 51.41 51.31 49.95 48.05 47.31 47.77 47.64 43.08 37.23 39.01 42.89 38.07 32.91 29.94 21.67 24.32 24.12 30.20 27.84 27.24 28.75 27.66 27.53 27.77 27.87 29.31 28.20 28.09 29.33 26.41 30.91 32.16 30.84 30.99 30.51 31.29 30.63 31.25 30.45 29.13 29.66 30.01 29.66 28.45 27.64
49.08 49.25 49.61 49.93 50.39 50.48 50.81 50.61 51.30 51.12 50.84 49.36 47.37 47.40 42.66 39.51 34.76 34.62 42.74 40.83 35.87 32.63 27.12 24.32 22.80 20.93 29.22 27.63 28.51 28.06 28.29 25.76 27.91 26.55 27.44 28.01 27.56 25.61 29.18 29.88 30.42 31.27 31.34 31.30 29.93 28.91 27.80 27.22 28.30 28.65 28.40 27.56 27.17 26.02
48.38 48.56 48.52 48.60 49.19 49.54 49.24 50.06 50.69 50.98 49.86 47.46 43.27 39.70 35.91 36.62 42.41 41.80 34.90 31.41 29.24 30.48 28.46 25.13 27.54 23.23 27.51 26.07 26.91 25.97 26.75 25.45 16.80 26.18 28.16 26.91 27.27 31.40 31.18 31.77 31.79 31.50 30.99 29.74 24.10 24.97 26.10 25.22 27.98 27.94 27.74 27.61 27.23 25.85
47.83 47.97 48.00 48.04 48.30 48.80 49.18 49.96 50.37 50.20 46.39 41.27 37.54 35.31 36.62 42.04 35.77 32.87 30.64 28.92 27.44 24.54 27.86 27.34 27.72 26.44 29.76 25.24 26.35 28.19 23.97 23.99 17.07 22.99 23.63 21.99 23.60 25.43 29.09 29.89 32.20 30.45 28.88 27.70 27.54 28.39 28.21 28.42 26.70 28.14 27.60 27.17 26.74 25.27
47.13 47.43 47.56 47.86 48.03 48.31 48.68 49.54 49.92 45.78 42.24 41.96 38.98 38.50 36.42 33.38 30.60 28.27 26.78 27.09 25.35 23.47 26.21 24.71 25.81 28.75 28.17 30.42 29.21 26.90 22.43 22.92 20.50 22.64 23.01 20.93 26.47 27.00 27.12 28.25 28.21 26.96 25.94 26.13 27.33 28.08 27.99 28.56 28.60 28.23 26.63 24.71 23.88 22.53
46.64 46.85 47.13 47.54 47.29 47.53 47.97 48.83 49.52 46.50 43.20 40.49 35.78 31.74 30.96 30.37 24.15 22.37 17.62 17.51 18.78 25.33 24.79 24.64 22.75 27.21 27.21 29.53 27.43 24.95 20.15 21.98 22.31 19.76 19.88 23.92 25.38 26.87 27.85 27.12 26.37 25.83 25.75 26.52 27.34 26.92 27.10 26.67 27.77 26.90 24.90 23.95 22.84 21.31
46.13 46.24 46.64 46.99 47.43 47.70 47.78 48.00 48.86 45.10 40.77 33.56 30.11 25.97 26.93 24.38 23.07 22.39 22.47 22.16 24.54 25.06 26.22 26.30 23.87 24.70 26.71 25.85 25.50 18.92 23.30 20.79 17.20 17.91 19.46 24.86 25.41 28.71 27.96 26.28 25.86 25.45 25.67 26.27 24.38 22.94 23.99 25.62 25.74 25.51 24.98 23.01 21.76 20.48
45.87 45.81 46.04 46.11 46.80 47.28 47.60 47.96 47.81 43.94 37.08 31.59 30.57 26.28 25.02 26.69 19.19 18.26 17.82 21.28 24.36 27.65 27.33 25.32 23.25 24.97 21.95 20.91 23.55 20.12 19.02 15.93 17.12 20.96 25.65 25.96 27.40 27.87 27.44 25.84 25.23 24.99 22.32 21.64 19.81 19.42 20.09 20.85 22.69 22.73 22.42 21.63 21.03 20.35
45.36 45.17 43.48 45.83 46.32 46.80 47.22 46.96 45.39 41.48 34.55 31.67 30.39 29.30 27.05 20.55 15.73 18.89 16.73 23.64 28.64 29.31 28.78 29.04 24.51 21.16 20.38 20.15 17.26 15.72 14.00 14.50 23.77 26.15 28.67 24.38 26.00 26.31 26.94 27.47 26.51 25.57 25.33 23.96 21.86 20.71 20.17 20.25 20.96 20.36 19.64 20.17 19.68 19.47
44.39 39.80 44.18 45.27 45.74 46.27 46.67 43.75 36.76 33.10 31.81 29.06 28.49 31.69 24.70 18.84 23.68 23.73 25.58 27.27 30.83 30.01 26.74 26.83 22.55 19.83 20.76 12.51 13.16 18.47 17.25 26.33 30.14 28.67 26.71 27.06 27.10 26.37 26.80 27.38 27.06 26.42 25.62 24.37 21.94 21.88 19.19 18.43 16.39 16.20 17.01 17.93 17.37 18.38
39.23 40.53 44.34 45.54 45.45 44.01 42.03 38.78 33.93 30.84 27.35 28.11 28.75 31.37 31.31 28.27 24.40 24.45 26.90 29.99 29.79 28.70 28.43 25.59 25.18 21.63 15.71 14.07 15.83 21.41 25.65 28.65 27.74 27.57 27.06 27.41 26.98 27.23 27.37 27.09 27.05 26.79 26.34 24.92 22.91 20.81 17.97 17.23 17.77 20.05 19.65 18.76 16.80 15.20
40.08 40.70 43.84 45.17 44.18 39.02 32.73 31.71 32.62 27.17 27.77 26.59 27.09 24.31 29.32 27.64 27.15 27.61 28.60 31.10 30.57 30.88 28.47 25.36 24.26 20.14 23.50 20.88 22.46 26.04 28.42 28.45 30.20 29.72 28.06 27.55 26.70 26.72 26.93 26.36 26.32 26.21 26.56 25.42 23.21 23.52 22.83 21.50 22.19 21.39 20.32 18.56 18.48 17.92
43.88 43.92 44.34 44.73 44.15 34.29 30.97 30.90 31.40 30.55 27.37 29.12 30.18 27.16 26.09 26.66 26.84 28.21 29.47 30.48 29.75 29.25 26.23 23.74 23.01 29.82 22.40 25.42 28.04 30.61 29.73 30.35 27.13 25.70 27.36 28.57 27.46 26.20 27.28 28.16 27.94 28.36 26.44 23.64 23.56 26.40 20.34 19.51 20.42 20.08 19.52 19.47 18.16 17.80
41.82 41.18 43.27 42.35 36.76 35.90 32.32 30.32 27.40 29.73 25.05 29.01 31.59 29.20 24.62 23.86 22.96 25.64 26.80 30.69 29.37 27.77 27.05 29.30 32.08 34.41 32.19 31.12 30.35 30.74 30.80 29.60 30.14 30.61 31.00 27.43 28.78 29.07 28.91 28.15 27.80 25.43 25.50 24.98 24.57 24.17 27.57 22.39 24.82 20.97 20.16 21.97 20.94 19.44
37.72 42.43 34.08 37.54 34.22 32.39 30.41 32.28 30.95 30.80 28.59 27.65 30.17 29.09 25.95 25.71 26.79 29.39 31.22 28.63 28.38 30.52 31.06 33.89 35.23 35.05 34.44 32.14 32.11 30.53 32.27 30.53 31.45 30.37 34.17 32.36 26.79 23.77 24.79 28.11 26.86 27.03 26.63 27.46 26.62 26.18 25.62 26.51 23.49 20.84 20.10 21.29 23.36 18.30
41.00 39.66 33.18 33.80 30.59 29.42 26.32 32.22 28.13 27.23 24.62 26.60 29.12 27.79 25.00 19.04 20.12 30.94 27.00 29.10 30.25 33.45 34.70 35.17 35.67 33.93 34.93 36.01 32.70 33.61 32.90 31.78 32.13 31.96 30.91 31.82 31.62 30.97 32.10 31.64 29.77 31.11 29.74 27.61 27.55 27.31 27.09 26.74 26.19 21.38 20.18 21.41 19.56 17.99
40.29 32.57 29.76 28.60 28.62 26.77 28.56 26.42 28.26 23.01 25.63 25.45 25.58 23.26 17.93 14.00 26.12 26.32 24.57 22.40 30.67 30.08 33.55 34.12 34.38 33.47 34.34 34.26 33.43 34.17 36.08 35.54 33.58 33.83 34.43 32.89 31.61 30.68 31.74 31.45 29.95 29.33 30.91 28.10 26.24 26.06 24.20 23.53 24.76 23.33 18.67 18.79 18.41 17.93
29.41 27.99 28.97 24.97 29.50 25.77 23.38 19.52 16.58 17.70 14.86 23.11 23.01 20.17 15.41 21.86 21.84 21.82 16.10 18.60 27.34 31.17 32.53 33.53 33.63 33.92 33.30 34.07 35.03 35.45 34.14 35.73 34.06 31.33 32.16 32.22 32.59 31.89 24.36 25.81 27.95 27.53 27.28 25.09 22.14 22.23 21.67 21.90 22.30 21.25 18.07 18.20 17.23 16.43
25.51 27.85 24.56 22.47 21.40 20.74 18.24 13.49 15.27 11.53 12.77 14.46 19.41 16.30 19.76 20.50 19.79 18.63 17.42 25.65 29.41 29.46 30.95 31.73 32.17 32.50 32.78 34.33 33.67 34.27 35.76 33.80 33.67 32.32 33.93 32.61 31.61 31.24 30.78 29.83 26.38 26.42 23.83 26.39 25.77 22.28 20.89 20.00 20.25 18.88 17.75 19.54 22.82 15.68
23.53 24.17 25.30 27.87 24.32 19.75 16.64 15.54 16.66 13.20 9.25 13.41 14.11 17.87 20.15 19.17 17.38 20.36 19.70 19.81 26.05 31.97 32.03 33.67 33.70 33.29 33.37 34.09 33.97 35.18 29.29 31.34 32.66 30.65 26.04 29.11 30.63 30.56 30.85 29.05 28.42 26.76 22.47 23.46 24.03 22.49 20.22 18.87 19.48 18.64 17.60 17.17 18.77 16.04
27.03 25.83 24.26 24.78 16.90 12.69 12.48 11.98 11.45 12.58 14.54 15.94 17.80 10.98 16.96 18.99 21.15 23.50 24.66 26.38 26.47 23.29 26.32 30.67 29.95 30.64 33.72 30.12 27.02 25.55 20.34 18.47 17.29 17.66 18.87 18.59 14.31 13.14 15.63 16.55 18.54 27.65 21.15 22.16 22.53 21.66 20.72 19.85 19.15 17.66 16.06 15.81 16.52 15.91
24.22 23.47 24.73 21.00 18.28 17.19 12.95 14.37 14.99 17.91 21.39 19.57 18.50 16.02 17.80 21.94 20.46 21.63 25.18 25.47 24.25 23.10 19.99 21.77 24.32 15.36 13.46 17.26 19.85 20.45 20.92 22.24 23.07 21.53 23.44 25.52 16.85 21.05 15.20 16.52 16.59 21.98 18.65 21.14 26.27 20.74 17.64 18.13 17.43 16.96 15.57 16.22 15.97 13.97
22.92 23.71 20.63 17.97 21.99 20.38 19.04 19.02 14.36 13.01 17.84 21.54 21.90 19.21 19.13 19.67 19.94 19.91 18.84 18.96 22.22 24.40 27.85 26.72 21.89 21.65 23.00 23.64 22.65 17.06 16.28 22.00 27.30 28.42 26.52 26.08 25.37 19.97 17.59 17.99 20.27 18.21 17.57 19.16 18.85 19.09 26.32 20.49 22.24 15.38 12.88 12.97 12.96 12.58
20.40 17.42 9.70 15.11 16.21 15.69 12.22 8.75 8.75 21.68 13.99 11.22 10.50 16.34 25.08 17.65 20.56 20.37 22.19 24.70 29.17 26.70 22.73 19.44 20.47 23.21 24.80 23.31 24.99 23.96 24.84 23.14 22.60 25.53 22.12 21.51 20.00 19.41 18.39 19.02 18.43 17.91 18.61 18.78 18.59 19.45 19.85 13.64 11.07 9.49 10.14 10.65 12.99 13.46
19.04 23.50 14.76 12.05 12.17 4.75 3.37 7.62 7.75 10.95 6.02 9.53 13.84 6.96 10.93 12.62 16.67 28.87 22.09 24.84 25.81 25.58 28.94 29.98 28.01 27.48 26.56 29.78 30.03 29.64 31.71 26.51 24.42 23.47 23.53 21.64 21.04 19.13 17.88 18.19 18.82 18.68 18.48 18.59 19.49 18.35 14.58 12.66 10.97 10.59 10.27 10.59 12.87 11.12
18.93 18.17 12.63 10.48 11.47 12.90 10.49 9.63 7.87 7.08 3.90 3.96 11.33 15.07 18.05 23.26 25.37 27.34 17.09 25.75 31.66 32.52 32.54 32.12 31.42 31.11 28.60 28.78 28.98 29.77 28.08 24.17 27.99 28.13 27.95 26.87 24.39 20.53 18.49 18.41 18.26 18.33 18.07 18.36 16.62 13.90 12.38 10.81 10.85 10.24 10.80 11.42 10.14 9.47

GFSWCAN_sfc_wetblb_108.txt.gz
Wetbulb
54.34 54.46 54.40 54.43 54.37 54.12 53.70 53.54 53.21 52.76 51.21 48.73 48.25 48.52 49.16 49.39 48.74 44.63 42.72 41.31 41.98 38.89 39.47 38.69 40.13 38.89 38.19 39.22 37.13 38.49 37.91 37.21 37.55 34.86 33.99 33.70 31.50 33.01 30.16 32.21 31.17 31.74 30.17 28.75 29.64 27.00 24.94 38.13 36.23 33.45 38.52 38.50 39.11 40.07
54.28 54.29 54.23 53.95 54.05 54.13 53.99 53.63 53.17 52.59 51.94 50.18 48.28 48.03 48.99 48.97 49.04 43.86 42.20 40.56 41.68 39.86 39.93 39.21 40.61 41.17 40.70 41.40 41.21 38.92 38.39 37.69 40.59 37.33 35.62 35.97 32.98 32.14 32.25 29.38 32.00 28.89 34.15 33.15 33.44 33.64 38.92 39.23 41.17 40.95 39.40 39.03 39.86 39.89
53.80 53.87 53.89 53.79 53.65 53.85 53.91 53.84 53.34 52.87 52.18 51.22 49.24 48.31 48.47 48.73 48.57 44.77 41.69 40.54 41.11 38.25 39.06 37.75 38.24 39.59 39.10 39.71 41.51 38.97 38.82 40.03 38.85 39.94 39.63 37.89 33.81 36.10 31.53 31.03 33.14 34.32 34.92 32.28 31.74 37.87 37.33 39.35 40.13 39.87 40.20 39.07 40.38 40.51
52.87 52.95 53.23 53.41 53.39 53.24 53.29 53.41 53.39 52.92 52.70 51.82 50.45 49.06 48.25 48.57 48.06 45.30 41.89 39.52 39.63 37.58 34.59 37.60 38.14 37.34 38.32 38.85 39.55 40.25 39.54 39.13 39.14 39.56 38.52 37.28 34.53 37.94 34.72 35.65 33.38 37.82 34.15 34.56 33.66 36.92 38.36 39.34 40.07 40.38 39.64 39.22 38.68 39.68
51.94 52.29 52.59 52.81 52.96 52.78 52.46 52.74 52.96 52.84 52.41 52.27 51.19 49.51 48.12 48.47 47.96 45.15 42.04 39.94 39.66 37.51 34.36 35.31 36.40 36.09 36.85 37.74 37.85 38.45 39.01 38.66 38.62 37.09 35.99 33.93 37.13 35.01 35.91 32.78 32.77 36.33 35.28 33.13 33.28 39.44 38.92 39.75 40.31 39.42 38.71 38.99 39.64 38.79
51.44 51.76 52.02 52.16 52.41 52.18 51.87 51.99 52.29 52.46 52.12 51.67 50.85 49.53 48.00 48.25 46.47 42.42 38.33 38.92 38.84 39.23 35.10 32.48 35.10 34.17 35.28 36.16 35.97 36.05 37.39 37.11 37.62 36.81 36.28 36.95 35.24 36.09 33.70 32.01 37.77 38.94 40.46 40.92 38.67 41.36 39.73 40.52 39.45 39.36 37.71 37.97 37.60 37.38
50.80 51.09 51.32 51.32 51.47 51.23 50.90 50.93 51.54 52.03 52.15 51.63 50.77 49.13 47.82 48.24 44.82 39.38 37.75 40.74 40.41 39.15 34.14 31.76 31.84 32.75 34.77 34.41 34.44 34.56 35.05 35.65 36.03 35.55 32.91 34.94 34.71 35.82 32.89 30.91 39.04 38.52 38.73 39.38 40.39 38.76 36.28 36.66 37.77 37.73 36.28 36.35 36.88 36.80
49.78 49.92 50.21 50.19 50.37 50.62 50.81 50.67 50.88 51.33 51.77 51.86 50.83 48.44 47.71 48.10 44.70 41.63 42.08 43.43 40.72 36.39 34.83 29.79 29.50 28.82 33.71 31.25 31.15 33.58 33.12 33.57 33.83 34.11 32.46 31.56 32.22 33.41 29.37 35.54 37.37 37.91 38.05 37.21 38.02 37.89 38.56 37.15 34.45 34.78 35.25 34.79 34.12 34.82
48.68 49.13 49.21 49.30 49.68 49.86 50.13 50.22 50.00 50.15 50.81 51.36 49.25 47.76 44.05 41.67 38.45 38.13 43.02 42.24 39.35 36.52 32.47 29.40 28.29 30.00 32.29 30.81 32.19 31.46 32.89 29.34 32.99 30.83 31.22 31.91 30.76 27.89 32.72 34.73 35.67 36.35 35.67 36.98 35.82 35.36 34.57 33.23 33.18 32.91 33.06 33.42 32.83 33.76
48.01 48.42 48.54 48.57 48.59 48.68 48.98 49.28 49.16 49.54 50.24 48.51 43.97 40.09 36.22 38.55 43.29 41.97 37.52 34.82 34.22 35.04 32.78 29.02 31.71 27.65 31.84 30.49 30.28 30.65 30.42 29.93 27.07 29.68 31.34 28.36 28.70 33.49 35.74 36.78 37.43 36.95 37.19 36.23 31.39 32.04 32.09 30.66 32.63 33.00 32.72 33.54 33.48 34.16
47.40 47.62 47.65 47.96 48.05 48.14 48.44 48.97 49.25 49.11 46.08 41.95 38.62 36.48 37.44 43.34 37.28 34.36 31.64 30.43 31.68 29.29 31.63 30.27 30.35 28.41 31.97 29.90 30.34 31.74 29.31 29.13 24.45 27.71 27.38 27.20 26.38 31.23 34.79 35.32 37.37 37.40 35.66 35.50 35.43 35.43 33.25 32.67 32.13 32.37 32.65 32.26 32.03 32.01
46.87 46.92 46.98 47.28 47.58 47.87 48.31 48.55 48.77 45.38 42.70 41.95 39.32 39.02 37.48 34.69 32.78 30.08 28.47 29.37 28.09 27.53 30.66 28.55 28.63 31.64 30.39 32.70 31.72 29.05 27.76 26.53 23.21 27.55 24.83 22.77 29.15 33.82 32.50 32.75 32.83 34.47 34.29 33.24 31.65 31.79 32.73 32.34 32.23 32.17 32.22 31.64 30.96 30.48
46.43 46.62 46.71 46.84 47.10 47.22 47.57 47.65 47.90 47.37 43.42 41.03 36.00 32.09 31.86 31.76 26.29 24.57 21.65 24.06 24.61 29.55 29.30 28.73 27.78 30.95 29.63 31.42 30.59 28.65 24.91 23.80 26.36 23.14 22.25 26.93 32.92 31.72 32.03 32.34 31.78 32.23 31.82 31.46 31.31 31.66 31.92 31.30 31.48 31.31 31.21 30.69 30.16 28.25
45.73 45.98 46.13 46.38 46.54 46.80 47.03 47.28 47.37 45.58 41.41 34.11 30.93 26.98 28.38 27.60 27.26 28.43 28.01 30.05 30.58 29.95 29.08 30.19 28.64 29.57 30.21 28.58 28.84 24.40 27.21 25.05 20.60 19.62 22.21 31.27 32.73 33.39 33.06 32.33 31.45 31.10 30.64 30.96 29.55 29.93 29.75 29.78 30.00 30.20 30.03 29.76 28.07 27.06
45.19 45.38 45.51 45.78 45.92 46.20 46.70 47.09 46.54 44.98 38.15 32.30 31.02 26.16 27.63 31.67 28.75 27.45 28.53 28.31 28.43 31.29 30.72 29.72 28.92 29.40 27.92 27.19 26.29 24.43 21.16 19.60 21.64 24.25 30.44 34.39 32.60 31.78 32.39 30.94 31.46 31.41 30.12 29.51 29.44 27.42 26.56 27.66 28.01 28.85 28.26 27.60 27.08 26.40
44.73 44.43 43.00 44.99 45.24 45.96 46.21 45.78 44.44 41.79 35.56 32.90 31.72 29.71 31.32 28.91 26.59 25.40 26.24 28.19 30.89 31.59 31.85 31.79 27.39 25.18 25.49 25.54 21.83 21.08 20.85 19.81 27.13 29.20 33.63 32.60 32.05 31.18 31.96 32.14 32.06 31.52 30.77 30.10 29.05 28.19 27.79 26.64 27.00 27.97 26.77 25.97 25.47 25.29
43.75 39.67 43.24 43.91 44.78 45.47 44.97 41.84 38.11 34.53 32.17 30.75 28.99 33.02 33.13 28.29 32.31 30.25 29.32 29.49 32.68 31.72 29.65 29.17 25.07 25.65 24.00 22.64 20.32 24.32 23.11 29.48 33.00 34.53 33.10 32.26 32.47 32.63 31.99 31.18 30.82 30.31 30.03 30.13 29.37 28.22 27.68 26.75 24.08 24.05 24.05 24.76 24.29 23.87
39.41 40.38 43.71 44.04 43.80 42.73 40.67 38.01 34.33 32.45 30.36 31.56 28.70 32.39 32.99 35.21 34.70 31.67 29.60 31.06 31.71 31.28 30.52 28.57 28.25 23.38 23.25 22.03 23.52 26.45 28.15 31.14 31.99 31.88 32.06 31.76 31.64 31.79 30.35 30.99 30.27 30.01 29.96 30.38 29.21 29.09 26.83 24.32 23.58 25.09 25.67 25.84 23.23 22.58
40.63 40.56 42.45 43.27 42.33 37.34 32.84 33.33 33.44 30.03 29.53 29.53 31.13 33.72 33.81 34.35 32.81 33.54 31.41 32.00 33.36 33.66 31.59 29.45 28.04 25.28 26.40 28.53 30.18 32.05 31.06 31.04 32.05 32.81 33.82 33.96 32.37 32.08 30.69 30.08 30.18 29.94 29.88 29.94 28.33 27.83 27.43 26.41 27.05 27.33 25.81 24.17 23.61 23.03
43.52 43.52 43.43 43.33 42.38 34.02 31.90 31.78 32.35 30.69 30.44 31.68 30.48 30.48 31.92 32.89 32.29 30.87 30.99 31.16 30.71 30.82 27.85 25.58 27.78 31.31 30.68 35.13 33.32 34.38 35.73 36.67 34.93 32.72 33.07 34.66 31.99 30.29 30.12 30.48 30.65 31.42 31.02 30.68 29.63 30.34 26.71 25.48 25.29 25.75 25.28 24.46 23.24 23.23
41.17 40.78 42.16 41.51 36.38 34.11 32.52 31.99 28.93 29.38 29.74 30.03 30.82 32.79 30.71 28.06 28.65 26.77 28.68 31.45 29.53 28.34 28.37 31.30 33.01 35.55 37.32 38.90 39.03 33.09 33.73 32.79 32.77 33.58 35.39 36.57 35.14 31.62 32.13 31.14 31.53 31.03 29.80 29.15 28.74 28.68 30.64 27.94 30.46 26.80 25.24 26.00 25.18 25.51
37.77 41.46 36.29 37.37 32.31 32.68 31.51 33.70 30.37 30.75 29.06 28.76 30.29 31.66 29.36 28.62 29.03 29.74 30.19 28.37 28.96 31.79 33.61 34.81 35.80 36.15 35.86 35.88 37.38 37.27 35.45 35.45 33.79 34.39 36.86 36.61 34.19 31.26 30.02 32.23 30.41 30.11 30.05 30.65 30.25 29.66 29.63 29.96 29.98 26.42 25.08 25.27 27.42 23.98
40.11 38.51 32.86 32.04 29.25 29.48 26.87 32.97 29.07 27.66 26.74 24.89 30.24 28.14 27.43 24.99 28.56 32.44 27.49 29.89 31.99 35.30 35.95 35.72 35.93 36.43 36.20 37.57 37.39 36.18 36.43 35.24 34.18 34.69 35.14 35.35 35.60 35.00 34.58 33.89 31.80 32.22 32.27 32.37 31.58 31.20 31.10 32.98 30.69 27.89 25.24 25.47 24.18 22.69
39.73 32.32 29.83 28.87 28.90 25.82 27.61 27.17 30.45 27.48 26.97 26.64 26.04 22.92 22.86 24.50 27.68 28.42 26.83 26.55 31.49 34.48 34.32 34.12 34.97 34.35 35.12 34.74 34.38 35.47 36.56 37.06 36.03 35.58 35.95 35.18 34.57 34.84 33.92 32.90 34.30 34.24 33.46 34.98 35.69 33.04 32.06 30.60 30.46 28.79 23.41 23.99 22.64 22.01
28.64 27.44 28.38 25.56 28.98 25.61 22.89 19.90 21.47 22.60 22.62 22.56 23.93 23.65 20.17 23.70 23.55 23.13 21.49 24.19 31.69 32.95 33.66 34.43 34.11 34.13 33.05 34.06 35.35 35.97 37.08 36.46 35.47 34.74 36.64 36.67 35.37 35.12 34.65 34.75 33.86 33.39 32.77 31.78 30.37 31.05 30.31 27.17 26.80 26.62 23.28 23.26 22.24 21.83
23.18 24.86 24.89 25.66 25.70 20.95 19.85 15.97 15.82 16.01 15.93 19.55 23.48 21.88 21.91 21.90 20.50 20.52 22.20 30.44 32.60 33.62 33.34 32.33 32.75 32.57 32.89 34.26 33.91 34.69 35.94 35.63 36.05 34.66 35.99 36.88 35.56 33.57 33.05 32.80 32.22 31.88 28.81 30.86 30.95 29.08 26.63 25.41 25.21 24.86 22.99 23.61 25.74 21.78
21.44 19.43 25.82 27.87 24.91 21.59 19.50 17.61 18.68 17.46 16.67 18.32 18.44 18.52 20.17 19.44 19.69 23.10 23.95 25.34 30.22 33.12 33.19 34.85 33.98 33.59 33.80 34.62 35.28 35.43 34.01 35.04 35.01 35.50 33.36 33.44 35.35 35.24 34.28 32.85 32.25 32.32 28.54 28.35 28.58 28.39 26.65 24.36 24.20 23.97 23.14 22.43 23.63 21.58
25.16 24.02 22.91 24.52 18.43 17.53 16.74 14.95 15.10 14.22 16.08 18.47 20.27 17.65 17.93 21.11 23.16 26.67 26.71 27.92 28.70 26.70 26.55 29.67 32.41 33.88 34.33 34.76 34.59 32.04 30.92 28.70 24.84 25.64 27.54 27.23 25.45 27.67 27.94 29.73 27.42 30.49 27.95 26.71 27.26 27.25 26.20 24.90 24.16 23.20 21.62 20.65 21.16 19.75
22.09 26.78 24.76 18.94 12.27 13.45 16.35 15.83 16.53 20.13 22.36 20.85 20.30 19.36 19.07 22.30 24.71 23.95 26.44 24.56 21.52 23.50 25.04 27.55 28.42 24.63 23.82 24.80 24.85 27.00 26.12 26.06 27.87 26.64 26.12 29.71 30.68 30.10 24.41 24.66 26.17 27.29 24.70 26.49 27.72 25.33 24.18 23.87 23.27 21.93 20.31 19.95 19.22 18.35
22.27 23.36 16.65 11.73 17.46 18.19 22.28 20.70 17.34 16.72 20.40 23.07 23.01 21.76 21.21 22.37 23.07 21.35 21.22 21.06 23.26 27.37 30.80 31.49 30.83 26.22 28.99 28.81 29.87 25.46 22.02 25.96 29.63 31.39 30.31 30.08 30.70 29.40 23.06 22.93 24.11 23.46 24.04 25.40 23.99 24.43 27.15 25.05 23.98 19.15 16.43 15.82 15.92 15.79
20.47 19.88 11.90 14.68 19.09 21.72 15.76 12.48 16.13 22.10 20.75 20.19 14.85 19.70 26.38 23.70 23.35 21.68 23.70 26.46 29.75 30.59 23.78 27.76 29.60 27.62 28.74 27.49 27.76 28.95 27.98 25.45 24.64 27.60 31.70 28.86 26.48 23.51 21.86 23.30 23.65 23.16 23.65 23.03 22.74 24.11 22.94 17.65 15.76 14.46 14.60 14.40 15.26 15.43
21.59 20.10 19.70 15.11 16.48 5.75 4.91 13.36 14.22 16.41 14.09 14.54 18.07 14.03 13.21 13.68 16.92 30.55 25.12 23.77 26.12 27.09 30.22 30.68 30.43 32.39 32.92 30.95 32.21 32.42 34.12 30.21 27.52 26.31 27.92 27.69 25.53 23.54 22.14 21.90 22.46 22.57 22.30 22.15 22.59 20.83 15.78 14.53 13.71 13.83 12.90 13.79 13.38 12.45
19.00 10.68 5.59 7.92 12.75 15.17 12.09 9.73 11.32 8.91 9.19 7.88 10.97 15.71 21.74 24.15 24.23 30.33 23.04 27.97 32.89 32.29 32.69 33.99 33.98 33.17 32.91 30.34 30.65 31.34 32.74 30.65 29.53 29.50 29.70 29.70 27.27 23.93 21.89 21.87 21.86 21.81 21.52 21.07 18.78 15.70 13.72 12.65 12.31 12.14 13.04 11.79 11.45 11.90

GFSWCAN_sfc_wetblb_111.txt.gz
Wetbulb
54.53 54.46 54.49 54.51 54.43 54.44 54.40 54.14 53.66 53.24 52.74 51.09 48.92 48.75 49.03 49.35 48.95 46.62 45.27 44.84 43.63 41.97 42.92 41.78 43.11 41.25 41.18 41.40 38.11 41.33 40.29 39.68 39.67 35.95 35.55 36.04 33.73 35.80 32.64 35.80 33.84 33.47 31.66 29.56 30.81 28.20 25.14 40.60 38.55 34.07 39.69 41.56 41.04 41.75
54.29 54.50 54.50 54.22 54.04 54.02 54.10 54.17 53.81 53.13 52.69 52.17 50.30 48.74 48.55 49.20 49.02 46.08 44.69 43.17 43.65 40.85 42.30 42.78 44.12 45.01 44.52 44.43 42.73 42.52 40.91 40.29 42.27 38.97 39.07 38.38 34.95 36.41 34.63 30.68 38.33 31.42 36.57 34.98 35.37 34.79 41.68 41.85 41.87 43.28 42.90 41.11 41.49 41.32
53.54 53.92 54.17 53.93 53.81 53.83 53.85 53.70 53.72 53.53 52.82 52.51 51.61 49.80 48.76 48.89 48.46 46.58 45.09 43.32 42.15 39.63 41.04 40.07 40.50 44.06 42.68 42.39 45.71 39.80 42.39 43.39 42.17 43.81 41.76 39.66 34.98 38.57 33.04 34.40 35.79 38.60 40.16 34.50 35.72 38.93 40.29 41.78 42.72 42.90 42.68 41.47 42.19 42.29
52.33 52.92 52.90 53.03 53.21 53.40 53.39 53.09 52.97 53.26 53.37 52.89 52.53 51.19 49.46 48.52 48.50 47.36 45.24 43.87 42.61 39.93 35.37 39.21 41.05 39.43 41.59 41.38 41.68 43.51 42.63 41.98 42.79 42.67 39.99 38.06 35.43 40.50 35.67 37.68 36.71 39.40 38.53 35.65 35.87 39.10 40.85 41.90 43.02 43.78 43.73 43.07 41.60 41.95
50.87 51.43 52.03 52.35 52.50 52.68 52.83 52.47 52.27 52.53 52.86 53.00 52.50 51.85 49.99 48.44 48.54 47.98 46.57 43.91 43.07 39.26 35.53 36.76 40.24 38.19 38.64 39.58 39.15 40.12 40.48 40.59 40.18 38.26 37.70 35.80 39.66 38.33 38.51 37.89 34.69 39.78 37.78 35.25 34.31 40.91 40.87 41.63 42.52 41.87 40.91 40.71 41.94 41.03
50.66 51.19 51.46 51.62 51.86 52.02 52.18 51.81 51.50 51.69 51.88 52.06 51.88 51.48 49.93 48.24 47.55 44.96 39.49 42.37 42.69 41.74 36.36 34.09 38.32 35.38 37.12 37.73 37.83 37.90 38.74 39.10 39.62 37.88 36.88 38.98 40.20 38.30 34.52 33.04 39.87 41.91 42.67 42.78 40.08 43.22 42.27 43.09 41.87 42.81 40.92 41.24 41.49 39.17
49.60 50.18 50.71 50.99 51.29 51.17 50.98 50.69 50.57 50.73 51.46 51.73 51.90 51.23 49.52 48.50 46.45 40.93 38.48 41.78 41.68 40.84 35.84 33.58 35.71 34.71 36.26 36.59 36.59 36.04 37.08 37.59 37.06 36.65 35.29 36.43 36.54 36.52 34.81 31.57 39.64 42.20 42.76 42.88 43.79 42.89 40.25 41.48 39.40 41.21 41.37 40.04 39.39 38.21
48.47 49.66 49.55 50.00 50.03 50.10 50.16 50.40 50.53 50.59 50.88 51.04 51.50 51.24 48.63 48.23 46.53 42.92 45.57 43.58 41.93 37.95 35.29 31.55 34.39 32.38 36.14 33.39 33.06 36.46 34.68 35.53 36.15 35.62 34.49 32.47 34.70 34.58 31.16 36.08 39.17 40.88 40.81 41.04 41.18 41.87 40.80 41.23 38.78 38.10 38.82 37.96 35.67 35.18
48.40 48.83 48.62 49.24 49.10 49.37 49.43 49.45 49.59 49.72 49.79 50.10 50.67 48.31 45.21 42.91 40.47 42.13 43.90 44.02 40.79 37.42 33.41 31.80 31.79 33.45 34.55 33.96 34.80 33.50 35.13 29.73 35.55 31.07 31.89 33.65 31.58 28.01 32.88 35.53 37.53 39.68 38.49 38.10 39.39 39.71 39.51 37.56 37.20 37.29 36.40 34.90 33.69 34.75
48.01 48.08 48.17 48.42 48.45 48.52 48.49 48.50 48.91 49.05 49.20 48.45 44.65 40.17 36.10 39.64 43.74 42.41 38.89 36.10 34.37 35.63 34.29 30.98 36.41 32.42 34.33 32.73 32.37 33.14 32.88 30.94 27.94 31.21 33.19 29.45 29.10 34.60 36.59 38.00 39.21 39.84 39.74 39.49 33.43 32.91 34.39 34.18 34.30 35.07 34.82 35.66 35.61 35.74
47.50 47.55 47.66 47.91 47.80 47.85 48.18 48.00 48.43 48.63 46.82 43.23 39.33 36.75 38.05 43.46 39.47 37.61 33.62 31.85 32.57 30.53 33.68 33.10 34.96 33.44 35.26 32.26 32.60 34.37 32.31 31.93 25.37 30.14 27.87 28.01 28.46 33.39 37.36 37.93 39.14 40.11 40.31 39.27 39.17 38.64 37.07 36.31 34.09 34.20 34.73 34.54 34.09 34.35
46.96 47.02 47.07 47.35 47.34 47.41 47.26 47.47 47.75 46.60 44.90 42.43 40.04 39.69 38.48 34.95 32.53 31.11 30.55 31.48 29.63 28.86 34.54 32.25 32.32 34.10 34.12 35.90 33.60 32.01 30.29 28.68 25.08 30.82 25.88 24.09 32.30 35.95 36.55 37.00 36.56 37.67 40.17 38.38 38.32 36.63 35.55 34.22 34.75 33.90 33.86 33.66 33.56 33.07
46.49 46.50 46.63 46.91 46.54 46.50 46.80 47.19 47.38 46.58 44.20 41.77 36.91 33.50 32.96 33.15 27.29 27.17 25.73 27.31 28.08 32.65 32.93 31.43 29.98 33.20 32.22 33.15 33.14 30.91 26.98 24.87 29.97 25.62 24.39 29.52 36.82 36.85 36.81 35.10 34.60 35.41 37.16 36.60 35.00 34.40 34.44 34.69 34.09 33.47 33.06 33.27 33.73 32.19
46.19 46.24 46.28 46.35 46.35 46.14 46.40 46.68 46.54 45.11 43.49 35.15 31.94 28.49 29.64 29.73 28.92 32.21 31.92 33.55 34.55 33.65 31.77 32.85 31.59 31.62 33.02 30.10 31.42 26.77 30.04 27.92 24.01 22.14 25.06 35.34 37.92 37.51 37.21 36.21 34.57 33.60 33.77 33.89 31.63 32.23 32.24 32.25 32.29 32.61 32.75 33.27 31.62 30.22
45.65 45.63 45.63 45.49 45.72 45.72 46.12 46.38 46.26 45.28 40.24 33.07 31.83 28.17 30.14 34.40 35.19 34.73 35.81 32.32 31.51 34.89 32.77 31.26 30.87 30.80 29.74 29.10 28.39 28.15 23.84 22.17 24.82 27.04 34.74 38.76 37.17 34.42 34.38 34.58 35.09 34.67 33.48 32.38 32.90 30.98 30.00 30.74 31.22 31.49 31.67 31.50 30.67 29.96
45.09 44.67 43.60 44.95 45.16 45.32 45.66 45.37 44.29 42.87 36.15 33.61 31.81 30.72 33.23 31.86 33.91 30.78 31.59 33.10 33.93 33.94 34.34 33.40 30.37 27.83 27.90 28.50 25.29 23.91 24.39 23.49 30.43 31.94 35.57 37.31 35.67 35.40 34.88 34.60 34.37 35.13 35.29 33.84 32.85 31.74 31.36 30.45 30.13 30.66 30.61 29.60 28.83 28.30
44.14 40.44 43.42 44.25 44.73 44.90 45.30 42.16 40.09 34.19 32.37 31.45 30.75 35.25 34.45 34.98 34.84 37.02 34.65 34.95 35.76 32.73 31.11 31.83 26.56 26.01 27.51 24.68 23.63 28.29 25.93 32.15 35.61 35.42 36.55 37.41 35.82 35.60 35.73 34.04 33.59 33.11 33.34 33.49 32.45 31.83 31.16 31.15 30.18 28.21 27.68 28.51 27.52 26.90
40.93 43.23 43.65 44.00 44.11 43.04 41.10 39.11 34.50 32.08 29.32 31.78 30.57 33.15 35.63 36.12 34.81 35.65 37.53 35.25 33.57 32.87 33.94 31.34 33.22 27.04 26.09 25.12 27.73 32.66 33.36 34.89 34.56 34.22 35.36 35.89 36.08 35.45 33.82 33.94 33.07 32.69 32.12 31.85 31.45 31.39 30.20 28.54 27.49 28.17 28.73 29.04 26.97 26.08
42.51 43.30 43.73 44.09 42.85 38.60 32.94 32.74 33.16 29.32 30.83 32.30 32.79 33.85 34.41 35.51 37.71 38.30 38.17 36.74 36.13 37.11 34.98 30.88 29.96 28.66 29.94 33.52 33.29 34.56 35.90 37.68 36.25 37.52 35.12 36.55 36.47 35.52 35.31 33.29 32.21 31.81 31.95 32.07 31.65 31.25 31.24 30.19 30.14 29.26 28.42 27.25 26.52 26.63
43.95 43.62 43.57 43.29 42.32 34.18 31.32 31.47 33.61 30.91 27.70 30.49 33.85 32.66 33.04 32.85 34.97 35.84 36.30 35.34 33.43 32.35 30.36 29.52 30.03 32.85 34.12 36.79 37.95 37.65 38.48 39.86 39.17 36.91 36.66 38.87 39.91 36.55 33.82 33.82 33.96 33.33 32.52 32.42 32.06 33.13 30.96 29.30 28.71 28.49 27.90 27.74 26.80 27.05
41.75 41.77 42.62 42.00 37.00 34.51 32.01 31.97 30.17 30.33 33.29 30.72 33.65 33.55 31.95 34.33 32.84 32.92 32.55 34.35 30.85 29.45 29.64 33.29 34.38 36.77 38.62 39.39 40.14 39.94 39.42 39.63 38.56 37.68 36.67 36.38 38.91 39.29 35.73 33.97 33.60 33.74 32.58 32.24 31.53 31.63 32.87 30.55 31.56 29.10 27.96 29.26 29.05 29.10
39.37 41.71 38.80 38.58 32.36 31.88 31.03 33.27 31.80 33.87 30.13 30.97 31.34 32.98 30.89 30.56 31.66 32.06 33.51 29.88 29.53 31.58 33.64 34.24 35.84 37.04 36.94 37.11 38.12 38.89 39.27 39.05 38.93 38.87 39.33 38.42 35.07 35.39 36.01 36.68 35.13 33.74 33.56 32.92 32.84 32.81 32.85 32.50 31.79 30.80 29.41 29.56 31.09 27.85
39.94 38.62 33.73 32.72 30.64 30.17 29.19 33.67 28.35 29.64 25.15 27.49 30.62 28.45 28.83 29.60 31.90 33.37 28.07 30.23 32.33 35.26 35.97 35.96 36.24 37.02 36.62 37.97 38.07 38.16 38.54 37.96 37.31 37.41 37.58 37.33 37.33 37.43 36.92 36.73 36.87 35.06 34.06 34.93 34.95 33.92 34.18 37.12 36.07 32.29 29.79 30.16 28.01 27.55
39.29 32.37 30.59 29.35 28.54 26.07 29.96 26.62 29.61 28.12 28.09 25.89 25.18 23.19 25.75 28.26 31.68 29.41 27.42 30.44 33.70 35.95 35.63 35.02 35.93 35.39 36.11 35.86 35.55 36.26 37.17 38.06 37.34 37.41 37.99 37.16 36.16 36.57 37.50 37.34 37.89 36.87 35.48 35.16 35.06 34.92 32.83 32.48 34.33 32.72 30.10 28.18 26.66 26.02
28.91 27.47 28.84 25.98 29.68 25.44 23.92 24.60 25.40 25.52 22.38 24.81 23.97 24.22 26.46 27.23 25.40 25.72 25.78 29.59 32.42 33.69 35.09 35.91 35.53 35.16 34.02 35.02 36.16 36.84 38.17 37.59 36.18 35.34 37.25 37.64 37.12 37.09 36.38 36.49 37.02 37.33 35.95 34.09 32.90 32.63 33.45 34.07 32.79 31.66 29.12 26.87 25.79 24.96
23.60 26.91 25.71 26.01 25.63 24.27 23.84 21.04 22.03 22.43 23.98 23.44 25.12 28.31 26.71 24.44 22.69 23.03 27.46 31.76 33.20 34.37 35.23 35.41 34.76 34.48 34.57 35.62 34.90 35.44 36.54 37.82 37.33 35.45 36.57 37.42 36.85 35.81 34.62 34.23 34.12 35.03 33.71 33.69 33.41 32.67 32.31 31.40 29.40 28.79 28.57 27.32 29.32 26.17
22.54 23.89 27.55 30.45 28.70 26.78 24.77 24.57 24.90 25.16 20.61 20.66 24.75 21.24 21.83 19.38 20.98 26.81 32.52 32.82 33.70 35.56 36.56 36.96 36.92 35.76 35.24 35.88 36.75 36.87 37.00 37.24 35.98 36.47 36.09 35.37 36.29 37.55 36.54 34.76 33.82 35.00 32.65 32.04 31.79 31.30 30.93 29.85 27.90 28.02 27.62 26.28 26.10 27.07
27.27 27.01 21.96 25.03 24.55 26.02 22.85 23.21 20.04 19.47 22.22 24.54 23.86 19.45 18.98 21.52 25.20 32.15 32.58 34.75 34.06 34.13 33.18 33.39 34.70 35.62 35.50 35.65 36.20 35.32 34.54 34.84 33.04 31.19 31.83 31.98 31.62 31.90 33.24 34.58 34.96 32.93 32.46 31.45 31.16 30.60 30.17 29.99 28.16 27.02 26.14 25.31 24.58 25.79
26.04 28.22 27.75 20.99 23.72 21.23 22.73 22.33 24.32 25.41 26.60 24.48 24.99 24.68 24.63 28.81 33.44 33.77 34.05 32.77 31.50 30.13 30.32 31.69 33.79 32.12 31.76 32.15 32.01 32.09 32.62 32.70 30.38 28.87 29.03 30.30 32.21 33.63 31.65 30.72 30.88 30.66 30.20 29.86 30.84 28.62 28.19 27.77 27.03 26.36 25.60 24.36 23.65 22.26
24.20 28.63 25.19 22.73 18.85 20.47 25.41 25.33 26.32 30.00 27.50 28.45 29.11 27.32 27.68 29.07 31.35 32.72 31.93 30.94 29.14 30.41 32.46 33.20 34.22 32.61 32.75 32.64 32.39 32.74 30.00 31.08 31.50 31.98 31.62 31.79 33.27 33.40 29.83 27.23 27.52 28.38 27.97 28.27 26.30 26.22 28.43 26.91 25.89 22.48 19.77 18.94 19.06 18.48
27.37 26.72 24.06 24.00 22.97 26.15 28.90 25.56 21.90 23.61 23.79 24.76 25.95 25.51 28.68 31.69 32.99 32.95 31.45 32.62 32.75 33.13 32.66 32.42 32.78 32.76 31.23 30.90 31.74 31.43 30.89 30.85 29.38 31.20 33.42 34.57 32.16 30.31 27.13 26.49 27.34 26.69 26.86 25.73 25.05 25.56 25.14 21.74 19.81 18.20 17.35 16.91 17.25 17.38
22.85 22.28 22.57 19.79 22.86 24.31 15.18 18.88 22.29 21.32 22.64 19.70 24.14 20.82 23.12 23.36 24.96 30.80 34.56 31.04 30.89 30.47 32.92 33.29 31.98 32.54 34.22 34.85 34.93 33.65 34.97 34.15 29.97 29.11 29.40 31.21 31.67 29.54 25.99 25.31 25.52 25.89 25.28 24.80 25.12 24.00 20.54 18.81 17.29 17.12 16.12 15.99 15.29 14.16
23.58 21.88 19.41 21.14 18.07 18.52 17.91 17.46 18.56 18.51 17.37 18.97 20.49 25.11 26.79 25.70 23.85 30.59 32.51 34.01 33.83 33.31 33.33 34.04 34.66 34.63 34.16 33.53 33.09 33.39 34.14 33.17 33.44 32.97 31.97 32.21 31.92 27.98 24.91 24.84 25.21 25.13 24.46 23.93 21.96 19.68 17.75 16.20 15.30 14.75 14.85 12.98 12.25 13.23

GFSWCAN_sfc_wetblb_114.txt.gz
Wetbulb
54.78 54.68 54.54 54.54 54.45 54.35 54.23 54.27 54.27 54.02 53.40 52.64 50.76 49.28 48.99 49.53 49.49 46.21 43.69 43.54 41.22 38.76 39.64 41.04 41.28 38.39 38.46 37.83 33.79 37.77 37.03 37.11 36.00 31.78 30.52 30.17 28.23 30.05 27.04 29.97 29.37 27.84 25.20 24.92 27.27 23.81 21.21 36.79 35.00 30.02 33.69 34.55 36.96 37.57
54.23 54.33 54.34 54.42 54.29 54.06 54.00 53.88 53.68 53.62 53.52 53.02 52.11 50.01 48.87 49.15 49.23 48.12 42.77 42.56 42.11 38.54 39.00 42.07 42.22 41.73 40.64 39.84 38.62 39.23 37.33 37.27 38.15 33.84 33.67 32.47 29.85 30.57 29.17 24.48 31.97 26.44 32.70 29.05 30.47 29.45 36.95 38.14 37.06 38.96 38.34 36.82 36.48 36.20
52.98 53.46 53.69 53.89 53.62 53.68 53.74 53.66 53.53 52.88 53.13 53.31 52.93 51.76 49.64 48.46 48.63 46.69 43.72 42.28 41.25 38.15 38.64 38.41 38.63 42.03 42.38 41.32 42.61 36.68 38.33 40.38 39.24 38.94 36.43 34.79 31.02 33.02 28.18 29.26 31.96 33.63 35.83 30.56 31.60 33.71 36.65 39.11 39.35 39.27 39.22 38.32 38.71 37.80
51.45 51.81 52.14 52.42 52.63 52.80 52.97 53.18 52.92 52.57 52.70 53.28 53.57 52.83 51.12 48.88 48.40 47.68 43.56 42.68 40.78 38.22 32.67 35.90 40.25 37.36 39.68 40.15 40.27 41.01 39.60 40.47 40.26 39.53 36.44 34.56 31.44 35.85 31.69 33.74 33.31 34.46 34.49 32.60 33.15 36.11 37.64 39.27 40.22 40.56 39.92 39.10 38.18 38.35
50.09 50.44 50.87 51.48 51.84 52.18 52.31 52.51 52.47 51.93 52.03 52.27 52.51 52.74 51.76 49.45 48.40 47.58 45.92 44.70 42.62 37.61 32.93 33.90 38.41 36.15 37.39 37.83 37.72 38.40 38.27 37.42 36.06 34.07 33.28 32.39 34.73 34.98 35.49 34.98 33.20 37.08 35.65 33.11 32.48 37.09 36.69 35.88 36.75 37.77 37.16 37.08 38.32 37.75
49.67 49.98 50.48 50.92 51.28 51.57 51.65 51.56 51.61 51.06 50.74 50.98 51.51 51.86 51.66 49.49 48.07 44.26 37.69 41.50 42.69 40.30 34.44 32.28 35.42 33.12 34.76 35.46 35.99 36.14 36.72 36.48 36.30 34.81 33.84 35.10 36.55 33.73 29.84 28.74 35.12 37.38 39.51 40.33 38.25 39.85 38.04 37.36 37.24 37.41 37.19 37.87 38.15 37.61
48.98 49.16 49.40 50.30 50.48 50.71 50.47 50.17 50.23 50.66 50.80 50.85 51.07 51.44 51.44 49.29 45.89 40.62 38.94 40.87 42.84 40.52 35.10 31.21 32.00 32.63 33.84 33.39 34.32 34.07 35.02 34.56 34.10 35.27 34.07 32.64 33.53 33.32 30.50 28.95 36.91 37.80 38.84 39.56 40.51 38.26 36.96 37.05 35.86 37.21 36.96 37.27 38.05 35.17
48.42 48.07 48.70 49.19 49.64 49.45 49.42 49.56 49.68 49.84 50.27 50.63 50.53 50.83 51.08 49.09 46.51 42.35 44.50 43.75 41.68 37.35 34.67 30.41 30.23 30.06 33.92 30.95 30.17 34.52 33.21 33.96 34.13 32.69 33.64 31.88 32.48 32.64 29.32 34.01 36.61 37.51 38.23 38.66 39.74 38.17 38.26 36.57 35.39 34.50 35.03 35.05 33.57 32.74
48.28 47.43 48.47 48.10 48.65 48.45 48.40 48.46 48.52 48.75 49.04 49.58 50.00 48.14 45.76 42.87 39.87 40.83 44.82 44.16 40.32 36.86 32.27 31.21 29.48 29.13 31.83 31.26 31.43 30.67 33.62 28.24 33.20 31.07 30.78 31.11 28.67 26.91 30.94 33.02 34.35 35.84 35.33 35.65 34.68 35.65 35.92 35.33 34.39 34.21 33.97 33.54 31.36 30.37
47.91 47.60 47.94 47.63 48.10 48.19 47.93 47.68 47.86 48.62 48.75 47.71 45.29 40.61 36.69 39.46 44.05 42.31 38.15 35.16 33.98 34.54 32.89 29.82 32.26 27.96 30.78 29.39 28.90 28.80 31.12 28.32 26.63 29.17 30.23 29.32 27.31 32.79 34.55 35.44 36.06 36.30 36.52 35.92 28.68 29.05 29.61 29.80 31.84 32.54 32.29 32.31 32.50 32.13
47.34 47.36 47.57 47.43 47.55 47.71 47.55 47.38 47.65 48.41 47.32 43.34 39.95 37.32 38.71 43.21 39.05 36.65 33.08 31.26 31.74 29.83 32.06 30.39 29.33 30.78 32.71 30.30 30.80 32.53 30.12 28.46 23.89 27.38 26.63 26.42 25.89 30.28 34.20 33.98 34.82 35.17 35.64 36.75 35.72 34.53 34.18 33.02 31.25 31.15 31.03 31.71 31.57 31.48
47.06 47.13 47.15 47.13 47.09 47.07 46.79 46.92 47.15 45.56 43.35 42.07 40.17 40.11 38.92 35.36 32.78 30.73 29.91 31.12 29.84 28.54 30.63 30.59 30.59 30.33 31.37 32.15 30.58 29.83 26.17 28.36 22.92 27.95 25.17 21.74 26.54 31.43 32.89 33.22 32.93 32.80 33.01 33.87 35.60 34.56 33.90 33.23 32.11 30.91 30.33 28.79 29.62 28.52
46.51 46.53 46.67 46.72 46.17 46.08 46.34 46.75 46.89 45.97 44.42 42.19 37.56 32.67 32.27 32.63 26.54 26.33 24.61 25.96 27.10 29.04 29.04 27.46 25.31 29.62 28.75 29.65 29.90 29.01 24.41 24.51 25.84 23.14 20.77 23.61 29.57 33.16 33.27 31.66 31.09 31.18 32.29 33.16 32.20 32.87 33.00 31.78 31.79 31.23 30.13 30.90 31.65 31.04
46.19 46.19 46.28 46.26 46.24 46.21 46.14 46.40 46.14 44.77 41.01 35.12 32.09 28.84 27.60 26.62 28.63 28.21 27.13 27.18 29.89 30.14 29.51 29.27 26.96 28.42 30.08 28.89 29.75 26.06 28.50 26.03 18.78 17.86 19.04 26.34 32.46 33.93 32.97 31.63 31.06 31.03 30.31 30.47 28.04 27.93 29.17 30.32 30.26 30.75 30.62 30.63 30.18 29.52
45.90 45.97 46.00 45.68 45.67 45.53 45.79 46.09 45.79 43.54 37.43 31.69 31.66 25.23 27.48 29.57 29.47 28.40 29.74 27.52 27.27 31.47 31.46 28.05 28.49 27.63 25.83 27.53 28.92 28.42 24.27 20.74 21.09 19.57 27.40 32.76 33.82 33.25 33.29 32.27 31.75 31.87 31.84 30.00 28.20 27.66 28.91 27.88 28.92 29.60 29.95 29.75 29.69 28.93
45.37 44.99 43.34 45.25 45.37 45.46 45.58 45.17 42.13 40.30 35.45 32.99 31.29 28.86 31.46 30.08 28.91 26.43 25.05 26.18 29.35 30.27 28.90 28.15 29.76 26.60 26.73 26.68 25.62 18.22 19.99 17.45 21.83 26.98 31.50 33.63 32.05 32.98 32.93 32.89 33.02 32.65 32.17 31.80 30.91 30.82 29.27 28.11 28.45 28.99 29.05 29.16 28.45 28.16
44.40 39.95 43.53 44.70 44.94 45.03 44.90 39.72 35.66 33.22 32.09 31.41 29.36 31.57 30.53 27.18 26.94 28.41 29.90 29.97 33.42 29.34 24.38 29.23 25.48 23.11 27.11 22.88 20.81 25.28 21.74 25.47 29.48 33.58 29.57 30.93 31.70 34.84 36.23 32.72 32.26 31.33 32.18 32.24 32.08 31.05 29.62 27.32 26.36 25.88 27.09 28.10 27.30 27.59
39.94 41.50 43.83 44.27 44.14 42.01 39.61 36.84 32.89 30.76 28.76 29.39 27.01 28.88 30.53 31.30 30.09 31.07 31.84 31.92 30.41 28.50 29.32 26.55 27.09 23.69 21.56 16.51 23.83 27.67 27.95 31.71 32.49 33.30 35.34 36.27 32.52 33.69 33.12 32.48 32.46 32.18 31.26 32.65 32.30 32.03 28.29 25.33 25.72 27.88 28.48 27.22 25.71 24.86
40.92 41.89 43.57 43.98 42.29 37.06 32.47 32.22 32.62 26.71 26.61 27.02 29.70 30.32 29.38 30.33 31.79 33.59 33.00 33.74 33.34 33.69 32.64 30.59 28.10 25.03 25.85 29.54 29.83 31.54 32.55 33.31 33.66 35.22 36.48 37.37 33.74 31.76 31.65 30.90 30.94 30.50 29.31 30.15 30.01 30.02 29.85 29.34 29.51 29.23 28.80 27.55 27.29 26.84
43.92 43.62 43.62 43.70 42.68 33.06 30.04 30.29 32.96 27.32 19.66 26.06 27.52 29.20 29.78 29.38 30.53 29.76 31.18 31.39 29.72 27.54 28.64 26.95 27.08 29.47 30.02 32.15 32.35 33.64 34.38 35.37 34.94 33.78 34.57 36.66 37.93 36.34 32.17 31.14 32.20 32.45 30.07 27.40 28.94 32.16 27.35 26.60 28.17 29.52 28.57 28.36 26.79 27.03
41.74 41.28 42.75 42.05 37.88 33.92 31.83 31.18 29.02 29.52 25.10 23.93 25.80 27.25 25.69 25.40 28.20 28.89 29.44 32.37 29.49 29.11 27.93 29.89 30.62 32.87 34.45 35.42 36.29 35.88 35.77 35.76 35.06 35.58 35.40 34.91 37.44 37.48 36.76 36.44 35.53 30.85 30.68 31.67 28.60 28.88 32.34 30.06 32.15 30.94 29.38 29.84 29.63 30.25
38.91 42.38 38.69 38.79 32.27 31.34 29.96 32.04 29.25 29.32 28.01 26.09 23.57 25.42 22.49 25.33 26.57 28.25 31.22 29.79 29.47 30.47 31.71 31.82 32.59 33.27 33.39 33.55 34.94 35.90 36.81 36.62 36.60 36.83 38.22 37.69 35.24 35.29 35.31 35.89 34.69 33.65 33.08 32.80 32.76 33.38 33.39 32.74 31.89 31.46 29.66 29.64 31.38 29.85
40.55 39.18 32.73 31.84 29.81 29.58 27.85 32.37 27.87 28.82 24.68 22.44 21.34 18.77 18.70 24.17 27.27 27.63 26.45 26.39 29.29 32.86 33.78 33.61 33.81 34.29 33.61 34.90 35.19 35.25 35.73 35.43 35.08 35.28 35.68 35.87 36.18 36.16 35.38 35.24 35.38 33.89 33.67 34.19 33.72 34.18 33.73 35.30 33.99 31.98 29.86 30.27 30.08 30.49
37.93 31.44 29.26 28.29 27.56 24.14 28.81 25.85 23.93 20.50 19.56 16.94 14.48 13.42 15.86 21.59 22.36 24.30 21.66 25.98 30.13 32.78 32.33 31.93 32.64 32.49 33.35 33.30 32.94 33.94 35.25 35.72 35.03 35.29 35.55 34.33 33.87 34.59 35.58 35.65 36.05 35.80 34.98 34.75 33.83 34.17 32.77 31.20 33.67 31.54 30.80 31.73 31.43 29.74
27.84 26.75 28.47 25.23 28.15 25.72 24.00 19.77 15.69 17.60 14.13 16.08 15.29 15.50 15.57 19.33 14.71 16.32 20.15 25.45 28.55 29.39 30.53 31.91 32.71 33.02 31.93 32.47 33.88 34.78 36.41 35.93 34.43 33.58 34.77 35.41 34.37 34.10 33.64 34.04 34.80 35.53 33.02 31.92 30.98 29.87 30.80 28.78 29.05 31.02 30.79 31.71 30.08 28.81
22.73 25.96 25.00 23.15 20.43 19.05 19.11 14.31 15.43 16.13 17.84 13.80 16.45 16.66 16.65 20.24 19.88 19.70 22.94 25.25 27.74 29.62 31.33 32.12 32.19 32.25 32.98 34.66 34.13 34.71 35.73 35.80 31.85 30.88 34.61 35.63 34.89 34.20 33.34 32.63 32.53 33.75 33.97 34.87 34.40 32.28 31.16 30.36 30.01 31.16 31.74 31.43 32.87 29.04
21.41 20.77 23.28 28.08 25.40 23.68 19.73 20.33 21.02 16.90 14.33 15.03 13.95 16.49 17.59 15.72 16.09 22.57 23.80 27.12 30.60 33.08 34.34 33.92 33.89 34.54 34.44 35.30 36.42 35.83 35.97 31.54 32.48 33.81 30.18 30.95 33.34 34.21 34.46 33.38 33.04 35.49 32.49 32.88 32.60 32.28 31.76 31.20 30.58 30.13 29.55 29.06 28.30 29.22
23.08 21.22 17.90 20.81 18.28 19.77 18.05 15.75 11.92 12.11 14.81 19.30 19.17 12.18 13.82 16.13 20.58 27.15 27.41 31.33 31.54 30.63 30.20 32.93 33.67 34.39 34.62 35.55 36.01 32.82 31.13 27.78 23.72 21.75 26.41 30.82 32.48 33.51 33.87 34.55 34.88 35.46 35.48 32.38 32.44 31.41 29.58 29.08 29.41 28.78 27.88 27.13 25.50 26.27
21.63 23.60 23.32 15.58 17.46 15.20 18.04 17.02 18.33 20.86 23.63 20.88 20.66 21.12 22.56 27.43 30.10 30.28 32.05 32.33 23.52 20.37 21.30 27.93 31.71 33.12 31.45 29.87 29.76 31.28 31.27 24.75 23.75 24.62 24.01 26.76 30.17 32.34 33.21 32.91 32.53 30.06 28.99 28.50 33.68 29.88 28.67 27.95 26.78 26.02 25.52 24.71 23.74 22.14
19.70 25.65 20.36 16.41 14.15 15.76 19.97 21.73 20.50 26.89 27.75 28.08 28.46 27.73 27.43 28.84 31.54 33.55 27.21 28.43 28.85 30.18 32.26 32.99 32.99 25.81 30.75 31.60 31.77 31.53 29.01 29.12 29.51 29.39 27.66 28.58 30.89 31.54 28.86 27.42 26.67 27.55 27.11 26.80 26.32 25.61 30.26 25.58 26.28 21.93 20.41 19.92 19.10 17.67
23.08 24.31 20.54 21.80 21.41 24.48 26.45 27.48 20.75 24.16 18.82 16.40 20.27 24.89 26.04 28.58 31.19 32.76 32.39 33.05 32.90 32.50 32.05 31.70 32.09 32.68 31.80 31.49 30.91 30.07 30.03 29.33 28.51 29.29 30.69 31.75 31.38 28.83 27.46 25.52 25.04 25.68 27.17 25.74 25.08 25.00 24.70 20.64 19.33 18.06 17.51 16.21 16.32 16.34
20.65 21.98 21.32 19.25 21.03 23.74 11.18 11.19 15.19 17.95 23.36 16.08 22.57 18.79 12.51 14.06 22.11 27.60 28.58 28.19 30.60 29.79 31.88 32.25 30.71 31.06 32.85 32.97 33.01 33.25 34.99 33.38 30.26 27.72 26.61 28.64 29.62 30.26 25.72 24.46 24.61 25.34 25.97 25.08 24.61 24.26 20.99 19.65 17.98 17.08 15.85 15.74 15.41 14.30
12.81 14.00 17.07 21.02 21.17 10.91 10.31 10.82 7.84 9.78 7.89 18.83 21.82 23.69 23.91 23.43 21.76 27.17 23.46 31.11 32.46 32.09 31.89 32.45 32.99 33.11 32.12 30.28 31.54 32.67 34.55 33.10 33.58 35.32 34.70 32.97 32.58 30.66 25.46 24.04 25.34 25.70 25.23 24.93 23.60 21.35 19.28 17.14 15.75 14.63 14.82 14.28 13.38 12.23

GFSWCAN_sfc_wetblb_117.txt.gz
Wetbulb
55.12 54.96 54.66 54.46 54.42 54.30 54.23 53.91 53.71 53.65 53.70 53.40 52.32 50.22 49.39 49.68 49.60 44.33 41.13 40.87 38.87 34.51 36.80 39.84 39.43 37.17 36.77 35.19 31.32 34.92 34.22 36.41 34.16 29.93 28.82 28.19 25.76 28.54 26.21 27.77 27.26 26.48 24.11 24.83 26.84 24.43 20.45 34.65 34.00 30.29 33.81 33.35 35.81 34.78
54.51 54.59 54.43 54.17 54.26 54.23 53.88 53.65 53.51 53.16 52.81 53.19 53.12 51.69 49.66 48.92 49.27 47.62 39.99 41.30 40.50 35.89 35.15 40.40 40.75 40.87 41.02 39.94 36.88 36.13 35.39 36.47 36.62 32.47 31.50 30.92 28.52 28.81 28.23 25.30 29.25 26.43 30.80 28.33 29.21 28.89 34.62 36.21 36.06 37.79 35.98 35.46 35.48 35.04
52.71 53.11 53.47 53.48 53.71 53.28 53.41 53.33 53.20 53.07 52.31 52.57 53.32 53.33 51.50 49.25 48.64 46.02 41.23 40.34 39.13 35.07 34.67 36.01 36.43 38.98 41.00 40.19 41.31 35.11 35.82 38.28 37.64 38.72 35.69 33.67 30.03 31.19 27.66 28.78 30.04 33.45 33.76 30.53 30.97 34.19 36.11 38.43 38.58 38.17 37.80 37.17 37.72 37.80
51.46 51.58 51.91 52.05 52.25 52.37 52.47 52.64 52.82 52.57 52.24 52.42 52.76 53.15 52.93 50.51 48.91 47.47 40.63 40.29 38.37 35.76 29.21 32.92 38.41 35.42 37.42 38.47 38.44 38.88 38.04 38.92 38.67 37.10 33.92 32.29 30.28 34.02 29.85 31.94 30.95 34.48 32.80 31.11 32.49 36.41 37.09 38.30 38.34 38.97 39.07 37.93 37.54 37.20
49.60 49.95 50.26 50.74 51.24 51.37 51.64 51.79 52.03 52.24 51.62 51.34 51.56 51.95 52.30 51.40 49.30 46.89 42.86 42.55 40.98 35.40 30.59 31.92 36.37 34.74 35.51 35.92 35.75 36.46 36.86 35.98 34.29 32.28 27.97 30.74 32.52 32.92 32.41 31.61 31.78 35.65 34.47 31.86 31.49 37.98 36.70 37.88 36.25 36.80 36.36 36.58 37.02 35.91
49.38 49.27 49.22 49.68 50.22 50.69 51.04 51.20 51.23 50.99 50.34 50.20 50.31 51.10 51.46 51.33 48.84 43.44 35.41 39.50 41.19 38.68 31.79 30.13 35.41 32.45 34.31 34.65 34.48 34.24 35.17 34.46 34.10 32.22 30.37 32.54 35.15 32.87 27.24 26.15 32.72 35.35 37.19 39.36 37.10 39.62 37.63 37.19 36.91 37.02 36.86 36.76 37.20 36.70
48.57 48.48 48.65 48.63 49.84 49.84 49.89 49.72 49.67 49.86 50.17 50.38 50.61 50.48 50.68 50.65 45.56 41.28 38.85 39.67 42.57 40.03 34.96 31.57 29.73 31.86 33.13 33.08 33.33 32.88 33.49 32.88 32.46 31.62 31.02 30.12 31.68 32.55 29.69 26.83 34.40 34.50 35.32 35.86 36.95 36.12 35.78 36.63 36.86 36.82 36.40 37.09 38.62 36.00
48.61 48.39 47.65 48.74 48.73 49.09 48.84 48.92 48.75 48.71 48.92 49.88 50.01 50.24 50.44 50.31 46.33 43.13 44.18 44.45 41.72 37.13 34.64 29.57 29.66 29.04 31.26 29.57 29.04 33.18 32.69 33.77 32.71 32.24 33.29 31.81 31.98 32.32 28.44 32.84 34.13 34.48 34.70 35.18 36.73 36.86 37.54 36.62 35.33 34.90 35.04 34.62 33.45 33.03
48.36 48.21 47.31 48.31 47.80 48.31 48.20 48.06 48.04 48.10 48.56 49.61 49.11 48.05 45.13 42.89 40.21 40.37 45.13 43.33 39.98 37.11 31.80 30.45 27.73 29.74 30.39 29.08 29.29 29.85 32.71 28.30 31.45 30.90 30.98 31.00 29.51 27.14 30.66 30.81 31.90 33.47 32.83 34.88 35.77 34.92 34.25 33.25 33.57 33.55 33.22 32.69 31.85 31.55
47.83 47.99 47.36 47.79 47.48 47.96 47.87 47.35 47.46 48.02 48.34 48.24 43.84 40.47 35.60 39.22 44.22 43.16 38.14 35.06 34.23 34.33 32.99 29.04 27.89 27.28 28.65 27.46 28.79 27.91 30.25 28.19 25.50 29.36 29.72 29.27 28.27 32.71 34.37 35.12 35.38 35.39 35.46 34.82 30.33 31.17 29.90 29.55 31.35 32.30 32.41 32.47 31.97 31.32
47.24 47.58 47.39 47.56 47.24 47.21 47.54 46.91 47.23 48.62 47.21 40.31 37.76 36.62 38.08 43.25 37.41 36.13 32.74 31.43 31.77 29.08 31.07 30.94 29.90 30.19 33.17 30.06 30.10 32.18 26.66 27.45 22.92 25.21 25.86 26.45 25.42 28.30 32.14 32.58 34.10 34.02 33.29 32.49 32.60 33.30 33.45 33.29 31.42 31.22 31.38 30.59 30.48 30.72
46.68 47.14 47.21 47.23 47.21 46.78 46.89 46.71 46.92 43.53 40.85 41.11 40.29 39.50 38.93 35.29 32.83 30.92 29.99 30.56 28.64 25.48 28.18 29.14 29.63 30.11 30.27 32.33 30.62 29.94 25.72 27.93 22.42 28.99 25.55 21.43 24.97 28.65 30.04 31.72 32.89 30.88 30.41 30.97 32.35 32.08 32.57 32.72 32.42 31.64 30.29 28.38 28.34 29.05
46.50 46.71 46.75 46.57 46.37 45.81 46.11 46.53 46.73 45.87 43.36 40.73 34.47 33.39 32.55 31.26 26.64 25.92 18.42 23.76 25.17 27.95 28.24 27.68 25.82 29.53 28.62 29.95 29.54 29.05 25.80 24.70 24.08 23.59 22.02 22.98 27.23 30.78 31.22 30.92 30.50 30.09 30.78 31.29 31.45 32.48 33.31 33.36 33.68 31.93 31.12 30.98 31.53 31.30
46.41 46.31 46.29 46.29 46.09 45.88 45.99 46.25 46.06 44.30 38.42 31.68 30.87 25.75 27.22 23.38 27.35 26.16 24.78 25.09 28.52 28.53 28.20 28.29 25.67 27.15 28.52 26.86 26.90 23.81 27.15 26.13 21.48 17.45 17.36 22.54 27.80 31.12 32.62 31.35 29.76 31.52 31.04 31.47 28.38 28.75 30.87 31.36 31.20 31.33 31.38 31.54 31.20 30.73
45.68 45.80 46.06 45.75 46.11 45.85 45.99 46.04 45.62 40.85 34.49 31.19 30.90 24.13 26.07 27.24 21.62 24.02 23.45 23.83 25.44 29.68 30.80 27.97 28.77 27.91 25.11 23.43 27.78 23.48 21.80 15.89 16.27 17.18 22.05 24.76 30.60 30.08 30.85 33.01 33.81 35.70 33.27 31.79 31.10 29.18 30.19 29.90 29.49 29.91 30.21 30.03 30.36 30.14
45.12 44.72 42.95 45.21 45.68 45.68 45.47 44.58 40.47 38.34 34.55 32.12 29.67 25.63 29.35 28.92 26.33 25.25 17.34 20.16 25.73 28.06 26.05 27.11 27.89 26.34 26.11 25.73 23.55 20.15 16.03 14.12 19.44 21.71 24.57 26.61 30.33 30.94 33.27 32.94 32.83 34.47 32.56 30.86 30.83 31.29 30.62 29.86 29.63 28.80 28.48 29.33 29.77 29.05
44.03 38.42 43.61 44.69 45.10 45.48 45.05 37.71 32.67 31.48 31.86 31.07 28.76 31.19 23.45 19.52 21.08 24.21 27.99 27.40 30.20 29.96 27.67 28.46 24.95 21.89 24.01 24.50 22.08 19.96 17.17 23.86 26.02 28.04 29.36 30.35 29.40 33.75 34.62 32.51 31.87 32.60 32.96 32.84 29.54 30.65 29.12 27.68 24.08 23.52 26.63 30.84 28.49 27.67
38.09 39.00 43.77 44.02 44.20 42.48 39.65 36.42 31.41 29.59 25.44 28.65 21.84 26.76 27.02 27.72 25.49 26.43 28.15 29.32 29.25 27.58 27.38 25.23 22.91 22.53 22.32 16.04 22.40 23.90 24.86 25.25 27.81 29.45 32.86 34.13 34.36 34.99 34.92 34.43 33.90 34.46 33.26 32.63 32.00 30.27 23.02 24.65 25.72 28.35 29.74 30.15 25.21 25.06
39.29 39.46 43.24 43.92 42.56 37.26 31.88 32.09 31.59 24.57 23.68 20.24 25.40 24.60 25.48 26.50 27.82 30.36 30.27 30.94 31.98 29.72 30.47 30.37 27.25 24.76 23.93 27.54 28.02 29.64 30.92 31.21 30.96 32.63 33.99 34.98 35.00 34.95 35.03 34.86 34.52 31.79 31.14 31.51 31.79 32.13 32.22 28.93 29.95 30.95 29.67 25.20 26.83 28.48
42.70 42.87 43.01 43.32 42.49 32.56 29.48 30.15 32.03 27.54 16.82 23.49 21.92 25.78 24.80 25.98 28.44 26.32 27.80 29.02 27.82 24.23 25.09 24.93 24.96 27.35 28.05 30.53 31.85 30.60 29.03 31.14 31.91 30.48 30.96 33.23 35.34 35.17 34.66 34.17 34.09 34.35 32.96 31.55 29.85 32.87 30.24 26.12 27.49 28.70 28.76 28.70 27.18 28.02
40.09 39.45 41.95 41.11 37.26 35.46 31.30 29.84 28.66 26.26 18.30 19.96 23.32 25.96 21.10 17.78 22.52 27.02 27.68 28.21 22.10 24.62 24.73 27.85 28.63 30.81 32.45 33.35 34.07 33.59 33.07 33.00 32.08 32.25 31.98 32.28 35.23 35.56 35.55 36.07 35.98 36.13 34.94 34.61 33.57 33.79 34.99 31.23 32.43 32.49 28.82 29.97 30.54 30.51
36.11 40.81 33.42 37.68 32.93 31.55 29.97 31.91 29.15 27.74 22.76 19.62 16.80 19.02 11.07 16.34 23.24 24.77 20.27 20.68 21.40 26.87 28.74 29.33 30.26 31.20 31.47 31.62 32.87 33.60 33.97 33.73 33.84 34.11 36.28 35.96 33.49 33.73 34.15 34.74 34.34 33.82 34.17 34.38 34.22 33.15 32.87 33.92 32.06 30.79 30.03 30.25 31.45 29.23
39.35 37.54 33.23 33.17 28.95 28.95 26.54 31.82 27.13 27.09 20.97 18.73 11.45 16.19 14.22 12.49 18.54 22.43 18.06 22.45 27.40 30.81 31.55 31.57 32.06 32.70 32.05 33.37 33.78 33.86 34.20 33.29 32.55 32.99 33.60 33.94 34.28 34.57 34.30 34.46 34.87 33.84 33.36 34.01 33.79 33.38 33.29 35.45 34.57 33.80 30.71 29.86 28.73 27.74
39.49 32.53 29.44 27.36 27.87 25.42 28.92 26.12 28.07 25.77 17.15 17.62 14.20 9.89 6.64 14.19 14.27 15.14 16.22 24.54 27.96 30.22 29.91 30.25 31.24 30.65 31.43 31.39 31.13 32.14 33.30 33.82 33.31 33.42 34.00 33.14 32.55 33.41 34.81 34.82 35.39 35.38 35.20 34.84 33.67 32.97 33.07 32.52 33.71 30.74 29.67 28.92 27.68 28.08
26.09 25.83 28.04 24.19 27.57 24.43 22.40 21.78 22.02 17.12 10.78 12.28 10.69 4.91 10.67 11.62 11.06 4.97 15.90 23.09 25.36 26.74 28.22 29.55 29.37 29.54 28.59 29.37 30.77 31.70 33.52 33.60 32.74 32.66 34.66 35.58 34.77 34.12 33.30 33.94 34.23 35.03 35.06 34.25 33.34 33.07 32.18 29.57 29.32 29.41 30.61 30.87 31.10 31.32
22.47 26.12 23.91 23.59 23.91 22.18 19.90 14.26 15.29 12.77 10.70 5.73 7.83 10.94 7.64 12.29 7.94 12.33 15.96 22.99 25.87 27.18 28.34 29.19 29.40 29.55 30.03 31.05 30.78 31.91 33.87 35.78 35.27 33.88 34.81 35.80 34.59 32.74 32.38 32.00 32.10 33.46 34.07 34.23 33.86 32.59 31.75 31.19 31.79 31.56 31.29 31.77 34.30 33.20
21.03 22.38 24.50 29.14 25.62 23.08 19.82 19.24 18.25 13.38 8.74 9.44 8.91 9.17 14.03 15.45 13.25 16.91 23.70 24.89 27.56 28.74 31.17 32.09 31.36 30.64 31.41 32.76 34.52 35.54 35.99 36.25 35.85 36.18 36.64 34.85 32.50 33.34 33.79 32.89 32.28 34.60 32.41 32.37 32.81 33.11 32.26 31.81 33.09 32.44 31.38 31.09 30.14 29.67
19.43 18.40 19.99 22.31 20.43 18.17 14.81 10.42 7.65 9.86 13.00 16.31 15.77 8.21 11.78 13.42 18.23 25.51 24.93 25.03 24.26 25.31 27.01 30.78 31.74 31.59 32.67 34.06 35.28 35.43 34.90 35.23 33.75 22.29 23.32 27.77 30.07 32.46 33.25 33.64 34.11 35.09 35.00 34.85 33.19 31.38 33.03 32.19 30.35 29.70 29.46 28.88 27.95 27.13
24.23 20.05 18.38 10.90 8.73 11.42 16.07 15.43 14.83 17.93 21.49 18.38 19.56 20.03 21.26 26.45 29.19 28.88 29.76 30.82 30.31 19.91 27.29 29.38 31.35 32.51 31.10 29.93 31.66 32.32 32.49 31.87 29.87 27.30 25.76 27.46 29.48 31.13 29.00 30.14 31.48 31.96 30.61 29.62 33.65 34.45 30.40 26.16 26.69 27.08 26.73 25.08 23.14 22.00
19.72 23.11 17.46 11.35 14.05 14.36 18.69 19.27 15.21 23.57 26.04 26.64 27.15 26.41 26.18 27.55 30.01 31.37 30.04 28.44 20.79 26.19 29.45 30.47 31.24 30.72 30.53 30.69 30.52 31.07 31.51 29.45 30.37 28.92 28.24 28.12 29.26 29.49 24.49 25.87 26.64 25.97 25.00 24.94 25.15 23.28 31.83 26.78 26.32 19.57 17.55 17.35 17.99 19.04
19.70 19.97 12.70 15.02 16.55 22.86 25.10 26.41 19.82 24.45 19.41 21.22 24.20 23.34 24.13 26.68 29.55 30.30 29.29 30.30 30.47 30.16 28.74 29.11 30.27 31.46 30.64 30.38 30.22 29.69 29.46 31.53 27.92 28.61 30.01 31.51 31.64 30.99 30.04 26.49 25.47 24.79 24.80 23.86 23.13 22.40 24.36 19.55 19.50 16.10 17.16 17.08 17.21 16.91
19.97 19.10 19.31 13.44 19.84 23.88 14.11 15.61 17.79 21.90 23.27 21.93 21.89 24.34 24.54 15.25 21.17 26.52 30.91 30.50 29.03 28.05 30.47 30.65 29.07 29.72 32.05 32.54 32.48 32.34 34.44 32.94 32.57 28.55 23.05 27.63 28.82 29.59 29.79 23.99 23.09 23.76 23.61 22.26 22.45 22.86 22.96 20.98 19.05 18.35 17.28 14.90 13.70 14.49
13.65 14.92 19.73 20.19 9.99 9.90 9.73 11.84 7.15 6.78 5.18 19.08 21.89 23.14 23.50 22.70 20.66 26.03 24.18 28.61 30.39 29.60 29.50 30.80 31.70 32.03 31.82 31.15 31.47 32.03 33.80 31.64 31.40 34.59 35.09 35.23 33.91 32.45 23.26 22.63 23.20 23.20 22.02 21.45 22.47 21.95 21.87 20.33 18.45 17.58 17.10 15.37 13.73 14.09

GFSWCAN_sfc_wetblb_120.txt.gz
Wetbulb
55.11 55.22 55.00 54.70 54.45 54.45 54.31 54.04 53.65 53.33 53.07 53.24 52.93 51.62 50.56 50.10 49.88 44.17 40.77 40.42 37.38 33.59 35.11 38.28 38.50 36.18 36.38 34.95 31.13 33.50 33.58 34.81 33.77 29.89 28.76 28.14 27.03 28.33 25.60 26.20 26.12 25.90 24.72 24.54 26.29 24.08 20.02 34.64 33.35 30.05 33.63 33.10 34.17 34.62
54.84 55.08 54.92 54.50 54.26 54.27 54.26 53.73 53.40 53.21 52.68 52.40 53.00 52.84 51.27 49.79 49.53 46.38 38.69 41.61 40.44 35.19 35.87 39.22 39.95 39.99 39.03 39.08 36.00 35.21 33.37 34.69 35.64 30.19 30.75 30.85 29.03 27.97 27.09 25.00 28.75 26.08 30.28 27.63 29.02 28.41 34.59 34.79 35.08 36.98 35.27 34.32 34.74 34.10
53.74 53.80 53.70 53.66 53.63 53.91 53.50 53.35 53.09 52.82 52.30 52.04 52.42 53.12 53.15 50.82 49.05 45.41 39.33 39.28 38.15 34.34 34.57 34.80 36.27 38.40 40.04 39.54 40.45 34.41 33.98 36.64 36.23 36.47 33.73 32.24 29.52 29.96 26.74 26.16 26.94 30.82 32.90 29.82 29.60 33.23 35.60 37.10 37.46 36.90 36.69 37.43 37.14 36.53
52.12 52.63 52.57 52.43 52.29 52.27 52.18 52.23 52.41 52.63 52.35 52.14 52.04 52.27 52.38 52.60 49.97 47.59 42.46 39.90 37.43 34.62 28.69 33.36 37.96 34.90 37.03 38.01 38.02 38.18 37.18 37.66 37.51 35.61 32.76 30.69 29.61 33.10 28.46 30.11 28.39 31.92 30.93 29.34 30.92 35.55 36.26 37.20 37.15 38.20 37.21 37.01 36.02 36.35
50.29 50.24 50.20 50.22 50.59 50.99 51.18 51.42 51.56 51.84 51.86 51.11 50.74 50.86 51.54 51.87 50.98 47.70 44.75 42.70 41.49 34.47 29.66 31.52 34.86 34.29 35.21 35.51 35.49 36.08 36.68 35.50 33.76 31.77 28.44 29.98 31.13 31.56 30.81 30.07 30.61 33.55 32.08 29.11 29.84 35.62 34.48 36.31 36.04 35.82 35.59 35.85 36.84 35.43
49.10 49.40 49.51 49.60 49.66 50.10 50.37 50.83 50.93 50.89 50.05 49.93 50.04 50.14 50.98 51.07 49.88 43.88 37.81 39.37 40.56 38.45 30.00 30.42 34.92 31.15 33.11 33.27 34.22 33.94 34.62 33.73 33.24 31.43 29.22 31.20 33.32 32.19 26.81 25.49 32.16 33.29 34.16 36.29 35.63 37.03 35.75 37.38 35.70 35.61 36.49 38.26 36.84 35.58
48.79 48.51 48.51 48.16 48.94 49.42 49.69 49.52 49.34 49.34 49.41 49.65 50.19 50.39 50.06 50.52 46.10 41.97 39.92 40.27 43.09 40.32 35.36 32.21 30.03 31.90 32.90 32.36 31.95 31.84 32.61 31.48 31.43 30.37 30.86 29.37 30.71 32.14 30.26 27.33 32.80 33.07 33.54 35.05 36.17 33.99 34.53 35.60 34.76 36.83 35.37 35.68 36.85 35.78
48.37 48.29 48.08 47.47 48.67 48.70 48.45 48.33 48.04 47.88 47.95 48.88 49.61 49.58 49.61 50.60 46.84 43.47 43.98 44.80 42.32 37.55 35.22 31.33 28.99 29.22 32.24 29.89 29.32 31.41 31.57 33.39 32.94 32.65 32.62 31.13 31.42 32.06 28.48 31.44 33.19 34.10 33.74 34.25 34.58 34.91 34.59 35.54 34.91 35.19 33.88 33.55 33.28 33.20
48.12 48.22 47.73 47.55 47.65 47.76 47.76 47.55 47.41 47.60 47.88 48.72 48.81 47.66 45.02 42.94 40.60 40.61 44.86 43.35 40.41 37.45 32.66 30.11 23.10 25.95 30.72 28.91 29.70 30.18 32.40 28.48 31.50 30.81 30.74 31.86 30.24 26.36 29.64 30.58 31.51 33.44 31.90 33.00 34.08 33.71 33.14 31.44 32.40 32.93 32.12 32.19 31.39 31.57
47.49 47.68 47.62 47.03 47.51 47.21 47.55 47.03 47.06 47.37 47.75 48.32 42.38 39.59 34.22 39.38 44.51 42.93 38.25 35.20 34.67 34.74 33.07 29.45 29.18 27.18 29.03 27.43 28.16 27.20 29.10 27.73 25.00 28.49 31.49 28.89 27.58 32.48 33.93 34.61 34.60 34.63 34.33 32.58 26.22 28.42 30.70 30.66 30.42 30.76 31.26 31.77 31.69 31.39
46.69 47.06 47.49 47.24 47.26 46.95 47.04 46.89 46.76 48.08 47.16 41.64 37.96 36.00 38.43 43.44 38.49 36.39 32.71 31.49 31.77 29.03 31.90 31.33 30.74 30.24 32.75 30.41 30.30 32.24 25.80 28.81 22.77 26.25 26.12 26.36 23.90 27.47 30.75 31.20 32.65 32.52 31.53 30.14 30.20 30.41 30.28 30.21 29.18 29.93 30.57 30.71 30.16 29.37
46.48 46.81 47.22 47.26 47.08 46.69 46.24 46.77 46.68 42.20 40.12 40.04 39.32 39.84 39.08 35.52 32.91 31.03 29.88 30.61 28.70 25.11 27.69 27.61 28.55 30.10 30.52 32.09 29.71 31.75 26.63 27.72 22.10 28.58 25.54 21.26 26.03 29.45 30.23 31.14 31.69 30.14 29.51 31.06 30.70 31.10 31.60 32.00 31.91 30.74 30.43 30.03 28.77 27.72
46.36 46.53 46.48 46.27 46.27 46.19 45.86 46.35 46.58 45.36 43.11 40.46 35.56 32.00 32.22 29.72 25.98 25.33 20.31 22.35 21.84 24.77 25.48 25.14 23.14 28.25 28.18 29.99 28.80 28.47 24.20 23.88 26.46 23.87 21.97 23.91 27.66 30.15 30.25 30.43 30.92 32.67 32.67 31.49 31.70 32.15 31.61 31.15 31.91 31.95 32.55 33.47 32.63 31.78
45.95 46.15 46.22 46.09 46.09 46.04 45.86 45.93 45.99 43.95 37.51 28.45 26.31 18.04 25.55 18.52 25.50 24.37 21.58 21.22 26.03 24.96 24.83 25.45 22.75 24.60 26.72 25.25 27.05 23.09 24.99 26.04 17.37 13.98 16.66 23.95 26.64 29.51 31.11 31.96 31.43 31.41 30.82 31.15 30.97 31.21 30.70 31.42 31.75 31.99 30.94 31.54 30.69 31.18
45.41 45.67 45.64 45.32 45.78 46.00 46.06 46.02 45.71 40.28 35.52 29.71 28.38 21.94 19.84 25.15 18.73 23.17 22.42 22.35 23.72 27.79 27.92 24.79 26.41 28.28 27.12 25.52 27.08 26.17 24.00 21.52 18.43 16.77 22.23 24.32 28.49 30.51 30.87 30.70 30.15 29.72 30.72 32.33 32.11 32.01 32.71 31.55 30.62 31.39 30.86 30.65 30.48 30.88
44.65 44.54 42.46 44.89 45.32 45.64 45.71 44.39 40.79 37.94 33.15 31.46 29.75 24.85 28.18 26.82 26.86 25.56 22.32 28.18 27.33 29.15 29.91 29.12 25.52 26.26 25.73 26.12 23.79 21.62 19.56 14.53 19.04 20.98 23.68 23.51 27.83 29.49 30.94 32.10 31.41 31.91 33.09 33.22 32.85 32.61 32.51 31.36 31.04 32.27 29.17 28.34 28.87 29.44
43.45 37.79 43.38 44.77 45.05 45.01 44.64 39.12 34.75 32.66 31.44 30.39 28.08 30.96 22.45 18.07 19.90 22.85 27.04 26.15 29.69 30.59 26.78 24.86 24.00 19.90 19.51 22.63 22.62 23.06 16.57 20.90 24.15 27.00 26.62 26.25 27.80 31.56 33.37 33.10 32.68 33.22 33.56 33.74 32.91 33.34 33.28 32.80 28.70 23.26 25.80 31.07 28.23 27.68
36.87 38.03 43.63 44.16 43.86 42.06 40.12 37.48 32.39 29.05 26.06 27.62 26.56 25.76 28.60 26.88 24.03 25.50 27.06 27.61 27.67 26.02 24.50 20.46 22.09 18.19 17.38 15.38 20.86 23.31 25.88 29.68 30.51 30.09 31.36 31.91 32.13 33.14 31.52 31.49 32.38 32.65 32.41 32.61 32.92 33.25 32.55 30.34 28.62 30.05 30.33 29.91 27.53 25.96
38.11 38.22 42.15 43.53 42.03 37.09 31.67 31.77 31.38 25.46 22.40 19.21 24.03 22.34 24.83 25.66 27.69 30.80 28.14 29.03 30.01 26.38 25.29 25.96 18.85 15.84 22.35 26.51 26.51 27.88 27.24 27.28 28.89 30.58 32.10 32.99 33.27 33.04 32.68 32.14 31.96 31.95 32.30 31.81 31.64 32.04 33.06 33.08 32.90 32.60 32.47 30.46 27.90 30.37
42.56 42.38 42.32 42.60 41.80 33.74 29.55 30.48 31.55 27.60 21.74 21.90 19.80 23.92 25.03 25.40 28.10 25.53 27.08 27.03 28.05 24.63 23.95 22.81 24.18 26.59 26.99 29.09 30.19 29.73 30.16 30.78 30.03 28.38 29.23 31.58 33.11 32.31 31.75 31.77 32.45 32.96 32.88 33.47 34.06 36.44 33.87 32.23 31.23 29.69 29.44 29.68 28.07 28.44
39.71 38.48 41.07 39.96 34.20 34.28 31.05 30.01 28.41 28.49 20.33 18.54 23.43 25.56 18.18 15.58 22.91 23.94 23.41 25.29 17.91 16.08 16.75 25.94 27.31 29.54 31.15 31.79 32.51 32.05 31.50 31.44 30.18 30.26 29.66 29.36 32.39 32.82 32.77 33.39 33.67 33.60 32.71 32.84 32.56 33.14 34.66 33.05 34.14 33.82 31.77 30.94 30.68 29.80
35.02 40.37 32.20 35.10 30.03 31.71 30.32 32.22 29.15 29.36 25.48 24.82 17.01 14.99 6.94 11.76 22.16 21.96 17.30 15.99 14.65 24.98 26.84 28.21 28.85 29.56 29.66 29.54 30.73 31.48 32.00 31.90 31.94 32.09 34.36 33.81 31.02 31.26 31.77 32.80 32.56 31.90 32.39 32.81 32.85 32.64 33.51 34.45 34.32 33.65 31.65 30.86 32.62 30.80
38.89 37.07 32.51 31.75 27.49 25.48 21.36 31.54 27.05 26.20 23.46 21.87 18.25 12.29 10.84 9.51 13.73 19.93 15.71 17.49 21.77 29.12 29.75 28.78 29.84 30.49 29.79 31.11 31.37 31.39 31.96 31.33 30.72 31.30 32.03 32.54 33.07 33.20 32.97 32.97 33.14 32.10 31.88 32.95 35.11 34.36 33.93 35.83 34.87 34.35 33.51 32.69 30.50 29.87
39.14 31.24 28.45 27.54 26.76 22.76 27.03 24.81 25.32 23.85 24.57 21.77 20.12 19.90 12.89 10.68 12.96 15.73 15.99 23.91 28.05 29.52 27.56 28.43 29.10 28.38 29.37 29.02 28.63 29.78 31.18 32.54 31.90 31.81 32.32 31.62 30.86 31.60 33.06 33.30 34.04 34.75 34.94 34.52 34.21 34.20 34.02 33.51 34.66 32.97 31.16 30.62 32.21 31.85
27.65 26.44 27.72 23.84 26.50 24.11 22.02 19.22 18.76 15.09 15.63 15.38 19.96 13.11 12.83 13.40 18.01 14.34 11.09 16.53 20.25 25.78 27.29 27.92 28.03 27.77 26.54 27.63 28.81 29.79 32.08 31.75 30.49 30.19 31.93 33.39 33.45 32.98 32.76 34.20 34.88 35.34 35.11 33.75 33.08 32.87 32.92 32.93 32.16 30.76 30.98 31.58 31.64 32.30
22.43 24.47 23.09 19.29 18.29 18.88 19.56 16.46 16.27 17.06 10.38 2.72 12.22 16.26 9.89 16.62 11.03 10.28 12.68 23.35 26.38 27.31 27.03 27.07 26.93 26.37 26.51 27.76 27.43 28.33 30.17 32.60 32.77 31.96 33.49 34.47 34.20 33.52 32.82 31.86 31.59 32.97 35.55 34.42 33.38 32.66 32.46 32.34 31.96 31.68 32.29 33.03 35.02 33.61
21.46 20.28 23.05 28.19 25.90 24.67 20.72 18.93 19.22 17.35 14.16 16.57 13.57 11.01 15.61 15.09 14.82 14.78 19.94 24.10 27.00 26.98 27.24 28.64 28.07 27.19 27.43 28.62 29.62 30.73 31.53 32.70 33.09 34.11 35.87 35.92 35.88 36.01 34.11 32.11 31.66 33.85 35.83 31.41 31.79 31.44 31.22 31.70 31.79 31.86 32.21 33.19 32.54 31.36
20.33 17.45 19.98 19.75 20.95 20.36 20.56 18.75 18.70 17.40 20.02 21.09 18.67 15.16 14.81 15.19 15.91 21.31 20.34 19.40 25.37 28.35 27.68 25.75 26.39 28.77 29.25 29.79 30.65 30.87 31.52 32.78 33.36 34.10 31.09 29.66 29.81 31.97 32.97 33.24 33.17 34.12 33.81 33.15 32.25 31.31 30.97 30.87 31.05 31.03 28.91 30.04 30.77 26.94
19.23 22.11 18.79 16.22 14.93 16.46 18.50 16.20 15.59 18.48 21.53 18.57 17.93 19.69 17.71 20.06 27.61 20.13 26.40 22.94 16.31 15.66 17.08 23.02 26.92 27.64 26.36 27.88 28.95 29.74 29.96 30.29 27.52 26.10 25.74 26.22 28.35 30.90 29.89 28.02 29.46 30.33 29.76 26.91 32.15 33.48 30.40 28.85 27.82 27.24 28.64 27.09 21.63 19.33
21.22 20.55 14.33 9.91 14.23 15.42 20.08 20.00 18.32 25.91 25.53 25.33 26.44 25.40 24.08 24.67 27.24 23.88 19.48 17.58 17.07 21.03 26.06 28.38 29.14 28.74 28.10 28.01 28.18 29.35 31.06 29.98 28.82 28.56 26.74 26.73 28.71 32.12 28.70 27.45 24.98 25.86 19.75 20.02 22.70 21.77 31.74 23.62 24.29 18.64 19.87 20.06 18.80 19.09
17.74 17.75 10.43 11.95 15.86 22.77 24.63 22.41 16.23 22.99 15.52 14.81 18.10 20.01 22.89 25.30 27.87 26.27 26.68 28.77 28.73 28.24 27.25 27.09 28.04 29.14 28.39 28.30 28.06 27.30 27.48 31.11 30.05 29.62 30.01 30.96 31.57 31.94 32.13 32.14 31.37 21.56 16.83 17.93 19.31 20.30 19.79 17.27 19.43 16.03 16.61 17.69 19.57 17.86
16.36 17.70 15.94 8.79 16.95 24.22 10.84 9.62 8.66 12.48 13.85 15.59 21.40 23.25 22.91 16.21 20.34 24.86 29.86 29.20 27.22 26.49 29.06 29.21 27.64 28.26 30.62 31.05 30.97 30.87 33.02 31.51 31.58 31.12 23.77 27.57 29.81 30.26 29.91 29.42 25.21 18.89 18.88 20.00 20.32 19.54 15.84 20.78 21.30 18.19 17.76 18.08 17.64 16.15
6.34 4.61 6.05 11.72 10.50 9.97 7.52 15.84 10.82 11.22 5.71 14.05 20.65 22.15 22.33 21.51 19.53 25.32 24.56 26.72 29.36 28.12 28.07 29.03 29.99 30.48 30.39 29.49 30.08 30.85 32.89 31.11 30.47 33.88 34.53 34.77 35.04 32.54 26.91 25.74 22.96 20.30 19.14 19.99 18.97 18.79 17.62 20.68 19.72 19.11 19.11 18.04 16.45 15.45